<?xml version="1.0" encoding="UTF-8" standalone="no" ?>
<gpx xmlns="http://www.topografix.com/GPX/1/1" xmlns:xsi="http://www.w3.org/2001/XMLSchema-instance" xsi:schemaLocation="http://www.topografix.com/GPX/1/1 http://www.topografix.com/GPX/1/1/gpx.xsd" version="1.1" creator="VisuGPX - https://www.visugpx.com">
  <metadata>
    <name>2017-06-03 Bike ride-Amberieux-Rance O 35km</name>
    <desc><![CDATA[2017-06-03 Bike ride-Amberieux-Rance O 35km]]></desc>
  </metadata>
  <wpt lat="45.92453" lon="4.73721">
    <ele>174</ele>
    <name><![CDATA[2017-06-03 10:10 (Start)]]></name>
  </wpt>
  <wpt lat="45.92465" lon="4.73712">
    <ele>174</ele>
    <name><![CDATA[2017-06-03 10:10 (End)]]></name>
    <desc><![CDATA[Created by Google My Tracks on Android  Name: 2017-06-03 10:10 Activity type: biking Description: - Total distance: 35.20 km (21.9 mi) Total time: 1:51:24 Moving time: 1:49:36 Average speed: 18.96 km/h (11.8 mi/h) Average moving speed: 19.27 km/h (12.0 mi/h) Max speed: 49.61 km/h (30.8 mi/h) Average pace: 3:10 min/km (5:06 min/mi) Average moving pace: 3:07 min/km (5:01 min/mi) Fastest pace: 1:13 min/km (1:57 min/mi) Max elevation: 291 m (955 ft) Min elevation: 165 m (541 ft) Elevation gain: 495 m (1623 ft) Max grade: 14 % Min grade: -96 % Recorded: 03/06/2017 10:10]]></desc>
  </wpt>
  <trk>
    <name><![CDATA[2017-06-03 10:10]]></name>
    <trkseg>
      <trkpt lat="45.92453" lon="4.73721">
        <ele>174</ele>
        <time>2017-06-03T08:10:17.436Z</time>
      </trkpt>
      <trkpt lat="45.92455" lon="4.73719">
        <ele>174</ele>
        <time>2017-06-03T08:11:03Z</time>
      </trkpt>
      <trkpt lat="45.92453" lon="4.7372">
        <ele>174</ele>
        <time>2017-06-03T08:11:19Z</time>
      </trkpt>
      <trkpt lat="45.92457" lon="4.73715">
        <ele>174</ele>
        <time>2017-06-03T08:11:20Z</time>
      </trkpt>
      <trkpt lat="45.92464" lon="4.73708">
        <ele>174</ele>
        <time>2017-06-03T08:11:26Z</time>
      </trkpt>
      <trkpt lat="45.92464" lon="4.73705">
        <ele>174</ele>
        <time>2017-06-03T08:11:27Z</time>
      </trkpt>
      <trkpt lat="45.92465" lon="4.73694">
        <ele>174</ele>
        <time>2017-06-03T08:11:30Z</time>
      </trkpt>
      <trkpt lat="45.92465" lon="4.7369">
        <ele>174</ele>
        <time>2017-06-03T08:11:31Z</time>
      </trkpt>
      <trkpt lat="45.92467" lon="4.73677">
        <ele>174</ele>
        <time>2017-06-03T08:11:34Z</time>
      </trkpt>
      <trkpt lat="45.92467" lon="4.73672">
        <ele>174</ele>
        <time>2017-06-03T08:11:35Z</time>
      </trkpt>
      <trkpt lat="45.92468" lon="4.73663">
        <ele>174</ele>
        <time>2017-06-03T08:11:37Z</time>
      </trkpt>
      <trkpt lat="45.92468" lon="4.73658">
        <ele>174</ele>
        <time>2017-06-03T08:11:38Z</time>
      </trkpt>
      <trkpt lat="45.92471" lon="4.7365">
        <ele>174</ele>
        <time>2017-06-03T08:11:40Z</time>
      </trkpt>
      <trkpt lat="45.92474" lon="4.73647">
        <ele>174</ele>
        <time>2017-06-03T08:11:41Z</time>
      </trkpt>
      <trkpt lat="45.9248" lon="4.73646">
        <ele>174</ele>
        <time>2017-06-03T08:11:43Z</time>
      </trkpt>
      <trkpt lat="45.92483" lon="4.73646">
        <ele>174</ele>
        <time>2017-06-03T08:11:44Z</time>
      </trkpt>
      <trkpt lat="45.92491" lon="4.73647">
        <ele>174</ele>
        <time>2017-06-03T08:11:46Z</time>
      </trkpt>
      <trkpt lat="45.92495" lon="4.73647">
        <ele>174</ele>
        <time>2017-06-03T08:11:47Z</time>
      </trkpt>
      <trkpt lat="45.92503" lon="4.73647">
        <ele>174</ele>
        <time>2017-06-03T08:11:49Z</time>
      </trkpt>
      <trkpt lat="45.92508" lon="4.73646">
        <ele>174</ele>
        <time>2017-06-03T08:11:50Z</time>
      </trkpt>
      <trkpt lat="45.92516" lon="4.73646">
        <ele>174</ele>
        <time>2017-06-03T08:11:52Z</time>
      </trkpt>
      <trkpt lat="45.9252" lon="4.73645">
        <ele>173</ele>
        <time>2017-06-03T08:11:53Z</time>
      </trkpt>
      <trkpt lat="45.92525" lon="4.73644">
        <ele>173</ele>
        <time>2017-06-03T08:11:54Z</time>
      </trkpt>
      <trkpt lat="45.9253" lon="4.73643">
        <ele>173</ele>
        <time>2017-06-03T08:11:55Z</time>
      </trkpt>
      <trkpt lat="45.92535" lon="4.73642">
        <ele>173</ele>
        <time>2017-06-03T08:11:56Z</time>
      </trkpt>
      <trkpt lat="45.9254" lon="4.73641">
        <ele>173</ele>
        <time>2017-06-03T08:11:57Z</time>
      </trkpt>
      <trkpt lat="45.92545" lon="4.7364">
        <ele>173</ele>
        <time>2017-06-03T08:11:58Z</time>
      </trkpt>
      <trkpt lat="45.9255" lon="4.73639">
        <ele>173</ele>
        <time>2017-06-03T08:11:59Z</time>
      </trkpt>
      <trkpt lat="45.92554" lon="4.73637">
        <ele>173</ele>
        <time>2017-06-03T08:12:00Z</time>
      </trkpt>
      <trkpt lat="45.92559" lon="4.73636">
        <ele>173</ele>
        <time>2017-06-03T08:12:01Z</time>
      </trkpt>
      <trkpt lat="45.92564" lon="4.73635">
        <ele>173</ele>
        <time>2017-06-03T08:12:02Z</time>
      </trkpt>
      <trkpt lat="45.92568" lon="4.73633">
        <ele>173</ele>
        <time>2017-06-03T08:12:03Z</time>
      </trkpt>
      <trkpt lat="45.92572" lon="4.73632">
        <ele>173</ele>
        <time>2017-06-03T08:12:04Z</time>
      </trkpt>
      <trkpt lat="45.92577" lon="4.73631">
        <ele>173</ele>
        <time>2017-06-03T08:12:05Z</time>
      </trkpt>
      <trkpt lat="45.92583" lon="4.7363">
        <ele>173</ele>
        <time>2017-06-03T08:12:06Z</time>
      </trkpt>
      <trkpt lat="45.92587" lon="4.73628">
        <ele>172</ele>
        <time>2017-06-03T08:12:07Z</time>
      </trkpt>
      <trkpt lat="45.92592" lon="4.73627">
        <ele>172</ele>
        <time>2017-06-03T08:12:08Z</time>
      </trkpt>
      <trkpt lat="45.92597" lon="4.73626">
        <ele>173</ele>
        <time>2017-06-03T08:12:09Z</time>
      </trkpt>
      <trkpt lat="45.92604" lon="4.73624">
        <ele>173</ele>
        <time>2017-06-03T08:12:11Z</time>
      </trkpt>
      <trkpt lat="45.92608" lon="4.73629">
        <ele>173</ele>
        <time>2017-06-03T08:12:12Z</time>
      </trkpt>
      <trkpt lat="45.92613" lon="4.73638">
        <ele>173</ele>
        <time>2017-06-03T08:12:14Z</time>
      </trkpt>
      <trkpt lat="45.92616" lon="4.73644">
        <ele>173</ele>
        <time>2017-06-03T08:12:15Z</time>
      </trkpt>
      <trkpt lat="45.92619" lon="4.73649">
        <ele>173</ele>
        <time>2017-06-03T08:12:16Z</time>
      </trkpt>
      <trkpt lat="45.92622" lon="4.73656">
        <ele>173</ele>
        <time>2017-06-03T08:12:17Z</time>
      </trkpt>
      <trkpt lat="45.92624" lon="4.73661">
        <ele>173</ele>
        <time>2017-06-03T08:12:18Z</time>
      </trkpt>
      <trkpt lat="45.92627" lon="4.73667">
        <ele>173</ele>
        <time>2017-06-03T08:12:19Z</time>
      </trkpt>
      <trkpt lat="45.92631" lon="4.73672">
        <ele>173</ele>
        <time>2017-06-03T08:12:20Z</time>
      </trkpt>
      <trkpt lat="45.92634" lon="4.73678">
        <ele>173</ele>
        <time>2017-06-03T08:12:21Z</time>
      </trkpt>
      <trkpt lat="45.92639" lon="4.73683">
        <ele>173</ele>
        <time>2017-06-03T08:12:22Z</time>
      </trkpt>
      <trkpt lat="45.92643" lon="4.73688">
        <ele>173</ele>
        <time>2017-06-03T08:12:23Z</time>
      </trkpt>
      <trkpt lat="45.92647" lon="4.73692">
        <ele>173</ele>
        <time>2017-06-03T08:12:24Z</time>
      </trkpt>
      <trkpt lat="45.92653" lon="4.73696">
        <ele>173</ele>
        <time>2017-06-03T08:12:25Z</time>
      </trkpt>
      <trkpt lat="45.92658" lon="4.737">
        <ele>173</ele>
        <time>2017-06-03T08:12:26Z</time>
      </trkpt>
      <trkpt lat="45.92663" lon="4.73703">
        <ele>173</ele>
        <time>2017-06-03T08:12:27Z</time>
      </trkpt>
      <trkpt lat="45.92668" lon="4.73705">
        <ele>174</ele>
        <time>2017-06-03T08:12:28Z</time>
      </trkpt>
      <trkpt lat="45.92673" lon="4.73707">
        <ele>174</ele>
        <time>2017-06-03T08:12:29Z</time>
      </trkpt>
      <trkpt lat="45.92679" lon="4.73708">
        <ele>173</ele>
        <time>2017-06-03T08:12:30Z</time>
      </trkpt>
      <trkpt lat="45.92685" lon="4.7371">
        <ele>173</ele>
        <time>2017-06-03T08:12:31Z</time>
      </trkpt>
      <trkpt lat="45.92691" lon="4.73712">
        <ele>173</ele>
        <time>2017-06-03T08:12:32Z</time>
      </trkpt>
      <trkpt lat="45.92697" lon="4.73714">
        <ele>173</ele>
        <time>2017-06-03T08:12:33Z</time>
      </trkpt>
      <trkpt lat="45.92703" lon="4.73716">
        <ele>173</ele>
        <time>2017-06-03T08:12:34Z</time>
      </trkpt>
      <trkpt lat="45.92708" lon="4.73717">
        <ele>173</ele>
        <time>2017-06-03T08:12:35Z</time>
      </trkpt>
      <trkpt lat="45.92714" lon="4.73719">
        <ele>173</ele>
        <time>2017-06-03T08:12:36Z</time>
      </trkpt>
      <trkpt lat="45.92719" lon="4.73719">
        <ele>173</ele>
        <time>2017-06-03T08:12:37Z</time>
      </trkpt>
      <trkpt lat="45.92724" lon="4.7372">
        <ele>173</ele>
        <time>2017-06-03T08:12:38Z</time>
      </trkpt>
      <trkpt lat="45.92729" lon="4.73721">
        <ele>173</ele>
        <time>2017-06-03T08:12:39Z</time>
      </trkpt>
      <trkpt lat="45.92733" lon="4.73722">
        <ele>173</ele>
        <time>2017-06-03T08:12:40Z</time>
      </trkpt>
      <trkpt lat="45.92738" lon="4.73724">
        <ele>173</ele>
        <time>2017-06-03T08:12:41Z</time>
      </trkpt>
      <trkpt lat="45.92742" lon="4.73725">
        <ele>173</ele>
        <time>2017-06-03T08:12:42Z</time>
      </trkpt>
      <trkpt lat="45.92747" lon="4.73725">
        <ele>173</ele>
        <time>2017-06-03T08:12:43Z</time>
      </trkpt>
      <trkpt lat="45.92751" lon="4.73726">
        <ele>172</ele>
        <time>2017-06-03T08:12:44Z</time>
      </trkpt>
      <trkpt lat="45.92756" lon="4.73727">
        <ele>172</ele>
        <time>2017-06-03T08:12:45Z</time>
      </trkpt>
      <trkpt lat="45.9276" lon="4.73728">
        <ele>172</ele>
        <time>2017-06-03T08:12:46Z</time>
      </trkpt>
      <trkpt lat="45.92765" lon="4.7373">
        <ele>172</ele>
        <time>2017-06-03T08:12:47Z</time>
      </trkpt>
      <trkpt lat="45.92772" lon="4.73734">
        <ele>172</ele>
        <time>2017-06-03T08:12:49Z</time>
      </trkpt>
      <trkpt lat="45.92773" lon="4.73737">
        <ele>172</ele>
        <time>2017-06-03T08:12:50Z</time>
      </trkpt>
      <trkpt lat="45.92777" lon="4.73745">
        <ele>172</ele>
        <time>2017-06-03T08:12:52Z</time>
      </trkpt>
      <trkpt lat="45.9278" lon="4.73749">
        <ele>172</ele>
        <time>2017-06-03T08:12:53Z</time>
      </trkpt>
      <trkpt lat="45.92784" lon="4.73753">
        <ele>173</ele>
        <time>2017-06-03T08:12:54Z</time>
      </trkpt>
      <trkpt lat="45.92788" lon="4.73755">
        <ele>173</ele>
        <time>2017-06-03T08:12:55Z</time>
      </trkpt>
      <trkpt lat="45.92793" lon="4.73758">
        <ele>173</ele>
        <time>2017-06-03T08:12:56Z</time>
      </trkpt>
      <trkpt lat="45.92797" lon="4.73762">
        <ele>173</ele>
        <time>2017-06-03T08:12:57Z</time>
      </trkpt>
      <trkpt lat="45.92803" lon="4.73765">
        <ele>173</ele>
        <time>2017-06-03T08:12:58Z</time>
      </trkpt>
      <trkpt lat="45.92808" lon="4.73768">
        <ele>173</ele>
        <time>2017-06-03T08:12:59Z</time>
      </trkpt>
      <trkpt lat="45.92813" lon="4.73771">
        <ele>173</ele>
        <time>2017-06-03T08:13:00Z</time>
      </trkpt>
      <trkpt lat="45.92819" lon="4.73775">
        <ele>173</ele>
        <time>2017-06-03T08:13:01Z</time>
      </trkpt>
      <trkpt lat="45.92824" lon="4.73779">
        <ele>173</ele>
        <time>2017-06-03T08:13:02Z</time>
      </trkpt>
      <trkpt lat="45.9283" lon="4.73784">
        <ele>173</ele>
        <time>2017-06-03T08:13:03Z</time>
      </trkpt>
      <trkpt lat="45.92835" lon="4.73787">
        <ele>173</ele>
        <time>2017-06-03T08:13:04Z</time>
      </trkpt>
      <trkpt lat="45.92839" lon="4.7379">
        <ele>173</ele>
        <time>2017-06-03T08:13:05Z</time>
      </trkpt>
      <trkpt lat="45.92843" lon="4.73794">
        <ele>173</ele>
        <time>2017-06-03T08:13:06Z</time>
      </trkpt>
      <trkpt lat="45.92847" lon="4.73798">
        <ele>173</ele>
        <time>2017-06-03T08:13:07Z</time>
      </trkpt>
      <trkpt lat="45.9285" lon="4.73804">
        <ele>173</ele>
        <time>2017-06-03T08:13:08Z</time>
      </trkpt>
      <trkpt lat="45.92851" lon="4.73811">
        <ele>173</ele>
        <time>2017-06-03T08:13:09Z</time>
      </trkpt>
      <trkpt lat="45.92853" lon="4.73817">
        <ele>173</ele>
        <time>2017-06-03T08:13:10Z</time>
      </trkpt>
      <trkpt lat="45.92855" lon="4.73824">
        <ele>173</ele>
        <time>2017-06-03T08:13:11Z</time>
      </trkpt>
      <trkpt lat="45.92857" lon="4.73831">
        <ele>173</ele>
        <time>2017-06-03T08:13:12Z</time>
      </trkpt>
      <trkpt lat="45.92859" lon="4.73839">
        <ele>173</ele>
        <time>2017-06-03T08:13:13Z</time>
      </trkpt>
      <trkpt lat="45.92861" lon="4.73846">
        <ele>173</ele>
        <time>2017-06-03T08:13:14Z</time>
      </trkpt>
      <trkpt lat="45.92863" lon="4.73853">
        <ele>173</ele>
        <time>2017-06-03T08:13:15Z</time>
      </trkpt>
      <trkpt lat="45.92865" lon="4.73859">
        <ele>173</ele>
        <time>2017-06-03T08:13:16Z</time>
      </trkpt>
      <trkpt lat="45.92867" lon="4.73867">
        <ele>173</ele>
        <time>2017-06-03T08:13:17Z</time>
      </trkpt>
      <trkpt lat="45.92869" lon="4.73875">
        <ele>173</ele>
        <time>2017-06-03T08:13:18Z</time>
      </trkpt>
      <trkpt lat="45.9287" lon="4.73882">
        <ele>173</ele>
        <time>2017-06-03T08:13:19Z</time>
      </trkpt>
      <trkpt lat="45.92871" lon="4.7389">
        <ele>173</ele>
        <time>2017-06-03T08:13:20Z</time>
      </trkpt>
      <trkpt lat="45.92872" lon="4.73898">
        <ele>173</ele>
        <time>2017-06-03T08:13:21Z</time>
      </trkpt>
      <trkpt lat="45.92873" lon="4.73906">
        <ele>173</ele>
        <time>2017-06-03T08:13:22Z</time>
      </trkpt>
      <trkpt lat="45.92873" lon="4.73914">
        <ele>173</ele>
        <time>2017-06-03T08:13:23Z</time>
      </trkpt>
      <trkpt lat="45.92874" lon="4.73922">
        <ele>173</ele>
        <time>2017-06-03T08:13:24Z</time>
      </trkpt>
      <trkpt lat="45.92875" lon="4.7393">
        <ele>173</ele>
        <time>2017-06-03T08:13:25Z</time>
      </trkpt>
      <trkpt lat="45.92875" lon="4.73938">
        <ele>172</ele>
        <time>2017-06-03T08:13:26Z</time>
      </trkpt>
      <trkpt lat="45.92876" lon="4.73946">
        <ele>172</ele>
        <time>2017-06-03T08:13:27Z</time>
      </trkpt>
      <trkpt lat="45.92876" lon="4.73954">
        <ele>172</ele>
        <time>2017-06-03T08:13:28Z</time>
      </trkpt>
      <trkpt lat="45.92877" lon="4.73961">
        <ele>172</ele>
        <time>2017-06-03T08:13:29Z</time>
      </trkpt>
      <trkpt lat="45.92877" lon="4.73969">
        <ele>172</ele>
        <time>2017-06-03T08:13:30Z</time>
      </trkpt>
      <trkpt lat="45.92877" lon="4.73976">
        <ele>172</ele>
        <time>2017-06-03T08:13:31Z</time>
      </trkpt>
      <trkpt lat="45.92876" lon="4.73983">
        <ele>172</ele>
        <time>2017-06-03T08:13:32Z</time>
      </trkpt>
      <trkpt lat="45.92875" lon="4.7399">
        <ele>173</ele>
        <time>2017-06-03T08:13:33Z</time>
      </trkpt>
      <trkpt lat="45.92873" lon="4.73997">
        <ele>173</ele>
        <time>2017-06-03T08:13:34Z</time>
      </trkpt>
      <trkpt lat="45.92872" lon="4.74003">
        <ele>172</ele>
        <time>2017-06-03T08:13:35Z</time>
      </trkpt>
      <trkpt lat="45.92871" lon="4.7401">
        <ele>172</ele>
        <time>2017-06-03T08:13:36Z</time>
      </trkpt>
      <trkpt lat="45.9287" lon="4.74017">
        <ele>172</ele>
        <time>2017-06-03T08:13:37Z</time>
      </trkpt>
      <trkpt lat="45.92869" lon="4.74024">
        <ele>172</ele>
        <time>2017-06-03T08:13:38Z</time>
      </trkpt>
      <trkpt lat="45.92867" lon="4.7403">
        <ele>172</ele>
        <time>2017-06-03T08:13:39Z</time>
      </trkpt>
      <trkpt lat="45.92865" lon="4.74037">
        <ele>172</ele>
        <time>2017-06-03T08:13:40Z</time>
      </trkpt>
      <trkpt lat="45.92863" lon="4.74043">
        <ele>172</ele>
        <time>2017-06-03T08:13:41Z</time>
      </trkpt>
      <trkpt lat="45.92859" lon="4.74049">
        <ele>172</ele>
        <time>2017-06-03T08:13:42Z</time>
      </trkpt>
      <trkpt lat="45.92855" lon="4.74054">
        <ele>172</ele>
        <time>2017-06-03T08:13:43Z</time>
      </trkpt>
      <trkpt lat="45.92851" lon="4.74059">
        <ele>172</ele>
        <time>2017-06-03T08:13:44Z</time>
      </trkpt>
      <trkpt lat="45.92846" lon="4.74064">
        <ele>172</ele>
        <time>2017-06-03T08:13:45Z</time>
      </trkpt>
      <trkpt lat="45.92842" lon="4.74068">
        <ele>172</ele>
        <time>2017-06-03T08:13:46Z</time>
      </trkpt>
      <trkpt lat="45.92838" lon="4.74074">
        <ele>171</ele>
        <time>2017-06-03T08:13:47Z</time>
      </trkpt>
      <trkpt lat="45.92834" lon="4.74078">
        <ele>171</ele>
        <time>2017-06-03T08:13:48Z</time>
      </trkpt>
      <trkpt lat="45.92829" lon="4.74084">
        <ele>171</ele>
        <time>2017-06-03T08:13:49Z</time>
      </trkpt>
      <trkpt lat="45.92825" lon="4.7409">
        <ele>171</ele>
        <time>2017-06-03T08:13:50Z</time>
      </trkpt>
      <trkpt lat="45.92821" lon="4.74095">
        <ele>171</ele>
        <time>2017-06-03T08:13:51Z</time>
      </trkpt>
      <trkpt lat="45.92816" lon="4.741">
        <ele>171</ele>
        <time>2017-06-03T08:13:52Z</time>
      </trkpt>
      <trkpt lat="45.92812" lon="4.74105">
        <ele>172</ele>
        <time>2017-06-03T08:13:53Z</time>
      </trkpt>
      <trkpt lat="45.92807" lon="4.7411">
        <ele>172</ele>
        <time>2017-06-03T08:13:54Z</time>
      </trkpt>
      <trkpt lat="45.92802" lon="4.74115">
        <ele>172</ele>
        <time>2017-06-03T08:13:55Z</time>
      </trkpt>
      <trkpt lat="45.92798" lon="4.7412">
        <ele>172</ele>
        <time>2017-06-03T08:13:56Z</time>
      </trkpt>
      <trkpt lat="45.92793" lon="4.74124">
        <ele>172</ele>
        <time>2017-06-03T08:13:57Z</time>
      </trkpt>
      <trkpt lat="45.92789" lon="4.74129">
        <ele>172</ele>
        <time>2017-06-03T08:13:58Z</time>
      </trkpt>
      <trkpt lat="45.92784" lon="4.74134">
        <ele>172</ele>
        <time>2017-06-03T08:13:59Z</time>
      </trkpt>
      <trkpt lat="45.92779" lon="4.74139">
        <ele>172</ele>
        <time>2017-06-03T08:14:00Z</time>
      </trkpt>
      <trkpt lat="45.92774" lon="4.74144">
        <ele>172</ele>
        <time>2017-06-03T08:14:01Z</time>
      </trkpt>
      <trkpt lat="45.92769" lon="4.7415">
        <ele>172</ele>
        <time>2017-06-03T08:14:02Z</time>
      </trkpt>
      <trkpt lat="45.92764" lon="4.74155">
        <ele>172</ele>
        <time>2017-06-03T08:14:03Z</time>
      </trkpt>
      <trkpt lat="45.9276" lon="4.7416">
        <ele>172</ele>
        <time>2017-06-03T08:14:04Z</time>
      </trkpt>
      <trkpt lat="45.92755" lon="4.74165">
        <ele>172</ele>
        <time>2017-06-03T08:14:05Z</time>
      </trkpt>
      <trkpt lat="45.9275" lon="4.7417">
        <ele>172</ele>
        <time>2017-06-03T08:14:06Z</time>
      </trkpt>
      <trkpt lat="45.92746" lon="4.74176">
        <ele>172</ele>
        <time>2017-06-03T08:14:07Z</time>
      </trkpt>
      <trkpt lat="45.92742" lon="4.74181">
        <ele>172</ele>
        <time>2017-06-03T08:14:08Z</time>
      </trkpt>
      <trkpt lat="45.92737" lon="4.74186">
        <ele>172</ele>
        <time>2017-06-03T08:14:09Z</time>
      </trkpt>
      <trkpt lat="45.92734" lon="4.74191">
        <ele>171</ele>
        <time>2017-06-03T08:14:10Z</time>
      </trkpt>
      <trkpt lat="45.9273" lon="4.74196">
        <ele>171</ele>
        <time>2017-06-03T08:14:11Z</time>
      </trkpt>
      <trkpt lat="45.92726" lon="4.74201">
        <ele>171</ele>
        <time>2017-06-03T08:14:12Z</time>
      </trkpt>
      <trkpt lat="45.92722" lon="4.74206">
        <ele>171</ele>
        <time>2017-06-03T08:14:13Z</time>
      </trkpt>
      <trkpt lat="45.92718" lon="4.74212">
        <ele>171</ele>
        <time>2017-06-03T08:14:14Z</time>
      </trkpt>
      <trkpt lat="45.92714" lon="4.74217">
        <ele>171</ele>
        <time>2017-06-03T08:14:15Z</time>
      </trkpt>
      <trkpt lat="45.92711" lon="4.74223">
        <ele>171</ele>
        <time>2017-06-03T08:14:16Z</time>
      </trkpt>
      <trkpt lat="45.92707" lon="4.74229">
        <ele>171</ele>
        <time>2017-06-03T08:14:17Z</time>
      </trkpt>
      <trkpt lat="45.92703" lon="4.74235">
        <ele>171</ele>
        <time>2017-06-03T08:14:18Z</time>
      </trkpt>
      <trkpt lat="45.92699" lon="4.7424">
        <ele>171</ele>
        <time>2017-06-03T08:14:19Z</time>
      </trkpt>
      <trkpt lat="45.92695" lon="4.74246">
        <ele>171</ele>
        <time>2017-06-03T08:14:20Z</time>
      </trkpt>
      <trkpt lat="45.92692" lon="4.74252">
        <ele>171</ele>
        <time>2017-06-03T08:14:21Z</time>
      </trkpt>
      <trkpt lat="45.92688" lon="4.74259">
        <ele>171</ele>
        <time>2017-06-03T08:14:22Z</time>
      </trkpt>
      <trkpt lat="45.92685" lon="4.74265">
        <ele>171</ele>
        <time>2017-06-03T08:14:23Z</time>
      </trkpt>
      <trkpt lat="45.92681" lon="4.74271">
        <ele>171</ele>
        <time>2017-06-03T08:14:24Z</time>
      </trkpt>
      <trkpt lat="45.92677" lon="4.74277">
        <ele>171</ele>
        <time>2017-06-03T08:14:25Z</time>
      </trkpt>
      <trkpt lat="45.92674" lon="4.74284">
        <ele>171</ele>
        <time>2017-06-03T08:14:26Z</time>
      </trkpt>
      <trkpt lat="45.9267" lon="4.7429">
        <ele>171</ele>
        <time>2017-06-03T08:14:27Z</time>
      </trkpt>
      <trkpt lat="45.92666" lon="4.74296">
        <ele>171</ele>
        <time>2017-06-03T08:14:28Z</time>
      </trkpt>
      <trkpt lat="45.92663" lon="4.74303">
        <ele>171</ele>
        <time>2017-06-03T08:14:29Z</time>
      </trkpt>
      <trkpt lat="45.92659" lon="4.74309">
        <ele>171</ele>
        <time>2017-06-03T08:14:30Z</time>
      </trkpt>
      <trkpt lat="45.92656" lon="4.74316">
        <ele>171</ele>
        <time>2017-06-03T08:14:31Z</time>
      </trkpt>
      <trkpt lat="45.92652" lon="4.74322">
        <ele>171</ele>
        <time>2017-06-03T08:14:32Z</time>
      </trkpt>
      <trkpt lat="45.92649" lon="4.74329">
        <ele>171</ele>
        <time>2017-06-03T08:14:33Z</time>
      </trkpt>
      <trkpt lat="45.92645" lon="4.74335">
        <ele>171</ele>
        <time>2017-06-03T08:14:34Z</time>
      </trkpt>
      <trkpt lat="45.92642" lon="4.74341">
        <ele>171</ele>
        <time>2017-06-03T08:14:35Z</time>
      </trkpt>
      <trkpt lat="45.92638" lon="4.74348">
        <ele>171</ele>
        <time>2017-06-03T08:14:36Z</time>
      </trkpt>
      <trkpt lat="45.92635" lon="4.74354">
        <ele>171</ele>
        <time>2017-06-03T08:14:37Z</time>
      </trkpt>
      <trkpt lat="45.92631" lon="4.74361">
        <ele>171</ele>
        <time>2017-06-03T08:14:38Z</time>
      </trkpt>
      <trkpt lat="45.92627" lon="4.74367">
        <ele>171</ele>
        <time>2017-06-03T08:14:39Z</time>
      </trkpt>
      <trkpt lat="45.92623" lon="4.74374">
        <ele>171</ele>
        <time>2017-06-03T08:14:40Z</time>
      </trkpt>
      <trkpt lat="45.9262" lon="4.7438">
        <ele>170</ele>
        <time>2017-06-03T08:14:41Z</time>
      </trkpt>
      <trkpt lat="45.92616" lon="4.74386">
        <ele>170</ele>
        <time>2017-06-03T08:14:42Z</time>
      </trkpt>
      <trkpt lat="45.92613" lon="4.74392">
        <ele>170</ele>
        <time>2017-06-03T08:14:43Z</time>
      </trkpt>
      <trkpt lat="45.92609" lon="4.74398">
        <ele>170</ele>
        <time>2017-06-03T08:14:44Z</time>
      </trkpt>
      <trkpt lat="45.92606" lon="4.74404">
        <ele>170</ele>
        <time>2017-06-03T08:14:45Z</time>
      </trkpt>
      <trkpt lat="45.92603" lon="4.7441">
        <ele>170</ele>
        <time>2017-06-03T08:14:46Z</time>
      </trkpt>
      <trkpt lat="45.92599" lon="4.74416">
        <ele>170</ele>
        <time>2017-06-03T08:14:47Z</time>
      </trkpt>
      <trkpt lat="45.92596" lon="4.74422">
        <ele>170</ele>
        <time>2017-06-03T08:14:48Z</time>
      </trkpt>
      <trkpt lat="45.92593" lon="4.74429">
        <ele>170</ele>
        <time>2017-06-03T08:14:49Z</time>
      </trkpt>
      <trkpt lat="45.9259" lon="4.74435">
        <ele>170</ele>
        <time>2017-06-03T08:14:50Z</time>
      </trkpt>
      <trkpt lat="45.92586" lon="4.74441">
        <ele>170</ele>
        <time>2017-06-03T08:14:51Z</time>
      </trkpt>
      <trkpt lat="45.92583" lon="4.74448">
        <ele>170</ele>
        <time>2017-06-03T08:14:52Z</time>
      </trkpt>
      <trkpt lat="45.92579" lon="4.74454">
        <ele>170</ele>
        <time>2017-06-03T08:14:53Z</time>
      </trkpt>
      <trkpt lat="45.92575" lon="4.74461">
        <ele>170</ele>
        <time>2017-06-03T08:14:54Z</time>
      </trkpt>
      <trkpt lat="45.92572" lon="4.74467">
        <ele>170</ele>
        <time>2017-06-03T08:14:55Z</time>
      </trkpt>
      <trkpt lat="45.92568" lon="4.74474">
        <ele>170</ele>
        <time>2017-06-03T08:14:56Z</time>
      </trkpt>
      <trkpt lat="45.92565" lon="4.74481">
        <ele>170</ele>
        <time>2017-06-03T08:14:57Z</time>
      </trkpt>
      <trkpt lat="45.92561" lon="4.74487">
        <ele>170</ele>
        <time>2017-06-03T08:14:58Z</time>
      </trkpt>
      <trkpt lat="45.92558" lon="4.74494">
        <ele>170</ele>
        <time>2017-06-03T08:14:59Z</time>
      </trkpt>
      <trkpt lat="45.92554" lon="4.745">
        <ele>170</ele>
        <time>2017-06-03T08:15:00Z</time>
      </trkpt>
      <trkpt lat="45.92551" lon="4.74506">
        <ele>170</ele>
        <time>2017-06-03T08:15:01Z</time>
      </trkpt>
      <trkpt lat="45.92548" lon="4.74512">
        <ele>170</ele>
        <time>2017-06-03T08:15:02Z</time>
      </trkpt>
      <trkpt lat="45.92544" lon="4.74518">
        <ele>170</ele>
        <time>2017-06-03T08:15:03Z</time>
      </trkpt>
      <trkpt lat="45.92541" lon="4.74524">
        <ele>171</ele>
        <time>2017-06-03T08:15:04Z</time>
      </trkpt>
      <trkpt lat="45.92538" lon="4.7453">
        <ele>171</ele>
        <time>2017-06-03T08:15:05Z</time>
      </trkpt>
      <trkpt lat="45.92535" lon="4.74536">
        <ele>171</ele>
        <time>2017-06-03T08:15:06Z</time>
      </trkpt>
      <trkpt lat="45.92531" lon="4.74542">
        <ele>171</ele>
        <time>2017-06-03T08:15:07Z</time>
      </trkpt>
      <trkpt lat="45.92528" lon="4.74548">
        <ele>171</ele>
        <time>2017-06-03T08:15:08Z</time>
      </trkpt>
      <trkpt lat="45.92524" lon="4.74555">
        <ele>171</ele>
        <time>2017-06-03T08:15:09Z</time>
      </trkpt>
      <trkpt lat="45.92521" lon="4.74561">
        <ele>171</ele>
        <time>2017-06-03T08:15:10Z</time>
      </trkpt>
      <trkpt lat="45.92517" lon="4.74566">
        <ele>171</ele>
        <time>2017-06-03T08:15:11Z</time>
      </trkpt>
      <trkpt lat="45.92513" lon="4.74571">
        <ele>171</ele>
        <time>2017-06-03T08:15:12Z</time>
      </trkpt>
      <trkpt lat="45.92509" lon="4.74577">
        <ele>171</ele>
        <time>2017-06-03T08:15:13Z</time>
      </trkpt>
      <trkpt lat="45.92505" lon="4.74582">
        <ele>171</ele>
        <time>2017-06-03T08:15:14Z</time>
      </trkpt>
      <trkpt lat="45.925" lon="4.74587">
        <ele>171</ele>
        <time>2017-06-03T08:15:15Z</time>
      </trkpt>
      <trkpt lat="45.92496" lon="4.74591">
        <ele>171</ele>
        <time>2017-06-03T08:15:16Z</time>
      </trkpt>
      <trkpt lat="45.92492" lon="4.74596">
        <ele>171</ele>
        <time>2017-06-03T08:15:17Z</time>
      </trkpt>
      <trkpt lat="45.92488" lon="4.74601">
        <ele>171</ele>
        <time>2017-06-03T08:15:18Z</time>
      </trkpt>
      <trkpt lat="45.92484" lon="4.74606">
        <ele>171</ele>
        <time>2017-06-03T08:15:19Z</time>
      </trkpt>
      <trkpt lat="45.9248" lon="4.74611">
        <ele>171</ele>
        <time>2017-06-03T08:15:20Z</time>
      </trkpt>
      <trkpt lat="45.92475" lon="4.74616">
        <ele>171</ele>
        <time>2017-06-03T08:15:21Z</time>
      </trkpt>
      <trkpt lat="45.92471" lon="4.74622">
        <ele>171</ele>
        <time>2017-06-03T08:15:22Z</time>
      </trkpt>
      <trkpt lat="45.92467" lon="4.74627">
        <ele>171</ele>
        <time>2017-06-03T08:15:23Z</time>
      </trkpt>
      <trkpt lat="45.92464" lon="4.74633">
        <ele>171</ele>
        <time>2017-06-03T08:15:24Z</time>
      </trkpt>
      <trkpt lat="45.9246" lon="4.74639">
        <ele>171</ele>
        <time>2017-06-03T08:15:25Z</time>
      </trkpt>
      <trkpt lat="45.92456" lon="4.74644">
        <ele>171</ele>
        <time>2017-06-03T08:15:26Z</time>
      </trkpt>
      <trkpt lat="45.92452" lon="4.7465">
        <ele>171</ele>
        <time>2017-06-03T08:15:27Z</time>
      </trkpt>
      <trkpt lat="45.92449" lon="4.74656">
        <ele>171</ele>
        <time>2017-06-03T08:15:28Z</time>
      </trkpt>
      <trkpt lat="45.92446" lon="4.74662">
        <ele>171</ele>
        <time>2017-06-03T08:15:29Z</time>
      </trkpt>
      <trkpt lat="45.92443" lon="4.74669">
        <ele>171</ele>
        <time>2017-06-03T08:15:30Z</time>
      </trkpt>
      <trkpt lat="45.9244" lon="4.74674">
        <ele>171</ele>
        <time>2017-06-03T08:15:31Z</time>
      </trkpt>
      <trkpt lat="45.92437" lon="4.74681">
        <ele>171</ele>
        <time>2017-06-03T08:15:32Z</time>
      </trkpt>
      <trkpt lat="45.92433" lon="4.74688">
        <ele>171</ele>
        <time>2017-06-03T08:15:33Z</time>
      </trkpt>
      <trkpt lat="45.9243" lon="4.74694">
        <ele>171</ele>
        <time>2017-06-03T08:15:34Z</time>
      </trkpt>
      <trkpt lat="45.92428" lon="4.74701">
        <ele>171</ele>
        <time>2017-06-03T08:15:35Z</time>
      </trkpt>
      <trkpt lat="45.92425" lon="4.74708">
        <ele>171</ele>
        <time>2017-06-03T08:15:36Z</time>
      </trkpt>
      <trkpt lat="45.92422" lon="4.74715">
        <ele>171</ele>
        <time>2017-06-03T08:15:37Z</time>
      </trkpt>
      <trkpt lat="45.9242" lon="4.74722">
        <ele>171</ele>
        <time>2017-06-03T08:15:38Z</time>
      </trkpt>
      <trkpt lat="45.92417" lon="4.7473">
        <ele>171</ele>
        <time>2017-06-03T08:15:39Z</time>
      </trkpt>
      <trkpt lat="45.92415" lon="4.74738">
        <ele>172</ele>
        <time>2017-06-03T08:15:40Z</time>
      </trkpt>
      <trkpt lat="45.92412" lon="4.74747">
        <ele>172</ele>
        <time>2017-06-03T08:15:41Z</time>
      </trkpt>
      <trkpt lat="45.9241" lon="4.74754">
        <ele>172</ele>
        <time>2017-06-03T08:15:42Z</time>
      </trkpt>
      <trkpt lat="45.92409" lon="4.74762">
        <ele>172</ele>
        <time>2017-06-03T08:15:43Z</time>
      </trkpt>
      <trkpt lat="45.92406" lon="4.74769">
        <ele>172</ele>
        <time>2017-06-03T08:15:44Z</time>
      </trkpt>
      <trkpt lat="45.92404" lon="4.74777">
        <ele>171</ele>
        <time>2017-06-03T08:15:45Z</time>
      </trkpt>
      <trkpt lat="45.92403" lon="4.74784">
        <ele>171</ele>
        <time>2017-06-03T08:15:46Z</time>
      </trkpt>
      <trkpt lat="45.92401" lon="4.74792">
        <ele>171</ele>
        <time>2017-06-03T08:15:47Z</time>
      </trkpt>
      <trkpt lat="45.92399" lon="4.74799">
        <ele>171</ele>
        <time>2017-06-03T08:15:48Z</time>
      </trkpt>
      <trkpt lat="45.92397" lon="4.74807">
        <ele>171</ele>
        <time>2017-06-03T08:15:49Z</time>
      </trkpt>
      <trkpt lat="45.92396" lon="4.74815">
        <ele>171</ele>
        <time>2017-06-03T08:15:50Z</time>
      </trkpt>
      <trkpt lat="45.92394" lon="4.74823">
        <ele>171</ele>
        <time>2017-06-03T08:15:51Z</time>
      </trkpt>
      <trkpt lat="45.92392" lon="4.74831">
        <ele>171</ele>
        <time>2017-06-03T08:15:52Z</time>
      </trkpt>
      <trkpt lat="45.9239" lon="4.7484">
        <ele>171</ele>
        <time>2017-06-03T08:15:53Z</time>
      </trkpt>
      <trkpt lat="45.92388" lon="4.74848">
        <ele>171</ele>
        <time>2017-06-03T08:15:54Z</time>
      </trkpt>
      <trkpt lat="45.92386" lon="4.74855">
        <ele>171</ele>
        <time>2017-06-03T08:15:55Z</time>
      </trkpt>
      <trkpt lat="45.92383" lon="4.74862">
        <ele>171</ele>
        <time>2017-06-03T08:15:56Z</time>
      </trkpt>
      <trkpt lat="45.92381" lon="4.74869">
        <ele>171</ele>
        <time>2017-06-03T08:15:57Z</time>
      </trkpt>
      <trkpt lat="45.92379" lon="4.74876">
        <ele>171</ele>
        <time>2017-06-03T08:15:58Z</time>
      </trkpt>
      <trkpt lat="45.92376" lon="4.74884">
        <ele>171</ele>
        <time>2017-06-03T08:15:59Z</time>
      </trkpt>
      <trkpt lat="45.92373" lon="4.74891">
        <ele>171</ele>
        <time>2017-06-03T08:16:00Z</time>
      </trkpt>
      <trkpt lat="45.92371" lon="4.74898">
        <ele>171</ele>
        <time>2017-06-03T08:16:01Z</time>
      </trkpt>
      <trkpt lat="45.92368" lon="4.74905">
        <ele>171</ele>
        <time>2017-06-03T08:16:02Z</time>
      </trkpt>
      <trkpt lat="45.92365" lon="4.74913">
        <ele>171</ele>
        <time>2017-06-03T08:16:03Z</time>
      </trkpt>
      <trkpt lat="45.92363" lon="4.7492">
        <ele>170</ele>
        <time>2017-06-03T08:16:04Z</time>
      </trkpt>
      <trkpt lat="45.9236" lon="4.74927">
        <ele>170</ele>
        <time>2017-06-03T08:16:05Z</time>
      </trkpt>
      <trkpt lat="45.92357" lon="4.74935">
        <ele>170</ele>
        <time>2017-06-03T08:16:06Z</time>
      </trkpt>
      <trkpt lat="45.92354" lon="4.74942">
        <ele>170</ele>
        <time>2017-06-03T08:16:07Z</time>
      </trkpt>
      <trkpt lat="45.9235" lon="4.74949">
        <ele>170</ele>
        <time>2017-06-03T08:16:08Z</time>
      </trkpt>
      <trkpt lat="45.92347" lon="4.74957">
        <ele>170</ele>
        <time>2017-06-03T08:16:09Z</time>
      </trkpt>
      <trkpt lat="45.92345" lon="4.74965">
        <ele>170</ele>
        <time>2017-06-03T08:16:10Z</time>
      </trkpt>
      <trkpt lat="45.92342" lon="4.74972">
        <ele>170</ele>
        <time>2017-06-03T08:16:11Z</time>
      </trkpt>
      <trkpt lat="45.92339" lon="4.74979">
        <ele>170</ele>
        <time>2017-06-03T08:16:12Z</time>
      </trkpt>
      <trkpt lat="45.92335" lon="4.74986">
        <ele>170</ele>
        <time>2017-06-03T08:16:13Z</time>
      </trkpt>
      <trkpt lat="45.92333" lon="4.74993">
        <ele>170</ele>
        <time>2017-06-03T08:16:14Z</time>
      </trkpt>
      <trkpt lat="45.9233" lon="4.75001">
        <ele>170</ele>
        <time>2017-06-03T08:16:15Z</time>
      </trkpt>
      <trkpt lat="45.92327" lon="4.75007">
        <ele>171</ele>
        <time>2017-06-03T08:16:16Z</time>
      </trkpt>
      <trkpt lat="45.92324" lon="4.75014">
        <ele>171</ele>
        <time>2017-06-03T08:16:17Z</time>
      </trkpt>
      <trkpt lat="45.92321" lon="4.7502">
        <ele>171</ele>
        <time>2017-06-03T08:16:18Z</time>
      </trkpt>
      <trkpt lat="45.92318" lon="4.75026">
        <ele>171</ele>
        <time>2017-06-03T08:16:19Z</time>
      </trkpt>
      <trkpt lat="45.92314" lon="4.75033">
        <ele>171</ele>
        <time>2017-06-03T08:16:20Z</time>
      </trkpt>
      <trkpt lat="45.92311" lon="4.7504">
        <ele>172</ele>
        <time>2017-06-03T08:16:21Z</time>
      </trkpt>
      <trkpt lat="45.92308" lon="4.75046">
        <ele>172</ele>
        <time>2017-06-03T08:16:22Z</time>
      </trkpt>
      <trkpt lat="45.92304" lon="4.75053">
        <ele>172</ele>
        <time>2017-06-03T08:16:23Z</time>
      </trkpt>
      <trkpt lat="45.923" lon="4.75059">
        <ele>172</ele>
        <time>2017-06-03T08:16:24Z</time>
      </trkpt>
      <trkpt lat="45.92295" lon="4.75065">
        <ele>172</ele>
        <time>2017-06-03T08:16:25Z</time>
      </trkpt>
      <trkpt lat="45.92291" lon="4.7507">
        <ele>172</ele>
        <time>2017-06-03T08:16:26Z</time>
      </trkpt>
      <trkpt lat="45.92287" lon="4.75076">
        <ele>172</ele>
        <time>2017-06-03T08:16:27Z</time>
      </trkpt>
      <trkpt lat="45.92282" lon="4.75081">
        <ele>172</ele>
        <time>2017-06-03T08:16:28Z</time>
      </trkpt>
      <trkpt lat="45.92278" lon="4.75086">
        <ele>173</ele>
        <time>2017-06-03T08:16:29Z</time>
      </trkpt>
      <trkpt lat="45.92273" lon="4.75091">
        <ele>173</ele>
        <time>2017-06-03T08:16:30Z</time>
      </trkpt>
      <trkpt lat="45.92268" lon="4.75096">
        <ele>173</ele>
        <time>2017-06-03T08:16:31Z</time>
      </trkpt>
      <trkpt lat="45.92263" lon="4.75101">
        <ele>173</ele>
        <time>2017-06-03T08:16:32Z</time>
      </trkpt>
      <trkpt lat="45.92259" lon="4.75106">
        <ele>174</ele>
        <time>2017-06-03T08:16:33Z</time>
      </trkpt>
      <trkpt lat="45.92254" lon="4.75111">
        <ele>174</ele>
        <time>2017-06-03T08:16:34Z</time>
      </trkpt>
      <trkpt lat="45.92249" lon="4.75116">
        <ele>174</ele>
        <time>2017-06-03T08:16:35Z</time>
      </trkpt>
      <trkpt lat="45.92245" lon="4.75122">
        <ele>174</ele>
        <time>2017-06-03T08:16:36Z</time>
      </trkpt>
      <trkpt lat="45.9224" lon="4.75127">
        <ele>174</ele>
        <time>2017-06-03T08:16:37Z</time>
      </trkpt>
      <trkpt lat="45.92236" lon="4.75132">
        <ele>174</ele>
        <time>2017-06-03T08:16:38Z</time>
      </trkpt>
      <trkpt lat="45.92232" lon="4.75138">
        <ele>174</ele>
        <time>2017-06-03T08:16:39Z</time>
      </trkpt>
      <trkpt lat="45.92228" lon="4.75144">
        <ele>174</ele>
        <time>2017-06-03T08:16:40Z</time>
      </trkpt>
      <trkpt lat="45.92224" lon="4.7515">
        <ele>174</ele>
        <time>2017-06-03T08:16:41Z</time>
      </trkpt>
      <trkpt lat="45.92221" lon="4.75157">
        <ele>174</ele>
        <time>2017-06-03T08:16:42Z</time>
      </trkpt>
      <trkpt lat="45.92218" lon="4.75163">
        <ele>174</ele>
        <time>2017-06-03T08:16:43Z</time>
      </trkpt>
      <trkpt lat="45.92215" lon="4.7517">
        <ele>175</ele>
        <time>2017-06-03T08:16:44Z</time>
      </trkpt>
      <trkpt lat="45.92212" lon="4.75177">
        <ele>175</ele>
        <time>2017-06-03T08:16:45Z</time>
      </trkpt>
      <trkpt lat="45.9221" lon="4.75185">
        <ele>175</ele>
        <time>2017-06-03T08:16:46Z</time>
      </trkpt>
      <trkpt lat="45.92208" lon="4.75192">
        <ele>175</ele>
        <time>2017-06-03T08:16:47Z</time>
      </trkpt>
      <trkpt lat="45.92207" lon="4.752">
        <ele>175</ele>
        <time>2017-06-03T08:16:48Z</time>
      </trkpt>
      <trkpt lat="45.92206" lon="4.75207">
        <ele>175</ele>
        <time>2017-06-03T08:16:49Z</time>
      </trkpt>
      <trkpt lat="45.92205" lon="4.75214">
        <ele>175</ele>
        <time>2017-06-03T08:16:50Z</time>
      </trkpt>
      <trkpt lat="45.92204" lon="4.75221">
        <ele>175</ele>
        <time>2017-06-03T08:16:51Z</time>
      </trkpt>
      <trkpt lat="45.92203" lon="4.75229">
        <ele>175</ele>
        <time>2017-06-03T08:16:52Z</time>
      </trkpt>
      <trkpt lat="45.92203" lon="4.75236">
        <ele>175</ele>
        <time>2017-06-03T08:16:53Z</time>
      </trkpt>
      <trkpt lat="45.92203" lon="4.75244">
        <ele>175</ele>
        <time>2017-06-03T08:16:54Z</time>
      </trkpt>
      <trkpt lat="45.92203" lon="4.75252">
        <ele>175</ele>
        <time>2017-06-03T08:16:55Z</time>
      </trkpt>
      <trkpt lat="45.92202" lon="4.7526">
        <ele>175</ele>
        <time>2017-06-03T08:16:56Z</time>
      </trkpt>
      <trkpt lat="45.92202" lon="4.75268">
        <ele>176</ele>
        <time>2017-06-03T08:16:57Z</time>
      </trkpt>
      <trkpt lat="45.92202" lon="4.75275">
        <ele>176</ele>
        <time>2017-06-03T08:16:58Z</time>
      </trkpt>
      <trkpt lat="45.92202" lon="4.75282">
        <ele>176</ele>
        <time>2017-06-03T08:16:59Z</time>
      </trkpt>
      <trkpt lat="45.92202" lon="4.75289">
        <ele>176</ele>
        <time>2017-06-03T08:17:00Z</time>
      </trkpt>
      <trkpt lat="45.92202" lon="4.75296">
        <ele>176</ele>
        <time>2017-06-03T08:17:01Z</time>
      </trkpt>
      <trkpt lat="45.92201" lon="4.75308">
        <ele>176</ele>
        <time>2017-06-03T08:17:03Z</time>
      </trkpt>
      <trkpt lat="45.922" lon="4.75314">
        <ele>176</ele>
        <time>2017-06-03T08:17:04Z</time>
      </trkpt>
      <trkpt lat="45.92199" lon="4.75326">
        <ele>176</ele>
        <time>2017-06-03T08:17:06Z</time>
      </trkpt>
      <trkpt lat="45.92198" lon="4.75332">
        <ele>176</ele>
        <time>2017-06-03T08:17:07Z</time>
      </trkpt>
      <trkpt lat="45.92196" lon="4.75344">
        <ele>177</ele>
        <time>2017-06-03T08:17:09Z</time>
      </trkpt>
      <trkpt lat="45.92195" lon="4.7535">
        <ele>177</ele>
        <time>2017-06-03T08:17:10Z</time>
      </trkpt>
      <trkpt lat="45.92193" lon="4.75357">
        <ele>177</ele>
        <time>2017-06-03T08:17:11Z</time>
      </trkpt>
      <trkpt lat="45.92191" lon="4.75362">
        <ele>177</ele>
        <time>2017-06-03T08:17:12Z</time>
      </trkpt>
      <trkpt lat="45.92189" lon="4.75368">
        <ele>177</ele>
        <time>2017-06-03T08:17:13Z</time>
      </trkpt>
      <trkpt lat="45.92187" lon="4.75375">
        <ele>177</ele>
        <time>2017-06-03T08:17:14Z</time>
      </trkpt>
      <trkpt lat="45.92184" lon="4.75381">
        <ele>177</ele>
        <time>2017-06-03T08:17:15Z</time>
      </trkpt>
      <trkpt lat="45.92182" lon="4.75387">
        <ele>177</ele>
        <time>2017-06-03T08:17:16Z</time>
      </trkpt>
      <trkpt lat="45.92179" lon="4.75394">
        <ele>177</ele>
        <time>2017-06-03T08:17:17Z</time>
      </trkpt>
      <trkpt lat="45.92177" lon="4.754">
        <ele>177</ele>
        <time>2017-06-03T08:17:18Z</time>
      </trkpt>
      <trkpt lat="45.92174" lon="4.75407">
        <ele>177</ele>
        <time>2017-06-03T08:17:19Z</time>
      </trkpt>
      <trkpt lat="45.92172" lon="4.75414">
        <ele>178</ele>
        <time>2017-06-03T08:17:20Z</time>
      </trkpt>
      <trkpt lat="45.92169" lon="4.7542">
        <ele>178</ele>
        <time>2017-06-03T08:17:21Z</time>
      </trkpt>
      <trkpt lat="45.92167" lon="4.75426">
        <ele>177</ele>
        <time>2017-06-03T08:17:22Z</time>
      </trkpt>
      <trkpt lat="45.92164" lon="4.75432">
        <ele>177</ele>
        <time>2017-06-03T08:17:23Z</time>
      </trkpt>
      <trkpt lat="45.92162" lon="4.75439">
        <ele>177</ele>
        <time>2017-06-03T08:17:24Z</time>
      </trkpt>
      <trkpt lat="45.92159" lon="4.75445">
        <ele>177</ele>
        <time>2017-06-03T08:17:25Z</time>
      </trkpt>
      <trkpt lat="45.92157" lon="4.75451">
        <ele>176</ele>
        <time>2017-06-03T08:17:26Z</time>
      </trkpt>
      <trkpt lat="45.92154" lon="4.75458">
        <ele>176</ele>
        <time>2017-06-03T08:17:27Z</time>
      </trkpt>
      <trkpt lat="45.92151" lon="4.75465">
        <ele>176</ele>
        <time>2017-06-03T08:17:28Z</time>
      </trkpt>
      <trkpt lat="45.92149" lon="4.75472">
        <ele>176</ele>
        <time>2017-06-03T08:17:29Z</time>
      </trkpt>
      <trkpt lat="45.92146" lon="4.75478">
        <ele>176</ele>
        <time>2017-06-03T08:17:30Z</time>
      </trkpt>
      <trkpt lat="45.92143" lon="4.75485">
        <ele>176</ele>
        <time>2017-06-03T08:17:31Z</time>
      </trkpt>
      <trkpt lat="45.9214" lon="4.75491">
        <ele>176</ele>
        <time>2017-06-03T08:17:32Z</time>
      </trkpt>
      <trkpt lat="45.92138" lon="4.75498">
        <ele>175</ele>
        <time>2017-06-03T08:17:33Z</time>
      </trkpt>
      <trkpt lat="45.92135" lon="4.75504">
        <ele>174</ele>
        <time>2017-06-03T08:17:34Z</time>
      </trkpt>
      <trkpt lat="45.92132" lon="4.75511">
        <ele>174</ele>
        <time>2017-06-03T08:17:35Z</time>
      </trkpt>
      <trkpt lat="45.92129" lon="4.75518">
        <ele>174</ele>
        <time>2017-06-03T08:17:36Z</time>
      </trkpt>
      <trkpt lat="45.92125" lon="4.75525">
        <ele>174</ele>
        <time>2017-06-03T08:17:37Z</time>
      </trkpt>
      <trkpt lat="45.92122" lon="4.75531">
        <ele>174</ele>
        <time>2017-06-03T08:17:38Z</time>
      </trkpt>
      <trkpt lat="45.92119" lon="4.75538">
        <ele>174</ele>
        <time>2017-06-03T08:17:39Z</time>
      </trkpt>
      <trkpt lat="45.92116" lon="4.75544">
        <ele>174</ele>
        <time>2017-06-03T08:17:40Z</time>
      </trkpt>
      <trkpt lat="45.92113" lon="4.7555">
        <ele>174</ele>
        <time>2017-06-03T08:17:41Z</time>
      </trkpt>
      <trkpt lat="45.9211" lon="4.75556">
        <ele>174</ele>
        <time>2017-06-03T08:17:42Z</time>
      </trkpt>
      <trkpt lat="45.92107" lon="4.75562">
        <ele>174</ele>
        <time>2017-06-03T08:17:43Z</time>
      </trkpt>
      <trkpt lat="45.92104" lon="4.75568">
        <ele>174</ele>
        <time>2017-06-03T08:17:44Z</time>
      </trkpt>
      <trkpt lat="45.92103" lon="4.75575">
        <ele>174</ele>
        <time>2017-06-03T08:17:45Z</time>
      </trkpt>
      <trkpt lat="45.92104" lon="4.75582">
        <ele>174</ele>
        <time>2017-06-03T08:17:46Z</time>
      </trkpt>
      <trkpt lat="45.92107" lon="4.75588">
        <ele>174</ele>
        <time>2017-06-03T08:17:47Z</time>
      </trkpt>
      <trkpt lat="45.92111" lon="4.75593">
        <ele>174</ele>
        <time>2017-06-03T08:17:48Z</time>
      </trkpt>
      <trkpt lat="45.92115" lon="4.75597">
        <ele>174</ele>
        <time>2017-06-03T08:17:49Z</time>
      </trkpt>
      <trkpt lat="45.92119" lon="4.75601">
        <ele>174</ele>
        <time>2017-06-03T08:17:50Z</time>
      </trkpt>
      <trkpt lat="45.92123" lon="4.75605">
        <ele>174</ele>
        <time>2017-06-03T08:17:51Z</time>
      </trkpt>
      <trkpt lat="45.92128" lon="4.75608">
        <ele>174</ele>
        <time>2017-06-03T08:17:52Z</time>
      </trkpt>
      <trkpt lat="45.92132" lon="4.75612">
        <ele>174</ele>
        <time>2017-06-03T08:17:53Z</time>
      </trkpt>
      <trkpt lat="45.92136" lon="4.75616">
        <ele>174</ele>
        <time>2017-06-03T08:17:54Z</time>
      </trkpt>
      <trkpt lat="45.92141" lon="4.7562">
        <ele>174</ele>
        <time>2017-06-03T08:17:55Z</time>
      </trkpt>
      <trkpt lat="45.92146" lon="4.75625">
        <ele>174</ele>
        <time>2017-06-03T08:17:56Z</time>
      </trkpt>
      <trkpt lat="45.9215" lon="4.75629">
        <ele>174</ele>
        <time>2017-06-03T08:17:57Z</time>
      </trkpt>
      <trkpt lat="45.92155" lon="4.75633">
        <ele>174</ele>
        <time>2017-06-03T08:17:58Z</time>
      </trkpt>
      <trkpt lat="45.9216" lon="4.75637">
        <ele>174</ele>
        <time>2017-06-03T08:17:59Z</time>
      </trkpt>
      <trkpt lat="45.92164" lon="4.75641">
        <ele>174</ele>
        <time>2017-06-03T08:18:00Z</time>
      </trkpt>
      <trkpt lat="45.92168" lon="4.75645">
        <ele>174</ele>
        <time>2017-06-03T08:18:01Z</time>
      </trkpt>
      <trkpt lat="45.92172" lon="4.75649">
        <ele>174</ele>
        <time>2017-06-03T08:18:02Z</time>
      </trkpt>
      <trkpt lat="45.92179" lon="4.75656">
        <ele>174</ele>
        <time>2017-06-03T08:18:04Z</time>
      </trkpt>
      <trkpt lat="45.92183" lon="4.7566">
        <ele>174</ele>
        <time>2017-06-03T08:18:05Z</time>
      </trkpt>
      <trkpt lat="45.92189" lon="4.75667">
        <ele>174</ele>
        <time>2017-06-03T08:18:07Z</time>
      </trkpt>
      <trkpt lat="45.92192" lon="4.75672">
        <ele>174</ele>
        <time>2017-06-03T08:18:08Z</time>
      </trkpt>
      <trkpt lat="45.92196" lon="4.75677">
        <ele>174</ele>
        <time>2017-06-03T08:18:09Z</time>
      </trkpt>
      <trkpt lat="45.922" lon="4.75681">
        <ele>174</ele>
        <time>2017-06-03T08:18:10Z</time>
      </trkpt>
      <trkpt lat="45.92205" lon="4.75684">
        <ele>174</ele>
        <time>2017-06-03T08:18:11Z</time>
      </trkpt>
      <trkpt lat="45.92209" lon="4.75689">
        <ele>174</ele>
        <time>2017-06-03T08:18:12Z</time>
      </trkpt>
      <trkpt lat="45.92213" lon="4.75692">
        <ele>174</ele>
        <time>2017-06-03T08:18:13Z</time>
      </trkpt>
      <trkpt lat="45.92218" lon="4.75696">
        <ele>174</ele>
        <time>2017-06-03T08:18:14Z</time>
      </trkpt>
      <trkpt lat="45.92221" lon="4.757">
        <ele>174</ele>
        <time>2017-06-03T08:18:15Z</time>
      </trkpt>
      <trkpt lat="45.92225" lon="4.75704">
        <ele>174</ele>
        <time>2017-06-03T08:18:16Z</time>
      </trkpt>
      <trkpt lat="45.92229" lon="4.75709">
        <ele>174</ele>
        <time>2017-06-03T08:18:17Z</time>
      </trkpt>
      <trkpt lat="45.92232" lon="4.75715">
        <ele>174</ele>
        <time>2017-06-03T08:18:18Z</time>
      </trkpt>
      <trkpt lat="45.92234" lon="4.75722">
        <ele>174</ele>
        <time>2017-06-03T08:18:19Z</time>
      </trkpt>
      <trkpt lat="45.92237" lon="4.75728">
        <ele>174</ele>
        <time>2017-06-03T08:18:20Z</time>
      </trkpt>
      <trkpt lat="45.92239" lon="4.75735">
        <ele>174</ele>
        <time>2017-06-03T08:18:21Z</time>
      </trkpt>
      <trkpt lat="45.92241" lon="4.75741">
        <ele>174</ele>
        <time>2017-06-03T08:18:22Z</time>
      </trkpt>
      <trkpt lat="45.92242" lon="4.75748">
        <ele>174</ele>
        <time>2017-06-03T08:18:23Z</time>
      </trkpt>
      <trkpt lat="45.92244" lon="4.75755">
        <ele>174</ele>
        <time>2017-06-03T08:18:24Z</time>
      </trkpt>
      <trkpt lat="45.92246" lon="4.75762">
        <ele>174</ele>
        <time>2017-06-03T08:18:25Z</time>
      </trkpt>
      <trkpt lat="45.92248" lon="4.75769">
        <ele>174</ele>
        <time>2017-06-03T08:18:26Z</time>
      </trkpt>
      <trkpt lat="45.9225" lon="4.75776">
        <ele>173</ele>
        <time>2017-06-03T08:18:27Z</time>
      </trkpt>
      <trkpt lat="45.92251" lon="4.75783">
        <ele>174</ele>
        <time>2017-06-03T08:18:28Z</time>
      </trkpt>
      <trkpt lat="45.92252" lon="4.7579">
        <ele>174</ele>
        <time>2017-06-03T08:18:29Z</time>
      </trkpt>
      <trkpt lat="45.92254" lon="4.75797">
        <ele>174</ele>
        <time>2017-06-03T08:18:30Z</time>
      </trkpt>
      <trkpt lat="45.92256" lon="4.75804">
        <ele>174</ele>
        <time>2017-06-03T08:18:31Z</time>
      </trkpt>
      <trkpt lat="45.92258" lon="4.75811">
        <ele>174</ele>
        <time>2017-06-03T08:18:32Z</time>
      </trkpt>
      <trkpt lat="45.92261" lon="4.75817">
        <ele>174</ele>
        <time>2017-06-03T08:18:33Z</time>
      </trkpt>
      <trkpt lat="45.92265" lon="4.75824">
        <ele>174</ele>
        <time>2017-06-03T08:18:34Z</time>
      </trkpt>
      <trkpt lat="45.92268" lon="4.75829">
        <ele>174</ele>
        <time>2017-06-03T08:18:35Z</time>
      </trkpt>
      <trkpt lat="45.92273" lon="4.75834">
        <ele>173</ele>
        <time>2017-06-03T08:18:36Z</time>
      </trkpt>
      <trkpt lat="45.92278" lon="4.75839">
        <ele>173</ele>
        <time>2017-06-03T08:18:37Z</time>
      </trkpt>
      <trkpt lat="45.92283" lon="4.75843">
        <ele>173</ele>
        <time>2017-06-03T08:18:38Z</time>
      </trkpt>
      <trkpt lat="45.92288" lon="4.75846">
        <ele>173</ele>
        <time>2017-06-03T08:18:39Z</time>
      </trkpt>
      <trkpt lat="45.92294" lon="4.75849">
        <ele>173</ele>
        <time>2017-06-03T08:18:40Z</time>
      </trkpt>
      <trkpt lat="45.92299" lon="4.75853">
        <ele>173</ele>
        <time>2017-06-03T08:18:41Z</time>
      </trkpt>
      <trkpt lat="45.92305" lon="4.75856">
        <ele>173</ele>
        <time>2017-06-03T08:18:42Z</time>
      </trkpt>
      <trkpt lat="45.9231" lon="4.7586">
        <ele>173</ele>
        <time>2017-06-03T08:18:43Z</time>
      </trkpt>
      <trkpt lat="45.92316" lon="4.75863">
        <ele>173</ele>
        <time>2017-06-03T08:18:44Z</time>
      </trkpt>
      <trkpt lat="45.92322" lon="4.75867">
        <ele>173</ele>
        <time>2017-06-03T08:18:45Z</time>
      </trkpt>
      <trkpt lat="45.92328" lon="4.7587">
        <ele>173</ele>
        <time>2017-06-03T08:18:46Z</time>
      </trkpt>
      <trkpt lat="45.92334" lon="4.75874">
        <ele>173</ele>
        <time>2017-06-03T08:18:47Z</time>
      </trkpt>
      <trkpt lat="45.92339" lon="4.75877">
        <ele>173</ele>
        <time>2017-06-03T08:18:48Z</time>
      </trkpt>
      <trkpt lat="45.92345" lon="4.7588">
        <ele>173</ele>
        <time>2017-06-03T08:18:49Z</time>
      </trkpt>
      <trkpt lat="45.92351" lon="4.75884">
        <ele>173</ele>
        <time>2017-06-03T08:18:50Z</time>
      </trkpt>
      <trkpt lat="45.92356" lon="4.75887">
        <ele>173</ele>
        <time>2017-06-03T08:18:51Z</time>
      </trkpt>
      <trkpt lat="45.92361" lon="4.7589">
        <ele>173</ele>
        <time>2017-06-03T08:18:52Z</time>
      </trkpt>
      <trkpt lat="45.92367" lon="4.75894">
        <ele>173</ele>
        <time>2017-06-03T08:18:53Z</time>
      </trkpt>
      <trkpt lat="45.92372" lon="4.75898">
        <ele>173</ele>
        <time>2017-06-03T08:18:54Z</time>
      </trkpt>
      <trkpt lat="45.92377" lon="4.75901">
        <ele>173</ele>
        <time>2017-06-03T08:18:55Z</time>
      </trkpt>
      <trkpt lat="45.92382" lon="4.75904">
        <ele>173</ele>
        <time>2017-06-03T08:18:56Z</time>
      </trkpt>
      <trkpt lat="45.92387" lon="4.75908">
        <ele>173</ele>
        <time>2017-06-03T08:18:57Z</time>
      </trkpt>
      <trkpt lat="45.92392" lon="4.75911">
        <ele>173</ele>
        <time>2017-06-03T08:18:58Z</time>
      </trkpt>
      <trkpt lat="45.92396" lon="4.75915">
        <ele>173</ele>
        <time>2017-06-03T08:18:59Z</time>
      </trkpt>
      <trkpt lat="45.92401" lon="4.75918">
        <ele>172</ele>
        <time>2017-06-03T08:19:00Z</time>
      </trkpt>
      <trkpt lat="45.92406" lon="4.75922">
        <ele>172</ele>
        <time>2017-06-03T08:19:01Z</time>
      </trkpt>
      <trkpt lat="45.92411" lon="4.75925">
        <ele>172</ele>
        <time>2017-06-03T08:19:02Z</time>
      </trkpt>
      <trkpt lat="45.92415" lon="4.75928">
        <ele>172</ele>
        <time>2017-06-03T08:19:03Z</time>
      </trkpt>
      <trkpt lat="45.9242" lon="4.75932">
        <ele>172</ele>
        <time>2017-06-03T08:19:04Z</time>
      </trkpt>
      <trkpt lat="45.92424" lon="4.75935">
        <ele>172</ele>
        <time>2017-06-03T08:19:05Z</time>
      </trkpt>
      <trkpt lat="45.92429" lon="4.75939">
        <ele>172</ele>
        <time>2017-06-03T08:19:06Z</time>
      </trkpt>
      <trkpt lat="45.92434" lon="4.75943">
        <ele>172</ele>
        <time>2017-06-03T08:19:07Z</time>
      </trkpt>
      <trkpt lat="45.92439" lon="4.75947">
        <ele>172</ele>
        <time>2017-06-03T08:19:08Z</time>
      </trkpt>
      <trkpt lat="45.92444" lon="4.75951">
        <ele>172</ele>
        <time>2017-06-03T08:19:09Z</time>
      </trkpt>
      <trkpt lat="45.92449" lon="4.75955">
        <ele>172</ele>
        <time>2017-06-03T08:19:10Z</time>
      </trkpt>
      <trkpt lat="45.92454" lon="4.75959">
        <ele>172</ele>
        <time>2017-06-03T08:19:11Z</time>
      </trkpt>
      <trkpt lat="45.92459" lon="4.75963">
        <ele>172</ele>
        <time>2017-06-03T08:19:12Z</time>
      </trkpt>
      <trkpt lat="45.92465" lon="4.75967">
        <ele>172</ele>
        <time>2017-06-03T08:19:13Z</time>
      </trkpt>
      <trkpt lat="45.9247" lon="4.75971">
        <ele>172</ele>
        <time>2017-06-03T08:19:14Z</time>
      </trkpt>
      <trkpt lat="45.92474" lon="4.75975">
        <ele>172</ele>
        <time>2017-06-03T08:19:15Z</time>
      </trkpt>
      <trkpt lat="45.92479" lon="4.75978">
        <ele>172</ele>
        <time>2017-06-03T08:19:16Z</time>
      </trkpt>
      <trkpt lat="45.92483" lon="4.75981">
        <ele>172</ele>
        <time>2017-06-03T08:19:17Z</time>
      </trkpt>
      <trkpt lat="45.92488" lon="4.75984">
        <ele>172</ele>
        <time>2017-06-03T08:19:18Z</time>
      </trkpt>
      <trkpt lat="45.92492" lon="4.75987">
        <ele>172</ele>
        <time>2017-06-03T08:19:19Z</time>
      </trkpt>
      <trkpt lat="45.92496" lon="4.7599">
        <ele>172</ele>
        <time>2017-06-03T08:19:20Z</time>
      </trkpt>
      <trkpt lat="45.925" lon="4.75993">
        <ele>172</ele>
        <time>2017-06-03T08:19:21Z</time>
      </trkpt>
      <trkpt lat="45.92504" lon="4.75996">
        <ele>172</ele>
        <time>2017-06-03T08:19:22Z</time>
      </trkpt>
      <trkpt lat="45.92508" lon="4.75999">
        <ele>172</ele>
        <time>2017-06-03T08:19:23Z</time>
      </trkpt>
      <trkpt lat="45.92512" lon="4.76002">
        <ele>172</ele>
        <time>2017-06-03T08:19:24Z</time>
      </trkpt>
      <trkpt lat="45.9252" lon="4.76008">
        <ele>172</ele>
        <time>2017-06-03T08:19:26Z</time>
      </trkpt>
      <trkpt lat="45.92524" lon="4.7601">
        <ele>172</ele>
        <time>2017-06-03T08:19:27Z</time>
      </trkpt>
      <trkpt lat="45.92531" lon="4.76015">
        <ele>172</ele>
        <time>2017-06-03T08:19:29Z</time>
      </trkpt>
      <trkpt lat="45.92534" lon="4.76018">
        <ele>172</ele>
        <time>2017-06-03T08:19:30Z</time>
      </trkpt>
      <trkpt lat="45.92542" lon="4.76024">
        <ele>172</ele>
        <time>2017-06-03T08:19:32Z</time>
      </trkpt>
      <trkpt lat="45.92546" lon="4.76028">
        <ele>172</ele>
        <time>2017-06-03T08:19:33Z</time>
      </trkpt>
      <trkpt lat="45.9255" lon="4.76031">
        <ele>172</ele>
        <time>2017-06-03T08:19:34Z</time>
      </trkpt>
      <trkpt lat="45.92554" lon="4.76034">
        <ele>172</ele>
        <time>2017-06-03T08:19:35Z</time>
      </trkpt>
      <trkpt lat="45.92559" lon="4.76037">
        <ele>172</ele>
        <time>2017-06-03T08:19:36Z</time>
      </trkpt>
      <trkpt lat="45.92563" lon="4.7604">
        <ele>172</ele>
        <time>2017-06-03T08:19:37Z</time>
      </trkpt>
      <trkpt lat="45.92568" lon="4.76043">
        <ele>171</ele>
        <time>2017-06-03T08:19:38Z</time>
      </trkpt>
      <trkpt lat="45.92572" lon="4.76046">
        <ele>171</ele>
        <time>2017-06-03T08:19:39Z</time>
      </trkpt>
      <trkpt lat="45.92577" lon="4.7605">
        <ele>171</ele>
        <time>2017-06-03T08:19:40Z</time>
      </trkpt>
      <trkpt lat="45.92581" lon="4.76054">
        <ele>171</ele>
        <time>2017-06-03T08:19:41Z</time>
      </trkpt>
      <trkpt lat="45.92585" lon="4.76057">
        <ele>171</ele>
        <time>2017-06-03T08:19:42Z</time>
      </trkpt>
      <trkpt lat="45.9259" lon="4.7606">
        <ele>171</ele>
        <time>2017-06-03T08:19:43Z</time>
      </trkpt>
      <trkpt lat="45.92595" lon="4.76064">
        <ele>171</ele>
        <time>2017-06-03T08:19:44Z</time>
      </trkpt>
      <trkpt lat="45.926" lon="4.76067">
        <ele>171</ele>
        <time>2017-06-03T08:19:45Z</time>
      </trkpt>
      <trkpt lat="45.92605" lon="4.76071">
        <ele>171</ele>
        <time>2017-06-03T08:19:46Z</time>
      </trkpt>
      <trkpt lat="45.9261" lon="4.76074">
        <ele>171</ele>
        <time>2017-06-03T08:19:47Z</time>
      </trkpt>
      <trkpt lat="45.92615" lon="4.76078">
        <ele>171</ele>
        <time>2017-06-03T08:19:48Z</time>
      </trkpt>
      <trkpt lat="45.92621" lon="4.76082">
        <ele>171</ele>
        <time>2017-06-03T08:19:49Z</time>
      </trkpt>
      <trkpt lat="45.92627" lon="4.76086">
        <ele>170</ele>
        <time>2017-06-03T08:19:50Z</time>
      </trkpt>
      <trkpt lat="45.92633" lon="4.7609">
        <ele>170</ele>
        <time>2017-06-03T08:19:51Z</time>
      </trkpt>
      <trkpt lat="45.9264" lon="4.76094">
        <ele>170</ele>
        <time>2017-06-03T08:19:52Z</time>
      </trkpt>
      <trkpt lat="45.92646" lon="4.76098">
        <ele>170</ele>
        <time>2017-06-03T08:19:53Z</time>
      </trkpt>
      <trkpt lat="45.92653" lon="4.76103">
        <ele>170</ele>
        <time>2017-06-03T08:19:54Z</time>
      </trkpt>
      <trkpt lat="45.9266" lon="4.76107">
        <ele>170</ele>
        <time>2017-06-03T08:19:55Z</time>
      </trkpt>
      <trkpt lat="45.92667" lon="4.76111">
        <ele>170</ele>
        <time>2017-06-03T08:19:56Z</time>
      </trkpt>
      <trkpt lat="45.92674" lon="4.76116">
        <ele>169</ele>
        <time>2017-06-03T08:19:57Z</time>
      </trkpt>
      <trkpt lat="45.92681" lon="4.76121">
        <ele>169</ele>
        <time>2017-06-03T08:19:58Z</time>
      </trkpt>
      <trkpt lat="45.92688" lon="4.76126">
        <ele>169</ele>
        <time>2017-06-03T08:19:59Z</time>
      </trkpt>
      <trkpt lat="45.92695" lon="4.7613">
        <ele>169</ele>
        <time>2017-06-03T08:20:00Z</time>
      </trkpt>
      <trkpt lat="45.92703" lon="4.76135">
        <ele>169</ele>
        <time>2017-06-03T08:20:01Z</time>
      </trkpt>
      <trkpt lat="45.9271" lon="4.7614">
        <ele>168</ele>
        <time>2017-06-03T08:20:02Z</time>
      </trkpt>
      <trkpt lat="45.92717" lon="4.76145">
        <ele>168</ele>
        <time>2017-06-03T08:20:03Z</time>
      </trkpt>
      <trkpt lat="45.92725" lon="4.7615">
        <ele>168</ele>
        <time>2017-06-03T08:20:04Z</time>
      </trkpt>
      <trkpt lat="45.92732" lon="4.76156">
        <ele>168</ele>
        <time>2017-06-03T08:20:05Z</time>
      </trkpt>
      <trkpt lat="45.92738" lon="4.76161">
        <ele>168</ele>
        <time>2017-06-03T08:20:06Z</time>
      </trkpt>
      <trkpt lat="45.92745" lon="4.76167">
        <ele>167</ele>
        <time>2017-06-03T08:20:07Z</time>
      </trkpt>
      <trkpt lat="45.92752" lon="4.76172">
        <ele>167</ele>
        <time>2017-06-03T08:20:08Z</time>
      </trkpt>
      <trkpt lat="45.92758" lon="4.76178">
        <ele>167</ele>
        <time>2017-06-03T08:20:09Z</time>
      </trkpt>
      <trkpt lat="45.92764" lon="4.76184">
        <ele>167</ele>
        <time>2017-06-03T08:20:10Z</time>
      </trkpt>
      <trkpt lat="45.9277" lon="4.76189">
        <ele>168</ele>
        <time>2017-06-03T08:20:11Z</time>
      </trkpt>
      <trkpt lat="45.92776" lon="4.76194">
        <ele>168</ele>
        <time>2017-06-03T08:20:12Z</time>
      </trkpt>
      <trkpt lat="45.92781" lon="4.76199">
        <ele>168</ele>
        <time>2017-06-03T08:20:13Z</time>
      </trkpt>
      <trkpt lat="45.92787" lon="4.76204">
        <ele>168</ele>
        <time>2017-06-03T08:20:14Z</time>
      </trkpt>
      <trkpt lat="45.92792" lon="4.76209">
        <ele>168</ele>
        <time>2017-06-03T08:20:15Z</time>
      </trkpt>
      <trkpt lat="45.92797" lon="4.76214">
        <ele>168</ele>
        <time>2017-06-03T08:20:16Z</time>
      </trkpt>
      <trkpt lat="45.92802" lon="4.76219">
        <ele>168</ele>
        <time>2017-06-03T08:20:17Z</time>
      </trkpt>
      <trkpt lat="45.92807" lon="4.76225">
        <ele>168</ele>
        <time>2017-06-03T08:20:18Z</time>
      </trkpt>
      <trkpt lat="45.92811" lon="4.76229">
        <ele>168</ele>
        <time>2017-06-03T08:20:19Z</time>
      </trkpt>
      <trkpt lat="45.92816" lon="4.76234">
        <ele>168</ele>
        <time>2017-06-03T08:20:20Z</time>
      </trkpt>
      <trkpt lat="45.9282" lon="4.76238">
        <ele>168</ele>
        <time>2017-06-03T08:20:21Z</time>
      </trkpt>
      <trkpt lat="45.92825" lon="4.76242">
        <ele>169</ele>
        <time>2017-06-03T08:20:22Z</time>
      </trkpt>
      <trkpt lat="45.92829" lon="4.76246">
        <ele>169</ele>
        <time>2017-06-03T08:20:23Z</time>
      </trkpt>
      <trkpt lat="45.92833" lon="4.7625">
        <ele>169</ele>
        <time>2017-06-03T08:20:24Z</time>
      </trkpt>
      <trkpt lat="45.92837" lon="4.76253">
        <ele>169</ele>
        <time>2017-06-03T08:20:25Z</time>
      </trkpt>
      <trkpt lat="45.92841" lon="4.76257">
        <ele>169</ele>
        <time>2017-06-03T08:20:26Z</time>
      </trkpt>
      <trkpt lat="45.92845" lon="4.76261">
        <ele>169</ele>
        <time>2017-06-03T08:20:27Z</time>
      </trkpt>
      <trkpt lat="45.92849" lon="4.76266">
        <ele>169</ele>
        <time>2017-06-03T08:20:28Z</time>
      </trkpt>
      <trkpt lat="45.92853" lon="4.76269">
        <ele>169</ele>
        <time>2017-06-03T08:20:29Z</time>
      </trkpt>
      <trkpt lat="45.92858" lon="4.76273">
        <ele>169</ele>
        <time>2017-06-03T08:20:30Z</time>
      </trkpt>
      <trkpt lat="45.92862" lon="4.76278">
        <ele>169</ele>
        <time>2017-06-03T08:20:31Z</time>
      </trkpt>
      <trkpt lat="45.92867" lon="4.76283">
        <ele>169</ele>
        <time>2017-06-03T08:20:32Z</time>
      </trkpt>
      <trkpt lat="45.92872" lon="4.76288">
        <ele>169</ele>
        <time>2017-06-03T08:20:33Z</time>
      </trkpt>
      <trkpt lat="45.92877" lon="4.76292">
        <ele>169</ele>
        <time>2017-06-03T08:20:34Z</time>
      </trkpt>
      <trkpt lat="45.92882" lon="4.76296">
        <ele>169</ele>
        <time>2017-06-03T08:20:35Z</time>
      </trkpt>
      <trkpt lat="45.92886" lon="4.763">
        <ele>169</ele>
        <time>2017-06-03T08:20:36Z</time>
      </trkpt>
      <trkpt lat="45.92891" lon="4.76305">
        <ele>169</ele>
        <time>2017-06-03T08:20:37Z</time>
      </trkpt>
      <trkpt lat="45.92895" lon="4.76309">
        <ele>169</ele>
        <time>2017-06-03T08:20:38Z</time>
      </trkpt>
      <trkpt lat="45.92899" lon="4.76314">
        <ele>169</ele>
        <time>2017-06-03T08:20:39Z</time>
      </trkpt>
      <trkpt lat="45.92903" lon="4.76318">
        <ele>169</ele>
        <time>2017-06-03T08:20:40Z</time>
      </trkpt>
      <trkpt lat="45.92908" lon="4.76323">
        <ele>169</ele>
        <time>2017-06-03T08:20:41Z</time>
      </trkpt>
      <trkpt lat="45.92912" lon="4.76327">
        <ele>169</ele>
        <time>2017-06-03T08:20:42Z</time>
      </trkpt>
      <trkpt lat="45.92916" lon="4.76331">
        <ele>169</ele>
        <time>2017-06-03T08:20:43Z</time>
      </trkpt>
      <trkpt lat="45.9292" lon="4.76336">
        <ele>169</ele>
        <time>2017-06-03T08:20:44Z</time>
      </trkpt>
      <trkpt lat="45.92924" lon="4.7634">
        <ele>169</ele>
        <time>2017-06-03T08:20:45Z</time>
      </trkpt>
      <trkpt lat="45.92929" lon="4.76345">
        <ele>169</ele>
        <time>2017-06-03T08:20:46Z</time>
      </trkpt>
      <trkpt lat="45.92934" lon="4.7635">
        <ele>169</ele>
        <time>2017-06-03T08:20:47Z</time>
      </trkpt>
      <trkpt lat="45.92938" lon="4.76356">
        <ele>169</ele>
        <time>2017-06-03T08:20:48Z</time>
      </trkpt>
      <trkpt lat="45.92944" lon="4.76361">
        <ele>169</ele>
        <time>2017-06-03T08:20:49Z</time>
      </trkpt>
      <trkpt lat="45.92949" lon="4.76367">
        <ele>169</ele>
        <time>2017-06-03T08:20:50Z</time>
      </trkpt>
      <trkpt lat="45.92954" lon="4.76372">
        <ele>169</ele>
        <time>2017-06-03T08:20:51Z</time>
      </trkpt>
      <trkpt lat="45.92959" lon="4.76378">
        <ele>169</ele>
        <time>2017-06-03T08:20:52Z</time>
      </trkpt>
      <trkpt lat="45.92964" lon="4.76383">
        <ele>169</ele>
        <time>2017-06-03T08:20:53Z</time>
      </trkpt>
      <trkpt lat="45.9297" lon="4.76389">
        <ele>169</ele>
        <time>2017-06-03T08:20:54Z</time>
      </trkpt>
      <trkpt lat="45.92975" lon="4.76394">
        <ele>169</ele>
        <time>2017-06-03T08:20:55Z</time>
      </trkpt>
      <trkpt lat="45.92979" lon="4.76399">
        <ele>169</ele>
        <time>2017-06-03T08:20:56Z</time>
      </trkpt>
      <trkpt lat="45.92984" lon="4.76403">
        <ele>169</ele>
        <time>2017-06-03T08:20:57Z</time>
      </trkpt>
      <trkpt lat="45.92989" lon="4.76408">
        <ele>169</ele>
        <time>2017-06-03T08:20:58Z</time>
      </trkpt>
      <trkpt lat="45.92993" lon="4.76412">
        <ele>169</ele>
        <time>2017-06-03T08:20:59Z</time>
      </trkpt>
      <trkpt lat="45.92997" lon="4.76415">
        <ele>169</ele>
        <time>2017-06-03T08:21:00Z</time>
      </trkpt>
      <trkpt lat="45.93001" lon="4.76419">
        <ele>169</ele>
        <time>2017-06-03T08:21:01Z</time>
      </trkpt>
      <trkpt lat="45.93005" lon="4.76424">
        <ele>169</ele>
        <time>2017-06-03T08:21:02Z</time>
      </trkpt>
      <trkpt lat="45.93009" lon="4.76428">
        <ele>169</ele>
        <time>2017-06-03T08:21:03Z</time>
      </trkpt>
      <trkpt lat="45.93014" lon="4.76432">
        <ele>169</ele>
        <time>2017-06-03T08:21:04Z</time>
      </trkpt>
      <trkpt lat="45.93018" lon="4.76437">
        <ele>169</ele>
        <time>2017-06-03T08:21:05Z</time>
      </trkpt>
      <trkpt lat="45.93023" lon="4.76441">
        <ele>169</ele>
        <time>2017-06-03T08:21:06Z</time>
      </trkpt>
      <trkpt lat="45.93028" lon="4.76446">
        <ele>169</ele>
        <time>2017-06-03T08:21:07Z</time>
      </trkpt>
      <trkpt lat="45.93033" lon="4.76451">
        <ele>169</ele>
        <time>2017-06-03T08:21:08Z</time>
      </trkpt>
      <trkpt lat="45.93038" lon="4.76456">
        <ele>169</ele>
        <time>2017-06-03T08:21:09Z</time>
      </trkpt>
      <trkpt lat="45.93043" lon="4.76461">
        <ele>169</ele>
        <time>2017-06-03T08:21:10Z</time>
      </trkpt>
      <trkpt lat="45.93048" lon="4.76465">
        <ele>169</ele>
        <time>2017-06-03T08:21:11Z</time>
      </trkpt>
      <trkpt lat="45.93053" lon="4.76469">
        <ele>169</ele>
        <time>2017-06-03T08:21:12Z</time>
      </trkpt>
      <trkpt lat="45.93058" lon="4.76473">
        <ele>169</ele>
        <time>2017-06-03T08:21:13Z</time>
      </trkpt>
      <trkpt lat="45.93063" lon="4.76478">
        <ele>169</ele>
        <time>2017-06-03T08:21:14Z</time>
      </trkpt>
      <trkpt lat="45.93067" lon="4.76482">
        <ele>169</ele>
        <time>2017-06-03T08:21:15Z</time>
      </trkpt>
      <trkpt lat="45.93072" lon="4.76487">
        <ele>169</ele>
        <time>2017-06-03T08:21:16Z</time>
      </trkpt>
      <trkpt lat="45.93076" lon="4.76491">
        <ele>170</ele>
        <time>2017-06-03T08:21:17Z</time>
      </trkpt>
      <trkpt lat="45.9308" lon="4.76495">
        <ele>170</ele>
        <time>2017-06-03T08:21:18Z</time>
      </trkpt>
      <trkpt lat="45.93085" lon="4.76499">
        <ele>170</ele>
        <time>2017-06-03T08:21:19Z</time>
      </trkpt>
      <trkpt lat="45.93089" lon="4.76504">
        <ele>170</ele>
        <time>2017-06-03T08:21:20Z</time>
      </trkpt>
      <trkpt lat="45.93093" lon="4.7651">
        <ele>170</ele>
        <time>2017-06-03T08:21:21Z</time>
      </trkpt>
      <trkpt lat="45.93097" lon="4.76514">
        <ele>170</ele>
        <time>2017-06-03T08:21:22Z</time>
      </trkpt>
      <trkpt lat="45.93102" lon="4.76519">
        <ele>170</ele>
        <time>2017-06-03T08:21:23Z</time>
      </trkpt>
      <trkpt lat="45.93107" lon="4.76522">
        <ele>170</ele>
        <time>2017-06-03T08:21:24Z</time>
      </trkpt>
      <trkpt lat="45.93111" lon="4.76526">
        <ele>170</ele>
        <time>2017-06-03T08:21:25Z</time>
      </trkpt>
      <trkpt lat="45.93116" lon="4.7653">
        <ele>170</ele>
        <time>2017-06-03T08:21:26Z</time>
      </trkpt>
      <trkpt lat="45.93121" lon="4.76534">
        <ele>170</ele>
        <time>2017-06-03T08:21:27Z</time>
      </trkpt>
      <trkpt lat="45.93126" lon="4.76538">
        <ele>170</ele>
        <time>2017-06-03T08:21:28Z</time>
      </trkpt>
      <trkpt lat="45.93131" lon="4.76542">
        <ele>170</ele>
        <time>2017-06-03T08:21:29Z</time>
      </trkpt>
      <trkpt lat="45.93135" lon="4.76547">
        <ele>170</ele>
        <time>2017-06-03T08:21:30Z</time>
      </trkpt>
      <trkpt lat="45.93139" lon="4.76552">
        <ele>170</ele>
        <time>2017-06-03T08:21:31Z</time>
      </trkpt>
      <trkpt lat="45.93144" lon="4.76556">
        <ele>170</ele>
        <time>2017-06-03T08:21:32Z</time>
      </trkpt>
      <trkpt lat="45.93148" lon="4.76561">
        <ele>170</ele>
        <time>2017-06-03T08:21:33Z</time>
      </trkpt>
      <trkpt lat="45.93153" lon="4.76565">
        <ele>170</ele>
        <time>2017-06-03T08:21:34Z</time>
      </trkpt>
      <trkpt lat="45.93157" lon="4.76569">
        <ele>170</ele>
        <time>2017-06-03T08:21:35Z</time>
      </trkpt>
      <trkpt lat="45.93161" lon="4.76573">
        <ele>170</ele>
        <time>2017-06-03T08:21:36Z</time>
      </trkpt>
      <trkpt lat="45.93166" lon="4.76577">
        <ele>171</ele>
        <time>2017-06-03T08:21:37Z</time>
      </trkpt>
      <trkpt lat="45.9317" lon="4.76581">
        <ele>171</ele>
        <time>2017-06-03T08:21:38Z</time>
      </trkpt>
      <trkpt lat="45.93174" lon="4.76586">
        <ele>171</ele>
        <time>2017-06-03T08:21:39Z</time>
      </trkpt>
      <trkpt lat="45.93177" lon="4.76591">
        <ele>171</ele>
        <time>2017-06-03T08:21:40Z</time>
      </trkpt>
      <trkpt lat="45.93182" lon="4.76597">
        <ele>171</ele>
        <time>2017-06-03T08:21:41Z</time>
      </trkpt>
      <trkpt lat="45.93187" lon="4.76602">
        <ele>171</ele>
        <time>2017-06-03T08:21:42Z</time>
      </trkpt>
      <trkpt lat="45.93192" lon="4.76606">
        <ele>170</ele>
        <time>2017-06-03T08:21:43Z</time>
      </trkpt>
      <trkpt lat="45.93196" lon="4.76612">
        <ele>170</ele>
        <time>2017-06-03T08:21:44Z</time>
      </trkpt>
      <trkpt lat="45.93201" lon="4.76616">
        <ele>170</ele>
        <time>2017-06-03T08:21:45Z</time>
      </trkpt>
      <trkpt lat="45.93205" lon="4.76621">
        <ele>170</ele>
        <time>2017-06-03T08:21:46Z</time>
      </trkpt>
      <trkpt lat="45.9321" lon="4.76625">
        <ele>170</ele>
        <time>2017-06-03T08:21:47Z</time>
      </trkpt>
      <trkpt lat="45.93214" lon="4.7663">
        <ele>171</ele>
        <time>2017-06-03T08:21:48Z</time>
      </trkpt>
      <trkpt lat="45.93218" lon="4.76634">
        <ele>171</ele>
        <time>2017-06-03T08:21:49Z</time>
      </trkpt>
      <trkpt lat="45.93222" lon="4.76638">
        <ele>171</ele>
        <time>2017-06-03T08:21:50Z</time>
      </trkpt>
      <trkpt lat="45.93226" lon="4.76643">
        <ele>171</ele>
        <time>2017-06-03T08:21:51Z</time>
      </trkpt>
      <trkpt lat="45.9323" lon="4.76648">
        <ele>171</ele>
        <time>2017-06-03T08:21:52Z</time>
      </trkpt>
      <trkpt lat="45.93235" lon="4.76652">
        <ele>171</ele>
        <time>2017-06-03T08:21:53Z</time>
      </trkpt>
      <trkpt lat="45.93239" lon="4.76657">
        <ele>171</ele>
        <time>2017-06-03T08:21:54Z</time>
      </trkpt>
      <trkpt lat="45.93245" lon="4.76662">
        <ele>172</ele>
        <time>2017-06-03T08:21:55Z</time>
      </trkpt>
      <trkpt lat="45.9325" lon="4.76666">
        <ele>172</ele>
        <time>2017-06-03T08:21:56Z</time>
      </trkpt>
      <trkpt lat="45.93255" lon="4.76671">
        <ele>172</ele>
        <time>2017-06-03T08:21:57Z</time>
      </trkpt>
      <trkpt lat="45.9326" lon="4.76676">
        <ele>172</ele>
        <time>2017-06-03T08:21:58Z</time>
      </trkpt>
      <trkpt lat="45.93265" lon="4.76681">
        <ele>172</ele>
        <time>2017-06-03T08:21:59Z</time>
      </trkpt>
      <trkpt lat="45.9327" lon="4.76686">
        <ele>172</ele>
        <time>2017-06-03T08:22:00Z</time>
      </trkpt>
      <trkpt lat="45.93275" lon="4.76691">
        <ele>172</ele>
        <time>2017-06-03T08:22:01Z</time>
      </trkpt>
      <trkpt lat="45.9328" lon="4.76696">
        <ele>172</ele>
        <time>2017-06-03T08:22:02Z</time>
      </trkpt>
      <trkpt lat="45.93284" lon="4.767">
        <ele>172</ele>
        <time>2017-06-03T08:22:03Z</time>
      </trkpt>
      <trkpt lat="45.93289" lon="4.76705">
        <ele>172</ele>
        <time>2017-06-03T08:22:04Z</time>
      </trkpt>
      <trkpt lat="45.93294" lon="4.7671">
        <ele>172</ele>
        <time>2017-06-03T08:22:05Z</time>
      </trkpt>
      <trkpt lat="45.93298" lon="4.76714">
        <ele>172</ele>
        <time>2017-06-03T08:22:06Z</time>
      </trkpt>
      <trkpt lat="45.93303" lon="4.76718">
        <ele>172</ele>
        <time>2017-06-03T08:22:07Z</time>
      </trkpt>
      <trkpt lat="45.93307" lon="4.76723">
        <ele>172</ele>
        <time>2017-06-03T08:22:08Z</time>
      </trkpt>
      <trkpt lat="45.93312" lon="4.76727">
        <ele>172</ele>
        <time>2017-06-03T08:22:09Z</time>
      </trkpt>
      <trkpt lat="45.93317" lon="4.76731">
        <ele>172</ele>
        <time>2017-06-03T08:22:10Z</time>
      </trkpt>
      <trkpt lat="45.93322" lon="4.76736">
        <ele>172</ele>
        <time>2017-06-03T08:22:11Z</time>
      </trkpt>
      <trkpt lat="45.93327" lon="4.76741">
        <ele>172</ele>
        <time>2017-06-03T08:22:12Z</time>
      </trkpt>
      <trkpt lat="45.93332" lon="4.76746">
        <ele>173</ele>
        <time>2017-06-03T08:22:13Z</time>
      </trkpt>
      <trkpt lat="45.93337" lon="4.76751">
        <ele>173</ele>
        <time>2017-06-03T08:22:14Z</time>
      </trkpt>
      <trkpt lat="45.93342" lon="4.76756">
        <ele>173</ele>
        <time>2017-06-03T08:22:15Z</time>
      </trkpt>
      <trkpt lat="45.93347" lon="4.76761">
        <ele>172</ele>
        <time>2017-06-03T08:22:16Z</time>
      </trkpt>
      <trkpt lat="45.93352" lon="4.76766">
        <ele>172</ele>
        <time>2017-06-03T08:22:17Z</time>
      </trkpt>
      <trkpt lat="45.93357" lon="4.76771">
        <ele>172</ele>
        <time>2017-06-03T08:22:18Z</time>
      </trkpt>
      <trkpt lat="45.93362" lon="4.76775">
        <ele>172</ele>
        <time>2017-06-03T08:22:19Z</time>
      </trkpt>
      <trkpt lat="45.93367" lon="4.7678">
        <ele>172</ele>
        <time>2017-06-03T08:22:20Z</time>
      </trkpt>
      <trkpt lat="45.93371" lon="4.76784">
        <ele>172</ele>
        <time>2017-06-03T08:22:21Z</time>
      </trkpt>
      <trkpt lat="45.93375" lon="4.76789">
        <ele>172</ele>
        <time>2017-06-03T08:22:22Z</time>
      </trkpt>
      <trkpt lat="45.93379" lon="4.76794">
        <ele>172</ele>
        <time>2017-06-03T08:22:23Z</time>
      </trkpt>
      <trkpt lat="45.93383" lon="4.76799">
        <ele>172</ele>
        <time>2017-06-03T08:22:24Z</time>
      </trkpt>
      <trkpt lat="45.93387" lon="4.76804">
        <ele>172</ele>
        <time>2017-06-03T08:22:25Z</time>
      </trkpt>
      <trkpt lat="45.93391" lon="4.7681">
        <ele>172</ele>
        <time>2017-06-03T08:22:26Z</time>
      </trkpt>
      <trkpt lat="45.93395" lon="4.76816">
        <ele>172</ele>
        <time>2017-06-03T08:22:27Z</time>
      </trkpt>
      <trkpt lat="45.93399" lon="4.76822">
        <ele>172</ele>
        <time>2017-06-03T08:22:28Z</time>
      </trkpt>
      <trkpt lat="45.93402" lon="4.76828">
        <ele>172</ele>
        <time>2017-06-03T08:22:29Z</time>
      </trkpt>
      <trkpt lat="45.93407" lon="4.76834">
        <ele>172</ele>
        <time>2017-06-03T08:22:30Z</time>
      </trkpt>
      <trkpt lat="45.93411" lon="4.76841">
        <ele>172</ele>
        <time>2017-06-03T08:22:31Z</time>
      </trkpt>
      <trkpt lat="45.93414" lon="4.76847">
        <ele>172</ele>
        <time>2017-06-03T08:22:32Z</time>
      </trkpt>
      <trkpt lat="45.93418" lon="4.76854">
        <ele>171</ele>
        <time>2017-06-03T08:22:33Z</time>
      </trkpt>
      <trkpt lat="45.93422" lon="4.76861">
        <ele>171</ele>
        <time>2017-06-03T08:22:34Z</time>
      </trkpt>
      <trkpt lat="45.93425" lon="4.76868">
        <ele>171</ele>
        <time>2017-06-03T08:22:35Z</time>
      </trkpt>
      <trkpt lat="45.93429" lon="4.76875">
        <ele>171</ele>
        <time>2017-06-03T08:22:36Z</time>
      </trkpt>
      <trkpt lat="45.93431" lon="4.76882">
        <ele>171</ele>
        <time>2017-06-03T08:22:37Z</time>
      </trkpt>
      <trkpt lat="45.93434" lon="4.7689">
        <ele>171</ele>
        <time>2017-06-03T08:22:38Z</time>
      </trkpt>
      <trkpt lat="45.93436" lon="4.76897">
        <ele>171</ele>
        <time>2017-06-03T08:22:39Z</time>
      </trkpt>
      <trkpt lat="45.93438" lon="4.76904">
        <ele>171</ele>
        <time>2017-06-03T08:22:40Z</time>
      </trkpt>
      <trkpt lat="45.9344" lon="4.76911">
        <ele>170</ele>
        <time>2017-06-03T08:22:41Z</time>
      </trkpt>
      <trkpt lat="45.93442" lon="4.76917">
        <ele>170</ele>
        <time>2017-06-03T08:22:42Z</time>
      </trkpt>
      <trkpt lat="45.93443" lon="4.76924">
        <ele>170</ele>
        <time>2017-06-03T08:22:43Z</time>
      </trkpt>
      <trkpt lat="45.93445" lon="4.76931">
        <ele>170</ele>
        <time>2017-06-03T08:22:44Z</time>
      </trkpt>
      <trkpt lat="45.93446" lon="4.76939">
        <ele>170</ele>
        <time>2017-06-03T08:22:45Z</time>
      </trkpt>
      <trkpt lat="45.93447" lon="4.76946">
        <ele>170</ele>
        <time>2017-06-03T08:22:46Z</time>
      </trkpt>
      <trkpt lat="45.93448" lon="4.76953">
        <ele>170</ele>
        <time>2017-06-03T08:22:47Z</time>
      </trkpt>
      <trkpt lat="45.93449" lon="4.76961">
        <ele>170</ele>
        <time>2017-06-03T08:22:48Z</time>
      </trkpt>
      <trkpt lat="45.9345" lon="4.76968">
        <ele>170</ele>
        <time>2017-06-03T08:22:49Z</time>
      </trkpt>
      <trkpt lat="45.93451" lon="4.76975">
        <ele>170</ele>
        <time>2017-06-03T08:22:50Z</time>
      </trkpt>
      <trkpt lat="45.93453" lon="4.76983">
        <ele>170</ele>
        <time>2017-06-03T08:22:51Z</time>
      </trkpt>
      <trkpt lat="45.93454" lon="4.76991">
        <ele>170</ele>
        <time>2017-06-03T08:22:52Z</time>
      </trkpt>
      <trkpt lat="45.93455" lon="4.76998">
        <ele>170</ele>
        <time>2017-06-03T08:22:53Z</time>
      </trkpt>
      <trkpt lat="45.93456" lon="4.77005">
        <ele>170</ele>
        <time>2017-06-03T08:22:54Z</time>
      </trkpt>
      <trkpt lat="45.93457" lon="4.77013">
        <ele>170</ele>
        <time>2017-06-03T08:22:55Z</time>
      </trkpt>
      <trkpt lat="45.93459" lon="4.7702">
        <ele>170</ele>
        <time>2017-06-03T08:22:56Z</time>
      </trkpt>
      <trkpt lat="45.9346" lon="4.77027">
        <ele>170</ele>
        <time>2017-06-03T08:22:57Z</time>
      </trkpt>
      <trkpt lat="45.93461" lon="4.77033">
        <ele>170</ele>
        <time>2017-06-03T08:22:58Z</time>
      </trkpt>
      <trkpt lat="45.93462" lon="4.7704">
        <ele>170</ele>
        <time>2017-06-03T08:22:59Z</time>
      </trkpt>
      <trkpt lat="45.93463" lon="4.77048">
        <ele>170</ele>
        <time>2017-06-03T08:23:00Z</time>
      </trkpt>
      <trkpt lat="45.93464" lon="4.77055">
        <ele>170</ele>
        <time>2017-06-03T08:23:01Z</time>
      </trkpt>
      <trkpt lat="45.93465" lon="4.77062">
        <ele>170</ele>
        <time>2017-06-03T08:23:02Z</time>
      </trkpt>
      <trkpt lat="45.93467" lon="4.77069">
        <ele>170</ele>
        <time>2017-06-03T08:23:03Z</time>
      </trkpt>
      <trkpt lat="45.93468" lon="4.77076">
        <ele>170</ele>
        <time>2017-06-03T08:23:04Z</time>
      </trkpt>
      <trkpt lat="45.93469" lon="4.77083">
        <ele>170</ele>
        <time>2017-06-03T08:23:05Z</time>
      </trkpt>
      <trkpt lat="45.9347" lon="4.77091">
        <ele>169</ele>
        <time>2017-06-03T08:23:06Z</time>
      </trkpt>
      <trkpt lat="45.93472" lon="4.77098">
        <ele>169</ele>
        <time>2017-06-03T08:23:07Z</time>
      </trkpt>
      <trkpt lat="45.93473" lon="4.77106">
        <ele>169</ele>
        <time>2017-06-03T08:23:08Z</time>
      </trkpt>
      <trkpt lat="45.93475" lon="4.77113">
        <ele>169</ele>
        <time>2017-06-03T08:23:09Z</time>
      </trkpt>
      <trkpt lat="45.93476" lon="4.77121">
        <ele>169</ele>
        <time>2017-06-03T08:23:10Z</time>
      </trkpt>
      <trkpt lat="45.93478" lon="4.77129">
        <ele>169</ele>
        <time>2017-06-03T08:23:11Z</time>
      </trkpt>
      <trkpt lat="45.93479" lon="4.77136">
        <ele>169</ele>
        <time>2017-06-03T08:23:12Z</time>
      </trkpt>
      <trkpt lat="45.93481" lon="4.77144">
        <ele>169</ele>
        <time>2017-06-03T08:23:13Z</time>
      </trkpt>
      <trkpt lat="45.93482" lon="4.77151">
        <ele>169</ele>
        <time>2017-06-03T08:23:14Z</time>
      </trkpt>
      <trkpt lat="45.93484" lon="4.77158">
        <ele>169</ele>
        <time>2017-06-03T08:23:15Z</time>
      </trkpt>
      <trkpt lat="45.93485" lon="4.77165">
        <ele>169</ele>
        <time>2017-06-03T08:23:16Z</time>
      </trkpt>
      <trkpt lat="45.93486" lon="4.77171">
        <ele>169</ele>
        <time>2017-06-03T08:23:17Z</time>
      </trkpt>
      <trkpt lat="45.93488" lon="4.77178">
        <ele>169</ele>
        <time>2017-06-03T08:23:18Z</time>
      </trkpt>
      <trkpt lat="45.93489" lon="4.77186">
        <ele>169</ele>
        <time>2017-06-03T08:23:19Z</time>
      </trkpt>
      <trkpt lat="45.93491" lon="4.77194">
        <ele>169</ele>
        <time>2017-06-03T08:23:20Z</time>
      </trkpt>
      <trkpt lat="45.93493" lon="4.77202">
        <ele>169</ele>
        <time>2017-06-03T08:23:21Z</time>
      </trkpt>
      <trkpt lat="45.93495" lon="4.7721">
        <ele>169</ele>
        <time>2017-06-03T08:23:22Z</time>
      </trkpt>
      <trkpt lat="45.93497" lon="4.77219">
        <ele>169</ele>
        <time>2017-06-03T08:23:23Z</time>
      </trkpt>
      <trkpt lat="45.93499" lon="4.77227">
        <ele>170</ele>
        <time>2017-06-03T08:23:24Z</time>
      </trkpt>
      <trkpt lat="45.935" lon="4.77235">
        <ele>169</ele>
        <time>2017-06-03T08:23:25Z</time>
      </trkpt>
      <trkpt lat="45.93501" lon="4.77242">
        <ele>170</ele>
        <time>2017-06-03T08:23:26Z</time>
      </trkpt>
      <trkpt lat="45.93502" lon="4.77249">
        <ele>170</ele>
        <time>2017-06-03T08:23:27Z</time>
      </trkpt>
      <trkpt lat="45.93504" lon="4.77257">
        <ele>170</ele>
        <time>2017-06-03T08:23:28Z</time>
      </trkpt>
      <trkpt lat="45.93505" lon="4.77263">
        <ele>170</ele>
        <time>2017-06-03T08:23:29Z</time>
      </trkpt>
      <trkpt lat="45.93506" lon="4.7727">
        <ele>170</ele>
        <time>2017-06-03T08:23:30Z</time>
      </trkpt>
      <trkpt lat="45.93507" lon="4.77277">
        <ele>170</ele>
        <time>2017-06-03T08:23:31Z</time>
      </trkpt>
      <trkpt lat="45.93508" lon="4.77283">
        <ele>170</ele>
        <time>2017-06-03T08:23:32Z</time>
      </trkpt>
      <trkpt lat="45.9351" lon="4.7729">
        <ele>170</ele>
        <time>2017-06-03T08:23:33Z</time>
      </trkpt>
      <trkpt lat="45.93511" lon="4.77296">
        <ele>170</ele>
        <time>2017-06-03T08:23:34Z</time>
      </trkpt>
      <trkpt lat="45.93513" lon="4.77303">
        <ele>170</ele>
        <time>2017-06-03T08:23:35Z</time>
      </trkpt>
      <trkpt lat="45.93514" lon="4.7731">
        <ele>170</ele>
        <time>2017-06-03T08:23:36Z</time>
      </trkpt>
      <trkpt lat="45.93516" lon="4.77318">
        <ele>170</ele>
        <time>2017-06-03T08:23:37Z</time>
      </trkpt>
      <trkpt lat="45.93518" lon="4.77325">
        <ele>170</ele>
        <time>2017-06-03T08:23:38Z</time>
      </trkpt>
      <trkpt lat="45.9352" lon="4.77332">
        <ele>170</ele>
        <time>2017-06-03T08:23:39Z</time>
      </trkpt>
      <trkpt lat="45.93522" lon="4.7734">
        <ele>170</ele>
        <time>2017-06-03T08:23:40Z</time>
      </trkpt>
      <trkpt lat="45.93523" lon="4.77347">
        <ele>170</ele>
        <time>2017-06-03T08:23:41Z</time>
      </trkpt>
      <trkpt lat="45.93525" lon="4.77355">
        <ele>170</ele>
        <time>2017-06-03T08:23:42Z</time>
      </trkpt>
      <trkpt lat="45.93526" lon="4.77362">
        <ele>170</ele>
        <time>2017-06-03T08:23:43Z</time>
      </trkpt>
      <trkpt lat="45.93528" lon="4.77369">
        <ele>170</ele>
        <time>2017-06-03T08:23:44Z</time>
      </trkpt>
      <trkpt lat="45.93529" lon="4.77376">
        <ele>170</ele>
        <time>2017-06-03T08:23:45Z</time>
      </trkpt>
      <trkpt lat="45.93531" lon="4.77383">
        <ele>170</ele>
        <time>2017-06-03T08:23:46Z</time>
      </trkpt>
      <trkpt lat="45.93532" lon="4.7739">
        <ele>170</ele>
        <time>2017-06-03T08:23:47Z</time>
      </trkpt>
      <trkpt lat="45.93533" lon="4.77396">
        <ele>170</ele>
        <time>2017-06-03T08:23:48Z</time>
      </trkpt>
      <trkpt lat="45.93535" lon="4.77402">
        <ele>170</ele>
        <time>2017-06-03T08:23:49Z</time>
      </trkpt>
      <trkpt lat="45.93537" lon="4.7741">
        <ele>170</ele>
        <time>2017-06-03T08:23:50Z</time>
      </trkpt>
      <trkpt lat="45.93538" lon="4.77417">
        <ele>170</ele>
        <time>2017-06-03T08:23:51Z</time>
      </trkpt>
      <trkpt lat="45.9354" lon="4.77425">
        <ele>170</ele>
        <time>2017-06-03T08:23:52Z</time>
      </trkpt>
      <trkpt lat="45.93542" lon="4.77433">
        <ele>169</ele>
        <time>2017-06-03T08:23:53Z</time>
      </trkpt>
      <trkpt lat="45.93545" lon="4.77442">
        <ele>169</ele>
        <time>2017-06-03T08:23:54Z</time>
      </trkpt>
      <trkpt lat="45.93547" lon="4.7745">
        <ele>169</ele>
        <time>2017-06-03T08:23:55Z</time>
      </trkpt>
      <trkpt lat="45.93549" lon="4.77459">
        <ele>169</ele>
        <time>2017-06-03T08:23:56Z</time>
      </trkpt>
      <trkpt lat="45.9355" lon="4.77468">
        <ele>169</ele>
        <time>2017-06-03T08:23:57Z</time>
      </trkpt>
      <trkpt lat="45.93552" lon="4.77476">
        <ele>169</ele>
        <time>2017-06-03T08:23:58Z</time>
      </trkpt>
      <trkpt lat="45.93554" lon="4.77484">
        <ele>169</ele>
        <time>2017-06-03T08:23:59Z</time>
      </trkpt>
      <trkpt lat="45.93556" lon="4.77493">
        <ele>169</ele>
        <time>2017-06-03T08:24:00Z</time>
      </trkpt>
      <trkpt lat="45.93558" lon="4.77501">
        <ele>169</ele>
        <time>2017-06-03T08:24:01Z</time>
      </trkpt>
      <trkpt lat="45.9356" lon="4.7751">
        <ele>169</ele>
        <time>2017-06-03T08:24:02Z</time>
      </trkpt>
      <trkpt lat="45.93563" lon="4.77519">
        <ele>169</ele>
        <time>2017-06-03T08:24:03Z</time>
      </trkpt>
      <trkpt lat="45.93565" lon="4.77527">
        <ele>169</ele>
        <time>2017-06-03T08:24:04Z</time>
      </trkpt>
      <trkpt lat="45.93567" lon="4.77535">
        <ele>169</ele>
        <time>2017-06-03T08:24:05Z</time>
      </trkpt>
      <trkpt lat="45.93569" lon="4.77542">
        <ele>169</ele>
        <time>2017-06-03T08:24:06Z</time>
      </trkpt>
      <trkpt lat="45.9357" lon="4.7755">
        <ele>169</ele>
        <time>2017-06-03T08:24:07Z</time>
      </trkpt>
      <trkpt lat="45.93572" lon="4.77557">
        <ele>169</ele>
        <time>2017-06-03T08:24:08Z</time>
      </trkpt>
      <trkpt lat="45.93574" lon="4.77564">
        <ele>169</ele>
        <time>2017-06-03T08:24:09Z</time>
      </trkpt>
      <trkpt lat="45.93576" lon="4.77571">
        <ele>170</ele>
        <time>2017-06-03T08:24:10Z</time>
      </trkpt>
      <trkpt lat="45.93578" lon="4.77578">
        <ele>170</ele>
        <time>2017-06-03T08:24:11Z</time>
      </trkpt>
      <trkpt lat="45.93581" lon="4.77584">
        <ele>170</ele>
        <time>2017-06-03T08:24:12Z</time>
      </trkpt>
      <trkpt lat="45.93583" lon="4.7759">
        <ele>170</ele>
        <time>2017-06-03T08:24:13Z</time>
      </trkpt>
      <trkpt lat="45.93585" lon="4.77597">
        <ele>170</ele>
        <time>2017-06-03T08:24:14Z</time>
      </trkpt>
      <trkpt lat="45.93587" lon="4.77603">
        <ele>170</ele>
        <time>2017-06-03T08:24:15Z</time>
      </trkpt>
      <trkpt lat="45.93589" lon="4.77609">
        <ele>170</ele>
        <time>2017-06-03T08:24:16Z</time>
      </trkpt>
      <trkpt lat="45.93591" lon="4.77615">
        <ele>170</ele>
        <time>2017-06-03T08:24:17Z</time>
      </trkpt>
      <trkpt lat="45.93593" lon="4.77621">
        <ele>170</ele>
        <time>2017-06-03T08:24:18Z</time>
      </trkpt>
      <trkpt lat="45.93595" lon="4.77628">
        <ele>169</ele>
        <time>2017-06-03T08:24:19Z</time>
      </trkpt>
      <trkpt lat="45.93597" lon="4.77635">
        <ele>169</ele>
        <time>2017-06-03T08:24:20Z</time>
      </trkpt>
      <trkpt lat="45.936" lon="4.77641">
        <ele>169</ele>
        <time>2017-06-03T08:24:21Z</time>
      </trkpt>
      <trkpt lat="45.93603" lon="4.77648">
        <ele>169</ele>
        <time>2017-06-03T08:24:22Z</time>
      </trkpt>
      <trkpt lat="45.93606" lon="4.77655">
        <ele>169</ele>
        <time>2017-06-03T08:24:23Z</time>
      </trkpt>
      <trkpt lat="45.93608" lon="4.77661">
        <ele>169</ele>
        <time>2017-06-03T08:24:24Z</time>
      </trkpt>
      <trkpt lat="45.93611" lon="4.77667">
        <ele>169</ele>
        <time>2017-06-03T08:24:25Z</time>
      </trkpt>
      <trkpt lat="45.93613" lon="4.77672">
        <ele>169</ele>
        <time>2017-06-03T08:24:26Z</time>
      </trkpt>
      <trkpt lat="45.93615" lon="4.77678">
        <ele>169</ele>
        <time>2017-06-03T08:24:27Z</time>
      </trkpt>
      <trkpt lat="45.93618" lon="4.77684">
        <ele>169</ele>
        <time>2017-06-03T08:24:28Z</time>
      </trkpt>
      <trkpt lat="45.93622" lon="4.7769">
        <ele>169</ele>
        <time>2017-06-03T08:24:29Z</time>
      </trkpt>
      <trkpt lat="45.93625" lon="4.77697">
        <ele>169</ele>
        <time>2017-06-03T08:24:30Z</time>
      </trkpt>
      <trkpt lat="45.93628" lon="4.77703">
        <ele>169</ele>
        <time>2017-06-03T08:24:31Z</time>
      </trkpt>
      <trkpt lat="45.93631" lon="4.77709">
        <ele>170</ele>
        <time>2017-06-03T08:24:32Z</time>
      </trkpt>
      <trkpt lat="45.93634" lon="4.77715">
        <ele>170</ele>
        <time>2017-06-03T08:24:33Z</time>
      </trkpt>
      <trkpt lat="45.93638" lon="4.7772">
        <ele>170</ele>
        <time>2017-06-03T08:24:34Z</time>
      </trkpt>
      <trkpt lat="45.93642" lon="4.77726">
        <ele>170</ele>
        <time>2017-06-03T08:24:35Z</time>
      </trkpt>
      <trkpt lat="45.93646" lon="4.77732">
        <ele>170</ele>
        <time>2017-06-03T08:24:36Z</time>
      </trkpt>
      <trkpt lat="45.93649" lon="4.77738">
        <ele>170</ele>
        <time>2017-06-03T08:24:37Z</time>
      </trkpt>
      <trkpt lat="45.93653" lon="4.77744">
        <ele>170</ele>
        <time>2017-06-03T08:24:38Z</time>
      </trkpt>
      <trkpt lat="45.93656" lon="4.77749">
        <ele>170</ele>
        <time>2017-06-03T08:24:39Z</time>
      </trkpt>
      <trkpt lat="45.93659" lon="4.77755">
        <ele>171</ele>
        <time>2017-06-03T08:24:40Z</time>
      </trkpt>
      <trkpt lat="45.93663" lon="4.7776">
        <ele>171</ele>
        <time>2017-06-03T08:24:41Z</time>
      </trkpt>
      <trkpt lat="45.93667" lon="4.77766">
        <ele>170</ele>
        <time>2017-06-03T08:24:42Z</time>
      </trkpt>
      <trkpt lat="45.9367" lon="4.77771">
        <ele>170</ele>
        <time>2017-06-03T08:24:43Z</time>
      </trkpt>
      <trkpt lat="45.93674" lon="4.77777">
        <ele>170</ele>
        <time>2017-06-03T08:24:44Z</time>
      </trkpt>
      <trkpt lat="45.93678" lon="4.77782">
        <ele>170</ele>
        <time>2017-06-03T08:24:45Z</time>
      </trkpt>
      <trkpt lat="45.93682" lon="4.77788">
        <ele>170</ele>
        <time>2017-06-03T08:24:46Z</time>
      </trkpt>
      <trkpt lat="45.93686" lon="4.77794">
        <ele>170</ele>
        <time>2017-06-03T08:24:47Z</time>
      </trkpt>
      <trkpt lat="45.9369" lon="4.77799">
        <ele>169</ele>
        <time>2017-06-03T08:24:48Z</time>
      </trkpt>
      <trkpt lat="45.93694" lon="4.77804">
        <ele>169</ele>
        <time>2017-06-03T08:24:49Z</time>
      </trkpt>
      <trkpt lat="45.93698" lon="4.77809">
        <ele>169</ele>
        <time>2017-06-03T08:24:50Z</time>
      </trkpt>
      <trkpt lat="45.93702" lon="4.77814">
        <ele>169</ele>
        <time>2017-06-03T08:24:51Z</time>
      </trkpt>
      <trkpt lat="45.93708" lon="4.77822">
        <ele>169</ele>
        <time>2017-06-03T08:24:53Z</time>
      </trkpt>
      <trkpt lat="45.93712" lon="4.77826">
        <ele>169</ele>
        <time>2017-06-03T08:24:54Z</time>
      </trkpt>
      <trkpt lat="45.93715" lon="4.7783">
        <ele>169</ele>
        <time>2017-06-03T08:24:55Z</time>
      </trkpt>
      <trkpt lat="45.93719" lon="4.77835">
        <ele>167</ele>
        <time>2017-06-03T08:24:56Z</time>
      </trkpt>
      <trkpt lat="45.93723" lon="4.7784">
        <ele>167</ele>
        <time>2017-06-03T08:24:57Z</time>
      </trkpt>
      <trkpt lat="45.93725" lon="4.77845">
        <ele>167</ele>
        <time>2017-06-03T08:24:58Z</time>
      </trkpt>
      <trkpt lat="45.93728" lon="4.77849">
        <ele>167</ele>
        <time>2017-06-03T08:24:59Z</time>
      </trkpt>
      <trkpt lat="45.93732" lon="4.77854">
        <ele>167</ele>
        <time>2017-06-03T08:25:00Z</time>
      </trkpt>
      <trkpt lat="45.93738" lon="4.77863">
        <ele>167</ele>
        <time>2017-06-03T08:25:02Z</time>
      </trkpt>
      <trkpt lat="45.93741" lon="4.77867">
        <ele>167</ele>
        <time>2017-06-03T08:25:03Z</time>
      </trkpt>
      <trkpt lat="45.93747" lon="4.77875">
        <ele>167</ele>
        <time>2017-06-03T08:25:05Z</time>
      </trkpt>
      <trkpt lat="45.9375" lon="4.7788">
        <ele>166</ele>
        <time>2017-06-03T08:25:06Z</time>
      </trkpt>
      <trkpt lat="45.93756" lon="4.77888">
        <ele>166</ele>
        <time>2017-06-03T08:25:08Z</time>
      </trkpt>
      <trkpt lat="45.93759" lon="4.77892">
        <ele>166</ele>
        <time>2017-06-03T08:25:09Z</time>
      </trkpt>
      <trkpt lat="45.93766" lon="4.779">
        <ele>166</ele>
        <time>2017-06-03T08:25:11Z</time>
      </trkpt>
      <trkpt lat="45.93769" lon="4.77904">
        <ele>166</ele>
        <time>2017-06-03T08:25:12Z</time>
      </trkpt>
      <trkpt lat="45.93773" lon="4.77909">
        <ele>166</ele>
        <time>2017-06-03T08:25:13Z</time>
      </trkpt>
      <trkpt lat="45.93777" lon="4.77914">
        <ele>166</ele>
        <time>2017-06-03T08:25:14Z</time>
      </trkpt>
      <trkpt lat="45.93781" lon="4.77919">
        <ele>168</ele>
        <time>2017-06-03T08:25:15Z</time>
      </trkpt>
      <trkpt lat="45.93784" lon="4.77924">
        <ele>168</ele>
        <time>2017-06-03T08:25:16Z</time>
      </trkpt>
      <trkpt lat="45.93788" lon="4.77929">
        <ele>168</ele>
        <time>2017-06-03T08:25:17Z</time>
      </trkpt>
      <trkpt lat="45.93791" lon="4.77935">
        <ele>168</ele>
        <time>2017-06-03T08:25:18Z</time>
      </trkpt>
      <trkpt lat="45.93795" lon="4.7794">
        <ele>169</ele>
        <time>2017-06-03T08:25:19Z</time>
      </trkpt>
      <trkpt lat="45.938" lon="4.77945">
        <ele>169</ele>
        <time>2017-06-03T08:25:20Z</time>
      </trkpt>
      <trkpt lat="45.93804" lon="4.77951">
        <ele>169</ele>
        <time>2017-06-03T08:25:21Z</time>
      </trkpt>
      <trkpt lat="45.93809" lon="4.77957">
        <ele>170</ele>
        <time>2017-06-03T08:25:22Z</time>
      </trkpt>
      <trkpt lat="45.93813" lon="4.77963">
        <ele>170</ele>
        <time>2017-06-03T08:25:23Z</time>
      </trkpt>
      <trkpt lat="45.93818" lon="4.77968">
        <ele>171</ele>
        <time>2017-06-03T08:25:24Z</time>
      </trkpt>
      <trkpt lat="45.93823" lon="4.77974">
        <ele>172</ele>
        <time>2017-06-03T08:25:25Z</time>
      </trkpt>
      <trkpt lat="45.93827" lon="4.77981">
        <ele>173</ele>
        <time>2017-06-03T08:25:26Z</time>
      </trkpt>
      <trkpt lat="45.93831" lon="4.77987">
        <ele>175</ele>
        <time>2017-06-03T08:25:27Z</time>
      </trkpt>
      <trkpt lat="45.93835" lon="4.77995">
        <ele>179</ele>
        <time>2017-06-03T08:25:28Z</time>
      </trkpt>
      <trkpt lat="45.93838" lon="4.78003">
        <ele>180</ele>
        <time>2017-06-03T08:25:29Z</time>
      </trkpt>
      <trkpt lat="45.9384" lon="4.78012">
        <ele>181</ele>
        <time>2017-06-03T08:25:30Z</time>
      </trkpt>
      <trkpt lat="45.9384" lon="4.78022">
        <ele>182</ele>
        <time>2017-06-03T08:25:31Z</time>
      </trkpt>
      <trkpt lat="45.93841" lon="4.78031">
        <ele>182</ele>
        <time>2017-06-03T08:25:32Z</time>
      </trkpt>
      <trkpt lat="45.93842" lon="4.7804">
        <ele>182</ele>
        <time>2017-06-03T08:25:33Z</time>
      </trkpt>
      <trkpt lat="45.93842" lon="4.78048">
        <ele>182</ele>
        <time>2017-06-03T08:25:34Z</time>
      </trkpt>
      <trkpt lat="45.93842" lon="4.78055">
        <ele>182</ele>
        <time>2017-06-03T08:25:35Z</time>
      </trkpt>
      <trkpt lat="45.9384" lon="4.78062">
        <ele>182</ele>
        <time>2017-06-03T08:25:36Z</time>
      </trkpt>
      <trkpt lat="45.93839" lon="4.7807">
        <ele>182</ele>
        <time>2017-06-03T08:25:37Z</time>
      </trkpt>
      <trkpt lat="45.93838" lon="4.78077">
        <ele>181</ele>
        <time>2017-06-03T08:25:38Z</time>
      </trkpt>
      <trkpt lat="45.93836" lon="4.78085">
        <ele>181</ele>
        <time>2017-06-03T08:25:39Z</time>
      </trkpt>
      <trkpt lat="45.93835" lon="4.78092">
        <ele>182</ele>
        <time>2017-06-03T08:25:40Z</time>
      </trkpt>
      <trkpt lat="45.93834" lon="4.78099">
        <ele>183</ele>
        <time>2017-06-03T08:25:41Z</time>
      </trkpt>
      <trkpt lat="45.93832" lon="4.78107">
        <ele>179</ele>
        <time>2017-06-03T08:25:42Z</time>
      </trkpt>
      <trkpt lat="45.9383" lon="4.78114">
        <ele>179</ele>
        <time>2017-06-03T08:25:43Z</time>
      </trkpt>
      <trkpt lat="45.93829" lon="4.78121">
        <ele>179</ele>
        <time>2017-06-03T08:25:44Z</time>
      </trkpt>
      <trkpt lat="45.93827" lon="4.78128">
        <ele>180</ele>
        <time>2017-06-03T08:25:45Z</time>
      </trkpt>
      <trkpt lat="45.93824" lon="4.78135">
        <ele>180</ele>
        <time>2017-06-03T08:25:46Z</time>
      </trkpt>
      <trkpt lat="45.93823" lon="4.78143">
        <ele>180</ele>
        <time>2017-06-03T08:25:47Z</time>
      </trkpt>
      <trkpt lat="45.93821" lon="4.7815">
        <ele>180</ele>
        <time>2017-06-03T08:25:48Z</time>
      </trkpt>
      <trkpt lat="45.93819" lon="4.78157">
        <ele>180</ele>
        <time>2017-06-03T08:25:49Z</time>
      </trkpt>
      <trkpt lat="45.93817" lon="4.78164">
        <ele>180</ele>
        <time>2017-06-03T08:25:50Z</time>
      </trkpt>
      <trkpt lat="45.93814" lon="4.78171">
        <ele>182</ele>
        <time>2017-06-03T08:25:51Z</time>
      </trkpt>
      <trkpt lat="45.93813" lon="4.78178">
        <ele>182</ele>
        <time>2017-06-03T08:25:52Z</time>
      </trkpt>
      <trkpt lat="45.93811" lon="4.78184">
        <ele>182</ele>
        <time>2017-06-03T08:25:53Z</time>
      </trkpt>
      <trkpt lat="45.93809" lon="4.7819">
        <ele>182</ele>
        <time>2017-06-03T08:25:54Z</time>
      </trkpt>
      <trkpt lat="45.93808" lon="4.78197">
        <ele>182</ele>
        <time>2017-06-03T08:25:55Z</time>
      </trkpt>
      <trkpt lat="45.93806" lon="4.78203">
        <ele>182</ele>
        <time>2017-06-03T08:25:56Z</time>
      </trkpt>
      <trkpt lat="45.93805" lon="4.78209">
        <ele>182</ele>
        <time>2017-06-03T08:25:57Z</time>
      </trkpt>
      <trkpt lat="45.93803" lon="4.78215">
        <ele>182</ele>
        <time>2017-06-03T08:25:58Z</time>
      </trkpt>
      <trkpt lat="45.93802" lon="4.78222">
        <ele>182</ele>
        <time>2017-06-03T08:25:59Z</time>
      </trkpt>
      <trkpt lat="45.93799" lon="4.78228">
        <ele>182</ele>
        <time>2017-06-03T08:26:00Z</time>
      </trkpt>
      <trkpt lat="45.93796" lon="4.78234">
        <ele>182</ele>
        <time>2017-06-03T08:26:01Z</time>
      </trkpt>
      <trkpt lat="45.93793" lon="4.78239">
        <ele>182</ele>
        <time>2017-06-03T08:26:02Z</time>
      </trkpt>
      <trkpt lat="45.9379" lon="4.78245">
        <ele>182</ele>
        <time>2017-06-03T08:26:03Z</time>
      </trkpt>
      <trkpt lat="45.93787" lon="4.78252">
        <ele>183</ele>
        <time>2017-06-03T08:26:04Z</time>
      </trkpt>
      <trkpt lat="45.93787" lon="4.7826">
        <ele>183</ele>
        <time>2017-06-03T08:26:05Z</time>
      </trkpt>
      <trkpt lat="45.93786" lon="4.78267">
        <ele>183</ele>
        <time>2017-06-03T08:26:06Z</time>
      </trkpt>
      <trkpt lat="45.93785" lon="4.78275">
        <ele>183</ele>
        <time>2017-06-03T08:26:07Z</time>
      </trkpt>
      <trkpt lat="45.93784" lon="4.78282">
        <ele>183</ele>
        <time>2017-06-03T08:26:08Z</time>
      </trkpt>
      <trkpt lat="45.93781" lon="4.78288">
        <ele>183</ele>
        <time>2017-06-03T08:26:09Z</time>
      </trkpt>
      <trkpt lat="45.93779" lon="4.78295">
        <ele>183</ele>
        <time>2017-06-03T08:26:10Z</time>
      </trkpt>
      <trkpt lat="45.93776" lon="4.78301">
        <ele>183</ele>
        <time>2017-06-03T08:26:11Z</time>
      </trkpt>
      <trkpt lat="45.93774" lon="4.78308">
        <ele>183</ele>
        <time>2017-06-03T08:26:12Z</time>
      </trkpt>
      <trkpt lat="45.93771" lon="4.78315">
        <ele>183</ele>
        <time>2017-06-03T08:26:13Z</time>
      </trkpt>
      <trkpt lat="45.93769" lon="4.78323">
        <ele>183</ele>
        <time>2017-06-03T08:26:14Z</time>
      </trkpt>
      <trkpt lat="45.93767" lon="4.7833">
        <ele>183</ele>
        <time>2017-06-03T08:26:15Z</time>
      </trkpt>
      <trkpt lat="45.93764" lon="4.78337">
        <ele>183</ele>
        <time>2017-06-03T08:26:16Z</time>
      </trkpt>
      <trkpt lat="45.93762" lon="4.78345">
        <ele>183</ele>
        <time>2017-06-03T08:26:17Z</time>
      </trkpt>
      <trkpt lat="45.9376" lon="4.78353">
        <ele>183</ele>
        <time>2017-06-03T08:26:18Z</time>
      </trkpt>
      <trkpt lat="45.93759" lon="4.7836">
        <ele>183</ele>
        <time>2017-06-03T08:26:19Z</time>
      </trkpt>
      <trkpt lat="45.93757" lon="4.78367">
        <ele>183</ele>
        <time>2017-06-03T08:26:20Z</time>
      </trkpt>
      <trkpt lat="45.93755" lon="4.78374">
        <ele>183</ele>
        <time>2017-06-03T08:26:21Z</time>
      </trkpt>
      <trkpt lat="45.93753" lon="4.78381">
        <ele>183</ele>
        <time>2017-06-03T08:26:22Z</time>
      </trkpt>
      <trkpt lat="45.93751" lon="4.78388">
        <ele>183</ele>
        <time>2017-06-03T08:26:23Z</time>
      </trkpt>
      <trkpt lat="45.93749" lon="4.78395">
        <ele>181</ele>
        <time>2017-06-03T08:26:24Z</time>
      </trkpt>
      <trkpt lat="45.93747" lon="4.78402">
        <ele>181</ele>
        <time>2017-06-03T08:26:25Z</time>
      </trkpt>
      <trkpt lat="45.93746" lon="4.7841">
        <ele>181</ele>
        <time>2017-06-03T08:26:26Z</time>
      </trkpt>
      <trkpt lat="45.93744" lon="4.78417">
        <ele>181</ele>
        <time>2017-06-03T08:26:27Z</time>
      </trkpt>
      <trkpt lat="45.93742" lon="4.78425">
        <ele>180</ele>
        <time>2017-06-03T08:26:28Z</time>
      </trkpt>
      <trkpt lat="45.9374" lon="4.78433">
        <ele>180</ele>
        <time>2017-06-03T08:26:29Z</time>
      </trkpt>
      <trkpt lat="45.93739" lon="4.78442">
        <ele>180</ele>
        <time>2017-06-03T08:26:30Z</time>
      </trkpt>
      <trkpt lat="45.93737" lon="4.78451">
        <ele>180</ele>
        <time>2017-06-03T08:26:31Z</time>
      </trkpt>
      <trkpt lat="45.93734" lon="4.78459">
        <ele>180</ele>
        <time>2017-06-03T08:26:32Z</time>
      </trkpt>
      <trkpt lat="45.93732" lon="4.78467">
        <ele>180</ele>
        <time>2017-06-03T08:26:33Z</time>
      </trkpt>
      <trkpt lat="45.9373" lon="4.78476">
        <ele>180</ele>
        <time>2017-06-03T08:26:34Z</time>
      </trkpt>
      <trkpt lat="45.93727" lon="4.78484">
        <ele>180</ele>
        <time>2017-06-03T08:26:35Z</time>
      </trkpt>
      <trkpt lat="45.93725" lon="4.78493">
        <ele>180</ele>
        <time>2017-06-03T08:26:36Z</time>
      </trkpt>
      <trkpt lat="45.93723" lon="4.78501">
        <ele>179</ele>
        <time>2017-06-03T08:26:37Z</time>
      </trkpt>
      <trkpt lat="45.93721" lon="4.7851">
        <ele>179</ele>
        <time>2017-06-03T08:26:38Z</time>
      </trkpt>
      <trkpt lat="45.9372" lon="4.78518">
        <ele>178</ele>
        <time>2017-06-03T08:26:39Z</time>
      </trkpt>
      <trkpt lat="45.93718" lon="4.78527">
        <ele>178</ele>
        <time>2017-06-03T08:26:40Z</time>
      </trkpt>
      <trkpt lat="45.93717" lon="4.78536">
        <ele>178</ele>
        <time>2017-06-03T08:26:41Z</time>
      </trkpt>
      <trkpt lat="45.93715" lon="4.78544">
        <ele>178</ele>
        <time>2017-06-03T08:26:42Z</time>
      </trkpt>
      <trkpt lat="45.93713" lon="4.78553">
        <ele>178</ele>
        <time>2017-06-03T08:26:43Z</time>
      </trkpt>
      <trkpt lat="45.93712" lon="4.78562">
        <ele>178</ele>
        <time>2017-06-03T08:26:44Z</time>
      </trkpt>
      <trkpt lat="45.9371" lon="4.78571">
        <ele>177</ele>
        <time>2017-06-03T08:26:45Z</time>
      </trkpt>
      <trkpt lat="45.93708" lon="4.78579">
        <ele>177</ele>
        <time>2017-06-03T08:26:46Z</time>
      </trkpt>
      <trkpt lat="45.93706" lon="4.78587">
        <ele>176</ele>
        <time>2017-06-03T08:26:47Z</time>
      </trkpt>
      <trkpt lat="45.93705" lon="4.78594">
        <ele>176</ele>
        <time>2017-06-03T08:26:48Z</time>
      </trkpt>
      <trkpt lat="45.93703" lon="4.78601">
        <ele>176</ele>
        <time>2017-06-03T08:26:49Z</time>
      </trkpt>
      <trkpt lat="45.93701" lon="4.78608">
        <ele>176</ele>
        <time>2017-06-03T08:26:50Z</time>
      </trkpt>
      <trkpt lat="45.93698" lon="4.78614">
        <ele>176</ele>
        <time>2017-06-03T08:26:51Z</time>
      </trkpt>
      <trkpt lat="45.93698" lon="4.78621">
        <ele>176</ele>
        <time>2017-06-03T08:26:52Z</time>
      </trkpt>
      <trkpt lat="45.93699" lon="4.78628">
        <ele>176</ele>
        <time>2017-06-03T08:26:53Z</time>
      </trkpt>
      <trkpt lat="45.93701" lon="4.78634">
        <ele>176</ele>
        <time>2017-06-03T08:26:54Z</time>
      </trkpt>
      <trkpt lat="45.9371" lon="4.78634">
        <ele>176</ele>
        <time>2017-06-03T08:26:56Z</time>
      </trkpt>
      <trkpt lat="45.93713" lon="4.78633">
        <ele>176</ele>
        <time>2017-06-03T08:26:57Z</time>
      </trkpt>
      <trkpt lat="45.9372" lon="4.7863">
        <ele>177</ele>
        <time>2017-06-03T08:26:59Z</time>
      </trkpt>
      <trkpt lat="45.93724" lon="4.78629">
        <ele>177</ele>
        <time>2017-06-03T08:27:00Z</time>
      </trkpt>
      <trkpt lat="45.93731" lon="4.78627">
        <ele>177</ele>
        <time>2017-06-03T08:27:02Z</time>
      </trkpt>
      <trkpt lat="45.93735" lon="4.78627">
        <ele>177</ele>
        <time>2017-06-03T08:27:03Z</time>
      </trkpt>
      <trkpt lat="45.93742" lon="4.78626">
        <ele>177</ele>
        <time>2017-06-03T08:27:05Z</time>
      </trkpt>
      <trkpt lat="45.93746" lon="4.78625">
        <ele>177</ele>
        <time>2017-06-03T08:27:06Z</time>
      </trkpt>
      <trkpt lat="45.93754" lon="4.78624">
        <ele>181</ele>
        <time>2017-06-03T08:27:08Z</time>
      </trkpt>
      <trkpt lat="45.93758" lon="4.78623">
        <ele>181</ele>
        <time>2017-06-03T08:27:09Z</time>
      </trkpt>
      <trkpt lat="45.93763" lon="4.78622">
        <ele>181</ele>
        <time>2017-06-03T08:27:10Z</time>
      </trkpt>
      <trkpt lat="45.93767" lon="4.78621">
        <ele>181</ele>
        <time>2017-06-03T08:27:11Z</time>
      </trkpt>
      <trkpt lat="45.93775" lon="4.78619">
        <ele>181</ele>
        <time>2017-06-03T08:27:13Z</time>
      </trkpt>
      <trkpt lat="45.93779" lon="4.78618">
        <ele>181</ele>
        <time>2017-06-03T08:27:14Z</time>
      </trkpt>
      <trkpt lat="45.93786" lon="4.78616">
        <ele>182</ele>
        <time>2017-06-03T08:27:16Z</time>
      </trkpt>
      <trkpt lat="45.9379" lon="4.78615">
        <ele>182</ele>
        <time>2017-06-03T08:27:17Z</time>
      </trkpt>
      <trkpt lat="45.93798" lon="4.78612">
        <ele>182</ele>
        <time>2017-06-03T08:27:19Z</time>
      </trkpt>
      <trkpt lat="45.93802" lon="4.78611">
        <ele>182</ele>
        <time>2017-06-03T08:27:20Z</time>
      </trkpt>
      <trkpt lat="45.9381" lon="4.78609">
        <ele>183</ele>
        <time>2017-06-03T08:27:22Z</time>
      </trkpt>
      <trkpt lat="45.93813" lon="4.78609">
        <ele>183</ele>
        <time>2017-06-03T08:27:23Z</time>
      </trkpt>
      <trkpt lat="45.93821" lon="4.78607">
        <ele>184</ele>
        <time>2017-06-03T08:27:25Z</time>
      </trkpt>
      <trkpt lat="45.93824" lon="4.78606">
        <ele>184</ele>
        <time>2017-06-03T08:27:26Z</time>
      </trkpt>
      <trkpt lat="45.93831" lon="4.78604">
        <ele>184</ele>
        <time>2017-06-03T08:27:28Z</time>
      </trkpt>
      <trkpt lat="45.93834" lon="4.78603">
        <ele>187</ele>
        <time>2017-06-03T08:27:29Z</time>
      </trkpt>
      <trkpt lat="45.93842" lon="4.78601">
        <ele>188</ele>
        <time>2017-06-03T08:27:31Z</time>
      </trkpt>
      <trkpt lat="45.93845" lon="4.786">
        <ele>188</ele>
        <time>2017-06-03T08:27:32Z</time>
      </trkpt>
      <trkpt lat="45.93852" lon="4.78597">
        <ele>188</ele>
        <time>2017-06-03T08:27:34Z</time>
      </trkpt>
      <trkpt lat="45.93856" lon="4.78596">
        <ele>188</ele>
        <time>2017-06-03T08:27:35Z</time>
      </trkpt>
      <trkpt lat="45.93863" lon="4.78594">
        <ele>188</ele>
        <time>2017-06-03T08:27:37Z</time>
      </trkpt>
      <trkpt lat="45.93867" lon="4.78594">
        <ele>188</ele>
        <time>2017-06-03T08:27:38Z</time>
      </trkpt>
      <trkpt lat="45.93874" lon="4.78591">
        <ele>189</ele>
        <time>2017-06-03T08:27:40Z</time>
      </trkpt>
      <trkpt lat="45.93877" lon="4.7859">
        <ele>189</ele>
        <time>2017-06-03T08:27:41Z</time>
      </trkpt>
      <trkpt lat="45.93886" lon="4.7859">
        <ele>189</ele>
        <time>2017-06-03T08:27:44Z</time>
      </trkpt>
      <trkpt lat="45.93888" lon="4.78589">
        <ele>190</ele>
        <time>2017-06-03T08:27:45Z</time>
      </trkpt>
      <trkpt lat="45.93897" lon="4.78586">
        <ele>190</ele>
        <time>2017-06-03T08:27:48Z</time>
      </trkpt>
      <trkpt lat="45.93899" lon="4.78586">
        <ele>191</ele>
        <time>2017-06-03T08:27:49Z</time>
      </trkpt>
      <trkpt lat="45.93907" lon="4.78585">
        <ele>191</ele>
        <time>2017-06-03T08:27:52Z</time>
      </trkpt>
      <trkpt lat="45.9391" lon="4.78584">
        <ele>192</ele>
        <time>2017-06-03T08:27:53Z</time>
      </trkpt>
      <trkpt lat="45.93916" lon="4.78579">
        <ele>193</ele>
        <time>2017-06-03T08:27:56Z</time>
      </trkpt>
      <trkpt lat="45.93918" lon="4.78577">
        <ele>194</ele>
        <time>2017-06-03T08:27:57Z</time>
      </trkpt>
      <trkpt lat="45.93925" lon="4.78577">
        <ele>195</ele>
        <time>2017-06-03T08:28:00Z</time>
      </trkpt>
      <trkpt lat="45.93927" lon="4.78578">
        <ele>195</ele>
        <time>2017-06-03T08:28:01Z</time>
      </trkpt>
      <trkpt lat="45.93929" lon="4.7859">
        <ele>195</ele>
        <time>2017-06-03T08:28:05Z</time>
      </trkpt>
      <trkpt lat="45.93929" lon="4.78595">
        <ele>195</ele>
        <time>2017-06-03T08:28:06Z</time>
      </trkpt>
      <trkpt lat="45.9393" lon="4.78604">
        <ele>195</ele>
        <time>2017-06-03T08:28:08Z</time>
      </trkpt>
      <trkpt lat="45.9393" lon="4.78608">
        <ele>195</ele>
        <time>2017-06-03T08:28:09Z</time>
      </trkpt>
      <trkpt lat="45.93931" lon="4.78618">
        <ele>195</ele>
        <time>2017-06-03T08:28:11Z</time>
      </trkpt>
      <trkpt lat="45.93931" lon="4.78622">
        <ele>195</ele>
        <time>2017-06-03T08:28:12Z</time>
      </trkpt>
      <trkpt lat="45.93931" lon="4.7863">
        <ele>195</ele>
        <time>2017-06-03T08:28:14Z</time>
      </trkpt>
      <trkpt lat="45.93931" lon="4.78635">
        <ele>195</ele>
        <time>2017-06-03T08:28:15Z</time>
      </trkpt>
      <trkpt lat="45.9393" lon="4.78646">
        <ele>194</ele>
        <time>2017-06-03T08:28:17Z</time>
      </trkpt>
      <trkpt lat="45.9393" lon="4.78651">
        <ele>194</ele>
        <time>2017-06-03T08:28:18Z</time>
      </trkpt>
      <trkpt lat="45.9393" lon="4.78663">
        <ele>193</ele>
        <time>2017-06-03T08:28:20Z</time>
      </trkpt>
      <trkpt lat="45.9393" lon="4.78668">
        <ele>192</ele>
        <time>2017-06-03T08:28:21Z</time>
      </trkpt>
      <trkpt lat="45.93931" lon="4.78678">
        <ele>193</ele>
        <time>2017-06-03T08:28:23Z</time>
      </trkpt>
      <trkpt lat="45.93932" lon="4.78683">
        <ele>193</ele>
        <time>2017-06-03T08:28:24Z</time>
      </trkpt>
      <trkpt lat="45.93932" lon="4.78693">
        <ele>194</ele>
        <time>2017-06-03T08:28:26Z</time>
      </trkpt>
      <trkpt lat="45.93933" lon="4.78698">
        <ele>194</ele>
        <time>2017-06-03T08:28:27Z</time>
      </trkpt>
      <trkpt lat="45.93932" lon="4.7871">
        <ele>194</ele>
        <time>2017-06-03T08:28:29Z</time>
      </trkpt>
      <trkpt lat="45.93932" lon="4.78716">
        <ele>194</ele>
        <time>2017-06-03T08:28:30Z</time>
      </trkpt>
      <trkpt lat="45.93932" lon="4.78729">
        <ele>193</ele>
        <time>2017-06-03T08:28:32Z</time>
      </trkpt>
      <trkpt lat="45.93931" lon="4.78735">
        <ele>193</ele>
        <time>2017-06-03T08:28:33Z</time>
      </trkpt>
      <trkpt lat="45.93931" lon="4.78741">
        <ele>193</ele>
        <time>2017-06-03T08:28:34Z</time>
      </trkpt>
      <trkpt lat="45.93931" lon="4.78748">
        <ele>192</ele>
        <time>2017-06-03T08:28:35Z</time>
      </trkpt>
      <trkpt lat="45.93933" lon="4.78759">
        <ele>193</ele>
        <time>2017-06-03T08:28:37Z</time>
      </trkpt>
      <trkpt lat="45.93932" lon="4.78765">
        <ele>193</ele>
        <time>2017-06-03T08:28:38Z</time>
      </trkpt>
      <trkpt lat="45.93933" lon="4.78778">
        <ele>193</ele>
        <time>2017-06-03T08:28:40Z</time>
      </trkpt>
      <trkpt lat="45.93932" lon="4.78784">
        <ele>194</ele>
        <time>2017-06-03T08:28:41Z</time>
      </trkpt>
      <trkpt lat="45.93932" lon="4.78791">
        <ele>194</ele>
        <time>2017-06-03T08:28:42Z</time>
      </trkpt>
      <trkpt lat="45.93932" lon="4.78798">
        <ele>194</ele>
        <time>2017-06-03T08:28:43Z</time>
      </trkpt>
      <trkpt lat="45.93932" lon="4.78805">
        <ele>194</ele>
        <time>2017-06-03T08:28:44Z</time>
      </trkpt>
      <trkpt lat="45.93931" lon="4.78812">
        <ele>193</ele>
        <time>2017-06-03T08:28:45Z</time>
      </trkpt>
      <trkpt lat="45.93931" lon="4.78824">
        <ele>193</ele>
        <time>2017-06-03T08:28:47Z</time>
      </trkpt>
      <trkpt lat="45.93931" lon="4.7883">
        <ele>193</ele>
        <time>2017-06-03T08:28:48Z</time>
      </trkpt>
      <trkpt lat="45.93933" lon="4.78843">
        <ele>193</ele>
        <time>2017-06-03T08:28:50Z</time>
      </trkpt>
      <trkpt lat="45.93933" lon="4.78849">
        <ele>193</ele>
        <time>2017-06-03T08:28:51Z</time>
      </trkpt>
      <trkpt lat="45.93934" lon="4.78861">
        <ele>193</ele>
        <time>2017-06-03T08:28:53Z</time>
      </trkpt>
      <trkpt lat="45.93934" lon="4.78867">
        <ele>193</ele>
        <time>2017-06-03T08:28:54Z</time>
      </trkpt>
      <trkpt lat="45.93934" lon="4.78879">
        <ele>193</ele>
        <time>2017-06-03T08:28:56Z</time>
      </trkpt>
      <trkpt lat="45.93935" lon="4.78885">
        <ele>193</ele>
        <time>2017-06-03T08:28:57Z</time>
      </trkpt>
      <trkpt lat="45.93935" lon="4.78898">
        <ele>193</ele>
        <time>2017-06-03T08:28:59Z</time>
      </trkpt>
      <trkpt lat="45.93935" lon="4.78904">
        <ele>193</ele>
        <time>2017-06-03T08:29:00Z</time>
      </trkpt>
      <trkpt lat="45.93935" lon="4.7891">
        <ele>192</ele>
        <time>2017-06-03T08:29:01Z</time>
      </trkpt>
      <trkpt lat="45.93935" lon="4.78917">
        <ele>192</ele>
        <time>2017-06-03T08:29:02Z</time>
      </trkpt>
      <trkpt lat="45.93935" lon="4.78929">
        <ele>193</ele>
        <time>2017-06-03T08:29:04Z</time>
      </trkpt>
      <trkpt lat="45.93935" lon="4.78935">
        <ele>193</ele>
        <time>2017-06-03T08:29:05Z</time>
      </trkpt>
      <trkpt lat="45.93936" lon="4.78945">
        <ele>193</ele>
        <time>2017-06-03T08:29:07Z</time>
      </trkpt>
      <trkpt lat="45.93936" lon="4.7895">
        <ele>193</ele>
        <time>2017-06-03T08:29:08Z</time>
      </trkpt>
      <trkpt lat="45.93936" lon="4.78959">
        <ele>194</ele>
        <time>2017-06-03T08:29:10Z</time>
      </trkpt>
      <trkpt lat="45.93937" lon="4.78964">
        <ele>194</ele>
        <time>2017-06-03T08:29:11Z</time>
      </trkpt>
      <trkpt lat="45.93937" lon="4.78975">
        <ele>193</ele>
        <time>2017-06-03T08:29:13Z</time>
      </trkpt>
      <trkpt lat="45.93937" lon="4.78981">
        <ele>193</ele>
        <time>2017-06-03T08:29:14Z</time>
      </trkpt>
      <trkpt lat="45.93938" lon="4.78993">
        <ele>193</ele>
        <time>2017-06-03T08:29:16Z</time>
      </trkpt>
      <trkpt lat="45.93939" lon="4.78999">
        <ele>193</ele>
        <time>2017-06-03T08:29:17Z</time>
      </trkpt>
      <trkpt lat="45.93939" lon="4.79011">
        <ele>194</ele>
        <time>2017-06-03T08:29:19Z</time>
      </trkpt>
      <trkpt lat="45.93939" lon="4.79017">
        <ele>194</ele>
        <time>2017-06-03T08:29:20Z</time>
      </trkpt>
      <trkpt lat="45.93939" lon="4.79027">
        <ele>195</ele>
        <time>2017-06-03T08:29:22Z</time>
      </trkpt>
      <trkpt lat="45.93939" lon="4.79031">
        <ele>195</ele>
        <time>2017-06-03T08:29:23Z</time>
      </trkpt>
      <trkpt lat="45.93939" lon="4.79041">
        <ele>195</ele>
        <time>2017-06-03T08:29:25Z</time>
      </trkpt>
      <trkpt lat="45.93939" lon="4.79045">
        <ele>195</ele>
        <time>2017-06-03T08:29:26Z</time>
      </trkpt>
      <trkpt lat="45.93939" lon="4.79055">
        <ele>195</ele>
        <time>2017-06-03T08:29:28Z</time>
      </trkpt>
      <trkpt lat="45.93939" lon="4.7906">
        <ele>195</ele>
        <time>2017-06-03T08:29:29Z</time>
      </trkpt>
      <trkpt lat="45.93939" lon="4.79071">
        <ele>195</ele>
        <time>2017-06-03T08:29:31Z</time>
      </trkpt>
      <trkpt lat="45.93939" lon="4.79076">
        <ele>195</ele>
        <time>2017-06-03T08:29:32Z</time>
      </trkpt>
      <trkpt lat="45.93939" lon="4.79087">
        <ele>195</ele>
        <time>2017-06-03T08:29:34Z</time>
      </trkpt>
      <trkpt lat="45.93939" lon="4.79093">
        <ele>195</ele>
        <time>2017-06-03T08:29:35Z</time>
      </trkpt>
      <trkpt lat="45.9394" lon="4.79105">
        <ele>196</ele>
        <time>2017-06-03T08:29:37Z</time>
      </trkpt>
      <trkpt lat="45.9394" lon="4.7911">
        <ele>196</ele>
        <time>2017-06-03T08:29:38Z</time>
      </trkpt>
      <trkpt lat="45.9394" lon="4.79122">
        <ele>196</ele>
        <time>2017-06-03T08:29:40Z</time>
      </trkpt>
      <trkpt lat="45.93942" lon="4.79128">
        <ele>196</ele>
        <time>2017-06-03T08:29:41Z</time>
      </trkpt>
      <trkpt lat="45.93942" lon="4.79139">
        <ele>196</ele>
        <time>2017-06-03T08:29:43Z</time>
      </trkpt>
      <trkpt lat="45.93942" lon="4.79144">
        <ele>196</ele>
        <time>2017-06-03T08:29:44Z</time>
      </trkpt>
      <trkpt lat="45.93944" lon="4.79156">
        <ele>196</ele>
        <time>2017-06-03T08:29:46Z</time>
      </trkpt>
      <trkpt lat="45.93943" lon="4.79161">
        <ele>196</ele>
        <time>2017-06-03T08:29:47Z</time>
      </trkpt>
      <trkpt lat="45.93943" lon="4.79171">
        <ele>196</ele>
        <time>2017-06-03T08:29:49Z</time>
      </trkpt>
      <trkpt lat="45.93943" lon="4.79175">
        <ele>196</ele>
        <time>2017-06-03T08:29:50Z</time>
      </trkpt>
      <trkpt lat="45.93943" lon="4.79185">
        <ele>196</ele>
        <time>2017-06-03T08:29:52Z</time>
      </trkpt>
      <trkpt lat="45.93944" lon="4.7919">
        <ele>196</ele>
        <time>2017-06-03T08:29:53Z</time>
      </trkpt>
      <trkpt lat="45.93943" lon="4.792">
        <ele>196</ele>
        <time>2017-06-03T08:29:55Z</time>
      </trkpt>
      <trkpt lat="45.93943" lon="4.79205">
        <ele>196</ele>
        <time>2017-06-03T08:29:56Z</time>
      </trkpt>
      <trkpt lat="45.93942" lon="4.79216">
        <ele>196</ele>
        <time>2017-06-03T08:29:58Z</time>
      </trkpt>
      <trkpt lat="45.93942" lon="4.79221">
        <ele>196</ele>
        <time>2017-06-03T08:29:59Z</time>
      </trkpt>
      <trkpt lat="45.93942" lon="4.79232">
        <ele>196</ele>
        <time>2017-06-03T08:30:01Z</time>
      </trkpt>
      <trkpt lat="45.93943" lon="4.79237">
        <ele>196</ele>
        <time>2017-06-03T08:30:02Z</time>
      </trkpt>
      <trkpt lat="45.93943" lon="4.79247">
        <ele>196</ele>
        <time>2017-06-03T08:30:04Z</time>
      </trkpt>
      <trkpt lat="45.93943" lon="4.79252">
        <ele>197</ele>
        <time>2017-06-03T08:30:05Z</time>
      </trkpt>
      <trkpt lat="45.93943" lon="4.79263">
        <ele>197</ele>
        <time>2017-06-03T08:30:07Z</time>
      </trkpt>
      <trkpt lat="45.93944" lon="4.7927">
        <ele>197</ele>
        <time>2017-06-03T08:30:08Z</time>
      </trkpt>
      <trkpt lat="45.93945" lon="4.79277">
        <ele>198</ele>
        <time>2017-06-03T08:30:09Z</time>
      </trkpt>
      <trkpt lat="45.93946" lon="4.79283">
        <ele>198</ele>
        <time>2017-06-03T08:30:10Z</time>
      </trkpt>
      <trkpt lat="45.93946" lon="4.79295">
        <ele>198</ele>
        <time>2017-06-03T08:30:12Z</time>
      </trkpt>
      <trkpt lat="45.93946" lon="4.793">
        <ele>198</ele>
        <time>2017-06-03T08:30:13Z</time>
      </trkpt>
      <trkpt lat="45.93947" lon="4.7931">
        <ele>198</ele>
        <time>2017-06-03T08:30:15Z</time>
      </trkpt>
      <trkpt lat="45.93948" lon="4.79315">
        <ele>198</ele>
        <time>2017-06-03T08:30:16Z</time>
      </trkpt>
      <trkpt lat="45.93948" lon="4.79325">
        <ele>198</ele>
        <time>2017-06-03T08:30:18Z</time>
      </trkpt>
      <trkpt lat="45.93948" lon="4.7933">
        <ele>198</ele>
        <time>2017-06-03T08:30:19Z</time>
      </trkpt>
      <trkpt lat="45.93947" lon="4.7934">
        <ele>200</ele>
        <time>2017-06-03T08:30:21Z</time>
      </trkpt>
      <trkpt lat="45.93946" lon="4.79346">
        <ele>200</ele>
        <time>2017-06-03T08:30:22Z</time>
      </trkpt>
      <trkpt lat="45.93945" lon="4.79355">
        <ele>200</ele>
        <time>2017-06-03T08:30:24Z</time>
      </trkpt>
      <trkpt lat="45.93945" lon="4.79361">
        <ele>200</ele>
        <time>2017-06-03T08:30:25Z</time>
      </trkpt>
      <trkpt lat="45.93945" lon="4.7937">
        <ele>200</ele>
        <time>2017-06-03T08:30:27Z</time>
      </trkpt>
      <trkpt lat="45.93944" lon="4.79376">
        <ele>200</ele>
        <time>2017-06-03T08:30:28Z</time>
      </trkpt>
      <trkpt lat="45.93943" lon="4.79386">
        <ele>200</ele>
        <time>2017-06-03T08:30:30Z</time>
      </trkpt>
      <trkpt lat="45.93943" lon="4.7939">
        <ele>200</ele>
        <time>2017-06-03T08:30:31Z</time>
      </trkpt>
      <trkpt lat="45.93942" lon="4.79399">
        <ele>200</ele>
        <time>2017-06-03T08:30:33Z</time>
      </trkpt>
      <trkpt lat="45.93942" lon="4.79404">
        <ele>200</ele>
        <time>2017-06-03T08:30:34Z</time>
      </trkpt>
      <trkpt lat="45.93942" lon="4.79413">
        <ele>200</ele>
        <time>2017-06-03T08:30:36Z</time>
      </trkpt>
      <trkpt lat="45.93942" lon="4.79417">
        <ele>201</ele>
        <time>2017-06-03T08:30:37Z</time>
      </trkpt>
      <trkpt lat="45.93942" lon="4.79429">
        <ele>201</ele>
        <time>2017-06-03T08:30:40Z</time>
      </trkpt>
      <trkpt lat="45.93942" lon="4.79434">
        <ele>201</ele>
        <time>2017-06-03T08:30:41Z</time>
      </trkpt>
      <trkpt lat="45.93942" lon="4.79443">
        <ele>201</ele>
        <time>2017-06-03T08:30:43Z</time>
      </trkpt>
      <trkpt lat="45.93942" lon="4.79448">
        <ele>202</ele>
        <time>2017-06-03T08:30:44Z</time>
      </trkpt>
      <trkpt lat="45.93943" lon="4.79457">
        <ele>202</ele>
        <time>2017-06-03T08:30:46Z</time>
      </trkpt>
      <trkpt lat="45.93943" lon="4.79463">
        <ele>202</ele>
        <time>2017-06-03T08:30:47Z</time>
      </trkpt>
      <trkpt lat="45.93943" lon="4.79474">
        <ele>202</ele>
        <time>2017-06-03T08:30:49Z</time>
      </trkpt>
      <trkpt lat="45.93943" lon="4.79479">
        <ele>202</ele>
        <time>2017-06-03T08:30:50Z</time>
      </trkpt>
      <trkpt lat="45.93943" lon="4.79489">
        <ele>201</ele>
        <time>2017-06-03T08:30:52Z</time>
      </trkpt>
      <trkpt lat="45.93943" lon="4.79495">
        <ele>201</ele>
        <time>2017-06-03T08:30:53Z</time>
      </trkpt>
      <trkpt lat="45.93944" lon="4.79506">
        <ele>203</ele>
        <time>2017-06-03T08:30:55Z</time>
      </trkpt>
      <trkpt lat="45.93944" lon="4.79511">
        <ele>203</ele>
        <time>2017-06-03T08:30:56Z</time>
      </trkpt>
      <trkpt lat="45.93945" lon="4.7952">
        <ele>203</ele>
        <time>2017-06-03T08:30:58Z</time>
      </trkpt>
      <trkpt lat="45.93946" lon="4.79525">
        <ele>204</ele>
        <time>2017-06-03T08:30:59Z</time>
      </trkpt>
      <trkpt lat="45.93947" lon="4.79537">
        <ele>204</ele>
        <time>2017-06-03T08:31:01Z</time>
      </trkpt>
      <trkpt lat="45.93948" lon="4.79543">
        <ele>204</ele>
        <time>2017-06-03T08:31:02Z</time>
      </trkpt>
      <trkpt lat="45.93949" lon="4.79556">
        <ele>205</ele>
        <time>2017-06-03T08:31:04Z</time>
      </trkpt>
      <trkpt lat="45.93949" lon="4.79561">
        <ele>205</ele>
        <time>2017-06-03T08:31:05Z</time>
      </trkpt>
      <trkpt lat="45.9395" lon="4.79571">
        <ele>205</ele>
        <time>2017-06-03T08:31:07Z</time>
      </trkpt>
      <trkpt lat="45.93951" lon="4.79576">
        <ele>205</ele>
        <time>2017-06-03T08:31:08Z</time>
      </trkpt>
      <trkpt lat="45.93953" lon="4.79587">
        <ele>206</ele>
        <time>2017-06-03T08:31:10Z</time>
      </trkpt>
      <trkpt lat="45.93953" lon="4.79591">
        <ele>206</ele>
        <time>2017-06-03T08:31:11Z</time>
      </trkpt>
      <trkpt lat="45.93954" lon="4.79601">
        <ele>206</ele>
        <time>2017-06-03T08:31:13Z</time>
      </trkpt>
      <trkpt lat="45.93954" lon="4.79605">
        <ele>206</ele>
        <time>2017-06-03T08:31:14Z</time>
      </trkpt>
      <trkpt lat="45.93954" lon="4.79613">
        <ele>206</ele>
        <time>2017-06-03T08:31:16Z</time>
      </trkpt>
      <trkpt lat="45.93954" lon="4.79618">
        <ele>206</ele>
        <time>2017-06-03T08:31:17Z</time>
      </trkpt>
      <trkpt lat="45.93954" lon="4.79628">
        <ele>206</ele>
        <time>2017-06-03T08:31:19Z</time>
      </trkpt>
      <trkpt lat="45.93955" lon="4.79632">
        <ele>207</ele>
        <time>2017-06-03T08:31:20Z</time>
      </trkpt>
      <trkpt lat="45.93954" lon="4.79642">
        <ele>207</ele>
        <time>2017-06-03T08:31:22Z</time>
      </trkpt>
      <trkpt lat="45.93954" lon="4.79647">
        <ele>206</ele>
        <time>2017-06-03T08:31:23Z</time>
      </trkpt>
      <trkpt lat="45.93955" lon="4.79656">
        <ele>207</ele>
        <time>2017-06-03T08:31:25Z</time>
      </trkpt>
      <trkpt lat="45.93955" lon="4.79661">
        <ele>207</ele>
        <time>2017-06-03T08:31:26Z</time>
      </trkpt>
      <trkpt lat="45.93956" lon="4.79671">
        <ele>206</ele>
        <time>2017-06-03T08:31:28Z</time>
      </trkpt>
      <trkpt lat="45.93956" lon="4.79675">
        <ele>206</ele>
        <time>2017-06-03T08:31:29Z</time>
      </trkpt>
      <trkpt lat="45.93957" lon="4.79686">
        <ele>206</ele>
        <time>2017-06-03T08:31:31Z</time>
      </trkpt>
      <trkpt lat="45.93958" lon="4.79691">
        <ele>206</ele>
        <time>2017-06-03T08:31:32Z</time>
      </trkpt>
      <trkpt lat="45.93958" lon="4.79701">
        <ele>206</ele>
        <time>2017-06-03T08:31:34Z</time>
      </trkpt>
      <trkpt lat="45.93959" lon="4.79705">
        <ele>206</ele>
        <time>2017-06-03T08:31:35Z</time>
      </trkpt>
      <trkpt lat="45.93959" lon="4.79714">
        <ele>206</ele>
        <time>2017-06-03T08:31:37Z</time>
      </trkpt>
      <trkpt lat="45.93959" lon="4.79718">
        <ele>206</ele>
        <time>2017-06-03T08:31:38Z</time>
      </trkpt>
      <trkpt lat="45.9396" lon="4.79728">
        <ele>206</ele>
        <time>2017-06-03T08:31:40Z</time>
      </trkpt>
      <trkpt lat="45.93961" lon="4.79734">
        <ele>206</ele>
        <time>2017-06-03T08:31:41Z</time>
      </trkpt>
      <trkpt lat="45.93961" lon="4.79744">
        <ele>206</ele>
        <time>2017-06-03T08:31:43Z</time>
      </trkpt>
      <trkpt lat="45.93962" lon="4.7975">
        <ele>206</ele>
        <time>2017-06-03T08:31:44Z</time>
      </trkpt>
      <trkpt lat="45.93963" lon="4.79761">
        <ele>206</ele>
        <time>2017-06-03T08:31:46Z</time>
      </trkpt>
      <trkpt lat="45.93963" lon="4.79767">
        <ele>206</ele>
        <time>2017-06-03T08:31:47Z</time>
      </trkpt>
      <trkpt lat="45.93965" lon="4.79779">
        <ele>206</ele>
        <time>2017-06-03T08:31:49Z</time>
      </trkpt>
      <trkpt lat="45.93965" lon="4.79785">
        <ele>206</ele>
        <time>2017-06-03T08:31:50Z</time>
      </trkpt>
      <trkpt lat="45.93964" lon="4.79798">
        <ele>206</ele>
        <time>2017-06-03T08:31:52Z</time>
      </trkpt>
      <trkpt lat="45.93964" lon="4.79804">
        <ele>206</ele>
        <time>2017-06-03T08:31:53Z</time>
      </trkpt>
      <trkpt lat="45.93963" lon="4.79811">
        <ele>206</ele>
        <time>2017-06-03T08:31:54Z</time>
      </trkpt>
      <trkpt lat="45.93963" lon="4.79818">
        <ele>206</ele>
        <time>2017-06-03T08:31:55Z</time>
      </trkpt>
      <trkpt lat="45.93962" lon="4.7983">
        <ele>206</ele>
        <time>2017-06-03T08:31:57Z</time>
      </trkpt>
      <trkpt lat="45.93961" lon="4.79836">
        <ele>206</ele>
        <time>2017-06-03T08:31:58Z</time>
      </trkpt>
      <trkpt lat="45.93959" lon="4.79848">
        <ele>206</ele>
        <time>2017-06-03T08:32:00Z</time>
      </trkpt>
      <trkpt lat="45.93958" lon="4.79854">
        <ele>206</ele>
        <time>2017-06-03T08:32:01Z</time>
      </trkpt>
      <trkpt lat="45.93956" lon="4.79866">
        <ele>206</ele>
        <time>2017-06-03T08:32:03Z</time>
      </trkpt>
      <trkpt lat="45.93955" lon="4.79872">
        <ele>206</ele>
        <time>2017-06-03T08:32:04Z</time>
      </trkpt>
      <trkpt lat="45.93952" lon="4.79884">
        <ele>205</ele>
        <time>2017-06-03T08:32:06Z</time>
      </trkpt>
      <trkpt lat="45.93951" lon="4.79891">
        <ele>205</ele>
        <time>2017-06-03T08:32:07Z</time>
      </trkpt>
      <trkpt lat="45.9395" lon="4.79897">
        <ele>205</ele>
        <time>2017-06-03T08:32:08Z</time>
      </trkpt>
      <trkpt lat="45.93948" lon="4.79904">
        <ele>205</ele>
        <time>2017-06-03T08:32:09Z</time>
      </trkpt>
      <trkpt lat="45.93947" lon="4.79911">
        <ele>205</ele>
        <time>2017-06-03T08:32:10Z</time>
      </trkpt>
      <trkpt lat="45.93946" lon="4.79917">
        <ele>205</ele>
        <time>2017-06-03T08:32:11Z</time>
      </trkpt>
      <trkpt lat="45.93945" lon="4.79924">
        <ele>205</ele>
        <time>2017-06-03T08:32:12Z</time>
      </trkpt>
      <trkpt lat="45.93944" lon="4.79931">
        <ele>205</ele>
        <time>2017-06-03T08:32:13Z</time>
      </trkpt>
      <trkpt lat="45.93943" lon="4.79937">
        <ele>205</ele>
        <time>2017-06-03T08:32:14Z</time>
      </trkpt>
      <trkpt lat="45.93942" lon="4.79944">
        <ele>205</ele>
        <time>2017-06-03T08:32:15Z</time>
      </trkpt>
      <trkpt lat="45.93941" lon="4.79951">
        <ele>205</ele>
        <time>2017-06-03T08:32:16Z</time>
      </trkpt>
      <trkpt lat="45.9394" lon="4.79958">
        <ele>205</ele>
        <time>2017-06-03T08:32:17Z</time>
      </trkpt>
      <trkpt lat="45.93939" lon="4.79965">
        <ele>205</ele>
        <time>2017-06-03T08:32:18Z</time>
      </trkpt>
      <trkpt lat="45.93938" lon="4.79971">
        <ele>204</ele>
        <time>2017-06-03T08:32:19Z</time>
      </trkpt>
      <trkpt lat="45.93936" lon="4.79978">
        <ele>204</ele>
        <time>2017-06-03T08:32:20Z</time>
      </trkpt>
      <trkpt lat="45.93935" lon="4.79984">
        <ele>204</ele>
        <time>2017-06-03T08:32:21Z</time>
      </trkpt>
      <trkpt lat="45.93934" lon="4.79996">
        <ele>203</ele>
        <time>2017-06-03T08:32:23Z</time>
      </trkpt>
      <trkpt lat="45.93933" lon="4.80003">
        <ele>205</ele>
        <time>2017-06-03T08:32:24Z</time>
      </trkpt>
      <trkpt lat="45.93932" lon="4.80015">
        <ele>205</ele>
        <time>2017-06-03T08:32:26Z</time>
      </trkpt>
      <trkpt lat="45.93932" lon="4.80021">
        <ele>206</ele>
        <time>2017-06-03T08:32:27Z</time>
      </trkpt>
      <trkpt lat="45.9393" lon="4.80033">
        <ele>206</ele>
        <time>2017-06-03T08:32:29Z</time>
      </trkpt>
      <trkpt lat="45.9393" lon="4.80038">
        <ele>207</ele>
        <time>2017-06-03T08:32:30Z</time>
      </trkpt>
      <trkpt lat="45.9393" lon="4.8005">
        <ele>207</ele>
        <time>2017-06-03T08:32:32Z</time>
      </trkpt>
      <trkpt lat="45.93929" lon="4.80056">
        <ele>207</ele>
        <time>2017-06-03T08:32:33Z</time>
      </trkpt>
      <trkpt lat="45.93929" lon="4.80062">
        <ele>207</ele>
        <time>2017-06-03T08:32:34Z</time>
      </trkpt>
      <trkpt lat="45.93929" lon="4.80069">
        <ele>207</ele>
        <time>2017-06-03T08:32:35Z</time>
      </trkpt>
      <trkpt lat="45.93929" lon="4.80076">
        <ele>207</ele>
        <time>2017-06-03T08:32:36Z</time>
      </trkpt>
      <trkpt lat="45.9393" lon="4.80083">
        <ele>206</ele>
        <time>2017-06-03T08:32:37Z</time>
      </trkpt>
      <trkpt lat="45.9393" lon="4.80089">
        <ele>207</ele>
        <time>2017-06-03T08:32:38Z</time>
      </trkpt>
      <trkpt lat="45.93931" lon="4.80096">
        <ele>207</ele>
        <time>2017-06-03T08:32:39Z</time>
      </trkpt>
      <trkpt lat="45.93931" lon="4.80102">
        <ele>208</ele>
        <time>2017-06-03T08:32:40Z</time>
      </trkpt>
      <trkpt lat="45.93932" lon="4.80109">
        <ele>208</ele>
        <time>2017-06-03T08:32:41Z</time>
      </trkpt>
      <trkpt lat="45.93933" lon="4.80121">
        <ele>208</ele>
        <time>2017-06-03T08:32:43Z</time>
      </trkpt>
      <trkpt lat="45.93933" lon="4.80127">
        <ele>208</ele>
        <time>2017-06-03T08:32:44Z</time>
      </trkpt>
      <trkpt lat="45.93936" lon="4.80139">
        <ele>208</ele>
        <time>2017-06-03T08:32:46Z</time>
      </trkpt>
      <trkpt lat="45.93937" lon="4.80145">
        <ele>208</ele>
        <time>2017-06-03T08:32:47Z</time>
      </trkpt>
      <trkpt lat="45.93938" lon="4.80151">
        <ele>208</ele>
        <time>2017-06-03T08:32:48Z</time>
      </trkpt>
      <trkpt lat="45.93939" lon="4.80158">
        <ele>207</ele>
        <time>2017-06-03T08:32:49Z</time>
      </trkpt>
      <trkpt lat="45.9394" lon="4.80164">
        <ele>207</ele>
        <time>2017-06-03T08:32:50Z</time>
      </trkpt>
      <trkpt lat="45.93941" lon="4.80171">
        <ele>205</ele>
        <time>2017-06-03T08:32:51Z</time>
      </trkpt>
      <trkpt lat="45.93943" lon="4.80178">
        <ele>205</ele>
        <time>2017-06-03T08:32:52Z</time>
      </trkpt>
      <trkpt lat="45.93944" lon="4.80185">
        <ele>205</ele>
        <time>2017-06-03T08:32:53Z</time>
      </trkpt>
      <trkpt lat="45.93945" lon="4.80192">
        <ele>205</ele>
        <time>2017-06-03T08:32:54Z</time>
      </trkpt>
      <trkpt lat="45.93947" lon="4.80199">
        <ele>205</ele>
        <time>2017-06-03T08:32:55Z</time>
      </trkpt>
      <trkpt lat="45.93948" lon="4.80206">
        <ele>205</ele>
        <time>2017-06-03T08:32:56Z</time>
      </trkpt>
      <trkpt lat="45.93949" lon="4.80213">
        <ele>205</ele>
        <time>2017-06-03T08:32:57Z</time>
      </trkpt>
      <trkpt lat="45.93951" lon="4.80219">
        <ele>205</ele>
        <time>2017-06-03T08:32:58Z</time>
      </trkpt>
      <trkpt lat="45.93953" lon="4.80225">
        <ele>204</ele>
        <time>2017-06-03T08:32:59Z</time>
      </trkpt>
      <trkpt lat="45.93957" lon="4.80237">
        <ele>204</ele>
        <time>2017-06-03T08:33:01Z</time>
      </trkpt>
      <trkpt lat="45.93958" lon="4.80242">
        <ele>204</ele>
        <time>2017-06-03T08:33:02Z</time>
      </trkpt>
      <trkpt lat="45.93961" lon="4.80252">
        <ele>202</ele>
        <time>2017-06-03T08:33:04Z</time>
      </trkpt>
      <trkpt lat="45.93963" lon="4.80257">
        <ele>202</ele>
        <time>2017-06-03T08:33:05Z</time>
      </trkpt>
      <trkpt lat="45.93966" lon="4.80269">
        <ele>202</ele>
        <time>2017-06-03T08:33:07Z</time>
      </trkpt>
      <trkpt lat="45.93968" lon="4.80274">
        <ele>202</ele>
        <time>2017-06-03T08:33:08Z</time>
      </trkpt>
      <trkpt lat="45.9397" lon="4.80284">
        <ele>202</ele>
        <time>2017-06-03T08:33:10Z</time>
      </trkpt>
      <trkpt lat="45.93972" lon="4.80289">
        <ele>202</ele>
        <time>2017-06-03T08:33:11Z</time>
      </trkpt>
      <trkpt lat="45.93974" lon="4.80298">
        <ele>203</ele>
        <time>2017-06-03T08:33:13Z</time>
      </trkpt>
      <trkpt lat="45.93975" lon="4.80302">
        <ele>203</ele>
        <time>2017-06-03T08:33:14Z</time>
      </trkpt>
      <trkpt lat="45.93978" lon="4.8031">
        <ele>203</ele>
        <time>2017-06-03T08:33:16Z</time>
      </trkpt>
      <trkpt lat="45.9398" lon="4.80315">
        <ele>203</ele>
        <time>2017-06-03T08:33:17Z</time>
      </trkpt>
      <trkpt lat="45.93984" lon="4.80325">
        <ele>204</ele>
        <time>2017-06-03T08:33:19Z</time>
      </trkpt>
      <trkpt lat="45.93985" lon="4.8033">
        <ele>204</ele>
        <time>2017-06-03T08:33:20Z</time>
      </trkpt>
      <trkpt lat="45.93988" lon="4.8034">
        <ele>206</ele>
        <time>2017-06-03T08:33:22Z</time>
      </trkpt>
      <trkpt lat="45.9399" lon="4.80345">
        <ele>206</ele>
        <time>2017-06-03T08:33:23Z</time>
      </trkpt>
      <trkpt lat="45.93993" lon="4.80355">
        <ele>206</ele>
        <time>2017-06-03T08:33:25Z</time>
      </trkpt>
      <trkpt lat="45.93994" lon="4.80359">
        <ele>207</ele>
        <time>2017-06-03T08:33:26Z</time>
      </trkpt>
      <trkpt lat="45.93997" lon="4.80369">
        <ele>207</ele>
        <time>2017-06-03T08:33:29Z</time>
      </trkpt>
      <trkpt lat="45.93999" lon="4.80373">
        <ele>208</ele>
        <time>2017-06-03T08:33:30Z</time>
      </trkpt>
      <trkpt lat="45.94001" lon="4.80382">
        <ele>216</ele>
        <time>2017-06-03T08:33:32Z</time>
      </trkpt>
      <trkpt lat="45.94001" lon="4.80386">
        <ele>217</ele>
        <time>2017-06-03T08:33:33Z</time>
      </trkpt>
      <trkpt lat="45.94003" lon="4.80396">
        <ele>217</ele>
        <time>2017-06-03T08:33:35Z</time>
      </trkpt>
      <trkpt lat="45.94004" lon="4.80401">
        <ele>217</ele>
        <time>2017-06-03T08:33:36Z</time>
      </trkpt>
      <trkpt lat="45.94006" lon="4.8041">
        <ele>217</ele>
        <time>2017-06-03T08:33:38Z</time>
      </trkpt>
      <trkpt lat="45.94006" lon="4.80414">
        <ele>217</ele>
        <time>2017-06-03T08:33:39Z</time>
      </trkpt>
      <trkpt lat="45.94007" lon="4.80425">
        <ele>219</ele>
        <time>2017-06-03T08:33:42Z</time>
      </trkpt>
      <trkpt lat="45.94007" lon="4.80428">
        <ele>220</ele>
        <time>2017-06-03T08:33:43Z</time>
      </trkpt>
      <trkpt lat="45.94007" lon="4.80436">
        <ele>221</ele>
        <time>2017-06-03T08:33:45Z</time>
      </trkpt>
      <trkpt lat="45.94008" lon="4.80442">
        <ele>222</ele>
        <time>2017-06-03T08:33:46Z</time>
      </trkpt>
      <trkpt lat="45.9401" lon="4.80453">
        <ele>222</ele>
        <time>2017-06-03T08:33:48Z</time>
      </trkpt>
      <trkpt lat="45.9401" lon="4.80458">
        <ele>223</ele>
        <time>2017-06-03T08:33:49Z</time>
      </trkpt>
      <trkpt lat="45.9401" lon="4.80468">
        <ele>223</ele>
        <time>2017-06-03T08:33:51Z</time>
      </trkpt>
      <trkpt lat="45.9401" lon="4.80472">
        <ele>222</ele>
        <time>2017-06-03T08:33:52Z</time>
      </trkpt>
      <trkpt lat="45.94011" lon="4.80484">
        <ele>222</ele>
        <time>2017-06-03T08:33:55Z</time>
      </trkpt>
      <trkpt lat="45.94011" lon="4.80488">
        <ele>221</ele>
        <time>2017-06-03T08:33:56Z</time>
      </trkpt>
      <trkpt lat="45.94013" lon="4.80499">
        <ele>221</ele>
        <time>2017-06-03T08:33:59Z</time>
      </trkpt>
      <trkpt lat="45.94013" lon="4.80503">
        <ele>222</ele>
        <time>2017-06-03T08:34:00Z</time>
      </trkpt>
      <trkpt lat="45.94012" lon="4.80512">
        <ele>222</ele>
        <time>2017-06-03T08:34:02Z</time>
      </trkpt>
      <trkpt lat="45.94012" lon="4.80517">
        <ele>223</ele>
        <time>2017-06-03T08:34:03Z</time>
      </trkpt>
      <trkpt lat="45.94013" lon="4.80526">
        <ele>224</ele>
        <time>2017-06-03T08:34:05Z</time>
      </trkpt>
      <trkpt lat="45.94012" lon="4.8053">
        <ele>224</ele>
        <time>2017-06-03T08:34:06Z</time>
      </trkpt>
      <trkpt lat="45.94012" lon="4.80542">
        <ele>224</ele>
        <time>2017-06-03T08:34:09Z</time>
      </trkpt>
      <trkpt lat="45.94012" lon="4.80545">
        <ele>224</ele>
        <time>2017-06-03T08:34:10Z</time>
      </trkpt>
      <trkpt lat="45.94013" lon="4.80557">
        <ele>224</ele>
        <time>2017-06-03T08:34:14Z</time>
      </trkpt>
      <trkpt lat="45.94013" lon="4.80559">
        <ele>223</ele>
        <time>2017-06-03T08:34:15Z</time>
      </trkpt>
      <trkpt lat="45.94014" lon="4.8057">
        <ele>222</ele>
        <time>2017-06-03T08:34:19Z</time>
      </trkpt>
      <trkpt lat="45.94013" lon="4.80573">
        <ele>222</ele>
        <time>2017-06-03T08:34:20Z</time>
      </trkpt>
      <trkpt lat="45.94011" lon="4.80584">
        <ele>221</ele>
        <time>2017-06-03T08:34:24Z</time>
      </trkpt>
      <trkpt lat="45.94011" lon="4.80587">
        <ele>221</ele>
        <time>2017-06-03T08:34:25Z</time>
      </trkpt>
      <trkpt lat="45.94011" lon="4.80598">
        <ele>222</ele>
        <time>2017-06-03T08:34:29Z</time>
      </trkpt>
      <trkpt lat="45.94011" lon="4.80602">
        <ele>222</ele>
        <time>2017-06-03T08:34:30Z</time>
      </trkpt>
      <trkpt lat="45.94011" lon="4.80614">
        <ele>223</ele>
        <time>2017-06-03T08:34:34Z</time>
      </trkpt>
      <trkpt lat="45.94012" lon="4.80618">
        <ele>223</ele>
        <time>2017-06-03T08:34:35Z</time>
      </trkpt>
      <trkpt lat="45.94014" lon="4.8063">
        <ele>224</ele>
        <time>2017-06-03T08:34:39Z</time>
      </trkpt>
      <trkpt lat="45.94015" lon="4.80633">
        <ele>224</ele>
        <time>2017-06-03T08:34:40Z</time>
      </trkpt>
      <trkpt lat="45.94015" lon="4.80644">
        <ele>223</ele>
        <time>2017-06-03T08:34:44Z</time>
      </trkpt>
      <trkpt lat="45.94015" lon="4.80648">
        <ele>223</ele>
        <time>2017-06-03T08:34:45Z</time>
      </trkpt>
      <trkpt lat="45.94019" lon="4.80658">
        <ele>222</ele>
        <time>2017-06-03T08:34:48Z</time>
      </trkpt>
      <trkpt lat="45.9402" lon="4.80663">
        <ele>222</ele>
        <time>2017-06-03T08:34:49Z</time>
      </trkpt>
      <trkpt lat="45.94021" lon="4.80675">
        <ele>223</ele>
        <time>2017-06-03T08:34:53Z</time>
      </trkpt>
      <trkpt lat="45.94021" lon="4.80678">
        <ele>223</ele>
        <time>2017-06-03T08:34:54Z</time>
      </trkpt>
      <trkpt lat="45.94023" lon="4.80688">
        <ele>224</ele>
        <time>2017-06-03T08:34:57Z</time>
      </trkpt>
      <trkpt lat="45.94023" lon="4.80691">
        <ele>224</ele>
        <time>2017-06-03T08:34:58Z</time>
      </trkpt>
      <trkpt lat="45.94024" lon="4.80703">
        <ele>225</ele>
        <time>2017-06-03T08:35:01Z</time>
      </trkpt>
      <trkpt lat="45.94024" lon="4.80706">
        <ele>225</ele>
        <time>2017-06-03T08:35:02Z</time>
      </trkpt>
      <trkpt lat="45.94025" lon="4.80719">
        <ele>225</ele>
        <time>2017-06-03T08:35:06Z</time>
      </trkpt>
      <trkpt lat="45.94026" lon="4.80721">
        <ele>225</ele>
        <time>2017-06-03T08:35:07Z</time>
      </trkpt>
      <trkpt lat="45.94027" lon="4.80734">
        <ele>225</ele>
        <time>2017-06-03T08:35:12Z</time>
      </trkpt>
      <trkpt lat="45.94028" lon="4.80737">
        <ele>225</ele>
        <time>2017-06-03T08:35:13Z</time>
      </trkpt>
      <trkpt lat="45.94029" lon="4.80747">
        <ele>225</ele>
        <time>2017-06-03T08:35:16Z</time>
      </trkpt>
      <trkpt lat="45.94029" lon="4.80751">
        <ele>225</ele>
        <time>2017-06-03T08:35:17Z</time>
      </trkpt>
      <trkpt lat="45.94028" lon="4.8076">
        <ele>226</ele>
        <time>2017-06-03T08:35:19Z</time>
      </trkpt>
      <trkpt lat="45.94029" lon="4.80765">
        <ele>226</ele>
        <time>2017-06-03T08:35:20Z</time>
      </trkpt>
      <trkpt lat="45.9403" lon="4.80774">
        <ele>226</ele>
        <time>2017-06-03T08:35:22Z</time>
      </trkpt>
      <trkpt lat="45.9403" lon="4.80778">
        <ele>226</ele>
        <time>2017-06-03T08:35:23Z</time>
      </trkpt>
      <trkpt lat="45.94032" lon="4.80789">
        <ele>227</ele>
        <time>2017-06-03T08:35:26Z</time>
      </trkpt>
      <trkpt lat="45.94032" lon="4.80792">
        <ele>227</ele>
        <time>2017-06-03T08:35:27Z</time>
      </trkpt>
      <trkpt lat="45.94035" lon="4.80803">
        <ele>227</ele>
        <time>2017-06-03T08:35:30Z</time>
      </trkpt>
      <trkpt lat="45.94036" lon="4.80807">
        <ele>227</ele>
        <time>2017-06-03T08:35:31Z</time>
      </trkpt>
      <trkpt lat="45.94038" lon="4.80817">
        <ele>227</ele>
        <time>2017-06-03T08:35:34Z</time>
      </trkpt>
      <trkpt lat="45.94039" lon="4.8082">
        <ele>228</ele>
        <time>2017-06-03T08:35:35Z</time>
      </trkpt>
      <trkpt lat="45.94041" lon="4.80832">
        <ele>228</ele>
        <time>2017-06-03T08:35:39Z</time>
      </trkpt>
      <trkpt lat="45.94042" lon="4.80835">
        <ele>229</ele>
        <time>2017-06-03T08:35:40Z</time>
      </trkpt>
      <trkpt lat="45.94044" lon="4.80846">
        <ele>229</ele>
        <time>2017-06-03T08:35:44Z</time>
      </trkpt>
      <trkpt lat="45.94044" lon="4.80849">
        <ele>229</ele>
        <time>2017-06-03T08:35:45Z</time>
      </trkpt>
      <trkpt lat="45.94046" lon="4.80861">
        <ele>229</ele>
        <time>2017-06-03T08:35:49Z</time>
      </trkpt>
      <trkpt lat="45.94046" lon="4.80864">
        <ele>229</ele>
        <time>2017-06-03T08:35:50Z</time>
      </trkpt>
      <trkpt lat="45.94048" lon="4.80876">
        <ele>229</ele>
        <time>2017-06-03T08:35:54Z</time>
      </trkpt>
      <trkpt lat="45.94049" lon="4.80879">
        <ele>229</ele>
        <time>2017-06-03T08:35:55Z</time>
      </trkpt>
      <trkpt lat="45.94051" lon="4.8089">
        <ele>230</ele>
        <time>2017-06-03T08:35:59Z</time>
      </trkpt>
      <trkpt lat="45.94052" lon="4.80893">
        <ele>230</ele>
        <time>2017-06-03T08:36:00Z</time>
      </trkpt>
      <trkpt lat="45.94052" lon="4.80903">
        <ele>230</ele>
        <time>2017-06-03T08:36:03Z</time>
      </trkpt>
      <trkpt lat="45.94053" lon="4.80907">
        <ele>230</ele>
        <time>2017-06-03T08:36:04Z</time>
      </trkpt>
      <trkpt lat="45.94054" lon="4.80919">
        <ele>231</ele>
        <time>2017-06-03T08:36:08Z</time>
      </trkpt>
      <trkpt lat="45.94054" lon="4.80922">
        <ele>231</ele>
        <time>2017-06-03T08:36:09Z</time>
      </trkpt>
      <trkpt lat="45.94056" lon="4.80934">
        <ele>231</ele>
        <time>2017-06-03T08:36:13Z</time>
      </trkpt>
      <trkpt lat="45.94057" lon="4.80937">
        <ele>231</ele>
        <time>2017-06-03T08:36:14Z</time>
      </trkpt>
      <trkpt lat="45.94058" lon="4.80948">
        <ele>231</ele>
        <time>2017-06-03T08:36:18Z</time>
      </trkpt>
      <trkpt lat="45.94058" lon="4.80951">
        <ele>231</ele>
        <time>2017-06-03T08:36:19Z</time>
      </trkpt>
      <trkpt lat="45.94059" lon="4.80963">
        <ele>232</ele>
        <time>2017-06-03T08:36:23Z</time>
      </trkpt>
      <trkpt lat="45.9406" lon="4.80966">
        <ele>232</ele>
        <time>2017-06-03T08:36:24Z</time>
      </trkpt>
      <trkpt lat="45.94062" lon="4.80979">
        <ele>233</ele>
        <time>2017-06-03T08:36:28Z</time>
      </trkpt>
      <trkpt lat="45.94062" lon="4.80981">
        <ele>233</ele>
        <time>2017-06-03T08:36:29Z</time>
      </trkpt>
      <trkpt lat="45.94065" lon="4.80992">
        <ele>234</ele>
        <time>2017-06-03T08:36:33Z</time>
      </trkpt>
      <trkpt lat="45.94065" lon="4.80995">
        <ele>234</ele>
        <time>2017-06-03T08:36:34Z</time>
      </trkpt>
      <trkpt lat="45.94067" lon="4.81005">
        <ele>235</ele>
        <time>2017-06-03T08:36:38Z</time>
      </trkpt>
      <trkpt lat="45.94068" lon="4.81008">
        <ele>235</ele>
        <time>2017-06-03T08:36:39Z</time>
      </trkpt>
      <trkpt lat="45.94069" lon="4.81019">
        <ele>234</ele>
        <time>2017-06-03T08:36:43Z</time>
      </trkpt>
      <trkpt lat="45.9407" lon="4.81022">
        <ele>234</ele>
        <time>2017-06-03T08:36:44Z</time>
      </trkpt>
      <trkpt lat="45.94073" lon="4.81034">
        <ele>233</ele>
        <time>2017-06-03T08:36:48Z</time>
      </trkpt>
      <trkpt lat="45.94074" lon="4.81036">
        <ele>233</ele>
        <time>2017-06-03T08:36:49Z</time>
      </trkpt>
      <trkpt lat="45.94078" lon="4.81045">
        <ele>233</ele>
        <time>2017-06-03T08:36:52Z</time>
      </trkpt>
      <trkpt lat="45.94079" lon="4.81048">
        <ele>233</ele>
        <time>2017-06-03T08:36:53Z</time>
      </trkpt>
      <trkpt lat="45.94082" lon="4.8106">
        <ele>234</ele>
        <time>2017-06-03T08:36:57Z</time>
      </trkpt>
      <trkpt lat="45.94083" lon="4.81063">
        <ele>234</ele>
        <time>2017-06-03T08:36:58Z</time>
      </trkpt>
      <trkpt lat="45.94088" lon="4.81073">
        <ele>240</ele>
        <time>2017-06-03T08:37:03Z</time>
      </trkpt>
      <trkpt lat="45.94089" lon="4.81075">
        <ele>240</ele>
        <time>2017-06-03T08:37:04Z</time>
      </trkpt>
      <trkpt lat="45.94093" lon="4.81084">
        <ele>239</ele>
        <time>2017-06-03T08:37:08Z</time>
      </trkpt>
      <trkpt lat="45.94094" lon="4.81087">
        <ele>239</ele>
        <time>2017-06-03T08:37:09Z</time>
      </trkpt>
      <trkpt lat="45.94098" lon="4.81095">
        <ele>240</ele>
        <time>2017-06-03T08:37:13Z</time>
      </trkpt>
      <trkpt lat="45.94099" lon="4.81097">
        <ele>241</ele>
        <time>2017-06-03T08:37:14Z</time>
      </trkpt>
      <trkpt lat="45.94105" lon="4.81105">
        <ele>242</ele>
        <time>2017-06-03T08:37:18Z</time>
      </trkpt>
      <trkpt lat="45.94106" lon="4.81107">
        <ele>242</ele>
        <time>2017-06-03T08:37:19Z</time>
      </trkpt>
      <trkpt lat="45.9411" lon="4.81116">
        <ele>242</ele>
        <time>2017-06-03T08:37:23Z</time>
      </trkpt>
      <trkpt lat="45.94111" lon="4.81119">
        <ele>242</ele>
        <time>2017-06-03T08:37:24Z</time>
      </trkpt>
      <trkpt lat="45.94116" lon="4.81129">
        <ele>242</ele>
        <time>2017-06-03T08:37:29Z</time>
      </trkpt>
      <trkpt lat="45.94117" lon="4.81132">
        <ele>242</ele>
        <time>2017-06-03T08:37:30Z</time>
      </trkpt>
      <trkpt lat="45.94121" lon="4.8114">
        <ele>243</ele>
        <time>2017-06-03T08:37:34Z</time>
      </trkpt>
      <trkpt lat="45.94122" lon="4.81142">
        <ele>243</ele>
        <time>2017-06-03T08:37:35Z</time>
      </trkpt>
      <trkpt lat="45.94126" lon="4.81153">
        <ele>243</ele>
        <time>2017-06-03T08:37:39Z</time>
      </trkpt>
      <trkpt lat="45.94127" lon="4.81155">
        <ele>243</ele>
        <time>2017-06-03T08:37:40Z</time>
      </trkpt>
      <trkpt lat="45.94131" lon="4.81165">
        <ele>243</ele>
        <time>2017-06-03T08:37:44Z</time>
      </trkpt>
      <trkpt lat="45.94132" lon="4.81168">
        <ele>243</ele>
        <time>2017-06-03T08:37:45Z</time>
      </trkpt>
      <trkpt lat="45.94138" lon="4.81178">
        <ele>244</ele>
        <time>2017-06-03T08:37:49Z</time>
      </trkpt>
      <trkpt lat="45.94139" lon="4.81181">
        <ele>244</ele>
        <time>2017-06-03T08:37:50Z</time>
      </trkpt>
      <trkpt lat="45.94143" lon="4.81189">
        <ele>244</ele>
        <time>2017-06-03T08:37:54Z</time>
      </trkpt>
      <trkpt lat="45.94143" lon="4.81192">
        <ele>244</ele>
        <time>2017-06-03T08:37:55Z</time>
      </trkpt>
      <trkpt lat="45.94144" lon="4.81203">
        <ele>244</ele>
        <time>2017-06-03T08:37:59Z</time>
      </trkpt>
      <trkpt lat="45.94146" lon="4.81206">
        <ele>244</ele>
        <time>2017-06-03T08:38:00Z</time>
      </trkpt>
      <trkpt lat="45.94147" lon="4.81217">
        <ele>244</ele>
        <time>2017-06-03T08:38:04Z</time>
      </trkpt>
      <trkpt lat="45.94147" lon="4.8122">
        <ele>244</ele>
        <time>2017-06-03T08:38:05Z</time>
      </trkpt>
      <trkpt lat="45.94149" lon="4.81231">
        <ele>245</ele>
        <time>2017-06-03T08:38:09Z</time>
      </trkpt>
      <trkpt lat="45.9415" lon="4.81233">
        <ele>245</ele>
        <time>2017-06-03T08:38:10Z</time>
      </trkpt>
      <trkpt lat="45.94151" lon="4.81244">
        <ele>246</ele>
        <time>2017-06-03T08:38:15Z</time>
      </trkpt>
      <trkpt lat="45.94151" lon="4.81247">
        <ele>246</ele>
        <time>2017-06-03T08:38:16Z</time>
      </trkpt>
      <trkpt lat="45.94153" lon="4.81257">
        <ele>248</ele>
        <time>2017-06-03T08:38:20Z</time>
      </trkpt>
      <trkpt lat="45.94153" lon="4.81261">
        <ele>247</ele>
        <time>2017-06-03T08:38:21Z</time>
      </trkpt>
      <trkpt lat="45.94155" lon="4.81272">
        <ele>247</ele>
        <time>2017-06-03T08:38:24Z</time>
      </trkpt>
      <trkpt lat="45.94156" lon="4.81277">
        <ele>247</ele>
        <time>2017-06-03T08:38:25Z</time>
      </trkpt>
      <trkpt lat="45.94158" lon="4.81288">
        <ele>247</ele>
        <time>2017-06-03T08:38:28Z</time>
      </trkpt>
      <trkpt lat="45.94157" lon="4.81291">
        <ele>247</ele>
        <time>2017-06-03T08:38:29Z</time>
      </trkpt>
      <trkpt lat="45.94158" lon="4.81302">
        <ele>247</ele>
        <time>2017-06-03T08:38:33Z</time>
      </trkpt>
      <trkpt lat="45.94158" lon="4.81304">
        <ele>247</ele>
        <time>2017-06-03T08:38:34Z</time>
      </trkpt>
      <trkpt lat="45.94158" lon="4.81316">
        <ele>248</ele>
        <time>2017-06-03T08:38:39Z</time>
      </trkpt>
      <trkpt lat="45.94158" lon="4.81318">
        <ele>249</ele>
        <time>2017-06-03T08:38:40Z</time>
      </trkpt>
      <trkpt lat="45.94157" lon="4.81329">
        <ele>250</ele>
        <time>2017-06-03T08:38:45Z</time>
      </trkpt>
      <trkpt lat="45.94157" lon="4.81331">
        <ele>250</ele>
        <time>2017-06-03T08:38:46Z</time>
      </trkpt>
      <trkpt lat="45.94157" lon="4.81342">
        <ele>251</ele>
        <time>2017-06-03T08:38:50Z</time>
      </trkpt>
      <trkpt lat="45.94157" lon="4.81344">
        <ele>251</ele>
        <time>2017-06-03T08:38:51Z</time>
      </trkpt>
      <trkpt lat="45.94156" lon="4.81356">
        <ele>250</ele>
        <time>2017-06-03T08:38:55Z</time>
      </trkpt>
      <trkpt lat="45.94156" lon="4.81359">
        <ele>250</ele>
        <time>2017-06-03T08:38:56Z</time>
      </trkpt>
      <trkpt lat="45.94157" lon="4.81369">
        <ele>250</ele>
        <time>2017-06-03T08:39:00Z</time>
      </trkpt>
      <trkpt lat="45.94156" lon="4.81372">
        <ele>250</ele>
        <time>2017-06-03T08:39:01Z</time>
      </trkpt>
      <trkpt lat="45.94155" lon="4.81384">
        <ele>251</ele>
        <time>2017-06-03T08:39:06Z</time>
      </trkpt>
      <trkpt lat="45.94155" lon="4.81386">
        <ele>251</ele>
        <time>2017-06-03T08:39:07Z</time>
      </trkpt>
      <trkpt lat="45.94155" lon="4.81395">
        <ele>252</ele>
        <time>2017-06-03T08:39:10Z</time>
      </trkpt>
      <trkpt lat="45.94155" lon="4.814">
        <ele>252</ele>
        <time>2017-06-03T08:39:11Z</time>
      </trkpt>
      <trkpt lat="45.94155" lon="4.81411">
        <ele>253</ele>
        <time>2017-06-03T08:39:14Z</time>
      </trkpt>
      <trkpt lat="45.94155" lon="4.81414">
        <ele>253</ele>
        <time>2017-06-03T08:39:15Z</time>
      </trkpt>
      <trkpt lat="45.94153" lon="4.81425">
        <ele>256</ele>
        <time>2017-06-03T08:39:19Z</time>
      </trkpt>
      <trkpt lat="45.94153" lon="4.81427">
        <ele>256</ele>
        <time>2017-06-03T08:39:20Z</time>
      </trkpt>
      <trkpt lat="45.94152" lon="4.81438">
        <ele>256</ele>
        <time>2017-06-03T08:39:25Z</time>
      </trkpt>
      <trkpt lat="45.94152" lon="4.81441">
        <ele>256</ele>
        <time>2017-06-03T08:39:26Z</time>
      </trkpt>
      <trkpt lat="45.94148" lon="4.81449">
        <ele>256</ele>
        <time>2017-06-03T08:39:30Z</time>
      </trkpt>
      <trkpt lat="45.94147" lon="4.81452">
        <ele>256</ele>
        <time>2017-06-03T08:39:31Z</time>
      </trkpt>
      <trkpt lat="45.94144" lon="4.81463">
        <ele>257</ele>
        <time>2017-06-03T08:39:35Z</time>
      </trkpt>
      <trkpt lat="45.94143" lon="4.81465">
        <ele>257</ele>
        <time>2017-06-03T08:39:36Z</time>
      </trkpt>
      <trkpt lat="45.94142" lon="4.81477">
        <ele>258</ele>
        <time>2017-06-03T08:39:41Z</time>
      </trkpt>
      <trkpt lat="45.94141" lon="4.8148">
        <ele>258</ele>
        <time>2017-06-03T08:39:42Z</time>
      </trkpt>
      <trkpt lat="45.94141" lon="4.81491">
        <ele>259</ele>
        <time>2017-06-03T08:39:46Z</time>
      </trkpt>
      <trkpt lat="45.9414" lon="4.81493">
        <ele>259</ele>
        <time>2017-06-03T08:39:47Z</time>
      </trkpt>
      <trkpt lat="45.94139" lon="4.81505">
        <ele>263</ele>
        <time>2017-06-03T08:39:51Z</time>
      </trkpt>
      <trkpt lat="45.94139" lon="4.81509">
        <ele>263</ele>
        <time>2017-06-03T08:39:52Z</time>
      </trkpt>
      <trkpt lat="45.9414" lon="4.8152">
        <ele>263</ele>
        <time>2017-06-03T08:39:56Z</time>
      </trkpt>
      <trkpt lat="45.94139" lon="4.81526">
        <ele>263</ele>
        <time>2017-06-03T08:39:57Z</time>
      </trkpt>
      <trkpt lat="45.94139" lon="4.81534">
        <ele>263</ele>
        <time>2017-06-03T08:39:59Z</time>
      </trkpt>
      <trkpt lat="45.94139" lon="4.8154">
        <ele>264</ele>
        <time>2017-06-03T08:40:00Z</time>
      </trkpt>
      <trkpt lat="45.94141" lon="4.81552">
        <ele>264</ele>
        <time>2017-06-03T08:40:03Z</time>
      </trkpt>
      <trkpt lat="45.94142" lon="4.81555">
        <ele>264</ele>
        <time>2017-06-03T08:40:04Z</time>
      </trkpt>
      <trkpt lat="45.94143" lon="4.81565">
        <ele>265</ele>
        <time>2017-06-03T08:40:07Z</time>
      </trkpt>
      <trkpt lat="45.94143" lon="4.81568">
        <ele>265</ele>
        <time>2017-06-03T08:40:08Z</time>
      </trkpt>
      <trkpt lat="45.94144" lon="4.81581">
        <ele>265</ele>
        <time>2017-06-03T08:40:13Z</time>
      </trkpt>
      <trkpt lat="45.94144" lon="4.81584">
        <ele>267</ele>
        <time>2017-06-03T08:40:14Z</time>
      </trkpt>
      <trkpt lat="45.94148" lon="4.81595">
        <ele>267</ele>
        <time>2017-06-03T08:40:18Z</time>
      </trkpt>
      <trkpt lat="45.94149" lon="4.81598">
        <ele>267</ele>
        <time>2017-06-03T08:40:19Z</time>
      </trkpt>
      <trkpt lat="45.9415" lon="4.81608">
        <ele>267</ele>
        <time>2017-06-03T08:40:22Z</time>
      </trkpt>
      <trkpt lat="45.9415" lon="4.81611">
        <ele>267</ele>
        <time>2017-06-03T08:40:23Z</time>
      </trkpt>
      <trkpt lat="45.94152" lon="4.8162">
        <ele>268</ele>
        <time>2017-06-03T08:40:26Z</time>
      </trkpt>
      <trkpt lat="45.94155" lon="4.81627">
        <ele>268</ele>
        <time>2017-06-03T08:40:27Z</time>
      </trkpt>
      <trkpt lat="45.94158" lon="4.81629">
        <ele>268</ele>
        <time>2017-06-03T08:40:29Z</time>
      </trkpt>
      <trkpt lat="45.94163" lon="4.81635">
        <ele>268</ele>
        <time>2017-06-03T08:40:30Z</time>
      </trkpt>
      <trkpt lat="45.94167" lon="4.81645">
        <ele>268</ele>
        <time>2017-06-03T08:40:32Z</time>
      </trkpt>
      <trkpt lat="45.94169" lon="4.8165">
        <ele>268</ele>
        <time>2017-06-03T08:40:33Z</time>
      </trkpt>
      <trkpt lat="45.94171" lon="4.81662">
        <ele>269</ele>
        <time>2017-06-03T08:40:36Z</time>
      </trkpt>
      <trkpt lat="45.94171" lon="4.81665">
        <ele>269</ele>
        <time>2017-06-03T08:40:37Z</time>
      </trkpt>
      <trkpt lat="45.94172" lon="4.81676">
        <ele>268</ele>
        <time>2017-06-03T08:40:40Z</time>
      </trkpt>
      <trkpt lat="45.94173" lon="4.81679">
        <ele>268</ele>
        <time>2017-06-03T08:40:41Z</time>
      </trkpt>
      <trkpt lat="45.94174" lon="4.81689">
        <ele>267</ele>
        <time>2017-06-03T08:40:45Z</time>
      </trkpt>
      <trkpt lat="45.94174" lon="4.81692">
        <ele>267</ele>
        <time>2017-06-03T08:40:46Z</time>
      </trkpt>
      <trkpt lat="45.94175" lon="4.81704">
        <ele>267</ele>
        <time>2017-06-03T08:40:49Z</time>
      </trkpt>
      <trkpt lat="45.94176" lon="4.8171">
        <ele>267</ele>
        <time>2017-06-03T08:40:50Z</time>
      </trkpt>
      <trkpt lat="45.94177" lon="4.81719">
        <ele>267</ele>
        <time>2017-06-03T08:40:52Z</time>
      </trkpt>
      <trkpt lat="45.94177" lon="4.81724">
        <ele>267</ele>
        <time>2017-06-03T08:40:53Z</time>
      </trkpt>
      <trkpt lat="45.94179" lon="4.81732">
        <ele>267</ele>
        <time>2017-06-03T08:40:55Z</time>
      </trkpt>
      <trkpt lat="45.94181" lon="4.81737">
        <ele>267</ele>
        <time>2017-06-03T08:40:56Z</time>
      </trkpt>
      <trkpt lat="45.94184" lon="4.81744">
        <ele>267</ele>
        <time>2017-06-03T08:40:58Z</time>
      </trkpt>
      <trkpt lat="45.94186" lon="4.8175">
        <ele>267</ele>
        <time>2017-06-03T08:40:59Z</time>
      </trkpt>
      <trkpt lat="45.94188" lon="4.81758">
        <ele>266</ele>
        <time>2017-06-03T08:41:01Z</time>
      </trkpt>
      <trkpt lat="45.94189" lon="4.81762">
        <ele>266</ele>
        <time>2017-06-03T08:41:02Z</time>
      </trkpt>
      <trkpt lat="45.94191" lon="4.8177">
        <ele>266</ele>
        <time>2017-06-03T08:41:04Z</time>
      </trkpt>
      <trkpt lat="45.94191" lon="4.81775">
        <ele>266</ele>
        <time>2017-06-03T08:41:05Z</time>
      </trkpt>
      <trkpt lat="45.94191" lon="4.81788">
        <ele>266</ele>
        <time>2017-06-03T08:41:08Z</time>
      </trkpt>
      <trkpt lat="45.94191" lon="4.81791">
        <ele>266</ele>
        <time>2017-06-03T08:41:09Z</time>
      </trkpt>
      <trkpt lat="45.94191" lon="4.81804">
        <ele>266</ele>
        <time>2017-06-03T08:41:13Z</time>
      </trkpt>
      <trkpt lat="45.94192" lon="4.81807">
        <ele>266</ele>
        <time>2017-06-03T08:41:14Z</time>
      </trkpt>
      <trkpt lat="45.94194" lon="4.81817">
        <ele>266</ele>
        <time>2017-06-03T08:41:17Z</time>
      </trkpt>
      <trkpt lat="45.94194" lon="4.81821">
        <ele>266</ele>
        <time>2017-06-03T08:41:18Z</time>
      </trkpt>
      <trkpt lat="45.94195" lon="4.81831">
        <ele>266</ele>
        <time>2017-06-03T08:41:21Z</time>
      </trkpt>
      <trkpt lat="45.94195" lon="4.81835">
        <ele>266</ele>
        <time>2017-06-03T08:41:22Z</time>
      </trkpt>
      <trkpt lat="45.94198" lon="4.81845">
        <ele>266</ele>
        <time>2017-06-03T08:41:24Z</time>
      </trkpt>
      <trkpt lat="45.94198" lon="4.81849">
        <ele>266</ele>
        <time>2017-06-03T08:41:25Z</time>
      </trkpt>
      <trkpt lat="45.942" lon="4.81858">
        <ele>266</ele>
        <time>2017-06-03T08:41:27Z</time>
      </trkpt>
      <trkpt lat="45.94202" lon="4.81863">
        <ele>266</ele>
        <time>2017-06-03T08:41:28Z</time>
      </trkpt>
      <trkpt lat="45.94204" lon="4.81873">
        <ele>265</ele>
        <time>2017-06-03T08:41:30Z</time>
      </trkpt>
      <trkpt lat="45.94205" lon="4.81879">
        <ele>265</ele>
        <time>2017-06-03T08:41:31Z</time>
      </trkpt>
      <trkpt lat="45.94208" lon="4.81891">
        <ele>265</ele>
        <time>2017-06-03T08:41:33Z</time>
      </trkpt>
      <trkpt lat="45.94209" lon="4.81896">
        <ele>265</ele>
        <time>2017-06-03T08:41:34Z</time>
      </trkpt>
      <trkpt lat="45.94212" lon="4.81908">
        <ele>265</ele>
        <time>2017-06-03T08:41:36Z</time>
      </trkpt>
      <trkpt lat="45.94214" lon="4.81913">
        <ele>265</ele>
        <time>2017-06-03T08:41:37Z</time>
      </trkpt>
      <trkpt lat="45.94216" lon="4.81924">
        <ele>264</ele>
        <time>2017-06-03T08:41:39Z</time>
      </trkpt>
      <trkpt lat="45.94217" lon="4.81929">
        <ele>264</ele>
        <time>2017-06-03T08:41:40Z</time>
      </trkpt>
      <trkpt lat="45.94219" lon="4.8194">
        <ele>264</ele>
        <time>2017-06-03T08:41:42Z</time>
      </trkpt>
      <trkpt lat="45.9422" lon="4.81946">
        <ele>264</ele>
        <time>2017-06-03T08:41:43Z</time>
      </trkpt>
      <trkpt lat="45.94223" lon="4.81958">
        <ele>264</ele>
        <time>2017-06-03T08:41:45Z</time>
      </trkpt>
      <trkpt lat="45.94224" lon="4.81963">
        <ele>264</ele>
        <time>2017-06-03T08:41:46Z</time>
      </trkpt>
      <trkpt lat="45.94227" lon="4.81975">
        <ele>264</ele>
        <time>2017-06-03T08:41:48Z</time>
      </trkpt>
      <trkpt lat="45.94228" lon="4.8198">
        <ele>264</ele>
        <time>2017-06-03T08:41:49Z</time>
      </trkpt>
      <trkpt lat="45.94229" lon="4.81991">
        <ele>263</ele>
        <time>2017-06-03T08:41:51Z</time>
      </trkpt>
      <trkpt lat="45.9423" lon="4.81996">
        <ele>263</ele>
        <time>2017-06-03T08:41:52Z</time>
      </trkpt>
      <trkpt lat="45.94232" lon="4.82007">
        <ele>263</ele>
        <time>2017-06-03T08:41:54Z</time>
      </trkpt>
      <trkpt lat="45.94233" lon="4.82012">
        <ele>263</ele>
        <time>2017-06-03T08:41:55Z</time>
      </trkpt>
      <trkpt lat="45.94236" lon="4.82024">
        <ele>263</ele>
        <time>2017-06-03T08:41:57Z</time>
      </trkpt>
      <trkpt lat="45.94237" lon="4.8203">
        <ele>263</ele>
        <time>2017-06-03T08:41:58Z</time>
      </trkpt>
      <trkpt lat="45.94239" lon="4.82041">
        <ele>263</ele>
        <time>2017-06-03T08:42:00Z</time>
      </trkpt>
      <trkpt lat="45.9424" lon="4.82046">
        <ele>263</ele>
        <time>2017-06-03T08:42:01Z</time>
      </trkpt>
      <trkpt lat="45.94243" lon="4.82057">
        <ele>263</ele>
        <time>2017-06-03T08:42:03Z</time>
      </trkpt>
      <trkpt lat="45.94243" lon="4.82062">
        <ele>263</ele>
        <time>2017-06-03T08:42:04Z</time>
      </trkpt>
      <trkpt lat="45.94245" lon="4.82075">
        <ele>263</ele>
        <time>2017-06-03T08:42:06Z</time>
      </trkpt>
      <trkpt lat="45.94246" lon="4.82081">
        <ele>262</ele>
        <time>2017-06-03T08:42:07Z</time>
      </trkpt>
      <trkpt lat="45.94248" lon="4.82093">
        <ele>263</ele>
        <time>2017-06-03T08:42:09Z</time>
      </trkpt>
      <trkpt lat="45.94249" lon="4.82099">
        <ele>263</ele>
        <time>2017-06-03T08:42:10Z</time>
      </trkpt>
      <trkpt lat="45.94251" lon="4.8211">
        <ele>263</ele>
        <time>2017-06-03T08:42:12Z</time>
      </trkpt>
      <trkpt lat="45.94252" lon="4.82116">
        <ele>263</ele>
        <time>2017-06-03T08:42:13Z</time>
      </trkpt>
      <trkpt lat="45.94254" lon="4.82126">
        <ele>263</ele>
        <time>2017-06-03T08:42:15Z</time>
      </trkpt>
      <trkpt lat="45.94255" lon="4.82131">
        <ele>263</ele>
        <time>2017-06-03T08:42:16Z</time>
      </trkpt>
      <trkpt lat="45.94258" lon="4.82143">
        <ele>263</ele>
        <time>2017-06-03T08:42:18Z</time>
      </trkpt>
      <trkpt lat="45.94259" lon="4.82148">
        <ele>263</ele>
        <time>2017-06-03T08:42:19Z</time>
      </trkpt>
      <trkpt lat="45.94261" lon="4.82159">
        <ele>263</ele>
        <time>2017-06-03T08:42:21Z</time>
      </trkpt>
      <trkpt lat="45.94262" lon="4.82164">
        <ele>263</ele>
        <time>2017-06-03T08:42:22Z</time>
      </trkpt>
      <trkpt lat="45.94265" lon="4.82174">
        <ele>263</ele>
        <time>2017-06-03T08:42:24Z</time>
      </trkpt>
      <trkpt lat="45.94266" lon="4.8218">
        <ele>264</ele>
        <time>2017-06-03T08:42:25Z</time>
      </trkpt>
      <trkpt lat="45.94268" lon="4.82191">
        <ele>264</ele>
        <time>2017-06-03T08:42:27Z</time>
      </trkpt>
      <trkpt lat="45.94269" lon="4.82197">
        <ele>264</ele>
        <time>2017-06-03T08:42:28Z</time>
      </trkpt>
      <trkpt lat="45.94271" lon="4.82209">
        <ele>264</ele>
        <time>2017-06-03T08:42:30Z</time>
      </trkpt>
      <trkpt lat="45.94271" lon="4.82214">
        <ele>264</ele>
        <time>2017-06-03T08:42:31Z</time>
      </trkpt>
      <trkpt lat="45.94272" lon="4.8222">
        <ele>264</ele>
        <time>2017-06-03T08:42:32Z</time>
      </trkpt>
      <trkpt lat="45.94274" lon="4.82227">
        <ele>264</ele>
        <time>2017-06-03T08:42:33Z</time>
      </trkpt>
      <trkpt lat="45.94275" lon="4.82234">
        <ele>264</ele>
        <time>2017-06-03T08:42:34Z</time>
      </trkpt>
      <trkpt lat="45.94275" lon="4.82241">
        <ele>264</ele>
        <time>2017-06-03T08:42:35Z</time>
      </trkpt>
      <trkpt lat="45.94276" lon="4.82248">
        <ele>264</ele>
        <time>2017-06-03T08:42:36Z</time>
      </trkpt>
      <trkpt lat="45.94276" lon="4.82256">
        <ele>265</ele>
        <time>2017-06-03T08:42:37Z</time>
      </trkpt>
      <trkpt lat="45.94276" lon="4.82263">
        <ele>265</ele>
        <time>2017-06-03T08:42:38Z</time>
      </trkpt>
      <trkpt lat="45.94277" lon="4.82271">
        <ele>265</ele>
        <time>2017-06-03T08:42:39Z</time>
      </trkpt>
      <trkpt lat="45.94277" lon="4.82278">
        <ele>265</ele>
        <time>2017-06-03T08:42:40Z</time>
      </trkpt>
      <trkpt lat="45.94278" lon="4.82285">
        <ele>265</ele>
        <time>2017-06-03T08:42:41Z</time>
      </trkpt>
      <trkpt lat="45.94278" lon="4.82292">
        <ele>265</ele>
        <time>2017-06-03T08:42:42Z</time>
      </trkpt>
      <trkpt lat="45.94279" lon="4.82298">
        <ele>265</ele>
        <time>2017-06-03T08:42:43Z</time>
      </trkpt>
      <trkpt lat="45.94279" lon="4.8231">
        <ele>265</ele>
        <time>2017-06-03T08:42:45Z</time>
      </trkpt>
      <trkpt lat="45.9428" lon="4.82316">
        <ele>265</ele>
        <time>2017-06-03T08:42:46Z</time>
      </trkpt>
      <trkpt lat="45.94281" lon="4.82327">
        <ele>265</ele>
        <time>2017-06-03T08:42:48Z</time>
      </trkpt>
      <trkpt lat="45.94281" lon="4.82333">
        <ele>265</ele>
        <time>2017-06-03T08:42:49Z</time>
      </trkpt>
      <trkpt lat="45.94282" lon="4.82346">
        <ele>264</ele>
        <time>2017-06-03T08:42:51Z</time>
      </trkpt>
      <trkpt lat="45.94283" lon="4.82352">
        <ele>264</ele>
        <time>2017-06-03T08:42:52Z</time>
      </trkpt>
      <trkpt lat="45.94283" lon="4.82359">
        <ele>264</ele>
        <time>2017-06-03T08:42:53Z</time>
      </trkpt>
      <trkpt lat="45.94283" lon="4.82365">
        <ele>264</ele>
        <time>2017-06-03T08:42:54Z</time>
      </trkpt>
      <trkpt lat="45.94284" lon="4.82377">
        <ele>264</ele>
        <time>2017-06-03T08:42:56Z</time>
      </trkpt>
      <trkpt lat="45.94284" lon="4.82382">
        <ele>264</ele>
        <time>2017-06-03T08:42:57Z</time>
      </trkpt>
      <trkpt lat="45.94285" lon="4.82393">
        <ele>264</ele>
        <time>2017-06-03T08:42:59Z</time>
      </trkpt>
      <trkpt lat="45.94285" lon="4.82398">
        <ele>264</ele>
        <time>2017-06-03T08:43:00Z</time>
      </trkpt>
      <trkpt lat="45.94286" lon="4.82409">
        <ele>264</ele>
        <time>2017-06-03T08:43:02Z</time>
      </trkpt>
      <trkpt lat="45.94286" lon="4.82415">
        <ele>264</ele>
        <time>2017-06-03T08:43:03Z</time>
      </trkpt>
      <trkpt lat="45.94286" lon="4.82426">
        <ele>264</ele>
        <time>2017-06-03T08:43:05Z</time>
      </trkpt>
      <trkpt lat="45.94286" lon="4.82432">
        <ele>264</ele>
        <time>2017-06-03T08:43:06Z</time>
      </trkpt>
      <trkpt lat="45.94286" lon="4.82443">
        <ele>264</ele>
        <time>2017-06-03T08:43:08Z</time>
      </trkpt>
      <trkpt lat="45.94287" lon="4.82449">
        <ele>264</ele>
        <time>2017-06-03T08:43:09Z</time>
      </trkpt>
      <trkpt lat="45.94288" lon="4.82459">
        <ele>264</ele>
        <time>2017-06-03T08:43:11Z</time>
      </trkpt>
      <trkpt lat="45.94288" lon="4.82464">
        <ele>264</ele>
        <time>2017-06-03T08:43:12Z</time>
      </trkpt>
      <trkpt lat="45.94288" lon="4.82474">
        <ele>264</ele>
        <time>2017-06-03T08:43:14Z</time>
      </trkpt>
      <trkpt lat="45.94288" lon="4.8248">
        <ele>264</ele>
        <time>2017-06-03T08:43:15Z</time>
      </trkpt>
      <trkpt lat="45.94289" lon="4.82492">
        <ele>264</ele>
        <time>2017-06-03T08:43:17Z</time>
      </trkpt>
      <trkpt lat="45.94289" lon="4.82499">
        <ele>264</ele>
        <time>2017-06-03T08:43:18Z</time>
      </trkpt>
      <trkpt lat="45.94289" lon="4.82512">
        <ele>264</ele>
        <time>2017-06-03T08:43:20Z</time>
      </trkpt>
      <trkpt lat="45.94289" lon="4.82519">
        <ele>264</ele>
        <time>2017-06-03T08:43:21Z</time>
      </trkpt>
      <trkpt lat="45.94289" lon="4.82526">
        <ele>264</ele>
        <time>2017-06-03T08:43:22Z</time>
      </trkpt>
      <trkpt lat="45.94289" lon="4.82534">
        <ele>264</ele>
        <time>2017-06-03T08:43:23Z</time>
      </trkpt>
      <trkpt lat="45.94289" lon="4.82541">
        <ele>264</ele>
        <time>2017-06-03T08:43:24Z</time>
      </trkpt>
      <trkpt lat="45.94289" lon="4.82548">
        <ele>264</ele>
        <time>2017-06-03T08:43:25Z</time>
      </trkpt>
      <trkpt lat="45.94289" lon="4.82555">
        <ele>264</ele>
        <time>2017-06-03T08:43:26Z</time>
      </trkpt>
      <trkpt lat="45.94289" lon="4.82561">
        <ele>264</ele>
        <time>2017-06-03T08:43:27Z</time>
      </trkpt>
      <trkpt lat="45.94289" lon="4.82574">
        <ele>265</ele>
        <time>2017-06-03T08:43:29Z</time>
      </trkpt>
      <trkpt lat="45.94288" lon="4.8258">
        <ele>265</ele>
        <time>2017-06-03T08:43:30Z</time>
      </trkpt>
      <trkpt lat="45.94288" lon="4.82586">
        <ele>265</ele>
        <time>2017-06-03T08:43:31Z</time>
      </trkpt>
      <trkpt lat="45.94288" lon="4.82593">
        <ele>265</ele>
        <time>2017-06-03T08:43:32Z</time>
      </trkpt>
      <trkpt lat="45.94288" lon="4.826">
        <ele>265</ele>
        <time>2017-06-03T08:43:33Z</time>
      </trkpt>
      <trkpt lat="45.94288" lon="4.82608">
        <ele>265</ele>
        <time>2017-06-03T08:43:34Z</time>
      </trkpt>
      <trkpt lat="45.94288" lon="4.82615">
        <ele>265</ele>
        <time>2017-06-03T08:43:35Z</time>
      </trkpt>
      <trkpt lat="45.94288" lon="4.82622">
        <ele>265</ele>
        <time>2017-06-03T08:43:36Z</time>
      </trkpt>
      <trkpt lat="45.94288" lon="4.82629">
        <ele>265</ele>
        <time>2017-06-03T08:43:37Z</time>
      </trkpt>
      <trkpt lat="45.94288" lon="4.82635">
        <ele>265</ele>
        <time>2017-06-03T08:43:38Z</time>
      </trkpt>
      <trkpt lat="45.94288" lon="4.82648">
        <ele>265</ele>
        <time>2017-06-03T08:43:40Z</time>
      </trkpt>
      <trkpt lat="45.94288" lon="4.82654">
        <ele>265</ele>
        <time>2017-06-03T08:43:41Z</time>
      </trkpt>
      <trkpt lat="45.94288" lon="4.82661">
        <ele>265</ele>
        <time>2017-06-03T08:43:42Z</time>
      </trkpt>
      <trkpt lat="45.94288" lon="4.82668">
        <ele>265</ele>
        <time>2017-06-03T08:43:43Z</time>
      </trkpt>
      <trkpt lat="45.94288" lon="4.82675">
        <ele>265</ele>
        <time>2017-06-03T08:43:44Z</time>
      </trkpt>
      <trkpt lat="45.94287" lon="4.82682">
        <ele>265</ele>
        <time>2017-06-03T08:43:45Z</time>
      </trkpt>
      <trkpt lat="45.94287" lon="4.82689">
        <ele>265</ele>
        <time>2017-06-03T08:43:46Z</time>
      </trkpt>
      <trkpt lat="45.94287" lon="4.82696">
        <ele>265</ele>
        <time>2017-06-03T08:43:47Z</time>
      </trkpt>
      <trkpt lat="45.94287" lon="4.82702">
        <ele>265</ele>
        <time>2017-06-03T08:43:48Z</time>
      </trkpt>
      <trkpt lat="45.94287" lon="4.82709">
        <ele>265</ele>
        <time>2017-06-03T08:43:49Z</time>
      </trkpt>
      <trkpt lat="45.94287" lon="4.82721">
        <ele>265</ele>
        <time>2017-06-03T08:43:51Z</time>
      </trkpt>
      <trkpt lat="45.94287" lon="4.82727">
        <ele>265</ele>
        <time>2017-06-03T08:43:52Z</time>
      </trkpt>
      <trkpt lat="45.94287" lon="4.82739">
        <ele>265</ele>
        <time>2017-06-03T08:43:54Z</time>
      </trkpt>
      <trkpt lat="45.94287" lon="4.82745">
        <ele>265</ele>
        <time>2017-06-03T08:43:55Z</time>
      </trkpt>
      <trkpt lat="45.94287" lon="4.82752">
        <ele>265</ele>
        <time>2017-06-03T08:43:56Z</time>
      </trkpt>
      <trkpt lat="45.94286" lon="4.82759">
        <ele>265</ele>
        <time>2017-06-03T08:43:57Z</time>
      </trkpt>
      <trkpt lat="45.94286" lon="4.82765">
        <ele>265</ele>
        <time>2017-06-03T08:43:58Z</time>
      </trkpt>
      <trkpt lat="45.94286" lon="4.82772">
        <ele>265</ele>
        <time>2017-06-03T08:43:59Z</time>
      </trkpt>
      <trkpt lat="45.94286" lon="4.82779">
        <ele>265</ele>
        <time>2017-06-03T08:44:00Z</time>
      </trkpt>
      <trkpt lat="45.94286" lon="4.82785">
        <ele>265</ele>
        <time>2017-06-03T08:44:01Z</time>
      </trkpt>
      <trkpt lat="45.94286" lon="4.82798">
        <ele>265</ele>
        <time>2017-06-03T08:44:03Z</time>
      </trkpt>
      <trkpt lat="45.94286" lon="4.82803">
        <ele>265</ele>
        <time>2017-06-03T08:44:04Z</time>
      </trkpt>
      <trkpt lat="45.94285" lon="4.82814">
        <ele>265</ele>
        <time>2017-06-03T08:44:06Z</time>
      </trkpt>
      <trkpt lat="45.94285" lon="4.8282">
        <ele>265</ele>
        <time>2017-06-03T08:44:07Z</time>
      </trkpt>
      <trkpt lat="45.94286" lon="4.82832">
        <ele>265</ele>
        <time>2017-06-03T08:44:09Z</time>
      </trkpt>
      <trkpt lat="45.94286" lon="4.82839">
        <ele>265</ele>
        <time>2017-06-03T08:44:10Z</time>
      </trkpt>
      <trkpt lat="45.94286" lon="4.82846">
        <ele>265</ele>
        <time>2017-06-03T08:44:11Z</time>
      </trkpt>
      <trkpt lat="45.94285" lon="4.82854">
        <ele>265</ele>
        <time>2017-06-03T08:44:12Z</time>
      </trkpt>
      <trkpt lat="45.94285" lon="4.82863">
        <ele>265</ele>
        <time>2017-06-03T08:44:13Z</time>
      </trkpt>
      <trkpt lat="45.94284" lon="4.8287">
        <ele>265</ele>
        <time>2017-06-03T08:44:14Z</time>
      </trkpt>
      <trkpt lat="45.94284" lon="4.82878">
        <ele>265</ele>
        <time>2017-06-03T08:44:15Z</time>
      </trkpt>
      <trkpt lat="45.94284" lon="4.82885">
        <ele>265</ele>
        <time>2017-06-03T08:44:16Z</time>
      </trkpt>
      <trkpt lat="45.94284" lon="4.82892">
        <ele>265</ele>
        <time>2017-06-03T08:44:17Z</time>
      </trkpt>
      <trkpt lat="45.94284" lon="4.82899">
        <ele>265</ele>
        <time>2017-06-03T08:44:18Z</time>
      </trkpt>
      <trkpt lat="45.94284" lon="4.82906">
        <ele>265</ele>
        <time>2017-06-03T08:44:19Z</time>
      </trkpt>
      <trkpt lat="45.94284" lon="4.82913">
        <ele>265</ele>
        <time>2017-06-03T08:44:20Z</time>
      </trkpt>
      <trkpt lat="45.94283" lon="4.8292">
        <ele>265</ele>
        <time>2017-06-03T08:44:21Z</time>
      </trkpt>
      <trkpt lat="45.94282" lon="4.82927">
        <ele>265</ele>
        <time>2017-06-03T08:44:22Z</time>
      </trkpt>
      <trkpt lat="45.94281" lon="4.82935">
        <ele>265</ele>
        <time>2017-06-03T08:44:23Z</time>
      </trkpt>
      <trkpt lat="45.9428" lon="4.82941">
        <ele>265</ele>
        <time>2017-06-03T08:44:24Z</time>
      </trkpt>
      <trkpt lat="45.94279" lon="4.82948">
        <ele>265</ele>
        <time>2017-06-03T08:44:25Z</time>
      </trkpt>
      <trkpt lat="45.94278" lon="4.82955">
        <ele>265</ele>
        <time>2017-06-03T08:44:26Z</time>
      </trkpt>
      <trkpt lat="45.94279" lon="4.82967">
        <ele>265</ele>
        <time>2017-06-03T08:44:28Z</time>
      </trkpt>
      <trkpt lat="45.9428" lon="4.82973">
        <ele>265</ele>
        <time>2017-06-03T08:44:29Z</time>
      </trkpt>
      <trkpt lat="45.94282" lon="4.82979">
        <ele>265</ele>
        <time>2017-06-03T08:44:30Z</time>
      </trkpt>
      <trkpt lat="45.94284" lon="4.82985">
        <ele>265</ele>
        <time>2017-06-03T08:44:31Z</time>
      </trkpt>
      <trkpt lat="45.94288" lon="4.82996">
        <ele>265</ele>
        <time>2017-06-03T08:44:33Z</time>
      </trkpt>
      <trkpt lat="45.94289" lon="4.83003">
        <ele>266</ele>
        <time>2017-06-03T08:44:34Z</time>
      </trkpt>
      <trkpt lat="45.94291" lon="4.83014">
        <ele>266</ele>
        <time>2017-06-03T08:44:36Z</time>
      </trkpt>
      <trkpt lat="45.94293" lon="4.8302">
        <ele>266</ele>
        <time>2017-06-03T08:44:37Z</time>
      </trkpt>
      <trkpt lat="45.94294" lon="4.83026">
        <ele>266</ele>
        <time>2017-06-03T08:44:38Z</time>
      </trkpt>
      <trkpt lat="45.94296" lon="4.83033">
        <ele>266</ele>
        <time>2017-06-03T08:44:39Z</time>
      </trkpt>
      <trkpt lat="45.94297" lon="4.83039">
        <ele>266</ele>
        <time>2017-06-03T08:44:40Z</time>
      </trkpt>
      <trkpt lat="45.94298" lon="4.83046">
        <ele>266</ele>
        <time>2017-06-03T08:44:41Z</time>
      </trkpt>
      <trkpt lat="45.94301" lon="4.83058">
        <ele>266</ele>
        <time>2017-06-03T08:44:43Z</time>
      </trkpt>
      <trkpt lat="45.94303" lon="4.83064">
        <ele>266</ele>
        <time>2017-06-03T08:44:44Z</time>
      </trkpt>
      <trkpt lat="45.94306" lon="4.83075">
        <ele>266</ele>
        <time>2017-06-03T08:44:46Z</time>
      </trkpt>
      <trkpt lat="45.94307" lon="4.83081">
        <ele>266</ele>
        <time>2017-06-03T08:44:47Z</time>
      </trkpt>
      <trkpt lat="45.9431" lon="4.83093">
        <ele>266</ele>
        <time>2017-06-03T08:44:49Z</time>
      </trkpt>
      <trkpt lat="45.94312" lon="4.83099">
        <ele>266</ele>
        <time>2017-06-03T08:44:50Z</time>
      </trkpt>
      <trkpt lat="45.94314" lon="4.83106">
        <ele>266</ele>
        <time>2017-06-03T08:44:51Z</time>
      </trkpt>
      <trkpt lat="45.94316" lon="4.83112">
        <ele>266</ele>
        <time>2017-06-03T08:44:52Z</time>
      </trkpt>
      <trkpt lat="45.94319" lon="4.83119">
        <ele>266</ele>
        <time>2017-06-03T08:44:53Z</time>
      </trkpt>
      <trkpt lat="45.94321" lon="4.83125">
        <ele>266</ele>
        <time>2017-06-03T08:44:54Z</time>
      </trkpt>
      <trkpt lat="45.94322" lon="4.83131">
        <ele>266</ele>
        <time>2017-06-03T08:44:55Z</time>
      </trkpt>
      <trkpt lat="45.94324" lon="4.83137">
        <ele>266</ele>
        <time>2017-06-03T08:44:56Z</time>
      </trkpt>
      <trkpt lat="45.94326" lon="4.83143">
        <ele>266</ele>
        <time>2017-06-03T08:44:57Z</time>
      </trkpt>
      <trkpt lat="45.94328" lon="4.83149">
        <ele>266</ele>
        <time>2017-06-03T08:44:58Z</time>
      </trkpt>
      <trkpt lat="45.94332" lon="4.8316">
        <ele>266</ele>
        <time>2017-06-03T08:45:00Z</time>
      </trkpt>
      <trkpt lat="45.94334" lon="4.83166">
        <ele>266</ele>
        <time>2017-06-03T08:45:01Z</time>
      </trkpt>
      <trkpt lat="45.94336" lon="4.83172">
        <ele>266</ele>
        <time>2017-06-03T08:45:02Z</time>
      </trkpt>
      <trkpt lat="45.94338" lon="4.83178">
        <ele>266</ele>
        <time>2017-06-03T08:45:03Z</time>
      </trkpt>
      <trkpt lat="45.9434" lon="4.83184">
        <ele>266</ele>
        <time>2017-06-03T08:45:04Z</time>
      </trkpt>
      <trkpt lat="45.94342" lon="4.83191">
        <ele>266</ele>
        <time>2017-06-03T08:45:05Z</time>
      </trkpt>
      <trkpt lat="45.94345" lon="4.83197">
        <ele>266</ele>
        <time>2017-06-03T08:45:06Z</time>
      </trkpt>
      <trkpt lat="45.94347" lon="4.83204">
        <ele>266</ele>
        <time>2017-06-03T08:45:07Z</time>
      </trkpt>
      <trkpt lat="45.94349" lon="4.83211">
        <ele>266</ele>
        <time>2017-06-03T08:45:08Z</time>
      </trkpt>
      <trkpt lat="45.94351" lon="4.83218">
        <ele>266</ele>
        <time>2017-06-03T08:45:09Z</time>
      </trkpt>
      <trkpt lat="45.94354" lon="4.83225">
        <ele>266</ele>
        <time>2017-06-03T08:45:10Z</time>
      </trkpt>
      <trkpt lat="45.94356" lon="4.83233">
        <ele>265</ele>
        <time>2017-06-03T08:45:11Z</time>
      </trkpt>
      <trkpt lat="45.94359" lon="4.8324">
        <ele>265</ele>
        <time>2017-06-03T08:45:12Z</time>
      </trkpt>
      <trkpt lat="45.94361" lon="4.83247">
        <ele>265</ele>
        <time>2017-06-03T08:45:13Z</time>
      </trkpt>
      <trkpt lat="45.94364" lon="4.83254">
        <ele>265</ele>
        <time>2017-06-03T08:45:14Z</time>
      </trkpt>
      <trkpt lat="45.94366" lon="4.83261">
        <ele>265</ele>
        <time>2017-06-03T08:45:15Z</time>
      </trkpt>
      <trkpt lat="45.94369" lon="4.83268">
        <ele>264</ele>
        <time>2017-06-03T08:45:16Z</time>
      </trkpt>
      <trkpt lat="45.94372" lon="4.83275">
        <ele>264</ele>
        <time>2017-06-03T08:45:17Z</time>
      </trkpt>
      <trkpt lat="45.94375" lon="4.83283">
        <ele>264</ele>
        <time>2017-06-03T08:45:18Z</time>
      </trkpt>
      <trkpt lat="45.94377" lon="4.8329">
        <ele>264</ele>
        <time>2017-06-03T08:45:19Z</time>
      </trkpt>
      <trkpt lat="45.9438" lon="4.83297">
        <ele>264</ele>
        <time>2017-06-03T08:45:20Z</time>
      </trkpt>
      <trkpt lat="45.94383" lon="4.83305">
        <ele>264</ele>
        <time>2017-06-03T08:45:21Z</time>
      </trkpt>
      <trkpt lat="45.94385" lon="4.83312">
        <ele>264</ele>
        <time>2017-06-03T08:45:22Z</time>
      </trkpt>
      <trkpt lat="45.94388" lon="4.83319">
        <ele>264</ele>
        <time>2017-06-03T08:45:23Z</time>
      </trkpt>
      <trkpt lat="45.9439" lon="4.83326">
        <ele>264</ele>
        <time>2017-06-03T08:45:24Z</time>
      </trkpt>
      <trkpt lat="45.94393" lon="4.83333">
        <ele>264</ele>
        <time>2017-06-03T08:45:25Z</time>
      </trkpt>
      <trkpt lat="45.94395" lon="4.8334">
        <ele>263</ele>
        <time>2017-06-03T08:45:26Z</time>
      </trkpt>
      <trkpt lat="45.94397" lon="4.83346">
        <ele>263</ele>
        <time>2017-06-03T08:45:27Z</time>
      </trkpt>
      <trkpt lat="45.94399" lon="4.83353">
        <ele>264</ele>
        <time>2017-06-03T08:45:28Z</time>
      </trkpt>
      <trkpt lat="45.94402" lon="4.83359">
        <ele>264</ele>
        <time>2017-06-03T08:45:29Z</time>
      </trkpt>
      <trkpt lat="45.94405" lon="4.83366">
        <ele>264</ele>
        <time>2017-06-03T08:45:30Z</time>
      </trkpt>
      <trkpt lat="45.94408" lon="4.83373">
        <ele>264</ele>
        <time>2017-06-03T08:45:31Z</time>
      </trkpt>
      <trkpt lat="45.94411" lon="4.83379">
        <ele>264</ele>
        <time>2017-06-03T08:45:32Z</time>
      </trkpt>
      <trkpt lat="45.94414" lon="4.83386">
        <ele>264</ele>
        <time>2017-06-03T08:45:33Z</time>
      </trkpt>
      <trkpt lat="45.94417" lon="4.83393">
        <ele>264</ele>
        <time>2017-06-03T08:45:34Z</time>
      </trkpt>
      <trkpt lat="45.94421" lon="4.834">
        <ele>264</ele>
        <time>2017-06-03T08:45:35Z</time>
      </trkpt>
      <trkpt lat="45.94424" lon="4.83406">
        <ele>264</ele>
        <time>2017-06-03T08:45:36Z</time>
      </trkpt>
      <trkpt lat="45.94428" lon="4.83413">
        <ele>264</ele>
        <time>2017-06-03T08:45:37Z</time>
      </trkpt>
      <trkpt lat="45.94431" lon="4.8342">
        <ele>264</ele>
        <time>2017-06-03T08:45:38Z</time>
      </trkpt>
      <trkpt lat="45.94434" lon="4.83427">
        <ele>264</ele>
        <time>2017-06-03T08:45:39Z</time>
      </trkpt>
      <trkpt lat="45.94437" lon="4.83433">
        <ele>263</ele>
        <time>2017-06-03T08:45:40Z</time>
      </trkpt>
      <trkpt lat="45.9444" lon="4.8344">
        <ele>263</ele>
        <time>2017-06-03T08:45:41Z</time>
      </trkpt>
      <trkpt lat="45.94444" lon="4.83446">
        <ele>263</ele>
        <time>2017-06-03T08:45:42Z</time>
      </trkpt>
      <trkpt lat="45.94447" lon="4.83452">
        <ele>263</ele>
        <time>2017-06-03T08:45:43Z</time>
      </trkpt>
      <trkpt lat="45.9445" lon="4.83457">
        <ele>263</ele>
        <time>2017-06-03T08:45:44Z</time>
      </trkpt>
      <trkpt lat="45.94454" lon="4.83464">
        <ele>263</ele>
        <time>2017-06-03T08:45:45Z</time>
      </trkpt>
      <trkpt lat="45.94457" lon="4.8347">
        <ele>263</ele>
        <time>2017-06-03T08:45:46Z</time>
      </trkpt>
      <trkpt lat="45.94461" lon="4.83476">
        <ele>263</ele>
        <time>2017-06-03T08:45:47Z</time>
      </trkpt>
      <trkpt lat="45.94464" lon="4.83482">
        <ele>263</ele>
        <time>2017-06-03T08:45:48Z</time>
      </trkpt>
      <trkpt lat="45.94468" lon="4.83488">
        <ele>263</ele>
        <time>2017-06-03T08:45:49Z</time>
      </trkpt>
      <trkpt lat="45.94471" lon="4.83494">
        <ele>263</ele>
        <time>2017-06-03T08:45:50Z</time>
      </trkpt>
      <trkpt lat="45.94475" lon="4.835">
        <ele>263</ele>
        <time>2017-06-03T08:45:51Z</time>
      </trkpt>
      <trkpt lat="45.94478" lon="4.83506">
        <ele>262</ele>
        <time>2017-06-03T08:45:52Z</time>
      </trkpt>
      <trkpt lat="45.94482" lon="4.83512">
        <ele>262</ele>
        <time>2017-06-03T08:45:53Z</time>
      </trkpt>
      <trkpt lat="45.94486" lon="4.83518">
        <ele>262</ele>
        <time>2017-06-03T08:45:54Z</time>
      </trkpt>
      <trkpt lat="45.94489" lon="4.83524">
        <ele>262</ele>
        <time>2017-06-03T08:45:55Z</time>
      </trkpt>
      <trkpt lat="45.94493" lon="4.8353">
        <ele>262</ele>
        <time>2017-06-03T08:45:56Z</time>
      </trkpt>
      <trkpt lat="45.94496" lon="4.83536">
        <ele>262</ele>
        <time>2017-06-03T08:45:57Z</time>
      </trkpt>
      <trkpt lat="45.945" lon="4.83542">
        <ele>262</ele>
        <time>2017-06-03T08:45:58Z</time>
      </trkpt>
      <trkpt lat="45.94503" lon="4.83548">
        <ele>261</ele>
        <time>2017-06-03T08:45:59Z</time>
      </trkpt>
      <trkpt lat="45.94506" lon="4.83554">
        <ele>261</ele>
        <time>2017-06-03T08:46:00Z</time>
      </trkpt>
      <trkpt lat="45.94509" lon="4.8356">
        <ele>261</ele>
        <time>2017-06-03T08:46:01Z</time>
      </trkpt>
      <trkpt lat="45.94512" lon="4.83567">
        <ele>261</ele>
        <time>2017-06-03T08:46:02Z</time>
      </trkpt>
      <trkpt lat="45.94514" lon="4.83573">
        <ele>261</ele>
        <time>2017-06-03T08:46:03Z</time>
      </trkpt>
      <trkpt lat="45.94517" lon="4.8358">
        <ele>261</ele>
        <time>2017-06-03T08:46:04Z</time>
      </trkpt>
      <trkpt lat="45.94519" lon="4.83587">
        <ele>261</ele>
        <time>2017-06-03T08:46:05Z</time>
      </trkpt>
      <trkpt lat="45.94522" lon="4.83595">
        <ele>261</ele>
        <time>2017-06-03T08:46:06Z</time>
      </trkpt>
      <trkpt lat="45.94524" lon="4.83603">
        <ele>261</ele>
        <time>2017-06-03T08:46:07Z</time>
      </trkpt>
      <trkpt lat="45.94526" lon="4.83611">
        <ele>261</ele>
        <time>2017-06-03T08:46:08Z</time>
      </trkpt>
      <trkpt lat="45.94529" lon="4.8362">
        <ele>261</ele>
        <time>2017-06-03T08:46:09Z</time>
      </trkpt>
      <trkpt lat="45.9453" lon="4.83628">
        <ele>261</ele>
        <time>2017-06-03T08:46:10Z</time>
      </trkpt>
      <trkpt lat="45.94531" lon="4.83636">
        <ele>261</ele>
        <time>2017-06-03T08:46:11Z</time>
      </trkpt>
      <trkpt lat="45.94533" lon="4.83645">
        <ele>261</ele>
        <time>2017-06-03T08:46:12Z</time>
      </trkpt>
      <trkpt lat="45.94534" lon="4.83653">
        <ele>261</ele>
        <time>2017-06-03T08:46:13Z</time>
      </trkpt>
      <trkpt lat="45.94535" lon="4.83661">
        <ele>261</ele>
        <time>2017-06-03T08:46:14Z</time>
      </trkpt>
      <trkpt lat="45.94536" lon="4.83669">
        <ele>262</ele>
        <time>2017-06-03T08:46:15Z</time>
      </trkpt>
      <trkpt lat="45.94537" lon="4.83677">
        <ele>262</ele>
        <time>2017-06-03T08:46:16Z</time>
      </trkpt>
      <trkpt lat="45.94538" lon="4.83685">
        <ele>262</ele>
        <time>2017-06-03T08:46:17Z</time>
      </trkpt>
      <trkpt lat="45.94539" lon="4.83691">
        <ele>262</ele>
        <time>2017-06-03T08:46:18Z</time>
      </trkpt>
      <trkpt lat="45.9454" lon="4.83698">
        <ele>262</ele>
        <time>2017-06-03T08:46:19Z</time>
      </trkpt>
      <trkpt lat="45.94541" lon="4.83705">
        <ele>262</ele>
        <time>2017-06-03T08:46:20Z</time>
      </trkpt>
      <trkpt lat="45.94542" lon="4.83711">
        <ele>262</ele>
        <time>2017-06-03T08:46:21Z</time>
      </trkpt>
      <trkpt lat="45.94543" lon="4.83718">
        <ele>262</ele>
        <time>2017-06-03T08:46:22Z</time>
      </trkpt>
      <trkpt lat="45.94544" lon="4.83726">
        <ele>262</ele>
        <time>2017-06-03T08:46:23Z</time>
      </trkpt>
      <trkpt lat="45.94545" lon="4.83733">
        <ele>262</ele>
        <time>2017-06-03T08:46:24Z</time>
      </trkpt>
      <trkpt lat="45.94546" lon="4.83741">
        <ele>262</ele>
        <time>2017-06-03T08:46:25Z</time>
      </trkpt>
      <trkpt lat="45.94548" lon="4.83748">
        <ele>262</ele>
        <time>2017-06-03T08:46:26Z</time>
      </trkpt>
      <trkpt lat="45.94549" lon="4.83756">
        <ele>263</ele>
        <time>2017-06-03T08:46:27Z</time>
      </trkpt>
      <trkpt lat="45.9455" lon="4.83764">
        <ele>263</ele>
        <time>2017-06-03T08:46:28Z</time>
      </trkpt>
      <trkpt lat="45.94552" lon="4.83772">
        <ele>264</ele>
        <time>2017-06-03T08:46:29Z</time>
      </trkpt>
      <trkpt lat="45.94553" lon="4.8378">
        <ele>264</ele>
        <time>2017-06-03T08:46:30Z</time>
      </trkpt>
      <trkpt lat="45.94554" lon="4.83788">
        <ele>264</ele>
        <time>2017-06-03T08:46:31Z</time>
      </trkpt>
      <trkpt lat="45.94555" lon="4.83795">
        <ele>264</ele>
        <time>2017-06-03T08:46:32Z</time>
      </trkpt>
      <trkpt lat="45.94556" lon="4.83802">
        <ele>264</ele>
        <time>2017-06-03T08:46:33Z</time>
      </trkpt>
      <trkpt lat="45.94558" lon="4.83809">
        <ele>264</ele>
        <time>2017-06-03T08:46:34Z</time>
      </trkpt>
      <trkpt lat="45.94559" lon="4.83815">
        <ele>264</ele>
        <time>2017-06-03T08:46:35Z</time>
      </trkpt>
      <trkpt lat="45.9456" lon="4.83821">
        <ele>264</ele>
        <time>2017-06-03T08:46:36Z</time>
      </trkpt>
      <trkpt lat="45.94561" lon="4.83828">
        <ele>264</ele>
        <time>2017-06-03T08:46:37Z</time>
      </trkpt>
      <trkpt lat="45.94562" lon="4.83834">
        <ele>266</ele>
        <time>2017-06-03T08:46:38Z</time>
      </trkpt>
      <trkpt lat="45.94564" lon="4.83842">
        <ele>266</ele>
        <time>2017-06-03T08:46:39Z</time>
      </trkpt>
      <trkpt lat="45.94565" lon="4.83848">
        <ele>266</ele>
        <time>2017-06-03T08:46:40Z</time>
      </trkpt>
      <trkpt lat="45.94567" lon="4.83855">
        <ele>267</ele>
        <time>2017-06-03T08:46:41Z</time>
      </trkpt>
      <trkpt lat="45.94568" lon="4.83863">
        <ele>267</ele>
        <time>2017-06-03T08:46:42Z</time>
      </trkpt>
      <trkpt lat="45.9457" lon="4.8387">
        <ele>267</ele>
        <time>2017-06-03T08:46:43Z</time>
      </trkpt>
      <trkpt lat="45.94571" lon="4.83878">
        <ele>267</ele>
        <time>2017-06-03T08:46:44Z</time>
      </trkpt>
      <trkpt lat="45.94572" lon="4.83885">
        <ele>267</ele>
        <time>2017-06-03T08:46:45Z</time>
      </trkpt>
      <trkpt lat="45.94572" lon="4.83893">
        <ele>267</ele>
        <time>2017-06-03T08:46:46Z</time>
      </trkpt>
      <trkpt lat="45.94574" lon="4.83901">
        <ele>268</ele>
        <time>2017-06-03T08:46:47Z</time>
      </trkpt>
      <trkpt lat="45.94575" lon="4.83909">
        <ele>268</ele>
        <time>2017-06-03T08:46:48Z</time>
      </trkpt>
      <trkpt lat="45.94576" lon="4.83917">
        <ele>268</ele>
        <time>2017-06-03T08:46:49Z</time>
      </trkpt>
      <trkpt lat="45.94577" lon="4.83925">
        <ele>268</ele>
        <time>2017-06-03T08:46:50Z</time>
      </trkpt>
      <trkpt lat="45.94579" lon="4.83933">
        <ele>269</ele>
        <time>2017-06-03T08:46:51Z</time>
      </trkpt>
      <trkpt lat="45.9458" lon="4.83941">
        <ele>269</ele>
        <time>2017-06-03T08:46:52Z</time>
      </trkpt>
      <trkpt lat="45.94581" lon="4.83949">
        <ele>269</ele>
        <time>2017-06-03T08:46:53Z</time>
      </trkpt>
      <trkpt lat="45.94583" lon="4.83957">
        <ele>269</ele>
        <time>2017-06-03T08:46:54Z</time>
      </trkpt>
      <trkpt lat="45.94584" lon="4.83964">
        <ele>268</ele>
        <time>2017-06-03T08:46:55Z</time>
      </trkpt>
      <trkpt lat="45.94585" lon="4.83972">
        <ele>268</ele>
        <time>2017-06-03T08:46:56Z</time>
      </trkpt>
      <trkpt lat="45.94586" lon="4.83979">
        <ele>268</ele>
        <time>2017-06-03T08:46:57Z</time>
      </trkpt>
      <trkpt lat="45.94587" lon="4.83991">
        <ele>269</ele>
        <time>2017-06-03T08:46:59Z</time>
      </trkpt>
      <trkpt lat="45.94588" lon="4.83997">
        <ele>269</ele>
        <time>2017-06-03T08:47:00Z</time>
      </trkpt>
      <trkpt lat="45.9459" lon="4.84009">
        <ele>269</ele>
        <time>2017-06-03T08:47:02Z</time>
      </trkpt>
      <trkpt lat="45.9459" lon="4.84015">
        <ele>269</ele>
        <time>2017-06-03T08:47:03Z</time>
      </trkpt>
      <trkpt lat="45.94592" lon="4.84026">
        <ele>269</ele>
        <time>2017-06-03T08:47:05Z</time>
      </trkpt>
      <trkpt lat="45.94592" lon="4.84032">
        <ele>269</ele>
        <time>2017-06-03T08:47:06Z</time>
      </trkpt>
      <trkpt lat="45.94594" lon="4.84043">
        <ele>269</ele>
        <time>2017-06-03T08:47:08Z</time>
      </trkpt>
      <trkpt lat="45.94595" lon="4.84049">
        <ele>269</ele>
        <time>2017-06-03T08:47:09Z</time>
      </trkpt>
      <trkpt lat="45.94598" lon="4.84061">
        <ele>269</ele>
        <time>2017-06-03T08:47:11Z</time>
      </trkpt>
      <trkpt lat="45.94598" lon="4.84067">
        <ele>269</ele>
        <time>2017-06-03T08:47:12Z</time>
      </trkpt>
      <trkpt lat="45.946" lon="4.84079">
        <ele>269</ele>
        <time>2017-06-03T08:47:14Z</time>
      </trkpt>
      <trkpt lat="45.94601" lon="4.84085">
        <ele>269</ele>
        <time>2017-06-03T08:47:15Z</time>
      </trkpt>
      <trkpt lat="45.94604" lon="4.84097">
        <ele>269</ele>
        <time>2017-06-03T08:47:17Z</time>
      </trkpt>
      <trkpt lat="45.94604" lon="4.84103">
        <ele>269</ele>
        <time>2017-06-03T08:47:18Z</time>
      </trkpt>
      <trkpt lat="45.94606" lon="4.84115">
        <ele>269</ele>
        <time>2017-06-03T08:47:20Z</time>
      </trkpt>
      <trkpt lat="45.94607" lon="4.84121">
        <ele>269</ele>
        <time>2017-06-03T08:47:21Z</time>
      </trkpt>
      <trkpt lat="45.94608" lon="4.84133">
        <ele>269</ele>
        <time>2017-06-03T08:47:23Z</time>
      </trkpt>
      <trkpt lat="45.94609" lon="4.84139">
        <ele>269</ele>
        <time>2017-06-03T08:47:24Z</time>
      </trkpt>
      <trkpt lat="45.94611" lon="4.84151">
        <ele>269</ele>
        <time>2017-06-03T08:47:26Z</time>
      </trkpt>
      <trkpt lat="45.94612" lon="4.84157">
        <ele>269</ele>
        <time>2017-06-03T08:47:27Z</time>
      </trkpt>
      <trkpt lat="45.94614" lon="4.84168">
        <ele>269</ele>
        <time>2017-06-03T08:47:29Z</time>
      </trkpt>
      <trkpt lat="45.94615" lon="4.84173">
        <ele>269</ele>
        <time>2017-06-03T08:47:30Z</time>
      </trkpt>
      <trkpt lat="45.94617" lon="4.84183">
        <ele>269</ele>
        <time>2017-06-03T08:47:32Z</time>
      </trkpt>
      <trkpt lat="45.94618" lon="4.84188">
        <ele>269</ele>
        <time>2017-06-03T08:47:33Z</time>
      </trkpt>
      <trkpt lat="45.94619" lon="4.84198">
        <ele>269</ele>
        <time>2017-06-03T08:47:35Z</time>
      </trkpt>
      <trkpt lat="45.9462" lon="4.84203">
        <ele>269</ele>
        <time>2017-06-03T08:47:36Z</time>
      </trkpt>
      <trkpt lat="45.94621" lon="4.84214">
        <ele>269</ele>
        <time>2017-06-03T08:47:38Z</time>
      </trkpt>
      <trkpt lat="45.94622" lon="4.8422">
        <ele>269</ele>
        <time>2017-06-03T08:47:39Z</time>
      </trkpt>
      <trkpt lat="45.94624" lon="4.84232">
        <ele>269</ele>
        <time>2017-06-03T08:47:41Z</time>
      </trkpt>
      <trkpt lat="45.94625" lon="4.84238">
        <ele>269</ele>
        <time>2017-06-03T08:47:42Z</time>
      </trkpt>
      <trkpt lat="45.94626" lon="4.84249">
        <ele>269</ele>
        <time>2017-06-03T08:47:44Z</time>
      </trkpt>
      <trkpt lat="45.94627" lon="4.84255">
        <ele>269</ele>
        <time>2017-06-03T08:47:45Z</time>
      </trkpt>
      <trkpt lat="45.94628" lon="4.84261">
        <ele>269</ele>
        <time>2017-06-03T08:47:46Z</time>
      </trkpt>
      <trkpt lat="45.94629" lon="4.84268">
        <ele>269</ele>
        <time>2017-06-03T08:47:47Z</time>
      </trkpt>
      <trkpt lat="45.94631" lon="4.84275">
        <ele>269</ele>
        <time>2017-06-03T08:47:48Z</time>
      </trkpt>
      <trkpt lat="45.94632" lon="4.84283">
        <ele>269</ele>
        <time>2017-06-03T08:47:49Z</time>
      </trkpt>
      <trkpt lat="45.94633" lon="4.84291">
        <ele>269</ele>
        <time>2017-06-03T08:47:50Z</time>
      </trkpt>
      <trkpt lat="45.94634" lon="4.84299">
        <ele>269</ele>
        <time>2017-06-03T08:47:51Z</time>
      </trkpt>
      <trkpt lat="45.94635" lon="4.84307">
        <ele>269</ele>
        <time>2017-06-03T08:47:52Z</time>
      </trkpt>
      <trkpt lat="45.94636" lon="4.84315">
        <ele>269</ele>
        <time>2017-06-03T08:47:53Z</time>
      </trkpt>
      <trkpt lat="45.94637" lon="4.84324">
        <ele>269</ele>
        <time>2017-06-03T08:47:54Z</time>
      </trkpt>
      <trkpt lat="45.94638" lon="4.84332">
        <ele>269</ele>
        <time>2017-06-03T08:47:55Z</time>
      </trkpt>
      <trkpt lat="45.94639" lon="4.84339">
        <ele>268</ele>
        <time>2017-06-03T08:47:56Z</time>
      </trkpt>
      <trkpt lat="45.9464" lon="4.84346">
        <ele>268</ele>
        <time>2017-06-03T08:47:57Z</time>
      </trkpt>
      <trkpt lat="45.94641" lon="4.84353">
        <ele>268</ele>
        <time>2017-06-03T08:47:58Z</time>
      </trkpt>
      <trkpt lat="45.94641" lon="4.8436">
        <ele>268</ele>
        <time>2017-06-03T08:47:59Z</time>
      </trkpt>
      <trkpt lat="45.94642" lon="4.84366">
        <ele>268</ele>
        <time>2017-06-03T08:48:00Z</time>
      </trkpt>
      <trkpt lat="45.94643" lon="4.84373">
        <ele>268</ele>
        <time>2017-06-03T08:48:01Z</time>
      </trkpt>
      <trkpt lat="45.94645" lon="4.84385">
        <ele>268</ele>
        <time>2017-06-03T08:48:03Z</time>
      </trkpt>
      <trkpt lat="45.94645" lon="4.8439">
        <ele>268</ele>
        <time>2017-06-03T08:48:04Z</time>
      </trkpt>
      <trkpt lat="45.94647" lon="4.84402">
        <ele>268</ele>
        <time>2017-06-03T08:48:06Z</time>
      </trkpt>
      <trkpt lat="45.94648" lon="4.84408">
        <ele>268</ele>
        <time>2017-06-03T08:48:07Z</time>
      </trkpt>
      <trkpt lat="45.94649" lon="4.8442">
        <ele>268</ele>
        <time>2017-06-03T08:48:09Z</time>
      </trkpt>
      <trkpt lat="45.94649" lon="4.84426">
        <ele>268</ele>
        <time>2017-06-03T08:48:10Z</time>
      </trkpt>
      <trkpt lat="45.9465" lon="4.84439">
        <ele>268</ele>
        <time>2017-06-03T08:48:12Z</time>
      </trkpt>
      <trkpt lat="45.94651" lon="4.84444">
        <ele>268</ele>
        <time>2017-06-03T08:48:13Z</time>
      </trkpt>
      <trkpt lat="45.94652" lon="4.84456">
        <ele>268</ele>
        <time>2017-06-03T08:48:15Z</time>
      </trkpt>
      <trkpt lat="45.94653" lon="4.84461">
        <ele>268</ele>
        <time>2017-06-03T08:48:16Z</time>
      </trkpt>
      <trkpt lat="45.94654" lon="4.84473">
        <ele>268</ele>
        <time>2017-06-03T08:48:18Z</time>
      </trkpt>
      <trkpt lat="45.94655" lon="4.8448">
        <ele>268</ele>
        <time>2017-06-03T08:48:19Z</time>
      </trkpt>
      <trkpt lat="45.94656" lon="4.84487">
        <ele>268</ele>
        <time>2017-06-03T08:48:20Z</time>
      </trkpt>
      <trkpt lat="45.94657" lon="4.84496">
        <ele>268</ele>
        <time>2017-06-03T08:48:21Z</time>
      </trkpt>
      <trkpt lat="45.94658" lon="4.84504">
        <ele>268</ele>
        <time>2017-06-03T08:48:22Z</time>
      </trkpt>
      <trkpt lat="45.94658" lon="4.84512">
        <ele>268</ele>
        <time>2017-06-03T08:48:23Z</time>
      </trkpt>
      <trkpt lat="45.94659" lon="4.8452">
        <ele>268</ele>
        <time>2017-06-03T08:48:24Z</time>
      </trkpt>
      <trkpt lat="45.94659" lon="4.84528">
        <ele>268</ele>
        <time>2017-06-03T08:48:25Z</time>
      </trkpt>
      <trkpt lat="45.9466" lon="4.84536">
        <ele>268</ele>
        <time>2017-06-03T08:48:26Z</time>
      </trkpt>
      <trkpt lat="45.94661" lon="4.84544">
        <ele>268</ele>
        <time>2017-06-03T08:48:27Z</time>
      </trkpt>
      <trkpt lat="45.94661" lon="4.84551">
        <ele>268</ele>
        <time>2017-06-03T08:48:28Z</time>
      </trkpt>
      <trkpt lat="45.94662" lon="4.84559">
        <ele>268</ele>
        <time>2017-06-03T08:48:29Z</time>
      </trkpt>
      <trkpt lat="45.94662" lon="4.84566">
        <ele>268</ele>
        <time>2017-06-03T08:48:30Z</time>
      </trkpt>
      <trkpt lat="45.94663" lon="4.84573">
        <ele>268</ele>
        <time>2017-06-03T08:48:31Z</time>
      </trkpt>
      <trkpt lat="45.94664" lon="4.8458">
        <ele>268</ele>
        <time>2017-06-03T08:48:32Z</time>
      </trkpt>
      <trkpt lat="45.94664" lon="4.84586">
        <ele>268</ele>
        <time>2017-06-03T08:48:33Z</time>
      </trkpt>
      <trkpt lat="45.94664" lon="4.84593">
        <ele>268</ele>
        <time>2017-06-03T08:48:34Z</time>
      </trkpt>
      <trkpt lat="45.94664" lon="4.846">
        <ele>268</ele>
        <time>2017-06-03T08:48:35Z</time>
      </trkpt>
      <trkpt lat="45.94664" lon="4.84606">
        <ele>268</ele>
        <time>2017-06-03T08:48:36Z</time>
      </trkpt>
      <trkpt lat="45.94665" lon="4.84613">
        <ele>268</ele>
        <time>2017-06-03T08:48:37Z</time>
      </trkpt>
      <trkpt lat="45.94665" lon="4.84619">
        <ele>268</ele>
        <time>2017-06-03T08:48:38Z</time>
      </trkpt>
      <trkpt lat="45.94666" lon="4.84625">
        <ele>268</ele>
        <time>2017-06-03T08:48:39Z</time>
      </trkpt>
      <trkpt lat="45.94666" lon="4.84638">
        <ele>268</ele>
        <time>2017-06-03T08:48:41Z</time>
      </trkpt>
      <trkpt lat="45.94666" lon="4.84645">
        <ele>268</ele>
        <time>2017-06-03T08:48:42Z</time>
      </trkpt>
      <trkpt lat="45.94667" lon="4.84652">
        <ele>269</ele>
        <time>2017-06-03T08:48:43Z</time>
      </trkpt>
      <trkpt lat="45.94667" lon="4.84659">
        <ele>269</ele>
        <time>2017-06-03T08:48:44Z</time>
      </trkpt>
      <trkpt lat="45.94667" lon="4.84666">
        <ele>269</ele>
        <time>2017-06-03T08:48:45Z</time>
      </trkpt>
      <trkpt lat="45.94667" lon="4.84674">
        <ele>269</ele>
        <time>2017-06-03T08:48:46Z</time>
      </trkpt>
      <trkpt lat="45.94667" lon="4.84682">
        <ele>269</ele>
        <time>2017-06-03T08:48:47Z</time>
      </trkpt>
      <trkpt lat="45.94667" lon="4.84689">
        <ele>269</ele>
        <time>2017-06-03T08:48:48Z</time>
      </trkpt>
      <trkpt lat="45.94668" lon="4.84697">
        <ele>269</ele>
        <time>2017-06-03T08:48:49Z</time>
      </trkpt>
      <trkpt lat="45.94668" lon="4.84705">
        <ele>269</ele>
        <time>2017-06-03T08:48:50Z</time>
      </trkpt>
      <trkpt lat="45.94669" lon="4.84713">
        <ele>269</ele>
        <time>2017-06-03T08:48:51Z</time>
      </trkpt>
      <trkpt lat="45.94669" lon="4.84721">
        <ele>269</ele>
        <time>2017-06-03T08:48:52Z</time>
      </trkpt>
      <trkpt lat="45.94669" lon="4.84728">
        <ele>269</ele>
        <time>2017-06-03T08:48:53Z</time>
      </trkpt>
      <trkpt lat="45.9467" lon="4.84736">
        <ele>269</ele>
        <time>2017-06-03T08:48:54Z</time>
      </trkpt>
      <trkpt lat="45.9467" lon="4.84743">
        <ele>269</ele>
        <time>2017-06-03T08:48:55Z</time>
      </trkpt>
      <trkpt lat="45.9467" lon="4.8475">
        <ele>269</ele>
        <time>2017-06-03T08:48:56Z</time>
      </trkpt>
      <trkpt lat="45.94671" lon="4.84757">
        <ele>269</ele>
        <time>2017-06-03T08:48:57Z</time>
      </trkpt>
      <trkpt lat="45.94671" lon="4.84763">
        <ele>269</ele>
        <time>2017-06-03T08:48:58Z</time>
      </trkpt>
      <trkpt lat="45.94672" lon="4.84776">
        <ele>269</ele>
        <time>2017-06-03T08:49:00Z</time>
      </trkpt>
      <trkpt lat="45.94672" lon="4.84782">
        <ele>269</ele>
        <time>2017-06-03T08:49:01Z</time>
      </trkpt>
      <trkpt lat="45.94673" lon="4.84793">
        <ele>268</ele>
        <time>2017-06-03T08:49:03Z</time>
      </trkpt>
      <trkpt lat="45.94674" lon="4.84798">
        <ele>268</ele>
        <time>2017-06-03T08:49:04Z</time>
      </trkpt>
      <trkpt lat="45.94675" lon="4.84808">
        <ele>268</ele>
        <time>2017-06-03T08:49:06Z</time>
      </trkpt>
      <trkpt lat="45.94675" lon="4.84813">
        <ele>268</ele>
        <time>2017-06-03T08:49:07Z</time>
      </trkpt>
      <trkpt lat="45.94676" lon="4.84823">
        <ele>268</ele>
        <time>2017-06-03T08:49:09Z</time>
      </trkpt>
      <trkpt lat="45.94676" lon="4.8483">
        <ele>268</ele>
        <time>2017-06-03T08:49:10Z</time>
      </trkpt>
      <trkpt lat="45.94677" lon="4.84837">
        <ele>268</ele>
        <time>2017-06-03T08:49:11Z</time>
      </trkpt>
      <trkpt lat="45.94678" lon="4.84844">
        <ele>268</ele>
        <time>2017-06-03T08:49:12Z</time>
      </trkpt>
      <trkpt lat="45.94679" lon="4.84853">
        <ele>268</ele>
        <time>2017-06-03T08:49:13Z</time>
      </trkpt>
      <trkpt lat="45.9468" lon="4.84862">
        <ele>268</ele>
        <time>2017-06-03T08:49:14Z</time>
      </trkpt>
      <trkpt lat="45.94681" lon="4.84871">
        <ele>268</ele>
        <time>2017-06-03T08:49:15Z</time>
      </trkpt>
      <trkpt lat="45.94682" lon="4.8488">
        <ele>268</ele>
        <time>2017-06-03T08:49:16Z</time>
      </trkpt>
      <trkpt lat="45.94683" lon="4.84889">
        <ele>268</ele>
        <time>2017-06-03T08:49:17Z</time>
      </trkpt>
      <trkpt lat="45.94683" lon="4.84897">
        <ele>268</ele>
        <time>2017-06-03T08:49:18Z</time>
      </trkpt>
      <trkpt lat="45.94684" lon="4.84906">
        <ele>269</ele>
        <time>2017-06-03T08:49:19Z</time>
      </trkpt>
      <trkpt lat="45.94685" lon="4.84913">
        <ele>269</ele>
        <time>2017-06-03T08:49:20Z</time>
      </trkpt>
      <trkpt lat="45.94685" lon="4.84921">
        <ele>269</ele>
        <time>2017-06-03T08:49:21Z</time>
      </trkpt>
      <trkpt lat="45.94686" lon="4.84929">
        <ele>269</ele>
        <time>2017-06-03T08:49:22Z</time>
      </trkpt>
      <trkpt lat="45.94686" lon="4.84936">
        <ele>269</ele>
        <time>2017-06-03T08:49:23Z</time>
      </trkpt>
      <trkpt lat="45.94687" lon="4.84943">
        <ele>269</ele>
        <time>2017-06-03T08:49:24Z</time>
      </trkpt>
      <trkpt lat="45.94688" lon="4.8495">
        <ele>269</ele>
        <time>2017-06-03T08:49:25Z</time>
      </trkpt>
      <trkpt lat="45.94689" lon="4.84957">
        <ele>269</ele>
        <time>2017-06-03T08:49:26Z</time>
      </trkpt>
      <trkpt lat="45.94689" lon="4.84964">
        <ele>269</ele>
        <time>2017-06-03T08:49:27Z</time>
      </trkpt>
      <trkpt lat="45.94689" lon="4.8497">
        <ele>269</ele>
        <time>2017-06-03T08:49:28Z</time>
      </trkpt>
      <trkpt lat="45.9469" lon="4.84977">
        <ele>269</ele>
        <time>2017-06-03T08:49:29Z</time>
      </trkpt>
      <trkpt lat="45.94691" lon="4.84984">
        <ele>269</ele>
        <time>2017-06-03T08:49:30Z</time>
      </trkpt>
      <trkpt lat="45.94691" lon="4.84991">
        <ele>269</ele>
        <time>2017-06-03T08:49:31Z</time>
      </trkpt>
      <trkpt lat="45.94692" lon="4.84999">
        <ele>269</ele>
        <time>2017-06-03T08:49:32Z</time>
      </trkpt>
      <trkpt lat="45.94693" lon="4.85006">
        <ele>269</ele>
        <time>2017-06-03T08:49:33Z</time>
      </trkpt>
      <trkpt lat="45.94694" lon="4.85014">
        <ele>269</ele>
        <time>2017-06-03T08:49:34Z</time>
      </trkpt>
      <trkpt lat="45.94695" lon="4.85022">
        <ele>269</ele>
        <time>2017-06-03T08:49:35Z</time>
      </trkpt>
      <trkpt lat="45.94696" lon="4.8503">
        <ele>269</ele>
        <time>2017-06-03T08:49:36Z</time>
      </trkpt>
      <trkpt lat="45.94697" lon="4.85039">
        <ele>269</ele>
        <time>2017-06-03T08:49:37Z</time>
      </trkpt>
      <trkpt lat="45.94698" lon="4.85048">
        <ele>269</ele>
        <time>2017-06-03T08:49:38Z</time>
      </trkpt>
      <trkpt lat="45.94698" lon="4.85056">
        <ele>269</ele>
        <time>2017-06-03T08:49:39Z</time>
      </trkpt>
      <trkpt lat="45.94699" lon="4.85063">
        <ele>269</ele>
        <time>2017-06-03T08:49:40Z</time>
      </trkpt>
      <trkpt lat="45.94701" lon="4.85071">
        <ele>269</ele>
        <time>2017-06-03T08:49:41Z</time>
      </trkpt>
      <trkpt lat="45.94701" lon="4.85078">
        <ele>269</ele>
        <time>2017-06-03T08:49:42Z</time>
      </trkpt>
      <trkpt lat="45.94702" lon="4.85085">
        <ele>269</ele>
        <time>2017-06-03T08:49:43Z</time>
      </trkpt>
      <trkpt lat="45.94703" lon="4.85092">
        <ele>269</ele>
        <time>2017-06-03T08:49:44Z</time>
      </trkpt>
      <trkpt lat="45.94705" lon="4.85104">
        <ele>269</ele>
        <time>2017-06-03T08:49:46Z</time>
      </trkpt>
      <trkpt lat="45.94706" lon="4.8511">
        <ele>269</ele>
        <time>2017-06-03T08:49:47Z</time>
      </trkpt>
      <trkpt lat="45.94708" lon="4.85123">
        <ele>269</ele>
        <time>2017-06-03T08:49:49Z</time>
      </trkpt>
      <trkpt lat="45.94708" lon="4.85129">
        <ele>269</ele>
        <time>2017-06-03T08:49:50Z</time>
      </trkpt>
      <trkpt lat="45.94709" lon="4.85141">
        <ele>269</ele>
        <time>2017-06-03T08:49:52Z</time>
      </trkpt>
      <trkpt lat="45.9471" lon="4.85148">
        <ele>269</ele>
        <time>2017-06-03T08:49:53Z</time>
      </trkpt>
      <trkpt lat="45.94711" lon="4.85155">
        <ele>269</ele>
        <time>2017-06-03T08:49:54Z</time>
      </trkpt>
      <trkpt lat="45.94711" lon="4.85162">
        <ele>269</ele>
        <time>2017-06-03T08:49:55Z</time>
      </trkpt>
      <trkpt lat="45.94712" lon="4.85169">
        <ele>269</ele>
        <time>2017-06-03T08:49:56Z</time>
      </trkpt>
      <trkpt lat="45.94713" lon="4.85177">
        <ele>269</ele>
        <time>2017-06-03T08:49:57Z</time>
      </trkpt>
      <trkpt lat="45.94713" lon="4.85184">
        <ele>269</ele>
        <time>2017-06-03T08:49:58Z</time>
      </trkpt>
      <trkpt lat="45.94714" lon="4.85191">
        <ele>269</ele>
        <time>2017-06-03T08:49:59Z</time>
      </trkpt>
      <trkpt lat="45.94715" lon="4.85198">
        <ele>269</ele>
        <time>2017-06-03T08:50:00Z</time>
      </trkpt>
      <trkpt lat="45.94715" lon="4.85204">
        <ele>269</ele>
        <time>2017-06-03T08:50:01Z</time>
      </trkpt>
      <trkpt lat="45.94717" lon="4.85216">
        <ele>269</ele>
        <time>2017-06-03T08:50:03Z</time>
      </trkpt>
      <trkpt lat="45.94718" lon="4.85222">
        <ele>269</ele>
        <time>2017-06-03T08:50:04Z</time>
      </trkpt>
      <trkpt lat="45.94719" lon="4.85234">
        <ele>269</ele>
        <time>2017-06-03T08:50:06Z</time>
      </trkpt>
      <trkpt lat="45.9472" lon="4.8524">
        <ele>269</ele>
        <time>2017-06-03T08:50:07Z</time>
      </trkpt>
      <trkpt lat="45.94721" lon="4.85247">
        <ele>269</ele>
        <time>2017-06-03T08:50:08Z</time>
      </trkpt>
      <trkpt lat="45.94721" lon="4.85254">
        <ele>269</ele>
        <time>2017-06-03T08:50:09Z</time>
      </trkpt>
      <trkpt lat="45.94722" lon="4.85261">
        <ele>269</ele>
        <time>2017-06-03T08:50:10Z</time>
      </trkpt>
      <trkpt lat="45.94723" lon="4.85268">
        <ele>269</ele>
        <time>2017-06-03T08:50:11Z</time>
      </trkpt>
      <trkpt lat="45.94723" lon="4.85275">
        <ele>269</ele>
        <time>2017-06-03T08:50:12Z</time>
      </trkpt>
      <trkpt lat="45.94724" lon="4.85281">
        <ele>269</ele>
        <time>2017-06-03T08:50:13Z</time>
      </trkpt>
      <trkpt lat="45.94725" lon="4.85294">
        <ele>270</ele>
        <time>2017-06-03T08:50:15Z</time>
      </trkpt>
      <trkpt lat="45.94726" lon="4.85301">
        <ele>270</ele>
        <time>2017-06-03T08:50:16Z</time>
      </trkpt>
      <trkpt lat="45.94727" lon="4.85308">
        <ele>270</ele>
        <time>2017-06-03T08:50:17Z</time>
      </trkpt>
      <trkpt lat="45.94727" lon="4.85316">
        <ele>270</ele>
        <time>2017-06-03T08:50:18Z</time>
      </trkpt>
      <trkpt lat="45.94728" lon="4.85324">
        <ele>270</ele>
        <time>2017-06-03T08:50:19Z</time>
      </trkpt>
      <trkpt lat="45.94729" lon="4.85333">
        <ele>270</ele>
        <time>2017-06-03T08:50:20Z</time>
      </trkpt>
      <trkpt lat="45.9473" lon="4.85341">
        <ele>271</ele>
        <time>2017-06-03T08:50:21Z</time>
      </trkpt>
      <trkpt lat="45.94731" lon="4.8535">
        <ele>271</ele>
        <time>2017-06-03T08:50:22Z</time>
      </trkpt>
      <trkpt lat="45.94732" lon="4.85359">
        <ele>271</ele>
        <time>2017-06-03T08:50:23Z</time>
      </trkpt>
      <trkpt lat="45.94733" lon="4.85367">
        <ele>271</ele>
        <time>2017-06-03T08:50:24Z</time>
      </trkpt>
      <trkpt lat="45.94734" lon="4.85375">
        <ele>271</ele>
        <time>2017-06-03T08:50:25Z</time>
      </trkpt>
      <trkpt lat="45.94735" lon="4.85383">
        <ele>271</ele>
        <time>2017-06-03T08:50:26Z</time>
      </trkpt>
      <trkpt lat="45.94736" lon="4.8539">
        <ele>272</ele>
        <time>2017-06-03T08:50:27Z</time>
      </trkpt>
      <trkpt lat="45.94737" lon="4.85397">
        <ele>272</ele>
        <time>2017-06-03T08:50:28Z</time>
      </trkpt>
      <trkpt lat="45.94738" lon="4.85405">
        <ele>272</ele>
        <time>2017-06-03T08:50:29Z</time>
      </trkpt>
      <trkpt lat="45.94738" lon="4.85413">
        <ele>272</ele>
        <time>2017-06-03T08:50:30Z</time>
      </trkpt>
      <trkpt lat="45.94739" lon="4.85421">
        <ele>273</ele>
        <time>2017-06-03T08:50:31Z</time>
      </trkpt>
      <trkpt lat="45.9474" lon="4.8543">
        <ele>273</ele>
        <time>2017-06-03T08:50:32Z</time>
      </trkpt>
      <trkpt lat="45.94741" lon="4.85438">
        <ele>274</ele>
        <time>2017-06-03T08:50:33Z</time>
      </trkpt>
      <trkpt lat="45.94742" lon="4.85447">
        <ele>274</ele>
        <time>2017-06-03T08:50:34Z</time>
      </trkpt>
      <trkpt lat="45.94743" lon="4.85456">
        <ele>274</ele>
        <time>2017-06-03T08:50:35Z</time>
      </trkpt>
      <trkpt lat="45.94744" lon="4.85464">
        <ele>274</ele>
        <time>2017-06-03T08:50:36Z</time>
      </trkpt>
      <trkpt lat="45.94745" lon="4.85473">
        <ele>274</ele>
        <time>2017-06-03T08:50:37Z</time>
      </trkpt>
      <trkpt lat="45.94746" lon="4.85482">
        <ele>275</ele>
        <time>2017-06-03T08:50:38Z</time>
      </trkpt>
      <trkpt lat="45.94748" lon="4.85489">
        <ele>275</ele>
        <time>2017-06-03T08:50:39Z</time>
      </trkpt>
      <trkpt lat="45.94748" lon="4.85496">
        <ele>276</ele>
        <time>2017-06-03T08:50:40Z</time>
      </trkpt>
      <trkpt lat="45.94749" lon="4.85503">
        <ele>276</ele>
        <time>2017-06-03T08:50:41Z</time>
      </trkpt>
      <trkpt lat="45.9475" lon="4.85509">
        <ele>276</ele>
        <time>2017-06-03T08:50:42Z</time>
      </trkpt>
      <trkpt lat="45.94751" lon="4.85516">
        <ele>277</ele>
        <time>2017-06-03T08:50:43Z</time>
      </trkpt>
      <trkpt lat="45.94752" lon="4.85523">
        <ele>277</ele>
        <time>2017-06-03T08:50:44Z</time>
      </trkpt>
      <trkpt lat="45.94753" lon="4.8553">
        <ele>278</ele>
        <time>2017-06-03T08:50:45Z</time>
      </trkpt>
      <trkpt lat="45.94754" lon="4.85537">
        <ele>278</ele>
        <time>2017-06-03T08:50:46Z</time>
      </trkpt>
      <trkpt lat="45.94755" lon="4.85543">
        <ele>278</ele>
        <time>2017-06-03T08:50:47Z</time>
      </trkpt>
      <trkpt lat="45.94756" lon="4.8555">
        <ele>278</ele>
        <time>2017-06-03T08:50:48Z</time>
      </trkpt>
      <trkpt lat="45.94757" lon="4.85556">
        <ele>278</ele>
        <time>2017-06-03T08:50:49Z</time>
      </trkpt>
      <trkpt lat="45.94758" lon="4.85563">
        <ele>278</ele>
        <time>2017-06-03T08:50:50Z</time>
      </trkpt>
      <trkpt lat="45.94759" lon="4.85569">
        <ele>279</ele>
        <time>2017-06-03T08:50:51Z</time>
      </trkpt>
      <trkpt lat="45.9476" lon="4.85576">
        <ele>279</ele>
        <time>2017-06-03T08:50:52Z</time>
      </trkpt>
      <trkpt lat="45.94762" lon="4.85582">
        <ele>279</ele>
        <time>2017-06-03T08:50:53Z</time>
      </trkpt>
      <trkpt lat="45.94763" lon="4.85589">
        <ele>280</ele>
        <time>2017-06-03T08:50:54Z</time>
      </trkpt>
      <trkpt lat="45.94765" lon="4.85596">
        <ele>280</ele>
        <time>2017-06-03T08:50:55Z</time>
      </trkpt>
      <trkpt lat="45.94766" lon="4.85602">
        <ele>280</ele>
        <time>2017-06-03T08:50:56Z</time>
      </trkpt>
      <trkpt lat="45.94767" lon="4.85612">
        <ele>280</ele>
        <time>2017-06-03T08:50:58Z</time>
      </trkpt>
      <trkpt lat="45.94769" lon="4.85617">
        <ele>280</ele>
        <time>2017-06-03T08:50:59Z</time>
      </trkpt>
      <trkpt lat="45.94771" lon="4.85627">
        <ele>280</ele>
        <time>2017-06-03T08:51:01Z</time>
      </trkpt>
      <trkpt lat="45.94772" lon="4.85631">
        <ele>280</ele>
        <time>2017-06-03T08:51:02Z</time>
      </trkpt>
      <trkpt lat="45.94774" lon="4.8564">
        <ele>281</ele>
        <time>2017-06-03T08:51:04Z</time>
      </trkpt>
      <trkpt lat="45.94775" lon="4.85646">
        <ele>281</ele>
        <time>2017-06-03T08:51:05Z</time>
      </trkpt>
      <trkpt lat="45.94778" lon="4.85657">
        <ele>281</ele>
        <time>2017-06-03T08:51:07Z</time>
      </trkpt>
      <trkpt lat="45.9478" lon="4.85663">
        <ele>281</ele>
        <time>2017-06-03T08:51:08Z</time>
      </trkpt>
      <trkpt lat="45.94782" lon="4.85673">
        <ele>280</ele>
        <time>2017-06-03T08:51:10Z</time>
      </trkpt>
      <trkpt lat="45.94783" lon="4.85678">
        <ele>280</ele>
        <time>2017-06-03T08:51:11Z</time>
      </trkpt>
      <trkpt lat="45.94786" lon="4.85686">
        <ele>280</ele>
        <time>2017-06-03T08:51:13Z</time>
      </trkpt>
      <trkpt lat="45.94787" lon="4.8569">
        <ele>280</ele>
        <time>2017-06-03T08:51:14Z</time>
      </trkpt>
      <trkpt lat="45.94789" lon="4.85698">
        <ele>280</ele>
        <time>2017-06-03T08:51:16Z</time>
      </trkpt>
      <trkpt lat="45.9479" lon="4.85703">
        <ele>280</ele>
        <time>2017-06-03T08:51:17Z</time>
      </trkpt>
      <trkpt lat="45.94792" lon="4.85712">
        <ele>280</ele>
        <time>2017-06-03T08:51:19Z</time>
      </trkpt>
      <trkpt lat="45.94793" lon="4.85717">
        <ele>280</ele>
        <time>2017-06-03T08:51:20Z</time>
      </trkpt>
      <trkpt lat="45.94795" lon="4.85726">
        <ele>280</ele>
        <time>2017-06-03T08:51:22Z</time>
      </trkpt>
      <trkpt lat="45.94797" lon="4.85731">
        <ele>280</ele>
        <time>2017-06-03T08:51:23Z</time>
      </trkpt>
      <trkpt lat="45.94798" lon="4.85742">
        <ele>280</ele>
        <time>2017-06-03T08:51:25Z</time>
      </trkpt>
      <trkpt lat="45.94799" lon="4.85748">
        <ele>279</ele>
        <time>2017-06-03T08:51:26Z</time>
      </trkpt>
      <trkpt lat="45.94802" lon="4.85759">
        <ele>278</ele>
        <time>2017-06-03T08:51:28Z</time>
      </trkpt>
      <trkpt lat="45.94804" lon="4.85765">
        <ele>278</ele>
        <time>2017-06-03T08:51:29Z</time>
      </trkpt>
      <trkpt lat="45.94807" lon="4.85777">
        <ele>278</ele>
        <time>2017-06-03T08:51:31Z</time>
      </trkpt>
      <trkpt lat="45.94809" lon="4.85783">
        <ele>278</ele>
        <time>2017-06-03T08:51:32Z</time>
      </trkpt>
      <trkpt lat="45.9481" lon="4.85789">
        <ele>278</ele>
        <time>2017-06-03T08:51:33Z</time>
      </trkpt>
      <trkpt lat="45.94812" lon="4.85796">
        <ele>278</ele>
        <time>2017-06-03T08:51:34Z</time>
      </trkpt>
      <trkpt lat="45.94814" lon="4.85802">
        <ele>278</ele>
        <time>2017-06-03T08:51:35Z</time>
      </trkpt>
      <trkpt lat="45.94815" lon="4.85809">
        <ele>278</ele>
        <time>2017-06-03T08:51:36Z</time>
      </trkpt>
      <trkpt lat="45.94817" lon="4.85815">
        <ele>278</ele>
        <time>2017-06-03T08:51:37Z</time>
      </trkpt>
      <trkpt lat="45.94819" lon="4.85821">
        <ele>278</ele>
        <time>2017-06-03T08:51:38Z</time>
      </trkpt>
      <trkpt lat="45.9482" lon="4.85827">
        <ele>278</ele>
        <time>2017-06-03T08:51:39Z</time>
      </trkpt>
      <trkpt lat="45.94822" lon="4.85833">
        <ele>277</ele>
        <time>2017-06-03T08:51:40Z</time>
      </trkpt>
      <trkpt lat="45.94823" lon="4.8584">
        <ele>277</ele>
        <time>2017-06-03T08:51:41Z</time>
      </trkpt>
      <trkpt lat="45.94825" lon="4.85846">
        <ele>277</ele>
        <time>2017-06-03T08:51:42Z</time>
      </trkpt>
      <trkpt lat="45.94826" lon="4.85852">
        <ele>277</ele>
        <time>2017-06-03T08:51:43Z</time>
      </trkpt>
      <trkpt lat="45.94828" lon="4.85858">
        <ele>277</ele>
        <time>2017-06-03T08:51:44Z</time>
      </trkpt>
      <trkpt lat="45.9483" lon="4.85865">
        <ele>277</ele>
        <time>2017-06-03T08:51:45Z</time>
      </trkpt>
      <trkpt lat="45.94832" lon="4.85871">
        <ele>277</ele>
        <time>2017-06-03T08:51:46Z</time>
      </trkpt>
      <trkpt lat="45.94834" lon="4.85877">
        <ele>276</ele>
        <time>2017-06-03T08:51:47Z</time>
      </trkpt>
      <trkpt lat="45.94836" lon="4.85884">
        <ele>276</ele>
        <time>2017-06-03T08:51:48Z</time>
      </trkpt>
      <trkpt lat="45.94838" lon="4.85891">
        <ele>276</ele>
        <time>2017-06-03T08:51:49Z</time>
      </trkpt>
      <trkpt lat="45.9484" lon="4.85898">
        <ele>276</ele>
        <time>2017-06-03T08:51:50Z</time>
      </trkpt>
      <trkpt lat="45.94841" lon="4.85906">
        <ele>275</ele>
        <time>2017-06-03T08:51:51Z</time>
      </trkpt>
      <trkpt lat="45.94844" lon="4.85913">
        <ele>275</ele>
        <time>2017-06-03T08:51:52Z</time>
      </trkpt>
      <trkpt lat="45.94846" lon="4.85921">
        <ele>275</ele>
        <time>2017-06-03T08:51:53Z</time>
      </trkpt>
      <trkpt lat="45.94849" lon="4.85929">
        <ele>275</ele>
        <time>2017-06-03T08:51:54Z</time>
      </trkpt>
      <trkpt lat="45.94851" lon="4.85937">
        <ele>275</ele>
        <time>2017-06-03T08:51:55Z</time>
      </trkpt>
      <trkpt lat="45.94853" lon="4.85944">
        <ele>275</ele>
        <time>2017-06-03T08:51:56Z</time>
      </trkpt>
      <trkpt lat="45.94854" lon="4.85952">
        <ele>275</ele>
        <time>2017-06-03T08:51:57Z</time>
      </trkpt>
      <trkpt lat="45.94856" lon="4.85959">
        <ele>275</ele>
        <time>2017-06-03T08:51:58Z</time>
      </trkpt>
      <trkpt lat="45.94858" lon="4.85966">
        <ele>275</ele>
        <time>2017-06-03T08:51:59Z</time>
      </trkpt>
      <trkpt lat="45.9486" lon="4.85973">
        <ele>275</ele>
        <time>2017-06-03T08:52:00Z</time>
      </trkpt>
      <trkpt lat="45.94862" lon="4.8598">
        <ele>275</ele>
        <time>2017-06-03T08:52:01Z</time>
      </trkpt>
      <trkpt lat="45.94864" lon="4.85987">
        <ele>275</ele>
        <time>2017-06-03T08:52:02Z</time>
      </trkpt>
      <trkpt lat="45.94866" lon="4.85994">
        <ele>275</ele>
        <time>2017-06-03T08:52:03Z</time>
      </trkpt>
      <trkpt lat="45.94868" lon="4.86001">
        <ele>275</ele>
        <time>2017-06-03T08:52:04Z</time>
      </trkpt>
      <trkpt lat="45.94869" lon="4.86008">
        <ele>274</ele>
        <time>2017-06-03T08:52:05Z</time>
      </trkpt>
      <trkpt lat="45.94871" lon="4.86014">
        <ele>274</ele>
        <time>2017-06-03T08:52:06Z</time>
      </trkpt>
      <trkpt lat="45.94873" lon="4.86022">
        <ele>274</ele>
        <time>2017-06-03T08:52:07Z</time>
      </trkpt>
      <trkpt lat="45.94875" lon="4.86029">
        <ele>274</ele>
        <time>2017-06-03T08:52:08Z</time>
      </trkpt>
      <trkpt lat="45.94877" lon="4.86036">
        <ele>274</ele>
        <time>2017-06-03T08:52:09Z</time>
      </trkpt>
      <trkpt lat="45.94879" lon="4.86043">
        <ele>274</ele>
        <time>2017-06-03T08:52:10Z</time>
      </trkpt>
      <trkpt lat="45.9488" lon="4.8605">
        <ele>274</ele>
        <time>2017-06-03T08:52:11Z</time>
      </trkpt>
      <trkpt lat="45.94881" lon="4.86056">
        <ele>274</ele>
        <time>2017-06-03T08:52:12Z</time>
      </trkpt>
      <trkpt lat="45.94883" lon="4.86063">
        <ele>274</ele>
        <time>2017-06-03T08:52:13Z</time>
      </trkpt>
      <trkpt lat="45.94885" lon="4.86069">
        <ele>274</ele>
        <time>2017-06-03T08:52:14Z</time>
      </trkpt>
      <trkpt lat="45.94887" lon="4.86075">
        <ele>274</ele>
        <time>2017-06-03T08:52:15Z</time>
      </trkpt>
      <trkpt lat="45.94889" lon="4.86082">
        <ele>274</ele>
        <time>2017-06-03T08:52:16Z</time>
      </trkpt>
      <trkpt lat="45.94891" lon="4.86088">
        <ele>274</ele>
        <time>2017-06-03T08:52:17Z</time>
      </trkpt>
      <trkpt lat="45.94893" lon="4.86094">
        <ele>274</ele>
        <time>2017-06-03T08:52:18Z</time>
      </trkpt>
      <trkpt lat="45.94895" lon="4.861">
        <ele>274</ele>
        <time>2017-06-03T08:52:19Z</time>
      </trkpt>
      <trkpt lat="45.94897" lon="4.86106">
        <ele>274</ele>
        <time>2017-06-03T08:52:20Z</time>
      </trkpt>
      <trkpt lat="45.94899" lon="4.86113">
        <ele>274</ele>
        <time>2017-06-03T08:52:21Z</time>
      </trkpt>
      <trkpt lat="45.94902" lon="4.86119">
        <ele>274</ele>
        <time>2017-06-03T08:52:22Z</time>
      </trkpt>
      <trkpt lat="45.94905" lon="4.86125">
        <ele>274</ele>
        <time>2017-06-03T08:52:23Z</time>
      </trkpt>
      <trkpt lat="45.94908" lon="4.86131">
        <ele>274</ele>
        <time>2017-06-03T08:52:24Z</time>
      </trkpt>
      <trkpt lat="45.94912" lon="4.86136">
        <ele>274</ele>
        <time>2017-06-03T08:52:25Z</time>
      </trkpt>
      <trkpt lat="45.94915" lon="4.86142">
        <ele>274</ele>
        <time>2017-06-03T08:52:26Z</time>
      </trkpt>
      <trkpt lat="45.94919" lon="4.86147">
        <ele>273</ele>
        <time>2017-06-03T08:52:27Z</time>
      </trkpt>
      <trkpt lat="45.94922" lon="4.86152">
        <ele>273</ele>
        <time>2017-06-03T08:52:28Z</time>
      </trkpt>
      <trkpt lat="45.94926" lon="4.86157">
        <ele>273</ele>
        <time>2017-06-03T08:52:29Z</time>
      </trkpt>
      <trkpt lat="45.94929" lon="4.86163">
        <ele>273</ele>
        <time>2017-06-03T08:52:30Z</time>
      </trkpt>
      <trkpt lat="45.94933" lon="4.86167">
        <ele>273</ele>
        <time>2017-06-03T08:52:31Z</time>
      </trkpt>
      <trkpt lat="45.94937" lon="4.86172">
        <ele>273</ele>
        <time>2017-06-03T08:52:32Z</time>
      </trkpt>
      <trkpt lat="45.94941" lon="4.86177">
        <ele>273</ele>
        <time>2017-06-03T08:52:33Z</time>
      </trkpt>
      <trkpt lat="45.94945" lon="4.86182">
        <ele>273</ele>
        <time>2017-06-03T08:52:34Z</time>
      </trkpt>
      <trkpt lat="45.94949" lon="4.86186">
        <ele>273</ele>
        <time>2017-06-03T08:52:35Z</time>
      </trkpt>
      <trkpt lat="45.94953" lon="4.86191">
        <ele>273</ele>
        <time>2017-06-03T08:52:36Z</time>
      </trkpt>
      <trkpt lat="45.94957" lon="4.86196">
        <ele>273</ele>
        <time>2017-06-03T08:52:37Z</time>
      </trkpt>
      <trkpt lat="45.9496" lon="4.86201">
        <ele>272</ele>
        <time>2017-06-03T08:52:38Z</time>
      </trkpt>
      <trkpt lat="45.94964" lon="4.86206">
        <ele>272</ele>
        <time>2017-06-03T08:52:39Z</time>
      </trkpt>
      <trkpt lat="45.94968" lon="4.86211">
        <ele>272</ele>
        <time>2017-06-03T08:52:40Z</time>
      </trkpt>
      <trkpt lat="45.94972" lon="4.86217">
        <ele>272</ele>
        <time>2017-06-03T08:52:41Z</time>
      </trkpt>
      <trkpt lat="45.94976" lon="4.86222">
        <ele>272</ele>
        <time>2017-06-03T08:52:42Z</time>
      </trkpt>
      <trkpt lat="45.9498" lon="4.86227">
        <ele>272</ele>
        <time>2017-06-03T08:52:43Z</time>
      </trkpt>
      <trkpt lat="45.94984" lon="4.86232">
        <ele>272</ele>
        <time>2017-06-03T08:52:44Z</time>
      </trkpt>
      <trkpt lat="45.94989" lon="4.86238">
        <ele>272</ele>
        <time>2017-06-03T08:52:45Z</time>
      </trkpt>
      <trkpt lat="45.94993" lon="4.86243">
        <ele>272</ele>
        <time>2017-06-03T08:52:46Z</time>
      </trkpt>
      <trkpt lat="45.94998" lon="4.86248">
        <ele>272</ele>
        <time>2017-06-03T08:52:47Z</time>
      </trkpt>
      <trkpt lat="45.95002" lon="4.86254">
        <ele>272</ele>
        <time>2017-06-03T08:52:48Z</time>
      </trkpt>
      <trkpt lat="45.95007" lon="4.8626">
        <ele>272</ele>
        <time>2017-06-03T08:52:49Z</time>
      </trkpt>
      <trkpt lat="45.95012" lon="4.86265">
        <ele>272</ele>
        <time>2017-06-03T08:52:50Z</time>
      </trkpt>
      <trkpt lat="45.95017" lon="4.86271">
        <ele>271</ele>
        <time>2017-06-03T08:52:51Z</time>
      </trkpt>
      <trkpt lat="45.95021" lon="4.86277">
        <ele>271</ele>
        <time>2017-06-03T08:52:52Z</time>
      </trkpt>
      <trkpt lat="45.95026" lon="4.86282">
        <ele>271</ele>
        <time>2017-06-03T08:52:53Z</time>
      </trkpt>
      <trkpt lat="45.95031" lon="4.86289">
        <ele>271</ele>
        <time>2017-06-03T08:52:54Z</time>
      </trkpt>
      <trkpt lat="45.95036" lon="4.86295">
        <ele>271</ele>
        <time>2017-06-03T08:52:55Z</time>
      </trkpt>
      <trkpt lat="45.95041" lon="4.86301">
        <ele>271</ele>
        <time>2017-06-03T08:52:56Z</time>
      </trkpt>
      <trkpt lat="45.95046" lon="4.86308">
        <ele>271</ele>
        <time>2017-06-03T08:52:57Z</time>
      </trkpt>
      <trkpt lat="45.95051" lon="4.86314">
        <ele>271</ele>
        <time>2017-06-03T08:52:58Z</time>
      </trkpt>
      <trkpt lat="45.95056" lon="4.8632">
        <ele>271</ele>
        <time>2017-06-03T08:52:59Z</time>
      </trkpt>
      <trkpt lat="45.95062" lon="4.86326">
        <ele>270</ele>
        <time>2017-06-03T08:53:00Z</time>
      </trkpt>
      <trkpt lat="45.95067" lon="4.86332">
        <ele>270</ele>
        <time>2017-06-03T08:53:01Z</time>
      </trkpt>
      <trkpt lat="45.95072" lon="4.86339">
        <ele>270</ele>
        <time>2017-06-03T08:53:02Z</time>
      </trkpt>
      <trkpt lat="45.95077" lon="4.86346">
        <ele>270</ele>
        <time>2017-06-03T08:53:03Z</time>
      </trkpt>
      <trkpt lat="45.95081" lon="4.86353">
        <ele>270</ele>
        <time>2017-06-03T08:53:04Z</time>
      </trkpt>
      <trkpt lat="45.95086" lon="4.86359">
        <ele>269</ele>
        <time>2017-06-03T08:53:05Z</time>
      </trkpt>
      <trkpt lat="45.95091" lon="4.86365">
        <ele>269</ele>
        <time>2017-06-03T08:53:06Z</time>
      </trkpt>
      <trkpt lat="45.95096" lon="4.8637">
        <ele>269</ele>
        <time>2017-06-03T08:53:07Z</time>
      </trkpt>
      <trkpt lat="45.95101" lon="4.86377">
        <ele>269</ele>
        <time>2017-06-03T08:53:08Z</time>
      </trkpt>
      <trkpt lat="45.95105" lon="4.86383">
        <ele>269</ele>
        <time>2017-06-03T08:53:09Z</time>
      </trkpt>
      <trkpt lat="45.9511" lon="4.86388">
        <ele>269</ele>
        <time>2017-06-03T08:53:10Z</time>
      </trkpt>
      <trkpt lat="45.95115" lon="4.86393">
        <ele>269</ele>
        <time>2017-06-03T08:53:11Z</time>
      </trkpt>
      <trkpt lat="45.95119" lon="4.86398">
        <ele>269</ele>
        <time>2017-06-03T08:53:12Z</time>
      </trkpt>
      <trkpt lat="45.95124" lon="4.86404">
        <ele>269</ele>
        <time>2017-06-03T08:53:13Z</time>
      </trkpt>
      <trkpt lat="45.95128" lon="4.86409">
        <ele>268</ele>
        <time>2017-06-03T08:53:14Z</time>
      </trkpt>
      <trkpt lat="45.95133" lon="4.86414">
        <ele>268</ele>
        <time>2017-06-03T08:53:15Z</time>
      </trkpt>
      <trkpt lat="45.95137" lon="4.8642">
        <ele>269</ele>
        <time>2017-06-03T08:53:16Z</time>
      </trkpt>
      <trkpt lat="45.95142" lon="4.86425">
        <ele>269</ele>
        <time>2017-06-03T08:53:17Z</time>
      </trkpt>
      <trkpt lat="45.95146" lon="4.86429">
        <ele>268</ele>
        <time>2017-06-03T08:53:18Z</time>
      </trkpt>
      <trkpt lat="45.9515" lon="4.86434">
        <ele>268</ele>
        <time>2017-06-03T08:53:19Z</time>
      </trkpt>
      <trkpt lat="45.95154" lon="4.86439">
        <ele>268</ele>
        <time>2017-06-03T08:53:20Z</time>
      </trkpt>
      <trkpt lat="45.95158" lon="4.86445">
        <ele>269</ele>
        <time>2017-06-03T08:53:21Z</time>
      </trkpt>
      <trkpt lat="45.95162" lon="4.8645">
        <ele>269</ele>
        <time>2017-06-03T08:53:22Z</time>
      </trkpt>
      <trkpt lat="45.95167" lon="4.86456">
        <ele>268</ele>
        <time>2017-06-03T08:53:23Z</time>
      </trkpt>
      <trkpt lat="45.95172" lon="4.86462">
        <ele>268</ele>
        <time>2017-06-03T08:53:24Z</time>
      </trkpt>
      <trkpt lat="45.95176" lon="4.86468">
        <ele>268</ele>
        <time>2017-06-03T08:53:25Z</time>
      </trkpt>
      <trkpt lat="45.95181" lon="4.86474">
        <ele>268</ele>
        <time>2017-06-03T08:53:26Z</time>
      </trkpt>
      <trkpt lat="45.95186" lon="4.86479">
        <ele>268</ele>
        <time>2017-06-03T08:53:27Z</time>
      </trkpt>
      <trkpt lat="45.95191" lon="4.86485">
        <ele>268</ele>
        <time>2017-06-03T08:53:28Z</time>
      </trkpt>
      <trkpt lat="45.95197" lon="4.86491">
        <ele>268</ele>
        <time>2017-06-03T08:53:29Z</time>
      </trkpt>
      <trkpt lat="45.95202" lon="4.86498">
        <ele>268</ele>
        <time>2017-06-03T08:53:30Z</time>
      </trkpt>
      <trkpt lat="45.95208" lon="4.86505">
        <ele>268</ele>
        <time>2017-06-03T08:53:31Z</time>
      </trkpt>
      <trkpt lat="45.95214" lon="4.86512">
        <ele>268</ele>
        <time>2017-06-03T08:53:32Z</time>
      </trkpt>
      <trkpt lat="45.95219" lon="4.86519">
        <ele>268</ele>
        <time>2017-06-03T08:53:33Z</time>
      </trkpt>
      <trkpt lat="45.95225" lon="4.86526">
        <ele>268</ele>
        <time>2017-06-03T08:53:34Z</time>
      </trkpt>
      <trkpt lat="45.95231" lon="4.86533">
        <ele>268</ele>
        <time>2017-06-03T08:53:35Z</time>
      </trkpt>
      <trkpt lat="45.95237" lon="4.86539">
        <ele>268</ele>
        <time>2017-06-03T08:53:36Z</time>
      </trkpt>
      <trkpt lat="45.95242" lon="4.86545">
        <ele>268</ele>
        <time>2017-06-03T08:53:37Z</time>
      </trkpt>
      <trkpt lat="45.95248" lon="4.86551">
        <ele>268</ele>
        <time>2017-06-03T08:53:38Z</time>
      </trkpt>
      <trkpt lat="45.95253" lon="4.86557">
        <ele>267</ele>
        <time>2017-06-03T08:53:39Z</time>
      </trkpt>
      <trkpt lat="45.95257" lon="4.86563">
        <ele>267</ele>
        <time>2017-06-03T08:53:40Z</time>
      </trkpt>
      <trkpt lat="45.95258" lon="4.86569">
        <ele>267</ele>
        <time>2017-06-03T08:53:41Z</time>
      </trkpt>
      <trkpt lat="45.95255" lon="4.86578">
        <ele>268</ele>
        <time>2017-06-03T08:53:42Z</time>
      </trkpt>
      <trkpt lat="45.95251" lon="4.86584">
        <ele>268</ele>
        <time>2017-06-03T08:53:43Z</time>
      </trkpt>
      <trkpt lat="45.95247" lon="4.86586">
        <ele>268</ele>
        <time>2017-06-03T08:53:44Z</time>
      </trkpt>
      <trkpt lat="45.95239" lon="4.86585">
        <ele>268</ele>
        <time>2017-06-03T08:53:46Z</time>
      </trkpt>
      <trkpt lat="45.95234" lon="4.86584">
        <ele>269</ele>
        <time>2017-06-03T08:53:47Z</time>
      </trkpt>
      <trkpt lat="45.95229" lon="4.86583">
        <ele>268</ele>
        <time>2017-06-03T08:53:48Z</time>
      </trkpt>
      <trkpt lat="45.95225" lon="4.86582">
        <ele>268</ele>
        <time>2017-06-03T08:53:49Z</time>
      </trkpt>
      <trkpt lat="45.9522" lon="4.86581">
        <ele>268</ele>
        <time>2017-06-03T08:53:50Z</time>
      </trkpt>
      <trkpt lat="45.95216" lon="4.8658">
        <ele>268</ele>
        <time>2017-06-03T08:53:51Z</time>
      </trkpt>
      <trkpt lat="45.95207" lon="4.86577">
        <ele>268</ele>
        <time>2017-06-03T08:53:53Z</time>
      </trkpt>
      <trkpt lat="45.95202" lon="4.86577">
        <ele>268</ele>
        <time>2017-06-03T08:53:54Z</time>
      </trkpt>
      <trkpt lat="45.95197" lon="4.86578">
        <ele>268</ele>
        <time>2017-06-03T08:53:55Z</time>
      </trkpt>
      <trkpt lat="45.95193" lon="4.86579">
        <ele>269</ele>
        <time>2017-06-03T08:53:56Z</time>
      </trkpt>
      <trkpt lat="45.95188" lon="4.86579">
        <ele>269</ele>
        <time>2017-06-03T08:53:57Z</time>
      </trkpt>
      <trkpt lat="45.95183" lon="4.86579">
        <ele>269</ele>
        <time>2017-06-03T08:53:58Z</time>
      </trkpt>
      <trkpt lat="45.95179" lon="4.86579">
        <ele>269</ele>
        <time>2017-06-03T08:53:59Z</time>
      </trkpt>
      <trkpt lat="45.95174" lon="4.86579">
        <ele>269</ele>
        <time>2017-06-03T08:54:00Z</time>
      </trkpt>
      <trkpt lat="45.95166" lon="4.86579">
        <ele>269</ele>
        <time>2017-06-03T08:54:02Z</time>
      </trkpt>
      <trkpt lat="45.95163" lon="4.8658">
        <ele>269</ele>
        <time>2017-06-03T08:54:03Z</time>
      </trkpt>
      <trkpt lat="45.95156" lon="4.86581">
        <ele>269</ele>
        <time>2017-06-03T08:54:05Z</time>
      </trkpt>
      <trkpt lat="45.95152" lon="4.86581">
        <ele>269</ele>
        <time>2017-06-03T08:54:06Z</time>
      </trkpt>
      <trkpt lat="45.95145" lon="4.86583">
        <ele>270</ele>
        <time>2017-06-03T08:54:08Z</time>
      </trkpt>
      <trkpt lat="45.95142" lon="4.86584">
        <ele>270</ele>
        <time>2017-06-03T08:54:09Z</time>
      </trkpt>
      <trkpt lat="45.95135" lon="4.86585">
        <ele>270</ele>
        <time>2017-06-03T08:54:11Z</time>
      </trkpt>
      <trkpt lat="45.95131" lon="4.86585">
        <ele>270</ele>
        <time>2017-06-03T08:54:12Z</time>
      </trkpt>
      <trkpt lat="45.95124" lon="4.86586">
        <ele>270</ele>
        <time>2017-06-03T08:54:14Z</time>
      </trkpt>
      <trkpt lat="45.9512" lon="4.86587">
        <ele>270</ele>
        <time>2017-06-03T08:54:15Z</time>
      </trkpt>
      <trkpt lat="45.95113" lon="4.86587">
        <ele>270</ele>
        <time>2017-06-03T08:54:17Z</time>
      </trkpt>
      <trkpt lat="45.9511" lon="4.86587">
        <ele>271</ele>
        <time>2017-06-03T08:54:18Z</time>
      </trkpt>
      <trkpt lat="45.95103" lon="4.86588">
        <ele>271</ele>
        <time>2017-06-03T08:54:20Z</time>
      </trkpt>
      <trkpt lat="45.951" lon="4.86589">
        <ele>271</ele>
        <time>2017-06-03T08:54:21Z</time>
      </trkpt>
      <trkpt lat="45.95093" lon="4.86589">
        <ele>271</ele>
        <time>2017-06-03T08:54:23Z</time>
      </trkpt>
      <trkpt lat="45.95089" lon="4.8659">
        <ele>271</ele>
        <time>2017-06-03T08:54:24Z</time>
      </trkpt>
      <trkpt lat="45.95083" lon="4.86589">
        <ele>271</ele>
        <time>2017-06-03T08:54:26Z</time>
      </trkpt>
      <trkpt lat="45.95079" lon="4.86589">
        <ele>271</ele>
        <time>2017-06-03T08:54:27Z</time>
      </trkpt>
      <trkpt lat="45.95073" lon="4.86592">
        <ele>272</ele>
        <time>2017-06-03T08:54:29Z</time>
      </trkpt>
      <trkpt lat="45.9507" lon="4.86592">
        <ele>272</ele>
        <time>2017-06-03T08:54:30Z</time>
      </trkpt>
      <trkpt lat="45.95063" lon="4.86593">
        <ele>272</ele>
        <time>2017-06-03T08:54:32Z</time>
      </trkpt>
      <trkpt lat="45.95061" lon="4.86594">
        <ele>272</ele>
        <time>2017-06-03T08:54:33Z</time>
      </trkpt>
      <trkpt lat="45.95055" lon="4.86598">
        <ele>272</ele>
        <time>2017-06-03T08:54:35Z</time>
      </trkpt>
      <trkpt lat="45.95052" lon="4.86599">
        <ele>272</ele>
        <time>2017-06-03T08:54:36Z</time>
      </trkpt>
      <trkpt lat="45.95046" lon="4.86601">
        <ele>272</ele>
        <time>2017-06-03T08:54:38Z</time>
      </trkpt>
      <trkpt lat="45.95043" lon="4.86602">
        <ele>272</ele>
        <time>2017-06-03T08:54:39Z</time>
      </trkpt>
      <trkpt lat="45.95034" lon="4.86605">
        <ele>273</ele>
        <time>2017-06-03T08:54:42Z</time>
      </trkpt>
      <trkpt lat="45.95031" lon="4.86605">
        <ele>273</ele>
        <time>2017-06-03T08:54:43Z</time>
      </trkpt>
      <trkpt lat="45.95025" lon="4.86607">
        <ele>273</ele>
        <time>2017-06-03T08:54:45Z</time>
      </trkpt>
      <trkpt lat="45.95022" lon="4.86607">
        <ele>273</ele>
        <time>2017-06-03T08:54:46Z</time>
      </trkpt>
      <trkpt lat="45.95016" lon="4.86608">
        <ele>273</ele>
        <time>2017-06-03T08:54:48Z</time>
      </trkpt>
      <trkpt lat="45.95013" lon="4.86608">
        <ele>273</ele>
        <time>2017-06-03T08:54:49Z</time>
      </trkpt>
      <trkpt lat="45.95004" lon="4.8661">
        <ele>273</ele>
        <time>2017-06-03T08:54:52Z</time>
      </trkpt>
      <trkpt lat="45.95001" lon="4.8661">
        <ele>273</ele>
        <time>2017-06-03T08:54:53Z</time>
      </trkpt>
      <trkpt lat="45.94992" lon="4.86612">
        <ele>275</ele>
        <time>2017-06-03T08:54:56Z</time>
      </trkpt>
      <trkpt lat="45.9499" lon="4.86612">
        <ele>275</ele>
        <time>2017-06-03T08:54:57Z</time>
      </trkpt>
      <trkpt lat="45.94981" lon="4.86614">
        <ele>275</ele>
        <time>2017-06-03T08:55:00Z</time>
      </trkpt>
      <trkpt lat="45.94978" lon="4.86615">
        <ele>275</ele>
        <time>2017-06-03T08:55:01Z</time>
      </trkpt>
      <trkpt lat="45.94969" lon="4.86618">
        <ele>275</ele>
        <time>2017-06-03T08:55:04Z</time>
      </trkpt>
      <trkpt lat="45.94966" lon="4.8662">
        <ele>275</ele>
        <time>2017-06-03T08:55:05Z</time>
      </trkpt>
      <trkpt lat="45.9496" lon="4.86624">
        <ele>275</ele>
        <time>2017-06-03T08:55:07Z</time>
      </trkpt>
      <trkpt lat="45.94958" lon="4.86626">
        <ele>276</ele>
        <time>2017-06-03T08:55:08Z</time>
      </trkpt>
      <trkpt lat="45.94952" lon="4.8663">
        <ele>276</ele>
        <time>2017-06-03T08:55:10Z</time>
      </trkpt>
      <trkpt lat="45.9495" lon="4.86634">
        <ele>276</ele>
        <time>2017-06-03T08:55:11Z</time>
      </trkpt>
      <trkpt lat="45.94946" lon="4.86642">
        <ele>276</ele>
        <time>2017-06-03T08:55:13Z</time>
      </trkpt>
      <trkpt lat="45.94944" lon="4.86647">
        <ele>276</ele>
        <time>2017-06-03T08:55:14Z</time>
      </trkpt>
      <trkpt lat="45.9494" lon="4.86656">
        <ele>276</ele>
        <time>2017-06-03T08:55:16Z</time>
      </trkpt>
      <trkpt lat="45.9494" lon="4.86661">
        <ele>276</ele>
        <time>2017-06-03T08:55:17Z</time>
      </trkpt>
      <trkpt lat="45.94939" lon="4.86673">
        <ele>276</ele>
        <time>2017-06-03T08:55:19Z</time>
      </trkpt>
      <trkpt lat="45.94939" lon="4.86679">
        <ele>276</ele>
        <time>2017-06-03T08:55:20Z</time>
      </trkpt>
      <trkpt lat="45.9494" lon="4.8669">
        <ele>276</ele>
        <time>2017-06-03T08:55:22Z</time>
      </trkpt>
      <trkpt lat="45.94941" lon="4.86696">
        <ele>276</ele>
        <time>2017-06-03T08:55:23Z</time>
      </trkpt>
      <trkpt lat="45.94943" lon="4.86706">
        <ele>275</ele>
        <time>2017-06-03T08:55:25Z</time>
      </trkpt>
      <trkpt lat="45.94944" lon="4.86712">
        <ele>275</ele>
        <time>2017-06-03T08:55:26Z</time>
      </trkpt>
      <trkpt lat="45.94946" lon="4.86719">
        <ele>275</ele>
        <time>2017-06-03T08:55:27Z</time>
      </trkpt>
      <trkpt lat="45.94948" lon="4.86725">
        <ele>275</ele>
        <time>2017-06-03T08:55:28Z</time>
      </trkpt>
      <trkpt lat="45.94952" lon="4.86735">
        <ele>275</ele>
        <time>2017-06-03T08:55:30Z</time>
      </trkpt>
      <trkpt lat="45.94954" lon="4.8674">
        <ele>275</ele>
        <time>2017-06-03T08:55:31Z</time>
      </trkpt>
      <trkpt lat="45.94958" lon="4.8675">
        <ele>275</ele>
        <time>2017-06-03T08:55:33Z</time>
      </trkpt>
      <trkpt lat="45.9496" lon="4.86754">
        <ele>275</ele>
        <time>2017-06-03T08:55:34Z</time>
      </trkpt>
      <trkpt lat="45.94965" lon="4.86764">
        <ele>275</ele>
        <time>2017-06-03T08:55:36Z</time>
      </trkpt>
      <trkpt lat="45.94968" lon="4.86769">
        <ele>275</ele>
        <time>2017-06-03T08:55:37Z</time>
      </trkpt>
      <trkpt lat="45.94971" lon="4.86774">
        <ele>275</ele>
        <time>2017-06-03T08:55:38Z</time>
      </trkpt>
      <trkpt lat="45.94974" lon="4.86779">
        <ele>275</ele>
        <time>2017-06-03T08:55:39Z</time>
      </trkpt>
      <trkpt lat="45.94977" lon="4.86784">
        <ele>275</ele>
        <time>2017-06-03T08:55:40Z</time>
      </trkpt>
      <trkpt lat="45.9498" lon="4.86789">
        <ele>276</ele>
        <time>2017-06-03T08:55:41Z</time>
      </trkpt>
      <trkpt lat="45.94985" lon="4.86799">
        <ele>276</ele>
        <time>2017-06-03T08:55:43Z</time>
      </trkpt>
      <trkpt lat="45.94988" lon="4.86804">
        <ele>276</ele>
        <time>2017-06-03T08:55:44Z</time>
      </trkpt>
      <trkpt lat="45.94991" lon="4.86809">
        <ele>276</ele>
        <time>2017-06-03T08:55:45Z</time>
      </trkpt>
      <trkpt lat="45.94994" lon="4.86815">
        <ele>276</ele>
        <time>2017-06-03T08:55:46Z</time>
      </trkpt>
      <trkpt lat="45.94996" lon="4.86821">
        <ele>276</ele>
        <time>2017-06-03T08:55:47Z</time>
      </trkpt>
      <trkpt lat="45.94999" lon="4.86826">
        <ele>276</ele>
        <time>2017-06-03T08:55:48Z</time>
      </trkpt>
      <trkpt lat="45.95001" lon="4.86833">
        <ele>276</ele>
        <time>2017-06-03T08:55:49Z</time>
      </trkpt>
      <trkpt lat="45.95004" lon="4.86838">
        <ele>276</ele>
        <time>2017-06-03T08:55:50Z</time>
      </trkpt>
      <trkpt lat="45.95006" lon="4.86844">
        <ele>276</ele>
        <time>2017-06-03T08:55:51Z</time>
      </trkpt>
      <trkpt lat="45.95008" lon="4.8685">
        <ele>275</ele>
        <time>2017-06-03T08:55:52Z</time>
      </trkpt>
      <trkpt lat="45.95011" lon="4.86856">
        <ele>275</ele>
        <time>2017-06-03T08:55:53Z</time>
      </trkpt>
      <trkpt lat="45.95013" lon="4.86862">
        <ele>275</ele>
        <time>2017-06-03T08:55:54Z</time>
      </trkpt>
      <trkpt lat="45.95015" lon="4.86868">
        <ele>275</ele>
        <time>2017-06-03T08:55:55Z</time>
      </trkpt>
      <trkpt lat="45.95017" lon="4.86874">
        <ele>275</ele>
        <time>2017-06-03T08:55:56Z</time>
      </trkpt>
      <trkpt lat="45.95019" lon="4.8688">
        <ele>275</ele>
        <time>2017-06-03T08:55:57Z</time>
      </trkpt>
      <trkpt lat="45.95021" lon="4.86886">
        <ele>275</ele>
        <time>2017-06-03T08:55:58Z</time>
      </trkpt>
      <trkpt lat="45.95022" lon="4.86893">
        <ele>275</ele>
        <time>2017-06-03T08:55:59Z</time>
      </trkpt>
      <trkpt lat="45.95024" lon="4.86899">
        <ele>275</ele>
        <time>2017-06-03T08:56:00Z</time>
      </trkpt>
      <trkpt lat="45.95026" lon="4.86906">
        <ele>275</ele>
        <time>2017-06-03T08:56:01Z</time>
      </trkpt>
      <trkpt lat="45.95028" lon="4.86912">
        <ele>275</ele>
        <time>2017-06-03T08:56:02Z</time>
      </trkpt>
      <trkpt lat="45.9503" lon="4.86919">
        <ele>276</ele>
        <time>2017-06-03T08:56:03Z</time>
      </trkpt>
      <trkpt lat="45.95032" lon="4.86925">
        <ele>276</ele>
        <time>2017-06-03T08:56:04Z</time>
      </trkpt>
      <trkpt lat="45.95033" lon="4.86931">
        <ele>276</ele>
        <time>2017-06-03T08:56:05Z</time>
      </trkpt>
      <trkpt lat="45.95035" lon="4.86937">
        <ele>276</ele>
        <time>2017-06-03T08:56:06Z</time>
      </trkpt>
      <trkpt lat="45.95038" lon="4.86948">
        <ele>276</ele>
        <time>2017-06-03T08:56:08Z</time>
      </trkpt>
      <trkpt lat="45.95039" lon="4.86953">
        <ele>276</ele>
        <time>2017-06-03T08:56:09Z</time>
      </trkpt>
      <trkpt lat="45.95043" lon="4.86962">
        <ele>276</ele>
        <time>2017-06-03T08:56:11Z</time>
      </trkpt>
      <trkpt lat="45.95044" lon="4.86967">
        <ele>276</ele>
        <time>2017-06-03T08:56:12Z</time>
      </trkpt>
      <trkpt lat="45.95046" lon="4.86976">
        <ele>276</ele>
        <time>2017-06-03T08:56:14Z</time>
      </trkpt>
      <trkpt lat="45.95047" lon="4.8698">
        <ele>276</ele>
        <time>2017-06-03T08:56:15Z</time>
      </trkpt>
      <trkpt lat="45.95051" lon="4.86989">
        <ele>276</ele>
        <time>2017-06-03T08:56:17Z</time>
      </trkpt>
      <trkpt lat="45.95053" lon="4.86994">
        <ele>276</ele>
        <time>2017-06-03T08:56:18Z</time>
      </trkpt>
      <trkpt lat="45.95058" lon="4.87003">
        <ele>277</ele>
        <time>2017-06-03T08:56:20Z</time>
      </trkpt>
      <trkpt lat="45.95061" lon="4.87008">
        <ele>277</ele>
        <time>2017-06-03T08:56:21Z</time>
      </trkpt>
      <trkpt lat="45.95063" lon="4.87013">
        <ele>277</ele>
        <time>2017-06-03T08:56:22Z</time>
      </trkpt>
      <trkpt lat="45.95066" lon="4.87019">
        <ele>277</ele>
        <time>2017-06-03T08:56:23Z</time>
      </trkpt>
      <trkpt lat="45.95069" lon="4.87024">
        <ele>277</ele>
        <time>2017-06-03T08:56:24Z</time>
      </trkpt>
      <trkpt lat="45.95073" lon="4.8703">
        <ele>277</ele>
        <time>2017-06-03T08:56:25Z</time>
      </trkpt>
      <trkpt lat="45.95076" lon="4.87036">
        <ele>277</ele>
        <time>2017-06-03T08:56:26Z</time>
      </trkpt>
      <trkpt lat="45.95079" lon="4.87041">
        <ele>277</ele>
        <time>2017-06-03T08:56:27Z</time>
      </trkpt>
      <trkpt lat="45.95082" lon="4.87046">
        <ele>277</ele>
        <time>2017-06-03T08:56:28Z</time>
      </trkpt>
      <trkpt lat="45.95085" lon="4.87052">
        <ele>277</ele>
        <time>2017-06-03T08:56:29Z</time>
      </trkpt>
      <trkpt lat="45.95088" lon="4.87062">
        <ele>277</ele>
        <time>2017-06-03T08:56:31Z</time>
      </trkpt>
      <trkpt lat="45.95091" lon="4.87066">
        <ele>277</ele>
        <time>2017-06-03T08:56:32Z</time>
      </trkpt>
      <trkpt lat="45.95095" lon="4.87076">
        <ele>277</ele>
        <time>2017-06-03T08:56:34Z</time>
      </trkpt>
      <trkpt lat="45.95097" lon="4.87082">
        <ele>277</ele>
        <time>2017-06-03T08:56:35Z</time>
      </trkpt>
      <trkpt lat="45.951" lon="4.87093">
        <ele>277</ele>
        <time>2017-06-03T08:56:37Z</time>
      </trkpt>
      <trkpt lat="45.95101" lon="4.87099">
        <ele>277</ele>
        <time>2017-06-03T08:56:38Z</time>
      </trkpt>
      <trkpt lat="45.95104" lon="4.8711">
        <ele>277</ele>
        <time>2017-06-03T08:56:40Z</time>
      </trkpt>
      <trkpt lat="45.95106" lon="4.87115">
        <ele>277</ele>
        <time>2017-06-03T08:56:41Z</time>
      </trkpt>
      <trkpt lat="45.95109" lon="4.87125">
        <ele>277</ele>
        <time>2017-06-03T08:56:43Z</time>
      </trkpt>
      <trkpt lat="45.95111" lon="4.8713">
        <ele>277</ele>
        <time>2017-06-03T08:56:44Z</time>
      </trkpt>
      <trkpt lat="45.95113" lon="4.8714">
        <ele>277</ele>
        <time>2017-06-03T08:56:46Z</time>
      </trkpt>
      <trkpt lat="45.95114" lon="4.87146">
        <ele>277</ele>
        <time>2017-06-03T08:56:47Z</time>
      </trkpt>
      <trkpt lat="45.95117" lon="4.87158">
        <ele>277</ele>
        <time>2017-06-03T08:56:49Z</time>
      </trkpt>
      <trkpt lat="45.95118" lon="4.87165">
        <ele>277</ele>
        <time>2017-06-03T08:56:50Z</time>
      </trkpt>
      <trkpt lat="45.95118" lon="4.87172">
        <ele>277</ele>
        <time>2017-06-03T08:56:51Z</time>
      </trkpt>
      <trkpt lat="45.95119" lon="4.87179">
        <ele>277</ele>
        <time>2017-06-03T08:56:52Z</time>
      </trkpt>
      <trkpt lat="45.95121" lon="4.87185">
        <ele>276</ele>
        <time>2017-06-03T08:56:53Z</time>
      </trkpt>
      <trkpt lat="45.95122" lon="4.87193">
        <ele>276</ele>
        <time>2017-06-03T08:56:54Z</time>
      </trkpt>
      <trkpt lat="45.95124" lon="4.872">
        <ele>276</ele>
        <time>2017-06-03T08:56:55Z</time>
      </trkpt>
      <trkpt lat="45.95126" lon="4.87208">
        <ele>276</ele>
        <time>2017-06-03T08:56:56Z</time>
      </trkpt>
      <trkpt lat="45.95128" lon="4.87216">
        <ele>276</ele>
        <time>2017-06-03T08:56:57Z</time>
      </trkpt>
      <trkpt lat="45.9513" lon="4.87224">
        <ele>276</ele>
        <time>2017-06-03T08:56:58Z</time>
      </trkpt>
      <trkpt lat="45.95132" lon="4.87234">
        <ele>276</ele>
        <time>2017-06-03T08:56:59Z</time>
      </trkpt>
      <trkpt lat="45.95135" lon="4.87243">
        <ele>276</ele>
        <time>2017-06-03T08:57:00Z</time>
      </trkpt>
      <trkpt lat="45.95136" lon="4.87251">
        <ele>275</ele>
        <time>2017-06-03T08:57:01Z</time>
      </trkpt>
      <trkpt lat="45.95138" lon="4.87261">
        <ele>275</ele>
        <time>2017-06-03T08:57:02Z</time>
      </trkpt>
      <trkpt lat="45.9514" lon="4.87271">
        <ele>274</ele>
        <time>2017-06-03T08:57:03Z</time>
      </trkpt>
      <trkpt lat="45.95143" lon="4.87282">
        <ele>274</ele>
        <time>2017-06-03T08:57:04Z</time>
      </trkpt>
      <trkpt lat="45.95145" lon="4.87292">
        <ele>274</ele>
        <time>2017-06-03T08:57:05Z</time>
      </trkpt>
      <trkpt lat="45.95147" lon="4.87301">
        <ele>274</ele>
        <time>2017-06-03T08:57:06Z</time>
      </trkpt>
      <trkpt lat="45.95149" lon="4.87311">
        <ele>274</ele>
        <time>2017-06-03T08:57:07Z</time>
      </trkpt>
      <trkpt lat="45.95151" lon="4.8732">
        <ele>273</ele>
        <time>2017-06-03T08:57:08Z</time>
      </trkpt>
      <trkpt lat="45.95154" lon="4.8733">
        <ele>273</ele>
        <time>2017-06-03T08:57:09Z</time>
      </trkpt>
      <trkpt lat="45.95155" lon="4.8734">
        <ele>272</ele>
        <time>2017-06-03T08:57:10Z</time>
      </trkpt>
      <trkpt lat="45.95157" lon="4.8735">
        <ele>272</ele>
        <time>2017-06-03T08:57:11Z</time>
      </trkpt>
      <trkpt lat="45.95159" lon="4.87359">
        <ele>272</ele>
        <time>2017-06-03T08:57:12Z</time>
      </trkpt>
      <trkpt lat="45.95161" lon="4.87368">
        <ele>272</ele>
        <time>2017-06-03T08:57:13Z</time>
      </trkpt>
      <trkpt lat="45.95163" lon="4.87377">
        <ele>272</ele>
        <time>2017-06-03T08:57:14Z</time>
      </trkpt>
      <trkpt lat="45.95165" lon="4.87385">
        <ele>272</ele>
        <time>2017-06-03T08:57:15Z</time>
      </trkpt>
      <trkpt lat="45.95167" lon="4.87393">
        <ele>272</ele>
        <time>2017-06-03T08:57:16Z</time>
      </trkpt>
      <trkpt lat="45.95168" lon="4.87399">
        <ele>271</ele>
        <time>2017-06-03T08:57:17Z</time>
      </trkpt>
      <trkpt lat="45.9517" lon="4.87406">
        <ele>271</ele>
        <time>2017-06-03T08:57:18Z</time>
      </trkpt>
      <trkpt lat="45.95173" lon="4.87414">
        <ele>271</ele>
        <time>2017-06-03T08:57:19Z</time>
      </trkpt>
      <trkpt lat="45.95175" lon="4.87421">
        <ele>271</ele>
        <time>2017-06-03T08:57:20Z</time>
      </trkpt>
      <trkpt lat="45.95176" lon="4.87429">
        <ele>271</ele>
        <time>2017-06-03T08:57:21Z</time>
      </trkpt>
      <trkpt lat="45.95178" lon="4.87437">
        <ele>271</ele>
        <time>2017-06-03T08:57:22Z</time>
      </trkpt>
      <trkpt lat="45.9518" lon="4.87445">
        <ele>272</ele>
        <time>2017-06-03T08:57:23Z</time>
      </trkpt>
      <trkpt lat="45.95182" lon="4.87453">
        <ele>272</ele>
        <time>2017-06-03T08:57:24Z</time>
      </trkpt>
      <trkpt lat="45.95184" lon="4.87461">
        <ele>272</ele>
        <time>2017-06-03T08:57:25Z</time>
      </trkpt>
      <trkpt lat="45.95186" lon="4.87468">
        <ele>272</ele>
        <time>2017-06-03T08:57:26Z</time>
      </trkpt>
      <trkpt lat="45.95188" lon="4.87475">
        <ele>272</ele>
        <time>2017-06-03T08:57:27Z</time>
      </trkpt>
      <trkpt lat="45.9519" lon="4.87482">
        <ele>272</ele>
        <time>2017-06-03T08:57:28Z</time>
      </trkpt>
      <trkpt lat="45.95192" lon="4.87488">
        <ele>272</ele>
        <time>2017-06-03T08:57:29Z</time>
      </trkpt>
      <trkpt lat="45.95193" lon="4.87494">
        <ele>272</ele>
        <time>2017-06-03T08:57:30Z</time>
      </trkpt>
      <trkpt lat="45.95195" lon="4.87504">
        <ele>273</ele>
        <time>2017-06-03T08:57:32Z</time>
      </trkpt>
      <trkpt lat="45.95196" lon="4.8751">
        <ele>273</ele>
        <time>2017-06-03T08:57:33Z</time>
      </trkpt>
      <trkpt lat="45.95197" lon="4.87516">
        <ele>273</ele>
        <time>2017-06-03T08:57:34Z</time>
      </trkpt>
      <trkpt lat="45.95198" lon="4.87523">
        <ele>274</ele>
        <time>2017-06-03T08:57:35Z</time>
      </trkpt>
      <trkpt lat="45.95199" lon="4.87529">
        <ele>274</ele>
        <time>2017-06-03T08:57:36Z</time>
      </trkpt>
      <trkpt lat="45.952" lon="4.87537">
        <ele>274</ele>
        <time>2017-06-03T08:57:37Z</time>
      </trkpt>
      <trkpt lat="45.95202" lon="4.87545">
        <ele>274</ele>
        <time>2017-06-03T08:57:38Z</time>
      </trkpt>
      <trkpt lat="45.95203" lon="4.87553">
        <ele>274</ele>
        <time>2017-06-03T08:57:39Z</time>
      </trkpt>
      <trkpt lat="45.95204" lon="4.8756">
        <ele>274</ele>
        <time>2017-06-03T08:57:40Z</time>
      </trkpt>
      <trkpt lat="45.95204" lon="4.87566">
        <ele>274</ele>
        <time>2017-06-03T08:57:41Z</time>
      </trkpt>
      <trkpt lat="45.95206" lon="4.87579">
        <ele>274</ele>
        <time>2017-06-03T08:57:43Z</time>
      </trkpt>
      <trkpt lat="45.95206" lon="4.87585">
        <ele>276</ele>
        <time>2017-06-03T08:57:44Z</time>
      </trkpt>
      <trkpt lat="45.95206" lon="4.87592">
        <ele>276</ele>
        <time>2017-06-03T08:57:45Z</time>
      </trkpt>
      <trkpt lat="45.95206" lon="4.87598">
        <ele>276</ele>
        <time>2017-06-03T08:57:46Z</time>
      </trkpt>
      <trkpt lat="45.95207" lon="4.87611">
        <ele>276</ele>
        <time>2017-06-03T08:57:48Z</time>
      </trkpt>
      <trkpt lat="45.95207" lon="4.87618">
        <ele>276</ele>
        <time>2017-06-03T08:57:49Z</time>
      </trkpt>
      <trkpt lat="45.95208" lon="4.87624">
        <ele>276</ele>
        <time>2017-06-03T08:57:50Z</time>
      </trkpt>
      <trkpt lat="45.95209" lon="4.87631">
        <ele>276</ele>
        <time>2017-06-03T08:57:51Z</time>
      </trkpt>
      <trkpt lat="45.95209" lon="4.87638">
        <ele>276</ele>
        <time>2017-06-03T08:57:52Z</time>
      </trkpt>
      <trkpt lat="45.95211" lon="4.87645">
        <ele>276</ele>
        <time>2017-06-03T08:57:53Z</time>
      </trkpt>
      <trkpt lat="45.95212" lon="4.87653">
        <ele>277</ele>
        <time>2017-06-03T08:57:54Z</time>
      </trkpt>
      <trkpt lat="45.95213" lon="4.8766">
        <ele>277</ele>
        <time>2017-06-03T08:57:55Z</time>
      </trkpt>
      <trkpt lat="45.95215" lon="4.87672">
        <ele>279</ele>
        <time>2017-06-03T08:57:57Z</time>
      </trkpt>
      <trkpt lat="45.95216" lon="4.87677">
        <ele>279</ele>
        <time>2017-06-03T08:57:58Z</time>
      </trkpt>
      <trkpt lat="45.95218" lon="4.87688">
        <ele>279</ele>
        <time>2017-06-03T08:58:00Z</time>
      </trkpt>
      <trkpt lat="45.95219" lon="4.87693">
        <ele>279</ele>
        <time>2017-06-03T08:58:01Z</time>
      </trkpt>
      <trkpt lat="45.95221" lon="4.87705">
        <ele>279</ele>
        <time>2017-06-03T08:58:03Z</time>
      </trkpt>
      <trkpt lat="45.95222" lon="4.87711">
        <ele>279</ele>
        <time>2017-06-03T08:58:04Z</time>
      </trkpt>
      <trkpt lat="45.95224" lon="4.87723">
        <ele>280</ele>
        <time>2017-06-03T08:58:06Z</time>
      </trkpt>
      <trkpt lat="45.95226" lon="4.8773">
        <ele>280</ele>
        <time>2017-06-03T08:58:07Z</time>
      </trkpt>
      <trkpt lat="45.95227" lon="4.87736">
        <ele>280</ele>
        <time>2017-06-03T08:58:08Z</time>
      </trkpt>
      <trkpt lat="45.95229" lon="4.87743">
        <ele>280</ele>
        <time>2017-06-03T08:58:09Z</time>
      </trkpt>
      <trkpt lat="45.95231" lon="4.87754">
        <ele>281</ele>
        <time>2017-06-03T08:58:11Z</time>
      </trkpt>
      <trkpt lat="45.95233" lon="4.87759">
        <ele>281</ele>
        <time>2017-06-03T08:58:12Z</time>
      </trkpt>
      <trkpt lat="45.95235" lon="4.8777">
        <ele>282</ele>
        <time>2017-06-03T08:58:14Z</time>
      </trkpt>
      <trkpt lat="45.95236" lon="4.87776">
        <ele>282</ele>
        <time>2017-06-03T08:58:15Z</time>
      </trkpt>
      <trkpt lat="45.95237" lon="4.87782">
        <ele>282</ele>
        <time>2017-06-03T08:58:16Z</time>
      </trkpt>
      <trkpt lat="45.95238" lon="4.87789">
        <ele>282</ele>
        <time>2017-06-03T08:58:17Z</time>
      </trkpt>
      <trkpt lat="45.95241" lon="4.87799">
        <ele>282</ele>
        <time>2017-06-03T08:58:19Z</time>
      </trkpt>
      <trkpt lat="45.95242" lon="4.87804">
        <ele>282</ele>
        <time>2017-06-03T08:58:20Z</time>
      </trkpt>
      <trkpt lat="45.95244" lon="4.87815">
        <ele>282</ele>
        <time>2017-06-03T08:58:22Z</time>
      </trkpt>
      <trkpt lat="45.95244" lon="4.87821">
        <ele>282</ele>
        <time>2017-06-03T08:58:23Z</time>
      </trkpt>
      <trkpt lat="45.95245" lon="4.87828">
        <ele>282</ele>
        <time>2017-06-03T08:58:24Z</time>
      </trkpt>
      <trkpt lat="45.95245" lon="4.87834">
        <ele>282</ele>
        <time>2017-06-03T08:58:25Z</time>
      </trkpt>
      <trkpt lat="45.95247" lon="4.87842">
        <ele>283</ele>
        <time>2017-06-03T08:58:26Z</time>
      </trkpt>
      <trkpt lat="45.95248" lon="4.87849">
        <ele>283</ele>
        <time>2017-06-03T08:58:27Z</time>
      </trkpt>
      <trkpt lat="45.95249" lon="4.87856">
        <ele>283</ele>
        <time>2017-06-03T08:58:28Z</time>
      </trkpt>
      <trkpt lat="45.9525" lon="4.87863">
        <ele>281</ele>
        <time>2017-06-03T08:58:29Z</time>
      </trkpt>
      <trkpt lat="45.95252" lon="4.8787">
        <ele>281</ele>
        <time>2017-06-03T08:58:30Z</time>
      </trkpt>
      <trkpt lat="45.95253" lon="4.87876">
        <ele>281</ele>
        <time>2017-06-03T08:58:31Z</time>
      </trkpt>
      <trkpt lat="45.95257" lon="4.87887">
        <ele>281</ele>
        <time>2017-06-03T08:58:33Z</time>
      </trkpt>
      <trkpt lat="45.95258" lon="4.87893">
        <ele>281</ele>
        <time>2017-06-03T08:58:34Z</time>
      </trkpt>
      <trkpt lat="45.95259" lon="4.87905">
        <ele>281</ele>
        <time>2017-06-03T08:58:36Z</time>
      </trkpt>
      <trkpt lat="45.9526" lon="4.8791">
        <ele>282</ele>
        <time>2017-06-03T08:58:37Z</time>
      </trkpt>
      <trkpt lat="45.95261" lon="4.87922">
        <ele>281</ele>
        <time>2017-06-03T08:58:39Z</time>
      </trkpt>
      <trkpt lat="45.9526" lon="4.87928">
        <ele>281</ele>
        <time>2017-06-03T08:58:40Z</time>
      </trkpt>
      <trkpt lat="45.95259" lon="4.87934">
        <ele>281</ele>
        <time>2017-06-03T08:58:41Z</time>
      </trkpt>
      <trkpt lat="45.95258" lon="4.87941">
        <ele>280</ele>
        <time>2017-06-03T08:58:42Z</time>
      </trkpt>
      <trkpt lat="45.95256" lon="4.87948">
        <ele>280</ele>
        <time>2017-06-03T08:58:43Z</time>
      </trkpt>
      <trkpt lat="45.95254" lon="4.87954">
        <ele>280</ele>
        <time>2017-06-03T08:58:44Z</time>
      </trkpt>
      <trkpt lat="45.95249" lon="4.87964">
        <ele>282</ele>
        <time>2017-06-03T08:58:46Z</time>
      </trkpt>
      <trkpt lat="45.95246" lon="4.87968">
        <ele>282</ele>
        <time>2017-06-03T08:58:47Z</time>
      </trkpt>
      <trkpt lat="45.95241" lon="4.87977">
        <ele>282</ele>
        <time>2017-06-03T08:58:49Z</time>
      </trkpt>
      <trkpt lat="45.95238" lon="4.87981">
        <ele>282</ele>
        <time>2017-06-03T08:58:50Z</time>
      </trkpt>
      <trkpt lat="45.95232" lon="4.87989">
        <ele>281</ele>
        <time>2017-06-03T08:58:52Z</time>
      </trkpt>
      <trkpt lat="45.95229" lon="4.87994">
        <ele>281</ele>
        <time>2017-06-03T08:58:53Z</time>
      </trkpt>
      <trkpt lat="45.95223" lon="4.88003">
        <ele>281</ele>
        <time>2017-06-03T08:58:55Z</time>
      </trkpt>
      <trkpt lat="45.95221" lon="4.88007">
        <ele>281</ele>
        <time>2017-06-03T08:58:56Z</time>
      </trkpt>
      <trkpt lat="45.95215" lon="4.88016">
        <ele>281</ele>
        <time>2017-06-03T08:58:58Z</time>
      </trkpt>
      <trkpt lat="45.95211" lon="4.88019">
        <ele>281</ele>
        <time>2017-06-03T08:58:59Z</time>
      </trkpt>
      <trkpt lat="45.95205" lon="4.88027">
        <ele>281</ele>
        <time>2017-06-03T08:59:01Z</time>
      </trkpt>
      <trkpt lat="45.95203" lon="4.88031">
        <ele>281</ele>
        <time>2017-06-03T08:59:02Z</time>
      </trkpt>
      <trkpt lat="45.95197" lon="4.88039">
        <ele>281</ele>
        <time>2017-06-03T08:59:04Z</time>
      </trkpt>
      <trkpt lat="45.95195" lon="4.88044">
        <ele>281</ele>
        <time>2017-06-03T08:59:05Z</time>
      </trkpt>
      <trkpt lat="45.95191" lon="4.88054">
        <ele>281</ele>
        <time>2017-06-03T08:59:07Z</time>
      </trkpt>
      <trkpt lat="45.95189" lon="4.88059">
        <ele>281</ele>
        <time>2017-06-03T08:59:08Z</time>
      </trkpt>
      <trkpt lat="45.95187" lon="4.88069">
        <ele>281</ele>
        <time>2017-06-03T08:59:10Z</time>
      </trkpt>
      <trkpt lat="45.95186" lon="4.88074">
        <ele>281</ele>
        <time>2017-06-03T08:59:11Z</time>
      </trkpt>
      <trkpt lat="45.95183" lon="4.88085">
        <ele>282</ele>
        <time>2017-06-03T08:59:13Z</time>
      </trkpt>
      <trkpt lat="45.95182" lon="4.8809">
        <ele>282</ele>
        <time>2017-06-03T08:59:14Z</time>
      </trkpt>
      <trkpt lat="45.95181" lon="4.88099">
        <ele>282</ele>
        <time>2017-06-03T08:59:16Z</time>
      </trkpt>
      <trkpt lat="45.9518" lon="4.88104">
        <ele>282</ele>
        <time>2017-06-03T08:59:17Z</time>
      </trkpt>
      <trkpt lat="45.95178" lon="4.88113">
        <ele>282</ele>
        <time>2017-06-03T08:59:19Z</time>
      </trkpt>
      <trkpt lat="45.95177" lon="4.88117">
        <ele>282</ele>
        <time>2017-06-03T08:59:20Z</time>
      </trkpt>
      <trkpt lat="45.95175" lon="4.88126">
        <ele>282</ele>
        <time>2017-06-03T08:59:22Z</time>
      </trkpt>
      <trkpt lat="45.95174" lon="4.88132">
        <ele>283</ele>
        <time>2017-06-03T08:59:23Z</time>
      </trkpt>
      <trkpt lat="45.95171" lon="4.88143">
        <ele>283</ele>
        <time>2017-06-03T08:59:25Z</time>
      </trkpt>
      <trkpt lat="45.9517" lon="4.88149">
        <ele>283</ele>
        <time>2017-06-03T08:59:26Z</time>
      </trkpt>
      <trkpt lat="45.95168" lon="4.88159">
        <ele>284</ele>
        <time>2017-06-03T08:59:28Z</time>
      </trkpt>
      <trkpt lat="45.95168" lon="4.88163">
        <ele>285</ele>
        <time>2017-06-03T08:59:29Z</time>
      </trkpt>
      <trkpt lat="45.95169" lon="4.88175">
        <ele>285</ele>
        <time>2017-06-03T08:59:32Z</time>
      </trkpt>
      <trkpt lat="45.95171" lon="4.88178">
        <ele>285</ele>
        <time>2017-06-03T08:59:33Z</time>
      </trkpt>
      <trkpt lat="45.95178" lon="4.88178">
        <ele>285</ele>
        <time>2017-06-03T08:59:35Z</time>
      </trkpt>
      <trkpt lat="45.95182" lon="4.88177">
        <ele>285</ele>
        <time>2017-06-03T08:59:36Z</time>
      </trkpt>
      <trkpt lat="45.95191" lon="4.88174">
        <ele>285</ele>
        <time>2017-06-03T08:59:38Z</time>
      </trkpt>
      <trkpt lat="45.95196" lon="4.88174">
        <ele>285</ele>
        <time>2017-06-03T08:59:39Z</time>
      </trkpt>
      <trkpt lat="45.952" lon="4.88173">
        <ele>285</ele>
        <time>2017-06-03T08:59:40Z</time>
      </trkpt>
      <trkpt lat="45.95205" lon="4.88173">
        <ele>285</ele>
        <time>2017-06-03T08:59:41Z</time>
      </trkpt>
      <trkpt lat="45.95211" lon="4.88172">
        <ele>284</ele>
        <time>2017-06-03T08:59:42Z</time>
      </trkpt>
      <trkpt lat="45.95216" lon="4.88172">
        <ele>284</ele>
        <time>2017-06-03T08:59:43Z</time>
      </trkpt>
      <trkpt lat="45.95222" lon="4.88172">
        <ele>284</ele>
        <time>2017-06-03T08:59:44Z</time>
      </trkpt>
      <trkpt lat="45.95228" lon="4.88172">
        <ele>284</ele>
        <time>2017-06-03T08:59:45Z</time>
      </trkpt>
      <trkpt lat="45.95234" lon="4.88173">
        <ele>283</ele>
        <time>2017-06-03T08:59:46Z</time>
      </trkpt>
      <trkpt lat="45.95241" lon="4.88172">
        <ele>283</ele>
        <time>2017-06-03T08:59:47Z</time>
      </trkpt>
      <trkpt lat="45.95248" lon="4.88172">
        <ele>282</ele>
        <time>2017-06-03T08:59:48Z</time>
      </trkpt>
      <trkpt lat="45.95255" lon="4.88173">
        <ele>281</ele>
        <time>2017-06-03T08:59:49Z</time>
      </trkpt>
      <trkpt lat="45.95263" lon="4.88174">
        <ele>281</ele>
        <time>2017-06-03T08:59:50Z</time>
      </trkpt>
      <trkpt lat="45.9527" lon="4.88175">
        <ele>281</ele>
        <time>2017-06-03T08:59:51Z</time>
      </trkpt>
      <trkpt lat="45.95278" lon="4.88176">
        <ele>281</ele>
        <time>2017-06-03T08:59:52Z</time>
      </trkpt>
      <trkpt lat="45.95286" lon="4.88177">
        <ele>281</ele>
        <time>2017-06-03T08:59:53Z</time>
      </trkpt>
      <trkpt lat="45.95294" lon="4.88178">
        <ele>281</ele>
        <time>2017-06-03T08:59:54Z</time>
      </trkpt>
      <trkpt lat="45.95302" lon="4.88179">
        <ele>281</ele>
        <time>2017-06-03T08:59:55Z</time>
      </trkpt>
      <trkpt lat="45.9531" lon="4.8818">
        <ele>280</ele>
        <time>2017-06-03T08:59:56Z</time>
      </trkpt>
      <trkpt lat="45.95318" lon="4.88181">
        <ele>280</ele>
        <time>2017-06-03T08:59:57Z</time>
      </trkpt>
      <trkpt lat="45.95327" lon="4.88181">
        <ele>280</ele>
        <time>2017-06-03T08:59:58Z</time>
      </trkpt>
      <trkpt lat="45.95335" lon="4.88181">
        <ele>278</ele>
        <time>2017-06-03T08:59:59Z</time>
      </trkpt>
      <trkpt lat="45.95343" lon="4.8818">
        <ele>278</ele>
        <time>2017-06-03T09:00:00Z</time>
      </trkpt>
      <trkpt lat="45.95351" lon="4.88179">
        <ele>278</ele>
        <time>2017-06-03T09:00:01Z</time>
      </trkpt>
      <trkpt lat="45.95359" lon="4.88178">
        <ele>278</ele>
        <time>2017-06-03T09:00:02Z</time>
      </trkpt>
      <trkpt lat="45.95367" lon="4.88176">
        <ele>278</ele>
        <time>2017-06-03T09:00:03Z</time>
      </trkpt>
      <trkpt lat="45.95375" lon="4.88173">
        <ele>278</ele>
        <time>2017-06-03T09:00:04Z</time>
      </trkpt>
      <trkpt lat="45.95382" lon="4.88171">
        <ele>278</ele>
        <time>2017-06-03T09:00:05Z</time>
      </trkpt>
      <trkpt lat="45.95389" lon="4.88168">
        <ele>278</ele>
        <time>2017-06-03T09:00:06Z</time>
      </trkpt>
      <trkpt lat="45.95396" lon="4.88165">
        <ele>276</ele>
        <time>2017-06-03T09:00:07Z</time>
      </trkpt>
      <trkpt lat="45.95403" lon="4.88162">
        <ele>276</ele>
        <time>2017-06-03T09:00:08Z</time>
      </trkpt>
      <trkpt lat="45.9541" lon="4.88159">
        <ele>276</ele>
        <time>2017-06-03T09:00:09Z</time>
      </trkpt>
      <trkpt lat="45.95416" lon="4.88156">
        <ele>276</ele>
        <time>2017-06-03T09:00:10Z</time>
      </trkpt>
      <trkpt lat="45.95422" lon="4.88153">
        <ele>276</ele>
        <time>2017-06-03T09:00:11Z</time>
      </trkpt>
      <trkpt lat="45.95428" lon="4.8815">
        <ele>276</ele>
        <time>2017-06-03T09:00:12Z</time>
      </trkpt>
      <trkpt lat="45.95434" lon="4.88147">
        <ele>276</ele>
        <time>2017-06-03T09:00:13Z</time>
      </trkpt>
      <trkpt lat="45.95439" lon="4.88145">
        <ele>276</ele>
        <time>2017-06-03T09:00:14Z</time>
      </trkpt>
      <trkpt lat="45.95445" lon="4.88142">
        <ele>276</ele>
        <time>2017-06-03T09:00:15Z</time>
      </trkpt>
      <trkpt lat="45.9545" lon="4.88139">
        <ele>276</ele>
        <time>2017-06-03T09:00:16Z</time>
      </trkpt>
      <trkpt lat="45.95455" lon="4.88137">
        <ele>276</ele>
        <time>2017-06-03T09:00:17Z</time>
      </trkpt>
      <trkpt lat="45.9546" lon="4.88135">
        <ele>276</ele>
        <time>2017-06-03T09:00:18Z</time>
      </trkpt>
      <trkpt lat="45.95465" lon="4.88133">
        <ele>276</ele>
        <time>2017-06-03T09:00:19Z</time>
      </trkpt>
      <trkpt lat="45.9547" lon="4.88131">
        <ele>276</ele>
        <time>2017-06-03T09:00:20Z</time>
      </trkpt>
      <trkpt lat="45.95475" lon="4.88129">
        <ele>276</ele>
        <time>2017-06-03T09:00:21Z</time>
      </trkpt>
      <trkpt lat="45.9548" lon="4.88126">
        <ele>276</ele>
        <time>2017-06-03T09:00:22Z</time>
      </trkpt>
      <trkpt lat="45.95485" lon="4.88124">
        <ele>276</ele>
        <time>2017-06-03T09:00:23Z</time>
      </trkpt>
      <trkpt lat="45.95489" lon="4.88121">
        <ele>276</ele>
        <time>2017-06-03T09:00:24Z</time>
      </trkpt>
      <trkpt lat="45.95494" lon="4.88119">
        <ele>276</ele>
        <time>2017-06-03T09:00:25Z</time>
      </trkpt>
      <trkpt lat="45.95502" lon="4.88116">
        <ele>276</ele>
        <time>2017-06-03T09:00:27Z</time>
      </trkpt>
      <trkpt lat="45.95506" lon="4.88114">
        <ele>276</ele>
        <time>2017-06-03T09:00:28Z</time>
      </trkpt>
      <trkpt lat="45.95514" lon="4.8811">
        <ele>276</ele>
        <time>2017-06-03T09:00:30Z</time>
      </trkpt>
      <trkpt lat="45.95519" lon="4.88108">
        <ele>277</ele>
        <time>2017-06-03T09:00:31Z</time>
      </trkpt>
      <trkpt lat="45.95523" lon="4.88106">
        <ele>277</ele>
        <time>2017-06-03T09:00:32Z</time>
      </trkpt>
      <trkpt lat="45.95528" lon="4.88103">
        <ele>277</ele>
        <time>2017-06-03T09:00:33Z</time>
      </trkpt>
      <trkpt lat="45.95532" lon="4.88102">
        <ele>277</ele>
        <time>2017-06-03T09:00:34Z</time>
      </trkpt>
      <trkpt lat="45.95536" lon="4.881">
        <ele>277</ele>
        <time>2017-06-03T09:00:35Z</time>
      </trkpt>
      <trkpt lat="45.9554" lon="4.88098">
        <ele>277</ele>
        <time>2017-06-03T09:00:36Z</time>
      </trkpt>
      <trkpt lat="45.95545" lon="4.88095">
        <ele>277</ele>
        <time>2017-06-03T09:00:37Z</time>
      </trkpt>
      <trkpt lat="45.9555" lon="4.88092">
        <ele>277</ele>
        <time>2017-06-03T09:00:38Z</time>
      </trkpt>
      <trkpt lat="45.95554" lon="4.8809">
        <ele>277</ele>
        <time>2017-06-03T09:00:39Z</time>
      </trkpt>
      <trkpt lat="45.95559" lon="4.88087">
        <ele>277</ele>
        <time>2017-06-03T09:00:40Z</time>
      </trkpt>
      <trkpt lat="45.95563" lon="4.88085">
        <ele>277</ele>
        <time>2017-06-03T09:00:41Z</time>
      </trkpt>
      <trkpt lat="45.95571" lon="4.8808">
        <ele>277</ele>
        <time>2017-06-03T09:00:43Z</time>
      </trkpt>
      <trkpt lat="45.95576" lon="4.88077">
        <ele>277</ele>
        <time>2017-06-03T09:00:44Z</time>
      </trkpt>
      <trkpt lat="45.9558" lon="4.88074">
        <ele>277</ele>
        <time>2017-06-03T09:00:45Z</time>
      </trkpt>
      <trkpt lat="45.95584" lon="4.88071">
        <ele>278</ele>
        <time>2017-06-03T09:00:46Z</time>
      </trkpt>
      <trkpt lat="45.95591" lon="4.88065">
        <ele>278</ele>
        <time>2017-06-03T09:00:48Z</time>
      </trkpt>
      <trkpt lat="45.95595" lon="4.88062">
        <ele>278</ele>
        <time>2017-06-03T09:00:49Z</time>
      </trkpt>
      <trkpt lat="45.95603" lon="4.88056">
        <ele>278</ele>
        <time>2017-06-03T09:00:51Z</time>
      </trkpt>
      <trkpt lat="45.95607" lon="4.88052">
        <ele>278</ele>
        <time>2017-06-03T09:00:52Z</time>
      </trkpt>
      <trkpt lat="45.95611" lon="4.88049">
        <ele>278</ele>
        <time>2017-06-03T09:00:53Z</time>
      </trkpt>
      <trkpt lat="45.95614" lon="4.88045">
        <ele>278</ele>
        <time>2017-06-03T09:00:54Z</time>
      </trkpt>
      <trkpt lat="45.95622" lon="4.88039">
        <ele>278</ele>
        <time>2017-06-03T09:00:56Z</time>
      </trkpt>
      <trkpt lat="45.95625" lon="4.88035">
        <ele>278</ele>
        <time>2017-06-03T09:00:57Z</time>
      </trkpt>
      <trkpt lat="45.95632" lon="4.88029">
        <ele>279</ele>
        <time>2017-06-03T09:00:59Z</time>
      </trkpt>
      <trkpt lat="45.95635" lon="4.88026">
        <ele>279</ele>
        <time>2017-06-03T09:01:00Z</time>
      </trkpt>
      <trkpt lat="45.95642" lon="4.8802">
        <ele>279</ele>
        <time>2017-06-03T09:01:02Z</time>
      </trkpt>
      <trkpt lat="45.95646" lon="4.88017">
        <ele>279</ele>
        <time>2017-06-03T09:01:03Z</time>
      </trkpt>
      <trkpt lat="45.95652" lon="4.8801">
        <ele>280</ele>
        <time>2017-06-03T09:01:05Z</time>
      </trkpt>
      <trkpt lat="45.95656" lon="4.88007">
        <ele>280</ele>
        <time>2017-06-03T09:01:06Z</time>
      </trkpt>
      <trkpt lat="45.9566" lon="4.88004">
        <ele>280</ele>
        <time>2017-06-03T09:01:07Z</time>
      </trkpt>
      <trkpt lat="45.95664" lon="4.88">
        <ele>281</ele>
        <time>2017-06-03T09:01:08Z</time>
      </trkpt>
      <trkpt lat="45.95668" lon="4.87997">
        <ele>281</ele>
        <time>2017-06-03T09:01:09Z</time>
      </trkpt>
      <trkpt lat="45.95672" lon="4.87993">
        <ele>282</ele>
        <time>2017-06-03T09:01:10Z</time>
      </trkpt>
      <trkpt lat="45.95676" lon="4.87989">
        <ele>282</ele>
        <time>2017-06-03T09:01:11Z</time>
      </trkpt>
      <trkpt lat="45.9568" lon="4.87985">
        <ele>282</ele>
        <time>2017-06-03T09:01:12Z</time>
      </trkpt>
      <trkpt lat="45.95684" lon="4.87981">
        <ele>282</ele>
        <time>2017-06-03T09:01:13Z</time>
      </trkpt>
      <trkpt lat="45.95688" lon="4.87977">
        <ele>282</ele>
        <time>2017-06-03T09:01:14Z</time>
      </trkpt>
      <trkpt lat="45.95696" lon="4.87971">
        <ele>282</ele>
        <time>2017-06-03T09:01:16Z</time>
      </trkpt>
      <trkpt lat="45.95699" lon="4.87969">
        <ele>283</ele>
        <time>2017-06-03T09:01:17Z</time>
      </trkpt>
      <trkpt lat="45.95704" lon="4.87964">
        <ele>283</ele>
        <time>2017-06-03T09:01:19Z</time>
      </trkpt>
      <trkpt lat="45.95706" lon="4.87961">
        <ele>283</ele>
        <time>2017-06-03T09:01:20Z</time>
      </trkpt>
      <trkpt lat="45.95712" lon="4.87956">
        <ele>283</ele>
        <time>2017-06-03T09:01:22Z</time>
      </trkpt>
      <trkpt lat="45.95715" lon="4.87953">
        <ele>283</ele>
        <time>2017-06-03T09:01:23Z</time>
      </trkpt>
      <trkpt lat="45.95722" lon="4.87947">
        <ele>283</ele>
        <time>2017-06-03T09:01:25Z</time>
      </trkpt>
      <trkpt lat="45.95725" lon="4.87943">
        <ele>283</ele>
        <time>2017-06-03T09:01:26Z</time>
      </trkpt>
      <trkpt lat="45.95732" lon="4.87937">
        <ele>284</ele>
        <time>2017-06-03T09:01:28Z</time>
      </trkpt>
      <trkpt lat="45.95736" lon="4.87934">
        <ele>284</ele>
        <time>2017-06-03T09:01:29Z</time>
      </trkpt>
      <trkpt lat="45.95741" lon="4.8793">
        <ele>284</ele>
        <time>2017-06-03T09:01:31Z</time>
      </trkpt>
      <trkpt lat="45.95744" lon="4.87928">
        <ele>284</ele>
        <time>2017-06-03T09:01:32Z</time>
      </trkpt>
      <trkpt lat="45.95751" lon="4.87923">
        <ele>285</ele>
        <time>2017-06-03T09:01:35Z</time>
      </trkpt>
      <trkpt lat="45.95754" lon="4.87921">
        <ele>285</ele>
        <time>2017-06-03T09:01:36Z</time>
      </trkpt>
      <trkpt lat="45.95759" lon="4.87916">
        <ele>285</ele>
        <time>2017-06-03T09:01:38Z</time>
      </trkpt>
      <trkpt lat="45.95762" lon="4.87913">
        <ele>285</ele>
        <time>2017-06-03T09:01:39Z</time>
      </trkpt>
      <trkpt lat="45.95768" lon="4.87908">
        <ele>286</ele>
        <time>2017-06-03T09:01:41Z</time>
      </trkpt>
      <trkpt lat="45.95772" lon="4.87906">
        <ele>286</ele>
        <time>2017-06-03T09:01:42Z</time>
      </trkpt>
      <trkpt lat="45.9578" lon="4.879">
        <ele>286</ele>
        <time>2017-06-03T09:01:44Z</time>
      </trkpt>
      <trkpt lat="45.95783" lon="4.87899">
        <ele>286</ele>
        <time>2017-06-03T09:01:45Z</time>
      </trkpt>
      <trkpt lat="45.95791" lon="4.87895">
        <ele>286</ele>
        <time>2017-06-03T09:01:48Z</time>
      </trkpt>
      <trkpt lat="45.95794" lon="4.87893">
        <ele>286</ele>
        <time>2017-06-03T09:01:49Z</time>
      </trkpt>
      <trkpt lat="45.95802" lon="4.87889">
        <ele>287</ele>
        <time>2017-06-03T09:01:52Z</time>
      </trkpt>
      <trkpt lat="45.95805" lon="4.87887">
        <ele>287</ele>
        <time>2017-06-03T09:01:53Z</time>
      </trkpt>
      <trkpt lat="45.95811" lon="4.87885">
        <ele>287</ele>
        <time>2017-06-03T09:01:55Z</time>
      </trkpt>
      <trkpt lat="45.95814" lon="4.87883">
        <ele>287</ele>
        <time>2017-06-03T09:01:56Z</time>
      </trkpt>
      <trkpt lat="45.95822" lon="4.87881">
        <ele>287</ele>
        <time>2017-06-03T09:01:59Z</time>
      </trkpt>
      <trkpt lat="45.95824" lon="4.87881">
        <ele>287</ele>
        <time>2017-06-03T09:02:00Z</time>
      </trkpt>
      <trkpt lat="45.95831" lon="4.87879">
        <ele>287</ele>
        <time>2017-06-03T09:02:04Z</time>
      </trkpt>
      <trkpt lat="45.95834" lon="4.87878">
        <ele>289</ele>
        <time>2017-06-03T09:02:05Z</time>
      </trkpt>
      <trkpt lat="45.95838" lon="4.87873">
        <ele>289</ele>
        <time>2017-06-03T09:02:07Z</time>
      </trkpt>
      <trkpt lat="45.9584" lon="4.87869">
        <ele>289</ele>
        <time>2017-06-03T09:02:08Z</time>
      </trkpt>
      <trkpt lat="45.95846" lon="4.87862">
        <ele>289</ele>
        <time>2017-06-03T09:02:10Z</time>
      </trkpt>
      <trkpt lat="45.95849" lon="4.87859">
        <ele>289</ele>
        <time>2017-06-03T09:02:11Z</time>
      </trkpt>
      <trkpt lat="45.95854" lon="4.87853">
        <ele>289</ele>
        <time>2017-06-03T09:02:13Z</time>
      </trkpt>
      <trkpt lat="45.95857" lon="4.87851">
        <ele>289</ele>
        <time>2017-06-03T09:02:14Z</time>
      </trkpt>
      <trkpt lat="45.95865" lon="4.87844">
        <ele>289</ele>
        <time>2017-06-03T09:02:16Z</time>
      </trkpt>
      <trkpt lat="45.95868" lon="4.87841">
        <ele>289</ele>
        <time>2017-06-03T09:02:17Z</time>
      </trkpt>
      <trkpt lat="45.95875" lon="4.87834">
        <ele>289</ele>
        <time>2017-06-03T09:02:19Z</time>
      </trkpt>
      <trkpt lat="45.95878" lon="4.87831">
        <ele>288</ele>
        <time>2017-06-03T09:02:20Z</time>
      </trkpt>
      <trkpt lat="45.95885" lon="4.87824">
        <ele>288</ele>
        <time>2017-06-03T09:02:22Z</time>
      </trkpt>
      <trkpt lat="45.95888" lon="4.87821">
        <ele>288</ele>
        <time>2017-06-03T09:02:23Z</time>
      </trkpt>
      <trkpt lat="45.95894" lon="4.87813">
        <ele>288</ele>
        <time>2017-06-03T09:02:25Z</time>
      </trkpt>
      <trkpt lat="45.95896" lon="4.87808">
        <ele>288</ele>
        <time>2017-06-03T09:02:26Z</time>
      </trkpt>
      <trkpt lat="45.95902" lon="4.878">
        <ele>288</ele>
        <time>2017-06-03T09:02:28Z</time>
      </trkpt>
      <trkpt lat="45.95904" lon="4.87796">
        <ele>288</ele>
        <time>2017-06-03T09:02:29Z</time>
      </trkpt>
      <trkpt lat="45.95909" lon="4.87788">
        <ele>288</ele>
        <time>2017-06-03T09:02:31Z</time>
      </trkpt>
      <trkpt lat="45.95911" lon="4.87784">
        <ele>288</ele>
        <time>2017-06-03T09:02:32Z</time>
      </trkpt>
      <trkpt lat="45.95916" lon="4.87775">
        <ele>288</ele>
        <time>2017-06-03T09:02:34Z</time>
      </trkpt>
      <trkpt lat="45.95919" lon="4.87771">
        <ele>289</ele>
        <time>2017-06-03T09:02:35Z</time>
      </trkpt>
      <trkpt lat="45.95924" lon="4.87763">
        <ele>288</ele>
        <time>2017-06-03T09:02:37Z</time>
      </trkpt>
      <trkpt lat="45.95927" lon="4.87759">
        <ele>288</ele>
        <time>2017-06-03T09:02:38Z</time>
      </trkpt>
      <trkpt lat="45.95932" lon="4.87751">
        <ele>288</ele>
        <time>2017-06-03T09:02:40Z</time>
      </trkpt>
      <trkpt lat="45.95935" lon="4.87747">
        <ele>288</ele>
        <time>2017-06-03T09:02:41Z</time>
      </trkpt>
      <trkpt lat="45.9594" lon="4.87739">
        <ele>288</ele>
        <time>2017-06-03T09:02:43Z</time>
      </trkpt>
      <trkpt lat="45.95943" lon="4.87734">
        <ele>289</ele>
        <time>2017-06-03T09:02:44Z</time>
      </trkpt>
      <trkpt lat="45.95949" lon="4.87725">
        <ele>289</ele>
        <time>2017-06-03T09:02:46Z</time>
      </trkpt>
      <trkpt lat="45.95953" lon="4.87721">
        <ele>289</ele>
        <time>2017-06-03T09:02:47Z</time>
      </trkpt>
      <trkpt lat="45.95959" lon="4.87712">
        <ele>289</ele>
        <time>2017-06-03T09:02:49Z</time>
      </trkpt>
      <trkpt lat="45.95962" lon="4.87708">
        <ele>289</ele>
        <time>2017-06-03T09:02:50Z</time>
      </trkpt>
      <trkpt lat="45.95969" lon="4.877">
        <ele>289</ele>
        <time>2017-06-03T09:02:52Z</time>
      </trkpt>
      <trkpt lat="45.95972" lon="4.87697">
        <ele>289</ele>
        <time>2017-06-03T09:02:53Z</time>
      </trkpt>
      <trkpt lat="45.95979" lon="4.87689">
        <ele>289</ele>
        <time>2017-06-03T09:02:55Z</time>
      </trkpt>
      <trkpt lat="45.95982" lon="4.87685">
        <ele>289</ele>
        <time>2017-06-03T09:02:56Z</time>
      </trkpt>
      <trkpt lat="45.95986" lon="4.87681">
        <ele>289</ele>
        <time>2017-06-03T09:02:57Z</time>
      </trkpt>
      <trkpt lat="45.9599" lon="4.87677">
        <ele>289</ele>
        <time>2017-06-03T09:02:58Z</time>
      </trkpt>
      <trkpt lat="45.95993" lon="4.87673">
        <ele>290</ele>
        <time>2017-06-03T09:02:59Z</time>
      </trkpt>
      <trkpt lat="45.95997" lon="4.87669">
        <ele>290</ele>
        <time>2017-06-03T09:03:00Z</time>
      </trkpt>
      <trkpt lat="45.96" lon="4.87664">
        <ele>290</ele>
        <time>2017-06-03T09:03:01Z</time>
      </trkpt>
      <trkpt lat="45.96004" lon="4.8766">
        <ele>290</ele>
        <time>2017-06-03T09:03:02Z</time>
      </trkpt>
      <trkpt lat="45.96007" lon="4.87656">
        <ele>289</ele>
        <time>2017-06-03T09:03:03Z</time>
      </trkpt>
      <trkpt lat="45.96011" lon="4.87652">
        <ele>289</ele>
        <time>2017-06-03T09:03:04Z</time>
      </trkpt>
      <trkpt lat="45.96015" lon="4.87648">
        <ele>289</ele>
        <time>2017-06-03T09:03:05Z</time>
      </trkpt>
      <trkpt lat="45.96019" lon="4.87644">
        <ele>289</ele>
        <time>2017-06-03T09:03:06Z</time>
      </trkpt>
      <trkpt lat="45.96023" lon="4.8764">
        <ele>289</ele>
        <time>2017-06-03T09:03:07Z</time>
      </trkpt>
      <trkpt lat="45.96026" lon="4.87635">
        <ele>289</ele>
        <time>2017-06-03T09:03:08Z</time>
      </trkpt>
      <trkpt lat="45.9603" lon="4.87631">
        <ele>289</ele>
        <time>2017-06-03T09:03:09Z</time>
      </trkpt>
      <trkpt lat="45.96034" lon="4.87627">
        <ele>289</ele>
        <time>2017-06-03T09:03:10Z</time>
      </trkpt>
      <trkpt lat="45.96037" lon="4.87623">
        <ele>289</ele>
        <time>2017-06-03T09:03:11Z</time>
      </trkpt>
      <trkpt lat="45.96041" lon="4.87618">
        <ele>289</ele>
        <time>2017-06-03T09:03:12Z</time>
      </trkpt>
      <trkpt lat="45.96044" lon="4.87613">
        <ele>289</ele>
        <time>2017-06-03T09:03:13Z</time>
      </trkpt>
      <trkpt lat="45.96048" lon="4.87609">
        <ele>289</ele>
        <time>2017-06-03T09:03:14Z</time>
      </trkpt>
      <trkpt lat="45.96051" lon="4.87604">
        <ele>289</ele>
        <time>2017-06-03T09:03:15Z</time>
      </trkpt>
      <trkpt lat="45.96055" lon="4.876">
        <ele>289</ele>
        <time>2017-06-03T09:03:16Z</time>
      </trkpt>
      <trkpt lat="45.96059" lon="4.87596">
        <ele>288</ele>
        <time>2017-06-03T09:03:17Z</time>
      </trkpt>
      <trkpt lat="45.96063" lon="4.87592">
        <ele>288</ele>
        <time>2017-06-03T09:03:18Z</time>
      </trkpt>
      <trkpt lat="45.96067" lon="4.87588">
        <ele>288</ele>
        <time>2017-06-03T09:03:19Z</time>
      </trkpt>
      <trkpt lat="45.96072" lon="4.87583">
        <ele>288</ele>
        <time>2017-06-03T09:03:20Z</time>
      </trkpt>
      <trkpt lat="45.96076" lon="4.87578">
        <ele>288</ele>
        <time>2017-06-03T09:03:21Z</time>
      </trkpt>
      <trkpt lat="45.96081" lon="4.87573">
        <ele>288</ele>
        <time>2017-06-03T09:03:22Z</time>
      </trkpt>
      <trkpt lat="45.96085" lon="4.87568">
        <ele>287</ele>
        <time>2017-06-03T09:03:23Z</time>
      </trkpt>
      <trkpt lat="45.9609" lon="4.87563">
        <ele>287</ele>
        <time>2017-06-03T09:03:24Z</time>
      </trkpt>
      <trkpt lat="45.96094" lon="4.87558">
        <ele>287</ele>
        <time>2017-06-03T09:03:25Z</time>
      </trkpt>
      <trkpt lat="45.96099" lon="4.87553">
        <ele>287</ele>
        <time>2017-06-03T09:03:26Z</time>
      </trkpt>
      <trkpt lat="45.96103" lon="4.87548">
        <ele>287</ele>
        <time>2017-06-03T09:03:27Z</time>
      </trkpt>
      <trkpt lat="45.96107" lon="4.87542">
        <ele>287</ele>
        <time>2017-06-03T09:03:28Z</time>
      </trkpt>
      <trkpt lat="45.96112" lon="4.87537">
        <ele>287</ele>
        <time>2017-06-03T09:03:29Z</time>
      </trkpt>
      <trkpt lat="45.96116" lon="4.87532">
        <ele>287</ele>
        <time>2017-06-03T09:03:30Z</time>
      </trkpt>
      <trkpt lat="45.96121" lon="4.87526">
        <ele>286</ele>
        <time>2017-06-03T09:03:31Z</time>
      </trkpt>
      <trkpt lat="45.96126" lon="4.87521">
        <ele>286</ele>
        <time>2017-06-03T09:03:32Z</time>
      </trkpt>
      <trkpt lat="45.9613" lon="4.87515">
        <ele>286</ele>
        <time>2017-06-03T09:03:33Z</time>
      </trkpt>
      <trkpt lat="45.96135" lon="4.8751">
        <ele>286</ele>
        <time>2017-06-03T09:03:34Z</time>
      </trkpt>
      <trkpt lat="45.9614" lon="4.87504">
        <ele>286</ele>
        <time>2017-06-03T09:03:35Z</time>
      </trkpt>
      <trkpt lat="45.96145" lon="4.87498">
        <ele>285</ele>
        <time>2017-06-03T09:03:36Z</time>
      </trkpt>
      <trkpt lat="45.9615" lon="4.87493">
        <ele>285</ele>
        <time>2017-06-03T09:03:37Z</time>
      </trkpt>
      <trkpt lat="45.96155" lon="4.87487">
        <ele>285</ele>
        <time>2017-06-03T09:03:38Z</time>
      </trkpt>
      <trkpt lat="45.9616" lon="4.87481">
        <ele>285</ele>
        <time>2017-06-03T09:03:39Z</time>
      </trkpt>
      <trkpt lat="45.96165" lon="4.87475">
        <ele>285</ele>
        <time>2017-06-03T09:03:40Z</time>
      </trkpt>
      <trkpt lat="45.96171" lon="4.87469">
        <ele>284</ele>
        <time>2017-06-03T09:03:41Z</time>
      </trkpt>
      <trkpt lat="45.96176" lon="4.87464">
        <ele>284</ele>
        <time>2017-06-03T09:03:42Z</time>
      </trkpt>
      <trkpt lat="45.96182" lon="4.87458">
        <ele>284</ele>
        <time>2017-06-03T09:03:43Z</time>
      </trkpt>
      <trkpt lat="45.96187" lon="4.87452">
        <ele>284</ele>
        <time>2017-06-03T09:03:44Z</time>
      </trkpt>
      <trkpt lat="45.96193" lon="4.87445">
        <ele>284</ele>
        <time>2017-06-03T09:03:45Z</time>
      </trkpt>
      <trkpt lat="45.96198" lon="4.87439">
        <ele>284</ele>
        <time>2017-06-03T09:03:46Z</time>
      </trkpt>
      <trkpt lat="45.96204" lon="4.87432">
        <ele>284</ele>
        <time>2017-06-03T09:03:47Z</time>
      </trkpt>
      <trkpt lat="45.96209" lon="4.87426">
        <ele>284</ele>
        <time>2017-06-03T09:03:48Z</time>
      </trkpt>
      <trkpt lat="45.96214" lon="4.87421">
        <ele>284</ele>
        <time>2017-06-03T09:03:49Z</time>
      </trkpt>
      <trkpt lat="45.96219" lon="4.87415">
        <ele>283</ele>
        <time>2017-06-03T09:03:50Z</time>
      </trkpt>
      <trkpt lat="45.96225" lon="4.87409">
        <ele>283</ele>
        <time>2017-06-03T09:03:51Z</time>
      </trkpt>
      <trkpt lat="45.9623" lon="4.87404">
        <ele>283</ele>
        <time>2017-06-03T09:03:52Z</time>
      </trkpt>
      <trkpt lat="45.96234" lon="4.87398">
        <ele>283</ele>
        <time>2017-06-03T09:03:53Z</time>
      </trkpt>
      <trkpt lat="45.96239" lon="4.87393">
        <ele>283</ele>
        <time>2017-06-03T09:03:54Z</time>
      </trkpt>
      <trkpt lat="45.96244" lon="4.87387">
        <ele>283</ele>
        <time>2017-06-03T09:03:55Z</time>
      </trkpt>
      <trkpt lat="45.96249" lon="4.87381">
        <ele>283</ele>
        <time>2017-06-03T09:03:56Z</time>
      </trkpt>
      <trkpt lat="45.96254" lon="4.87375">
        <ele>283</ele>
        <time>2017-06-03T09:03:57Z</time>
      </trkpt>
      <trkpt lat="45.96258" lon="4.8737">
        <ele>283</ele>
        <time>2017-06-03T09:03:58Z</time>
      </trkpt>
      <trkpt lat="45.96263" lon="4.87364">
        <ele>283</ele>
        <time>2017-06-03T09:03:59Z</time>
      </trkpt>
      <trkpt lat="45.96268" lon="4.87358">
        <ele>283</ele>
        <time>2017-06-03T09:04:00Z</time>
      </trkpt>
      <trkpt lat="45.96272" lon="4.87353">
        <ele>284</ele>
        <time>2017-06-03T09:04:01Z</time>
      </trkpt>
      <trkpt lat="45.96277" lon="4.87347">
        <ele>284</ele>
        <time>2017-06-03T09:04:02Z</time>
      </trkpt>
      <trkpt lat="45.96281" lon="4.87341">
        <ele>284</ele>
        <time>2017-06-03T09:04:03Z</time>
      </trkpt>
      <trkpt lat="45.96286" lon="4.87335">
        <ele>284</ele>
        <time>2017-06-03T09:04:04Z</time>
      </trkpt>
      <trkpt lat="45.9629" lon="4.8733">
        <ele>283</ele>
        <time>2017-06-03T09:04:05Z</time>
      </trkpt>
      <trkpt lat="45.96294" lon="4.87324">
        <ele>283</ele>
        <time>2017-06-03T09:04:06Z</time>
      </trkpt>
      <trkpt lat="45.96299" lon="4.87318">
        <ele>283</ele>
        <time>2017-06-03T09:04:07Z</time>
      </trkpt>
      <trkpt lat="45.96303" lon="4.87312">
        <ele>283</ele>
        <time>2017-06-03T09:04:08Z</time>
      </trkpt>
      <trkpt lat="45.96308" lon="4.87306">
        <ele>283</ele>
        <time>2017-06-03T09:04:09Z</time>
      </trkpt>
      <trkpt lat="45.96312" lon="4.87301">
        <ele>283</ele>
        <time>2017-06-03T09:04:10Z</time>
      </trkpt>
      <trkpt lat="45.96316" lon="4.87295">
        <ele>283</ele>
        <time>2017-06-03T09:04:11Z</time>
      </trkpt>
      <trkpt lat="45.96321" lon="4.87289">
        <ele>283</ele>
        <time>2017-06-03T09:04:12Z</time>
      </trkpt>
      <trkpt lat="45.96325" lon="4.87283">
        <ele>283</ele>
        <time>2017-06-03T09:04:13Z</time>
      </trkpt>
      <trkpt lat="45.96329" lon="4.87277">
        <ele>283</ele>
        <time>2017-06-03T09:04:14Z</time>
      </trkpt>
      <trkpt lat="45.96334" lon="4.87272">
        <ele>283</ele>
        <time>2017-06-03T09:04:15Z</time>
      </trkpt>
      <trkpt lat="45.96338" lon="4.87266">
        <ele>283</ele>
        <time>2017-06-03T09:04:16Z</time>
      </trkpt>
      <trkpt lat="45.96342" lon="4.87261">
        <ele>283</ele>
        <time>2017-06-03T09:04:17Z</time>
      </trkpt>
      <trkpt lat="45.96346" lon="4.87255">
        <ele>283</ele>
        <time>2017-06-03T09:04:18Z</time>
      </trkpt>
      <trkpt lat="45.9635" lon="4.87249">
        <ele>283</ele>
        <time>2017-06-03T09:04:19Z</time>
      </trkpt>
      <trkpt lat="45.96355" lon="4.87244">
        <ele>282</ele>
        <time>2017-06-03T09:04:20Z</time>
      </trkpt>
      <trkpt lat="45.96359" lon="4.87238">
        <ele>282</ele>
        <time>2017-06-03T09:04:21Z</time>
      </trkpt>
      <trkpt lat="45.96363" lon="4.87233">
        <ele>282</ele>
        <time>2017-06-03T09:04:22Z</time>
      </trkpt>
      <trkpt lat="45.96367" lon="4.87227">
        <ele>282</ele>
        <time>2017-06-03T09:04:23Z</time>
      </trkpt>
      <trkpt lat="45.96371" lon="4.87222">
        <ele>282</ele>
        <time>2017-06-03T09:04:24Z</time>
      </trkpt>
      <trkpt lat="45.96376" lon="4.87217">
        <ele>282</ele>
        <time>2017-06-03T09:04:25Z</time>
      </trkpt>
      <trkpt lat="45.96379" lon="4.87211">
        <ele>282</ele>
        <time>2017-06-03T09:04:26Z</time>
      </trkpt>
      <trkpt lat="45.96383" lon="4.87206">
        <ele>282</ele>
        <time>2017-06-03T09:04:27Z</time>
      </trkpt>
      <trkpt lat="45.96387" lon="4.872">
        <ele>282</ele>
        <time>2017-06-03T09:04:28Z</time>
      </trkpt>
      <trkpt lat="45.96391" lon="4.87195">
        <ele>282</ele>
        <time>2017-06-03T09:04:29Z</time>
      </trkpt>
      <trkpt lat="45.96395" lon="4.8719">
        <ele>282</ele>
        <time>2017-06-03T09:04:30Z</time>
      </trkpt>
      <trkpt lat="45.96399" lon="4.87184">
        <ele>282</ele>
        <time>2017-06-03T09:04:31Z</time>
      </trkpt>
      <trkpt lat="45.96403" lon="4.87179">
        <ele>282</ele>
        <time>2017-06-03T09:04:32Z</time>
      </trkpt>
      <trkpt lat="45.96407" lon="4.87174">
        <ele>281</ele>
        <time>2017-06-03T09:04:33Z</time>
      </trkpt>
      <trkpt lat="45.96411" lon="4.87169">
        <ele>281</ele>
        <time>2017-06-03T09:04:34Z</time>
      </trkpt>
      <trkpt lat="45.96415" lon="4.87164">
        <ele>281</ele>
        <time>2017-06-03T09:04:35Z</time>
      </trkpt>
      <trkpt lat="45.96419" lon="4.87159">
        <ele>281</ele>
        <time>2017-06-03T09:04:36Z</time>
      </trkpt>
      <trkpt lat="45.96423" lon="4.87154">
        <ele>281</ele>
        <time>2017-06-03T09:04:37Z</time>
      </trkpt>
      <trkpt lat="45.96427" lon="4.87149">
        <ele>281</ele>
        <time>2017-06-03T09:04:38Z</time>
      </trkpt>
      <trkpt lat="45.9643" lon="4.87144">
        <ele>281</ele>
        <time>2017-06-03T09:04:39Z</time>
      </trkpt>
      <trkpt lat="45.96434" lon="4.87139">
        <ele>281</ele>
        <time>2017-06-03T09:04:40Z</time>
      </trkpt>
      <trkpt lat="45.96438" lon="4.87134">
        <ele>281</ele>
        <time>2017-06-03T09:04:41Z</time>
      </trkpt>
      <trkpt lat="45.96442" lon="4.87128">
        <ele>281</ele>
        <time>2017-06-03T09:04:42Z</time>
      </trkpt>
      <trkpt lat="45.96446" lon="4.87122">
        <ele>281</ele>
        <time>2017-06-03T09:04:43Z</time>
      </trkpt>
      <trkpt lat="45.9645" lon="4.87117">
        <ele>281</ele>
        <time>2017-06-03T09:04:44Z</time>
      </trkpt>
      <trkpt lat="45.96454" lon="4.87113">
        <ele>281</ele>
        <time>2017-06-03T09:04:45Z</time>
      </trkpt>
      <trkpt lat="45.96458" lon="4.87108">
        <ele>281</ele>
        <time>2017-06-03T09:04:46Z</time>
      </trkpt>
      <trkpt lat="45.96462" lon="4.87104">
        <ele>282</ele>
        <time>2017-06-03T09:04:47Z</time>
      </trkpt>
      <trkpt lat="45.96465" lon="4.87099">
        <ele>282</ele>
        <time>2017-06-03T09:04:48Z</time>
      </trkpt>
      <trkpt lat="45.96472" lon="4.87091">
        <ele>282</ele>
        <time>2017-06-03T09:04:50Z</time>
      </trkpt>
      <trkpt lat="45.96475" lon="4.87086">
        <ele>282</ele>
        <time>2017-06-03T09:04:51Z</time>
      </trkpt>
      <trkpt lat="45.96481" lon="4.87077">
        <ele>282</ele>
        <time>2017-06-03T09:04:53Z</time>
      </trkpt>
      <trkpt lat="45.96484" lon="4.87073">
        <ele>282</ele>
        <time>2017-06-03T09:04:54Z</time>
      </trkpt>
      <trkpt lat="45.9649" lon="4.87065">
        <ele>282</ele>
        <time>2017-06-03T09:04:56Z</time>
      </trkpt>
      <trkpt lat="45.96493" lon="4.87061">
        <ele>282</ele>
        <time>2017-06-03T09:04:57Z</time>
      </trkpt>
      <trkpt lat="45.96499" lon="4.87053">
        <ele>281</ele>
        <time>2017-06-03T09:04:59Z</time>
      </trkpt>
      <trkpt lat="45.96502" lon="4.8705">
        <ele>282</ele>
        <time>2017-06-03T09:05:00Z</time>
      </trkpt>
      <trkpt lat="45.96508" lon="4.87053">
        <ele>283</ele>
        <time>2017-06-03T09:05:04Z</time>
      </trkpt>
      <trkpt lat="45.9651" lon="4.87057">
        <ele>283</ele>
        <time>2017-06-03T09:05:05Z</time>
      </trkpt>
      <trkpt lat="45.96515" lon="4.87065">
        <ele>283</ele>
        <time>2017-06-03T09:05:07Z</time>
      </trkpt>
      <trkpt lat="45.96518" lon="4.87068">
        <ele>283</ele>
        <time>2017-06-03T09:05:08Z</time>
      </trkpt>
      <trkpt lat="45.96525" lon="4.8707">
        <ele>283</ele>
        <time>2017-06-03T09:05:10Z</time>
      </trkpt>
      <trkpt lat="45.96528" lon="4.87069">
        <ele>283</ele>
        <time>2017-06-03T09:05:11Z</time>
      </trkpt>
      <trkpt lat="45.96534" lon="4.87063">
        <ele>283</ele>
        <time>2017-06-03T09:05:14Z</time>
      </trkpt>
      <trkpt lat="45.96536" lon="4.87063">
        <ele>283</ele>
        <time>2017-06-03T09:05:15Z</time>
      </trkpt>
      <trkpt lat="45.96538" lon="4.87073">
        <ele>283</ele>
        <time>2017-06-03T09:05:19Z</time>
      </trkpt>
      <trkpt lat="45.9654" lon="4.87075">
        <ele>283</ele>
        <time>2017-06-03T09:05:20Z</time>
      </trkpt>
      <trkpt lat="45.96548" lon="4.87076">
        <ele>283</ele>
        <time>2017-06-03T09:05:24Z</time>
      </trkpt>
      <trkpt lat="45.9655" lon="4.87076">
        <ele>283</ele>
        <time>2017-06-03T09:05:25Z</time>
      </trkpt>
      <trkpt lat="45.96551" lon="4.87063">
        <ele>283</ele>
        <time>2017-06-03T09:05:30Z</time>
      </trkpt>
      <trkpt lat="45.96549" lon="4.8706">
        <ele>283</ele>
        <time>2017-06-03T09:05:31Z</time>
      </trkpt>
      <trkpt lat="45.96549" lon="4.87049">
        <ele>283</ele>
        <time>2017-06-03T09:05:38Z</time>
      </trkpt>
      <trkpt lat="45.96549" lon="4.87046">
        <ele>283</ele>
        <time>2017-06-03T09:05:39Z</time>
      </trkpt>
      <trkpt lat="45.96549" lon="4.87034">
        <ele>283</ele>
        <time>2017-06-03T09:05:43Z</time>
      </trkpt>
      <trkpt lat="45.96548" lon="4.87031">
        <ele>283</ele>
        <time>2017-06-03T09:05:44Z</time>
      </trkpt>
      <trkpt lat="45.9654" lon="4.87028">
        <ele>283</ele>
        <time>2017-06-03T09:10:21Z</time>
      </trkpt>
      <trkpt lat="45.96539" lon="4.87028">
        <ele>283</ele>
        <time>2017-06-03T09:10:22Z</time>
      </trkpt>
      <trkpt lat="45.96544" lon="4.87018">
        <ele>283</ele>
        <time>2017-06-03T09:11:10Z</time>
      </trkpt>
      <trkpt lat="45.96543" lon="4.87016">
        <ele>283</ele>
        <time>2017-06-03T09:11:11Z</time>
      </trkpt>
      <trkpt lat="45.96541" lon="4.87005">
        <ele>283</ele>
        <time>2017-06-03T09:11:14Z</time>
      </trkpt>
      <trkpt lat="45.96541" lon="4.87">
        <ele>283</ele>
        <time>2017-06-03T09:11:15Z</time>
      </trkpt>
      <trkpt lat="45.96545" lon="4.86989">
        <ele>283</ele>
        <time>2017-06-03T09:11:18Z</time>
      </trkpt>
      <trkpt lat="45.96547" lon="4.86987">
        <ele>283</ele>
        <time>2017-06-03T09:11:19Z</time>
      </trkpt>
      <trkpt lat="45.96552" lon="4.8698">
        <ele>283</ele>
        <time>2017-06-03T09:11:21Z</time>
      </trkpt>
      <trkpt lat="45.96554" lon="4.86977">
        <ele>283</ele>
        <time>2017-06-03T09:11:22Z</time>
      </trkpt>
      <trkpt lat="45.96559" lon="4.86968">
        <ele>283</ele>
        <time>2017-06-03T09:11:24Z</time>
      </trkpt>
      <trkpt lat="45.96562" lon="4.86964">
        <ele>283</ele>
        <time>2017-06-03T09:11:25Z</time>
      </trkpt>
      <trkpt lat="45.96567" lon="4.86955">
        <ele>284</ele>
        <time>2017-06-03T09:11:27Z</time>
      </trkpt>
      <trkpt lat="45.9657" lon="4.8695">
        <ele>284</ele>
        <time>2017-06-03T09:11:28Z</time>
      </trkpt>
      <trkpt lat="45.96575" lon="4.86941">
        <ele>284</ele>
        <time>2017-06-03T09:11:30Z</time>
      </trkpt>
      <trkpt lat="45.96578" lon="4.86936">
        <ele>284</ele>
        <time>2017-06-03T09:11:31Z</time>
      </trkpt>
      <trkpt lat="45.96581" lon="4.86931">
        <ele>284</ele>
        <time>2017-06-03T09:11:32Z</time>
      </trkpt>
      <trkpt lat="45.96584" lon="4.86925">
        <ele>285</ele>
        <time>2017-06-03T09:11:33Z</time>
      </trkpt>
      <trkpt lat="45.96587" lon="4.8692">
        <ele>285</ele>
        <time>2017-06-03T09:11:34Z</time>
      </trkpt>
      <trkpt lat="45.9659" lon="4.86915">
        <ele>286</ele>
        <time>2017-06-03T09:11:35Z</time>
      </trkpt>
      <trkpt lat="45.96596" lon="4.86906">
        <ele>286</ele>
        <time>2017-06-03T09:11:37Z</time>
      </trkpt>
      <trkpt lat="45.96598" lon="4.869">
        <ele>286</ele>
        <time>2017-06-03T09:11:38Z</time>
      </trkpt>
      <trkpt lat="45.96603" lon="4.86892">
        <ele>286</ele>
        <time>2017-06-03T09:11:40Z</time>
      </trkpt>
      <trkpt lat="45.96605" lon="4.86888">
        <ele>287</ele>
        <time>2017-06-03T09:11:41Z</time>
      </trkpt>
      <trkpt lat="45.9661" lon="4.8688">
        <ele>287</ele>
        <time>2017-06-03T09:11:43Z</time>
      </trkpt>
      <trkpt lat="45.96613" lon="4.86876">
        <ele>287</ele>
        <time>2017-06-03T09:11:44Z</time>
      </trkpt>
      <trkpt lat="45.96618" lon="4.86867">
        <ele>287</ele>
        <time>2017-06-03T09:11:46Z</time>
      </trkpt>
      <trkpt lat="45.96621" lon="4.86863">
        <ele>287</ele>
        <time>2017-06-03T09:11:47Z</time>
      </trkpt>
      <trkpt lat="45.96626" lon="4.86854">
        <ele>287</ele>
        <time>2017-06-03T09:11:49Z</time>
      </trkpt>
      <trkpt lat="45.96629" lon="4.8685">
        <ele>287</ele>
        <time>2017-06-03T09:11:50Z</time>
      </trkpt>
      <trkpt lat="45.96635" lon="4.86841">
        <ele>287</ele>
        <time>2017-06-03T09:11:52Z</time>
      </trkpt>
      <trkpt lat="45.96638" lon="4.86836">
        <ele>287</ele>
        <time>2017-06-03T09:11:53Z</time>
      </trkpt>
      <trkpt lat="45.96643" lon="4.86827">
        <ele>288</ele>
        <time>2017-06-03T09:11:55Z</time>
      </trkpt>
      <trkpt lat="45.96645" lon="4.86823">
        <ele>288</ele>
        <time>2017-06-03T09:11:56Z</time>
      </trkpt>
      <trkpt lat="45.96649" lon="4.86815">
        <ele>288</ele>
        <time>2017-06-03T09:11:58Z</time>
      </trkpt>
      <trkpt lat="45.96652" lon="4.86811">
        <ele>288</ele>
        <time>2017-06-03T09:11:59Z</time>
      </trkpt>
      <trkpt lat="45.96657" lon="4.86802">
        <ele>288</ele>
        <time>2017-06-03T09:12:01Z</time>
      </trkpt>
      <trkpt lat="45.9666" lon="4.86798">
        <ele>288</ele>
        <time>2017-06-03T09:12:02Z</time>
      </trkpt>
      <trkpt lat="45.96666" lon="4.86788">
        <ele>288</ele>
        <time>2017-06-03T09:12:04Z</time>
      </trkpt>
      <trkpt lat="45.96669" lon="4.86784">
        <ele>289</ele>
        <time>2017-06-03T09:12:05Z</time>
      </trkpt>
      <trkpt lat="45.96672" lon="4.86778">
        <ele>289</ele>
        <time>2017-06-03T09:12:06Z</time>
      </trkpt>
      <trkpt lat="45.96676" lon="4.86773">
        <ele>289</ele>
        <time>2017-06-03T09:12:07Z</time>
      </trkpt>
      <trkpt lat="45.96679" lon="4.86768">
        <ele>289</ele>
        <time>2017-06-03T09:12:08Z</time>
      </trkpt>
      <trkpt lat="45.96683" lon="4.86762">
        <ele>289</ele>
        <time>2017-06-03T09:12:09Z</time>
      </trkpt>
      <trkpt lat="45.96688" lon="4.86752">
        <ele>289</ele>
        <time>2017-06-03T09:12:11Z</time>
      </trkpt>
      <trkpt lat="45.96691" lon="4.86748">
        <ele>289</ele>
        <time>2017-06-03T09:12:12Z</time>
      </trkpt>
      <trkpt lat="45.96696" lon="4.86739">
        <ele>289</ele>
        <time>2017-06-03T09:12:14Z</time>
      </trkpt>
      <trkpt lat="45.96699" lon="4.86734">
        <ele>289</ele>
        <time>2017-06-03T09:12:15Z</time>
      </trkpt>
      <trkpt lat="45.96702" lon="4.86729">
        <ele>289</ele>
        <time>2017-06-03T09:12:16Z</time>
      </trkpt>
      <trkpt lat="45.96705" lon="4.86724">
        <ele>289</ele>
        <time>2017-06-03T09:12:17Z</time>
      </trkpt>
      <trkpt lat="45.96708" lon="4.86719">
        <ele>289</ele>
        <time>2017-06-03T09:12:18Z</time>
      </trkpt>
      <trkpt lat="45.96711" lon="4.86714">
        <ele>289</ele>
        <time>2017-06-03T09:12:19Z</time>
      </trkpt>
      <trkpt lat="45.96717" lon="4.86704">
        <ele>289</ele>
        <time>2017-06-03T09:12:21Z</time>
      </trkpt>
      <trkpt lat="45.9672" lon="4.86699">
        <ele>289</ele>
        <time>2017-06-03T09:12:22Z</time>
      </trkpt>
      <trkpt lat="45.96725" lon="4.8669">
        <ele>289</ele>
        <time>2017-06-03T09:12:24Z</time>
      </trkpt>
      <trkpt lat="45.96728" lon="4.86685">
        <ele>289</ele>
        <time>2017-06-03T09:12:25Z</time>
      </trkpt>
      <trkpt lat="45.96734" lon="4.86675">
        <ele>290</ele>
        <time>2017-06-03T09:12:27Z</time>
      </trkpt>
      <trkpt lat="45.96737" lon="4.86671">
        <ele>290</ele>
        <time>2017-06-03T09:12:28Z</time>
      </trkpt>
      <trkpt lat="45.96743" lon="4.86663">
        <ele>290</ele>
        <time>2017-06-03T09:12:30Z</time>
      </trkpt>
      <trkpt lat="45.96745" lon="4.86658">
        <ele>290</ele>
        <time>2017-06-03T09:12:31Z</time>
      </trkpt>
      <trkpt lat="45.9675" lon="4.8665">
        <ele>290</ele>
        <time>2017-06-03T09:12:33Z</time>
      </trkpt>
      <trkpt lat="45.96753" lon="4.86645">
        <ele>290</ele>
        <time>2017-06-03T09:12:34Z</time>
      </trkpt>
      <trkpt lat="45.96758" lon="4.86635">
        <ele>290</ele>
        <time>2017-06-03T09:12:36Z</time>
      </trkpt>
      <trkpt lat="45.96761" lon="4.8663">
        <ele>289</ele>
        <time>2017-06-03T09:12:37Z</time>
      </trkpt>
      <trkpt lat="45.96764" lon="4.86625">
        <ele>289</ele>
        <time>2017-06-03T09:12:38Z</time>
      </trkpt>
      <trkpt lat="45.96767" lon="4.8662">
        <ele>289</ele>
        <time>2017-06-03T09:12:39Z</time>
      </trkpt>
      <trkpt lat="45.96771" lon="4.86614">
        <ele>289</ele>
        <time>2017-06-03T09:12:40Z</time>
      </trkpt>
      <trkpt lat="45.96774" lon="4.8661">
        <ele>289</ele>
        <time>2017-06-03T09:12:41Z</time>
      </trkpt>
      <trkpt lat="45.96777" lon="4.86605">
        <ele>289</ele>
        <time>2017-06-03T09:12:42Z</time>
      </trkpt>
      <trkpt lat="45.9678" lon="4.866">
        <ele>289</ele>
        <time>2017-06-03T09:12:43Z</time>
      </trkpt>
      <trkpt lat="45.96785" lon="4.8659">
        <ele>289</ele>
        <time>2017-06-03T09:12:45Z</time>
      </trkpt>
      <trkpt lat="45.96788" lon="4.86585">
        <ele>289</ele>
        <time>2017-06-03T09:12:46Z</time>
      </trkpt>
      <trkpt lat="45.96791" lon="4.8658">
        <ele>290</ele>
        <time>2017-06-03T09:12:47Z</time>
      </trkpt>
      <trkpt lat="45.96794" lon="4.86575">
        <ele>290</ele>
        <time>2017-06-03T09:12:48Z</time>
      </trkpt>
      <trkpt lat="45.96797" lon="4.86569">
        <ele>290</ele>
        <time>2017-06-03T09:12:49Z</time>
      </trkpt>
      <trkpt lat="45.96801" lon="4.86564">
        <ele>290</ele>
        <time>2017-06-03T09:12:50Z</time>
      </trkpt>
      <trkpt lat="45.96804" lon="4.86558">
        <ele>290</ele>
        <time>2017-06-03T09:12:51Z</time>
      </trkpt>
      <trkpt lat="45.96808" lon="4.86553">
        <ele>290</ele>
        <time>2017-06-03T09:12:52Z</time>
      </trkpt>
      <trkpt lat="45.96811" lon="4.86547">
        <ele>290</ele>
        <time>2017-06-03T09:12:53Z</time>
      </trkpt>
      <trkpt lat="45.96815" lon="4.86541">
        <ele>290</ele>
        <time>2017-06-03T09:12:54Z</time>
      </trkpt>
      <trkpt lat="45.96818" lon="4.86535">
        <ele>290</ele>
        <time>2017-06-03T09:12:55Z</time>
      </trkpt>
      <trkpt lat="45.96821" lon="4.8653">
        <ele>290</ele>
        <time>2017-06-03T09:12:56Z</time>
      </trkpt>
      <trkpt lat="45.96824" lon="4.86525">
        <ele>289</ele>
        <time>2017-06-03T09:12:57Z</time>
      </trkpt>
      <trkpt lat="45.96827" lon="4.86519">
        <ele>289</ele>
        <time>2017-06-03T09:12:58Z</time>
      </trkpt>
      <trkpt lat="45.9683" lon="4.86514">
        <ele>289</ele>
        <time>2017-06-03T09:12:59Z</time>
      </trkpt>
      <trkpt lat="45.96833" lon="4.86507">
        <ele>289</ele>
        <time>2017-06-03T09:13:00Z</time>
      </trkpt>
      <trkpt lat="45.96836" lon="4.86501">
        <ele>289</ele>
        <time>2017-06-03T09:13:01Z</time>
      </trkpt>
      <trkpt lat="45.96839" lon="4.86494">
        <ele>289</ele>
        <time>2017-06-03T09:13:02Z</time>
      </trkpt>
      <trkpt lat="45.96842" lon="4.86487">
        <ele>289</ele>
        <time>2017-06-03T09:13:03Z</time>
      </trkpt>
      <trkpt lat="45.96844" lon="4.86481">
        <ele>289</ele>
        <time>2017-06-03T09:13:04Z</time>
      </trkpt>
      <trkpt lat="45.96846" lon="4.86475">
        <ele>289</ele>
        <time>2017-06-03T09:13:05Z</time>
      </trkpt>
      <trkpt lat="45.96848" lon="4.86468">
        <ele>289</ele>
        <time>2017-06-03T09:13:06Z</time>
      </trkpt>
      <trkpt lat="45.9685" lon="4.86462">
        <ele>289</ele>
        <time>2017-06-03T09:13:07Z</time>
      </trkpt>
      <trkpt lat="45.96852" lon="4.86456">
        <ele>289</ele>
        <time>2017-06-03T09:13:08Z</time>
      </trkpt>
      <trkpt lat="45.96853" lon="4.8645">
        <ele>289</ele>
        <time>2017-06-03T09:13:09Z</time>
      </trkpt>
      <trkpt lat="45.96854" lon="4.86443">
        <ele>290</ele>
        <time>2017-06-03T09:13:10Z</time>
      </trkpt>
      <trkpt lat="45.96856" lon="4.86437">
        <ele>290</ele>
        <time>2017-06-03T09:13:11Z</time>
      </trkpt>
      <trkpt lat="45.96857" lon="4.8643">
        <ele>290</ele>
        <time>2017-06-03T09:13:12Z</time>
      </trkpt>
      <trkpt lat="45.96858" lon="4.86423">
        <ele>290</ele>
        <time>2017-06-03T09:13:13Z</time>
      </trkpt>
      <trkpt lat="45.96859" lon="4.86416">
        <ele>290</ele>
        <time>2017-06-03T09:13:14Z</time>
      </trkpt>
      <trkpt lat="45.9686" lon="4.86409">
        <ele>290</ele>
        <time>2017-06-03T09:13:15Z</time>
      </trkpt>
      <trkpt lat="45.96861" lon="4.86402">
        <ele>290</ele>
        <time>2017-06-03T09:13:16Z</time>
      </trkpt>
      <trkpt lat="45.96862" lon="4.86395">
        <ele>290</ele>
        <time>2017-06-03T09:13:17Z</time>
      </trkpt>
      <trkpt lat="45.96863" lon="4.86389">
        <ele>290</ele>
        <time>2017-06-03T09:13:18Z</time>
      </trkpt>
      <trkpt lat="45.96864" lon="4.86382">
        <ele>290</ele>
        <time>2017-06-03T09:13:19Z</time>
      </trkpt>
      <trkpt lat="45.96865" lon="4.86376">
        <ele>290</ele>
        <time>2017-06-03T09:13:20Z</time>
      </trkpt>
      <trkpt lat="45.96866" lon="4.86369">
        <ele>290</ele>
        <time>2017-06-03T09:13:21Z</time>
      </trkpt>
      <trkpt lat="45.96867" lon="4.86361">
        <ele>290</ele>
        <time>2017-06-03T09:13:22Z</time>
      </trkpt>
      <trkpt lat="45.96868" lon="4.86353">
        <ele>290</ele>
        <time>2017-06-03T09:13:23Z</time>
      </trkpt>
      <trkpt lat="45.9687" lon="4.86345">
        <ele>290</ele>
        <time>2017-06-03T09:13:24Z</time>
      </trkpt>
      <trkpt lat="45.96871" lon="4.86336">
        <ele>290</ele>
        <time>2017-06-03T09:13:25Z</time>
      </trkpt>
      <trkpt lat="45.96872" lon="4.86327">
        <ele>289</ele>
        <time>2017-06-03T09:13:26Z</time>
      </trkpt>
      <trkpt lat="45.96873" lon="4.86318">
        <ele>289</ele>
        <time>2017-06-03T09:13:27Z</time>
      </trkpt>
      <trkpt lat="45.96874" lon="4.86311">
        <ele>289</ele>
        <time>2017-06-03T09:13:28Z</time>
      </trkpt>
      <trkpt lat="45.96875" lon="4.86303">
        <ele>289</ele>
        <time>2017-06-03T09:13:29Z</time>
      </trkpt>
      <trkpt lat="45.96875" lon="4.86296">
        <ele>289</ele>
        <time>2017-06-03T09:13:30Z</time>
      </trkpt>
      <trkpt lat="45.96876" lon="4.86289">
        <ele>289</ele>
        <time>2017-06-03T09:13:31Z</time>
      </trkpt>
      <trkpt lat="45.96877" lon="4.86282">
        <ele>289</ele>
        <time>2017-06-03T09:13:32Z</time>
      </trkpt>
      <trkpt lat="45.96879" lon="4.86276">
        <ele>289</ele>
        <time>2017-06-03T09:13:33Z</time>
      </trkpt>
      <trkpt lat="45.9688" lon="4.8627">
        <ele>288</ele>
        <time>2017-06-03T09:13:34Z</time>
      </trkpt>
      <trkpt lat="45.9688" lon="4.86263">
        <ele>288</ele>
        <time>2017-06-03T09:13:35Z</time>
      </trkpt>
      <trkpt lat="45.96881" lon="4.86257">
        <ele>288</ele>
        <time>2017-06-03T09:13:36Z</time>
      </trkpt>
      <trkpt lat="45.96882" lon="4.86244">
        <ele>288</ele>
        <time>2017-06-03T09:13:38Z</time>
      </trkpt>
      <trkpt lat="45.96883" lon="4.86238">
        <ele>289</ele>
        <time>2017-06-03T09:13:39Z</time>
      </trkpt>
      <trkpt lat="45.96885" lon="4.8623">
        <ele>289</ele>
        <time>2017-06-03T09:13:40Z</time>
      </trkpt>
      <trkpt lat="45.96886" lon="4.86222">
        <ele>289</ele>
        <time>2017-06-03T09:13:41Z</time>
      </trkpt>
      <trkpt lat="45.96887" lon="4.86214">
        <ele>289</ele>
        <time>2017-06-03T09:13:42Z</time>
      </trkpt>
      <trkpt lat="45.96888" lon="4.86206">
        <ele>289</ele>
        <time>2017-06-03T09:13:43Z</time>
      </trkpt>
      <trkpt lat="45.96889" lon="4.86198">
        <ele>289</ele>
        <time>2017-06-03T09:13:44Z</time>
      </trkpt>
      <trkpt lat="45.9689" lon="4.8619">
        <ele>289</ele>
        <time>2017-06-03T09:13:45Z</time>
      </trkpt>
      <trkpt lat="45.96891" lon="4.86181">
        <ele>289</ele>
        <time>2017-06-03T09:13:46Z</time>
      </trkpt>
      <trkpt lat="45.96892" lon="4.86173">
        <ele>289</ele>
        <time>2017-06-03T09:13:47Z</time>
      </trkpt>
      <trkpt lat="45.96893" lon="4.86165">
        <ele>289</ele>
        <time>2017-06-03T09:13:48Z</time>
      </trkpt>
      <trkpt lat="45.96894" lon="4.86156">
        <ele>289</ele>
        <time>2017-06-03T09:13:49Z</time>
      </trkpt>
      <trkpt lat="45.96896" lon="4.86147">
        <ele>289</ele>
        <time>2017-06-03T09:13:50Z</time>
      </trkpt>
      <trkpt lat="45.96897" lon="4.86138">
        <ele>289</ele>
        <time>2017-06-03T09:13:51Z</time>
      </trkpt>
      <trkpt lat="45.96898" lon="4.86128">
        <ele>289</ele>
        <time>2017-06-03T09:13:52Z</time>
      </trkpt>
      <trkpt lat="45.96899" lon="4.86119">
        <ele>289</ele>
        <time>2017-06-03T09:13:53Z</time>
      </trkpt>
      <trkpt lat="45.96901" lon="4.86108">
        <ele>289</ele>
        <time>2017-06-03T09:13:54Z</time>
      </trkpt>
      <trkpt lat="45.96902" lon="4.86098">
        <ele>288</ele>
        <time>2017-06-03T09:13:55Z</time>
      </trkpt>
      <trkpt lat="45.96903" lon="4.86088">
        <ele>288</ele>
        <time>2017-06-03T09:13:56Z</time>
      </trkpt>
      <trkpt lat="45.96904" lon="4.86077">
        <ele>288</ele>
        <time>2017-06-03T09:13:57Z</time>
      </trkpt>
      <trkpt lat="45.96905" lon="4.86067">
        <ele>288</ele>
        <time>2017-06-03T09:13:58Z</time>
      </trkpt>
      <trkpt lat="45.96906" lon="4.86057">
        <ele>288</ele>
        <time>2017-06-03T09:13:59Z</time>
      </trkpt>
      <trkpt lat="45.96907" lon="4.86046">
        <ele>289</ele>
        <time>2017-06-03T09:14:00Z</time>
      </trkpt>
      <trkpt lat="45.96908" lon="4.86036">
        <ele>289</ele>
        <time>2017-06-03T09:14:01Z</time>
      </trkpt>
      <trkpt lat="45.96909" lon="4.86027">
        <ele>289</ele>
        <time>2017-06-03T09:14:02Z</time>
      </trkpt>
      <trkpt lat="45.96911" lon="4.86017">
        <ele>289</ele>
        <time>2017-06-03T09:14:03Z</time>
      </trkpt>
      <trkpt lat="45.96913" lon="4.86007">
        <ele>288</ele>
        <time>2017-06-03T09:14:04Z</time>
      </trkpt>
      <trkpt lat="45.96915" lon="4.85998">
        <ele>288</ele>
        <time>2017-06-03T09:14:05Z</time>
      </trkpt>
      <trkpt lat="45.96916" lon="4.85988">
        <ele>288</ele>
        <time>2017-06-03T09:14:06Z</time>
      </trkpt>
      <trkpt lat="45.96918" lon="4.85979">
        <ele>287</ele>
        <time>2017-06-03T09:14:07Z</time>
      </trkpt>
      <trkpt lat="45.9692" lon="4.8597">
        <ele>287</ele>
        <time>2017-06-03T09:14:08Z</time>
      </trkpt>
      <trkpt lat="45.96922" lon="4.85961">
        <ele>287</ele>
        <time>2017-06-03T09:14:09Z</time>
      </trkpt>
      <trkpt lat="45.96925" lon="4.85952">
        <ele>287</ele>
        <time>2017-06-03T09:14:10Z</time>
      </trkpt>
      <trkpt lat="45.96927" lon="4.85943">
        <ele>286</ele>
        <time>2017-06-03T09:14:11Z</time>
      </trkpt>
      <trkpt lat="45.9693" lon="4.85934">
        <ele>286</ele>
        <time>2017-06-03T09:14:12Z</time>
      </trkpt>
      <trkpt lat="45.96932" lon="4.85924">
        <ele>286</ele>
        <time>2017-06-03T09:14:13Z</time>
      </trkpt>
      <trkpt lat="45.96935" lon="4.85915">
        <ele>286</ele>
        <time>2017-06-03T09:14:14Z</time>
      </trkpt>
      <trkpt lat="45.96937" lon="4.85907">
        <ele>286</ele>
        <time>2017-06-03T09:14:15Z</time>
      </trkpt>
      <trkpt lat="45.96939" lon="4.85899">
        <ele>285</ele>
        <time>2017-06-03T09:14:16Z</time>
      </trkpt>
      <trkpt lat="45.96942" lon="4.8589">
        <ele>285</ele>
        <time>2017-06-03T09:14:17Z</time>
      </trkpt>
      <trkpt lat="45.96944" lon="4.85881">
        <ele>285</ele>
        <time>2017-06-03T09:14:18Z</time>
      </trkpt>
      <trkpt lat="45.96946" lon="4.85873">
        <ele>285</ele>
        <time>2017-06-03T09:14:19Z</time>
      </trkpt>
      <trkpt lat="45.96948" lon="4.85865">
        <ele>285</ele>
        <time>2017-06-03T09:14:20Z</time>
      </trkpt>
      <trkpt lat="45.96951" lon="4.85856">
        <ele>285</ele>
        <time>2017-06-03T09:14:21Z</time>
      </trkpt>
      <trkpt lat="45.96953" lon="4.85847">
        <ele>285</ele>
        <time>2017-06-03T09:14:22Z</time>
      </trkpt>
      <trkpt lat="45.96956" lon="4.85838">
        <ele>285</ele>
        <time>2017-06-03T09:14:23Z</time>
      </trkpt>
      <trkpt lat="45.96958" lon="4.85829">
        <ele>285</ele>
        <time>2017-06-03T09:14:24Z</time>
      </trkpt>
      <trkpt lat="45.9696" lon="4.8582">
        <ele>285</ele>
        <time>2017-06-03T09:14:25Z</time>
      </trkpt>
      <trkpt lat="45.96963" lon="4.85811">
        <ele>285</ele>
        <time>2017-06-03T09:14:26Z</time>
      </trkpt>
      <trkpt lat="45.96965" lon="4.85803">
        <ele>285</ele>
        <time>2017-06-03T09:14:27Z</time>
      </trkpt>
      <trkpt lat="45.96967" lon="4.85794">
        <ele>285</ele>
        <time>2017-06-03T09:14:28Z</time>
      </trkpt>
      <trkpt lat="45.96969" lon="4.85786">
        <ele>285</ele>
        <time>2017-06-03T09:14:29Z</time>
      </trkpt>
      <trkpt lat="45.96971" lon="4.85778">
        <ele>285</ele>
        <time>2017-06-03T09:14:30Z</time>
      </trkpt>
      <trkpt lat="45.96973" lon="4.85769">
        <ele>285</ele>
        <time>2017-06-03T09:14:31Z</time>
      </trkpt>
      <trkpt lat="45.96975" lon="4.85761">
        <ele>285</ele>
        <time>2017-06-03T09:14:32Z</time>
      </trkpt>
      <trkpt lat="45.96977" lon="4.85754">
        <ele>285</ele>
        <time>2017-06-03T09:14:33Z</time>
      </trkpt>
      <trkpt lat="45.9698" lon="4.85746">
        <ele>285</ele>
        <time>2017-06-03T09:14:34Z</time>
      </trkpt>
      <trkpt lat="45.96982" lon="4.85738">
        <ele>285</ele>
        <time>2017-06-03T09:14:35Z</time>
      </trkpt>
      <trkpt lat="45.96984" lon="4.8573">
        <ele>285</ele>
        <time>2017-06-03T09:14:36Z</time>
      </trkpt>
      <trkpt lat="45.96986" lon="4.85723">
        <ele>285</ele>
        <time>2017-06-03T09:14:37Z</time>
      </trkpt>
      <trkpt lat="45.96988" lon="4.85715">
        <ele>285</ele>
        <time>2017-06-03T09:14:38Z</time>
      </trkpt>
      <trkpt lat="45.9699" lon="4.85707">
        <ele>285</ele>
        <time>2017-06-03T09:14:39Z</time>
      </trkpt>
      <trkpt lat="45.96992" lon="4.85699">
        <ele>285</ele>
        <time>2017-06-03T09:14:40Z</time>
      </trkpt>
      <trkpt lat="45.96994" lon="4.8569">
        <ele>285</ele>
        <time>2017-06-03T09:14:41Z</time>
      </trkpt>
      <trkpt lat="45.96997" lon="4.85682">
        <ele>286</ele>
        <time>2017-06-03T09:14:42Z</time>
      </trkpt>
      <trkpt lat="45.96999" lon="4.85673">
        <ele>286</ele>
        <time>2017-06-03T09:14:43Z</time>
      </trkpt>
      <trkpt lat="45.97001" lon="4.85665">
        <ele>286</ele>
        <time>2017-06-03T09:14:44Z</time>
      </trkpt>
      <trkpt lat="45.97003" lon="4.85657">
        <ele>285</ele>
        <time>2017-06-03T09:14:45Z</time>
      </trkpt>
      <trkpt lat="45.97005" lon="4.85649">
        <ele>285</ele>
        <time>2017-06-03T09:14:46Z</time>
      </trkpt>
      <trkpt lat="45.97008" lon="4.8564">
        <ele>284</ele>
        <time>2017-06-03T09:14:47Z</time>
      </trkpt>
      <trkpt lat="45.9701" lon="4.85632">
        <ele>284</ele>
        <time>2017-06-03T09:14:48Z</time>
      </trkpt>
      <trkpt lat="45.97012" lon="4.85623">
        <ele>284</ele>
        <time>2017-06-03T09:14:49Z</time>
      </trkpt>
      <trkpt lat="45.97014" lon="4.85615">
        <ele>284</ele>
        <time>2017-06-03T09:14:50Z</time>
      </trkpt>
      <trkpt lat="45.97017" lon="4.85606">
        <ele>284</ele>
        <time>2017-06-03T09:14:51Z</time>
      </trkpt>
      <trkpt lat="45.97019" lon="4.85596">
        <ele>284</ele>
        <time>2017-06-03T09:14:52Z</time>
      </trkpt>
      <trkpt lat="45.97021" lon="4.85586">
        <ele>284</ele>
        <time>2017-06-03T09:14:53Z</time>
      </trkpt>
      <trkpt lat="45.97024" lon="4.85577">
        <ele>283</ele>
        <time>2017-06-03T09:14:54Z</time>
      </trkpt>
      <trkpt lat="45.97026" lon="4.85567">
        <ele>283</ele>
        <time>2017-06-03T09:14:55Z</time>
      </trkpt>
      <trkpt lat="45.97029" lon="4.85558">
        <ele>283</ele>
        <time>2017-06-03T09:14:56Z</time>
      </trkpt>
      <trkpt lat="45.97032" lon="4.85548">
        <ele>283</ele>
        <time>2017-06-03T09:14:57Z</time>
      </trkpt>
      <trkpt lat="45.97035" lon="4.85538">
        <ele>282</ele>
        <time>2017-06-03T09:14:58Z</time>
      </trkpt>
      <trkpt lat="45.97038" lon="4.85528">
        <ele>282</ele>
        <time>2017-06-03T09:14:59Z</time>
      </trkpt>
      <trkpt lat="45.97041" lon="4.85518">
        <ele>282</ele>
        <time>2017-06-03T09:15:00Z</time>
      </trkpt>
      <trkpt lat="45.97045" lon="4.85508">
        <ele>282</ele>
        <time>2017-06-03T09:15:01Z</time>
      </trkpt>
      <trkpt lat="45.97048" lon="4.85498">
        <ele>281</ele>
        <time>2017-06-03T09:15:02Z</time>
      </trkpt>
      <trkpt lat="45.97051" lon="4.85487">
        <ele>281</ele>
        <time>2017-06-03T09:15:03Z</time>
      </trkpt>
      <trkpt lat="45.97055" lon="4.85477">
        <ele>281</ele>
        <time>2017-06-03T09:15:04Z</time>
      </trkpt>
      <trkpt lat="45.97058" lon="4.85466">
        <ele>281</ele>
        <time>2017-06-03T09:15:05Z</time>
      </trkpt>
      <trkpt lat="45.97062" lon="4.85456">
        <ele>281</ele>
        <time>2017-06-03T09:15:06Z</time>
      </trkpt>
      <trkpt lat="45.97065" lon="4.85446">
        <ele>281</ele>
        <time>2017-06-03T09:15:07Z</time>
      </trkpt>
      <trkpt lat="45.97068" lon="4.85436">
        <ele>281</ele>
        <time>2017-06-03T09:15:08Z</time>
      </trkpt>
      <trkpt lat="45.97071" lon="4.85426">
        <ele>281</ele>
        <time>2017-06-03T09:15:09Z</time>
      </trkpt>
      <trkpt lat="45.97075" lon="4.85416">
        <ele>280</ele>
        <time>2017-06-03T09:15:10Z</time>
      </trkpt>
      <trkpt lat="45.97078" lon="4.85407">
        <ele>281</ele>
        <time>2017-06-03T09:15:11Z</time>
      </trkpt>
      <trkpt lat="45.97081" lon="4.85397">
        <ele>281</ele>
        <time>2017-06-03T09:15:12Z</time>
      </trkpt>
      <trkpt lat="45.97084" lon="4.85388">
        <ele>280</ele>
        <time>2017-06-03T09:15:13Z</time>
      </trkpt>
      <trkpt lat="45.97087" lon="4.85379">
        <ele>280</ele>
        <time>2017-06-03T09:15:14Z</time>
      </trkpt>
      <trkpt lat="45.9709" lon="4.85369">
        <ele>280</ele>
        <time>2017-06-03T09:15:15Z</time>
      </trkpt>
      <trkpt lat="45.97092" lon="4.8536">
        <ele>280</ele>
        <time>2017-06-03T09:15:16Z</time>
      </trkpt>
      <trkpt lat="45.97095" lon="4.85351">
        <ele>280</ele>
        <time>2017-06-03T09:15:17Z</time>
      </trkpt>
      <trkpt lat="45.97098" lon="4.85342">
        <ele>280</ele>
        <time>2017-06-03T09:15:18Z</time>
      </trkpt>
      <trkpt lat="45.97101" lon="4.85334">
        <ele>280</ele>
        <time>2017-06-03T09:15:19Z</time>
      </trkpt>
      <trkpt lat="45.97104" lon="4.85325">
        <ele>280</ele>
        <time>2017-06-03T09:15:20Z</time>
      </trkpt>
      <trkpt lat="45.97108" lon="4.85316">
        <ele>280</ele>
        <time>2017-06-03T09:15:21Z</time>
      </trkpt>
      <trkpt lat="45.97111" lon="4.85308">
        <ele>280</ele>
        <time>2017-06-03T09:15:22Z</time>
      </trkpt>
      <trkpt lat="45.97115" lon="4.85301">
        <ele>280</ele>
        <time>2017-06-03T09:15:23Z</time>
      </trkpt>
      <trkpt lat="45.97118" lon="4.85293">
        <ele>280</ele>
        <time>2017-06-03T09:15:24Z</time>
      </trkpt>
      <trkpt lat="45.97122" lon="4.85286">
        <ele>280</ele>
        <time>2017-06-03T09:15:25Z</time>
      </trkpt>
      <trkpt lat="45.97125" lon="4.85278">
        <ele>279</ele>
        <time>2017-06-03T09:15:26Z</time>
      </trkpt>
      <trkpt lat="45.97129" lon="4.85271">
        <ele>279</ele>
        <time>2017-06-03T09:15:27Z</time>
      </trkpt>
      <trkpt lat="45.97133" lon="4.85264">
        <ele>279</ele>
        <time>2017-06-03T09:15:28Z</time>
      </trkpt>
      <trkpt lat="45.97136" lon="4.85256">
        <ele>279</ele>
        <time>2017-06-03T09:15:29Z</time>
      </trkpt>
      <trkpt lat="45.9714" lon="4.85249">
        <ele>279</ele>
        <time>2017-06-03T09:15:30Z</time>
      </trkpt>
      <trkpt lat="45.97144" lon="4.85241">
        <ele>279</ele>
        <time>2017-06-03T09:15:31Z</time>
      </trkpt>
      <trkpt lat="45.97148" lon="4.85233">
        <ele>279</ele>
        <time>2017-06-03T09:15:32Z</time>
      </trkpt>
      <trkpt lat="45.97152" lon="4.85224">
        <ele>279</ele>
        <time>2017-06-03T09:15:33Z</time>
      </trkpt>
      <trkpt lat="45.97157" lon="4.85215">
        <ele>279</ele>
        <time>2017-06-03T09:15:34Z</time>
      </trkpt>
      <trkpt lat="45.97161" lon="4.85206">
        <ele>279</ele>
        <time>2017-06-03T09:15:35Z</time>
      </trkpt>
      <trkpt lat="45.97165" lon="4.85197">
        <ele>279</ele>
        <time>2017-06-03T09:15:36Z</time>
      </trkpt>
      <trkpt lat="45.9717" lon="4.85188">
        <ele>278</ele>
        <time>2017-06-03T09:15:37Z</time>
      </trkpt>
      <trkpt lat="45.97174" lon="4.85178">
        <ele>278</ele>
        <time>2017-06-03T09:15:38Z</time>
      </trkpt>
      <trkpt lat="45.97179" lon="4.85169">
        <ele>278</ele>
        <time>2017-06-03T09:15:39Z</time>
      </trkpt>
      <trkpt lat="45.97183" lon="4.8516">
        <ele>278</ele>
        <time>2017-06-03T09:15:40Z</time>
      </trkpt>
      <trkpt lat="45.97188" lon="4.85151">
        <ele>278</ele>
        <time>2017-06-03T09:15:41Z</time>
      </trkpt>
      <trkpt lat="45.97192" lon="4.85142">
        <ele>278</ele>
        <time>2017-06-03T09:15:42Z</time>
      </trkpt>
      <trkpt lat="45.97196" lon="4.85133">
        <ele>278</ele>
        <time>2017-06-03T09:15:43Z</time>
      </trkpt>
      <trkpt lat="45.972" lon="4.85124">
        <ele>278</ele>
        <time>2017-06-03T09:15:44Z</time>
      </trkpt>
      <trkpt lat="45.97204" lon="4.85116">
        <ele>278</ele>
        <time>2017-06-03T09:15:45Z</time>
      </trkpt>
      <trkpt lat="45.97208" lon="4.85108">
        <ele>278</ele>
        <time>2017-06-03T09:15:46Z</time>
      </trkpt>
      <trkpt lat="45.97212" lon="4.851">
        <ele>278</ele>
        <time>2017-06-03T09:15:47Z</time>
      </trkpt>
      <trkpt lat="45.97216" lon="4.85092">
        <ele>278</ele>
        <time>2017-06-03T09:15:48Z</time>
      </trkpt>
      <trkpt lat="45.97219" lon="4.85084">
        <ele>278</ele>
        <time>2017-06-03T09:15:49Z</time>
      </trkpt>
      <trkpt lat="45.97223" lon="4.85076">
        <ele>278</ele>
        <time>2017-06-03T09:15:50Z</time>
      </trkpt>
      <trkpt lat="45.97227" lon="4.85068">
        <ele>278</ele>
        <time>2017-06-03T09:15:51Z</time>
      </trkpt>
      <trkpt lat="45.9723" lon="4.8506">
        <ele>279</ele>
        <time>2017-06-03T09:15:52Z</time>
      </trkpt>
      <trkpt lat="45.97234" lon="4.85052">
        <ele>279</ele>
        <time>2017-06-03T09:15:53Z</time>
      </trkpt>
      <trkpt lat="45.97238" lon="4.85043">
        <ele>279</ele>
        <time>2017-06-03T09:15:54Z</time>
      </trkpt>
      <trkpt lat="45.97242" lon="4.85034">
        <ele>279</ele>
        <time>2017-06-03T09:15:55Z</time>
      </trkpt>
      <trkpt lat="45.97246" lon="4.85025">
        <ele>279</ele>
        <time>2017-06-03T09:15:56Z</time>
      </trkpt>
      <trkpt lat="45.97251" lon="4.85016">
        <ele>279</ele>
        <time>2017-06-03T09:15:57Z</time>
      </trkpt>
      <trkpt lat="45.97255" lon="4.85007">
        <ele>279</ele>
        <time>2017-06-03T09:15:58Z</time>
      </trkpt>
      <trkpt lat="45.9726" lon="4.84997">
        <ele>279</ele>
        <time>2017-06-03T09:15:59Z</time>
      </trkpt>
      <trkpt lat="45.97264" lon="4.84987">
        <ele>279</ele>
        <time>2017-06-03T09:16:00Z</time>
      </trkpt>
      <trkpt lat="45.97268" lon="4.84978">
        <ele>279</ele>
        <time>2017-06-03T09:16:01Z</time>
      </trkpt>
      <trkpt lat="45.97273" lon="4.84969">
        <ele>278</ele>
        <time>2017-06-03T09:16:02Z</time>
      </trkpt>
      <trkpt lat="45.97277" lon="4.8496">
        <ele>278</ele>
        <time>2017-06-03T09:16:03Z</time>
      </trkpt>
      <trkpt lat="45.97282" lon="4.84951">
        <ele>278</ele>
        <time>2017-06-03T09:16:04Z</time>
      </trkpt>
      <trkpt lat="45.97286" lon="4.84943">
        <ele>278</ele>
        <time>2017-06-03T09:16:05Z</time>
      </trkpt>
      <trkpt lat="45.9729" lon="4.84935">
        <ele>278</ele>
        <time>2017-06-03T09:16:06Z</time>
      </trkpt>
      <trkpt lat="45.97295" lon="4.84927">
        <ele>278</ele>
        <time>2017-06-03T09:16:07Z</time>
      </trkpt>
      <trkpt lat="45.973" lon="4.8492">
        <ele>278</ele>
        <time>2017-06-03T09:16:08Z</time>
      </trkpt>
      <trkpt lat="45.97304" lon="4.84913">
        <ele>278</ele>
        <time>2017-06-03T09:16:09Z</time>
      </trkpt>
      <trkpt lat="45.97309" lon="4.84906">
        <ele>278</ele>
        <time>2017-06-03T09:16:10Z</time>
      </trkpt>
      <trkpt lat="45.97313" lon="4.84899">
        <ele>278</ele>
        <time>2017-06-03T09:16:11Z</time>
      </trkpt>
      <trkpt lat="45.97317" lon="4.84892">
        <ele>278</ele>
        <time>2017-06-03T09:16:12Z</time>
      </trkpt>
      <trkpt lat="45.97321" lon="4.84886">
        <ele>278</ele>
        <time>2017-06-03T09:16:13Z</time>
      </trkpt>
      <trkpt lat="45.97325" lon="4.84879">
        <ele>278</ele>
        <time>2017-06-03T09:16:14Z</time>
      </trkpt>
      <trkpt lat="45.97329" lon="4.84872">
        <ele>278</ele>
        <time>2017-06-03T09:16:15Z</time>
      </trkpt>
      <trkpt lat="45.97333" lon="4.84864">
        <ele>278</ele>
        <time>2017-06-03T09:16:16Z</time>
      </trkpt>
      <trkpt lat="45.97337" lon="4.84857">
        <ele>277</ele>
        <time>2017-06-03T09:16:17Z</time>
      </trkpt>
      <trkpt lat="45.97341" lon="4.84848">
        <ele>277</ele>
        <time>2017-06-03T09:16:18Z</time>
      </trkpt>
      <trkpt lat="45.97345" lon="4.8484">
        <ele>277</ele>
        <time>2017-06-03T09:16:19Z</time>
      </trkpt>
      <trkpt lat="45.97349" lon="4.84831">
        <ele>278</ele>
        <time>2017-06-03T09:16:20Z</time>
      </trkpt>
      <trkpt lat="45.97352" lon="4.84822">
        <ele>278</ele>
        <time>2017-06-03T09:16:21Z</time>
      </trkpt>
      <trkpt lat="45.97356" lon="4.84813">
        <ele>278</ele>
        <time>2017-06-03T09:16:22Z</time>
      </trkpt>
      <trkpt lat="45.97359" lon="4.84804">
        <ele>278</ele>
        <time>2017-06-03T09:16:23Z</time>
      </trkpt>
      <trkpt lat="45.97363" lon="4.84795">
        <ele>278</ele>
        <time>2017-06-03T09:16:24Z</time>
      </trkpt>
      <trkpt lat="45.97366" lon="4.84786">
        <ele>278</ele>
        <time>2017-06-03T09:16:25Z</time>
      </trkpt>
      <trkpt lat="45.9737" lon="4.84777">
        <ele>278</ele>
        <time>2017-06-03T09:16:26Z</time>
      </trkpt>
      <trkpt lat="45.97373" lon="4.84768">
        <ele>278</ele>
        <time>2017-06-03T09:16:27Z</time>
      </trkpt>
      <trkpt lat="45.97377" lon="4.8476">
        <ele>278</ele>
        <time>2017-06-03T09:16:28Z</time>
      </trkpt>
      <trkpt lat="45.9738" lon="4.84752">
        <ele>278</ele>
        <time>2017-06-03T09:16:29Z</time>
      </trkpt>
      <trkpt lat="45.97384" lon="4.84744">
        <ele>278</ele>
        <time>2017-06-03T09:16:30Z</time>
      </trkpt>
      <trkpt lat="45.97387" lon="4.84737">
        <ele>278</ele>
        <time>2017-06-03T09:16:31Z</time>
      </trkpt>
      <trkpt lat="45.97392" lon="4.84731">
        <ele>278</ele>
        <time>2017-06-03T09:16:32Z</time>
      </trkpt>
      <trkpt lat="45.97397" lon="4.84726">
        <ele>278</ele>
        <time>2017-06-03T09:16:33Z</time>
      </trkpt>
      <trkpt lat="45.97403" lon="4.84722">
        <ele>278</ele>
        <time>2017-06-03T09:16:34Z</time>
      </trkpt>
      <trkpt lat="45.97408" lon="4.84717">
        <ele>278</ele>
        <time>2017-06-03T09:16:35Z</time>
      </trkpt>
      <trkpt lat="45.97414" lon="4.84713">
        <ele>278</ele>
        <time>2017-06-03T09:16:36Z</time>
      </trkpt>
      <trkpt lat="45.97419" lon="4.84709">
        <ele>276</ele>
        <time>2017-06-03T09:16:37Z</time>
      </trkpt>
      <trkpt lat="45.97425" lon="4.84706">
        <ele>276</ele>
        <time>2017-06-03T09:16:38Z</time>
      </trkpt>
      <trkpt lat="45.9743" lon="4.84702">
        <ele>276</ele>
        <time>2017-06-03T09:16:39Z</time>
      </trkpt>
      <trkpt lat="45.97436" lon="4.84699">
        <ele>276</ele>
        <time>2017-06-03T09:16:40Z</time>
      </trkpt>
      <trkpt lat="45.97442" lon="4.84695">
        <ele>276</ele>
        <time>2017-06-03T09:16:41Z</time>
      </trkpt>
      <trkpt lat="45.97448" lon="4.84691">
        <ele>276</ele>
        <time>2017-06-03T09:16:42Z</time>
      </trkpt>
      <trkpt lat="45.97454" lon="4.84687">
        <ele>276</ele>
        <time>2017-06-03T09:16:43Z</time>
      </trkpt>
      <trkpt lat="45.97461" lon="4.84682">
        <ele>276</ele>
        <time>2017-06-03T09:16:44Z</time>
      </trkpt>
      <trkpt lat="45.97467" lon="4.84678">
        <ele>276</ele>
        <time>2017-06-03T09:16:45Z</time>
      </trkpt>
      <trkpt lat="45.97474" lon="4.84673">
        <ele>276</ele>
        <time>2017-06-03T09:16:46Z</time>
      </trkpt>
      <trkpt lat="45.97481" lon="4.84668">
        <ele>276</ele>
        <time>2017-06-03T09:16:47Z</time>
      </trkpt>
      <trkpt lat="45.97487" lon="4.84663">
        <ele>275</ele>
        <time>2017-06-03T09:16:48Z</time>
      </trkpt>
      <trkpt lat="45.97495" lon="4.84659">
        <ele>275</ele>
        <time>2017-06-03T09:16:49Z</time>
      </trkpt>
      <trkpt lat="45.97502" lon="4.84653">
        <ele>275</ele>
        <time>2017-06-03T09:16:50Z</time>
      </trkpt>
      <trkpt lat="45.97509" lon="4.84648">
        <ele>275</ele>
        <time>2017-06-03T09:16:51Z</time>
      </trkpt>
      <trkpt lat="45.97517" lon="4.84643">
        <ele>275</ele>
        <time>2017-06-03T09:16:52Z</time>
      </trkpt>
      <trkpt lat="45.97524" lon="4.84638">
        <ele>275</ele>
        <time>2017-06-03T09:16:53Z</time>
      </trkpt>
      <trkpt lat="45.97531" lon="4.84632">
        <ele>275</ele>
        <time>2017-06-03T09:16:54Z</time>
      </trkpt>
      <trkpt lat="45.97537" lon="4.84627">
        <ele>275</ele>
        <time>2017-06-03T09:16:55Z</time>
      </trkpt>
      <trkpt lat="45.97544" lon="4.84621">
        <ele>274</ele>
        <time>2017-06-03T09:16:56Z</time>
      </trkpt>
      <trkpt lat="45.9755" lon="4.84615">
        <ele>274</ele>
        <time>2017-06-03T09:16:57Z</time>
      </trkpt>
      <trkpt lat="45.97556" lon="4.84609">
        <ele>274</ele>
        <time>2017-06-03T09:16:58Z</time>
      </trkpt>
      <trkpt lat="45.97561" lon="4.84603">
        <ele>274</ele>
        <time>2017-06-03T09:16:59Z</time>
      </trkpt>
      <trkpt lat="45.97567" lon="4.84597">
        <ele>274</ele>
        <time>2017-06-03T09:17:00Z</time>
      </trkpt>
      <trkpt lat="45.97573" lon="4.8459">
        <ele>274</ele>
        <time>2017-06-03T09:17:01Z</time>
      </trkpt>
      <trkpt lat="45.97578" lon="4.84584">
        <ele>274</ele>
        <time>2017-06-03T09:17:02Z</time>
      </trkpt>
      <trkpt lat="45.97583" lon="4.84578">
        <ele>274</ele>
        <time>2017-06-03T09:17:03Z</time>
      </trkpt>
      <trkpt lat="45.97588" lon="4.84572">
        <ele>274</ele>
        <time>2017-06-03T09:17:04Z</time>
      </trkpt>
      <trkpt lat="45.97593" lon="4.84566">
        <ele>274</ele>
        <time>2017-06-03T09:17:05Z</time>
      </trkpt>
      <trkpt lat="45.97598" lon="4.84559">
        <ele>275</ele>
        <time>2017-06-03T09:17:06Z</time>
      </trkpt>
      <trkpt lat="45.97604" lon="4.84553">
        <ele>275</ele>
        <time>2017-06-03T09:17:07Z</time>
      </trkpt>
      <trkpt lat="45.97609" lon="4.84546">
        <ele>275</ele>
        <time>2017-06-03T09:17:08Z</time>
      </trkpt>
      <trkpt lat="45.97614" lon="4.84539">
        <ele>275</ele>
        <time>2017-06-03T09:17:09Z</time>
      </trkpt>
      <trkpt lat="45.97619" lon="4.84532">
        <ele>275</ele>
        <time>2017-06-03T09:17:10Z</time>
      </trkpt>
      <trkpt lat="45.97625" lon="4.84524">
        <ele>275</ele>
        <time>2017-06-03T09:17:11Z</time>
      </trkpt>
      <trkpt lat="45.97631" lon="4.84517">
        <ele>275</ele>
        <time>2017-06-03T09:17:12Z</time>
      </trkpt>
      <trkpt lat="45.97637" lon="4.8451">
        <ele>275</ele>
        <time>2017-06-03T09:17:13Z</time>
      </trkpt>
      <trkpt lat="45.97644" lon="4.84502">
        <ele>275</ele>
        <time>2017-06-03T09:17:14Z</time>
      </trkpt>
      <trkpt lat="45.9765" lon="4.84495">
        <ele>275</ele>
        <time>2017-06-03T09:17:15Z</time>
      </trkpt>
      <trkpt lat="45.97657" lon="4.84488">
        <ele>275</ele>
        <time>2017-06-03T09:17:16Z</time>
      </trkpt>
      <trkpt lat="45.97665" lon="4.84481">
        <ele>276</ele>
        <time>2017-06-03T09:17:17Z</time>
      </trkpt>
      <trkpt lat="45.97672" lon="4.84475">
        <ele>276</ele>
        <time>2017-06-03T09:17:18Z</time>
      </trkpt>
      <trkpt lat="45.97679" lon="4.8447">
        <ele>277</ele>
        <time>2017-06-03T09:17:19Z</time>
      </trkpt>
      <trkpt lat="45.97686" lon="4.84465">
        <ele>277</ele>
        <time>2017-06-03T09:17:20Z</time>
      </trkpt>
      <trkpt lat="45.97694" lon="4.84461">
        <ele>277</ele>
        <time>2017-06-03T09:17:21Z</time>
      </trkpt>
      <trkpt lat="45.97701" lon="4.84457">
        <ele>277</ele>
        <time>2017-06-03T09:17:22Z</time>
      </trkpt>
      <trkpt lat="45.97708" lon="4.84454">
        <ele>277</ele>
        <time>2017-06-03T09:17:23Z</time>
      </trkpt>
      <trkpt lat="45.97715" lon="4.84452">
        <ele>277</ele>
        <time>2017-06-03T09:17:24Z</time>
      </trkpt>
      <trkpt lat="45.97722" lon="4.8445">
        <ele>277</ele>
        <time>2017-06-03T09:17:25Z</time>
      </trkpt>
      <trkpt lat="45.97729" lon="4.84447">
        <ele>277</ele>
        <time>2017-06-03T09:17:26Z</time>
      </trkpt>
      <trkpt lat="45.97735" lon="4.84445">
        <ele>277</ele>
        <time>2017-06-03T09:17:27Z</time>
      </trkpt>
      <trkpt lat="45.97741" lon="4.84443">
        <ele>277</ele>
        <time>2017-06-03T09:17:28Z</time>
      </trkpt>
      <trkpt lat="45.97747" lon="4.84441">
        <ele>277</ele>
        <time>2017-06-03T09:17:29Z</time>
      </trkpt>
      <trkpt lat="45.97753" lon="4.84439">
        <ele>277</ele>
        <time>2017-06-03T09:17:30Z</time>
      </trkpt>
      <trkpt lat="45.97759" lon="4.84437">
        <ele>277</ele>
        <time>2017-06-03T09:17:31Z</time>
      </trkpt>
      <trkpt lat="45.97765" lon="4.84435">
        <ele>277</ele>
        <time>2017-06-03T09:17:32Z</time>
      </trkpt>
      <trkpt lat="45.97771" lon="4.84433">
        <ele>277</ele>
        <time>2017-06-03T09:17:33Z</time>
      </trkpt>
      <trkpt lat="45.97777" lon="4.84431">
        <ele>277</ele>
        <time>2017-06-03T09:17:34Z</time>
      </trkpt>
      <trkpt lat="45.97782" lon="4.84429">
        <ele>277</ele>
        <time>2017-06-03T09:17:35Z</time>
      </trkpt>
      <trkpt lat="45.97787" lon="4.84427">
        <ele>277</ele>
        <time>2017-06-03T09:17:36Z</time>
      </trkpt>
      <trkpt lat="45.97793" lon="4.84424">
        <ele>277</ele>
        <time>2017-06-03T09:17:37Z</time>
      </trkpt>
      <trkpt lat="45.97798" lon="4.84422">
        <ele>277</ele>
        <time>2017-06-03T09:17:38Z</time>
      </trkpt>
      <trkpt lat="45.97803" lon="4.8442">
        <ele>277</ele>
        <time>2017-06-03T09:17:39Z</time>
      </trkpt>
      <trkpt lat="45.97808" lon="4.84417">
        <ele>277</ele>
        <time>2017-06-03T09:17:40Z</time>
      </trkpt>
      <trkpt lat="45.97813" lon="4.84414">
        <ele>276</ele>
        <time>2017-06-03T09:17:41Z</time>
      </trkpt>
      <trkpt lat="45.97818" lon="4.8441">
        <ele>276</ele>
        <time>2017-06-03T09:17:42Z</time>
      </trkpt>
      <trkpt lat="45.97824" lon="4.84405">
        <ele>276</ele>
        <time>2017-06-03T09:17:43Z</time>
      </trkpt>
      <trkpt lat="45.9783" lon="4.844">
        <ele>276</ele>
        <time>2017-06-03T09:17:44Z</time>
      </trkpt>
      <trkpt lat="45.97835" lon="4.84395">
        <ele>276</ele>
        <time>2017-06-03T09:17:45Z</time>
      </trkpt>
      <trkpt lat="45.97841" lon="4.84389">
        <ele>276</ele>
        <time>2017-06-03T09:17:46Z</time>
      </trkpt>
      <trkpt lat="45.97846" lon="4.84383">
        <ele>276</ele>
        <time>2017-06-03T09:17:47Z</time>
      </trkpt>
      <trkpt lat="45.97852" lon="4.84376">
        <ele>276</ele>
        <time>2017-06-03T09:17:48Z</time>
      </trkpt>
      <trkpt lat="45.97858" lon="4.84369">
        <ele>276</ele>
        <time>2017-06-03T09:17:49Z</time>
      </trkpt>
      <trkpt lat="45.97864" lon="4.84362">
        <ele>276</ele>
        <time>2017-06-03T09:17:50Z</time>
      </trkpt>
      <trkpt lat="45.97869" lon="4.84354">
        <ele>276</ele>
        <time>2017-06-03T09:17:51Z</time>
      </trkpt>
      <trkpt lat="45.97875" lon="4.84346">
        <ele>276</ele>
        <time>2017-06-03T09:17:52Z</time>
      </trkpt>
      <trkpt lat="45.97879" lon="4.84337">
        <ele>275</ele>
        <time>2017-06-03T09:17:53Z</time>
      </trkpt>
      <trkpt lat="45.97884" lon="4.84329">
        <ele>275</ele>
        <time>2017-06-03T09:17:54Z</time>
      </trkpt>
      <trkpt lat="45.97889" lon="4.84321">
        <ele>275</ele>
        <time>2017-06-03T09:17:55Z</time>
      </trkpt>
      <trkpt lat="45.97894" lon="4.84314">
        <ele>275</ele>
        <time>2017-06-03T09:17:56Z</time>
      </trkpt>
      <trkpt lat="45.97899" lon="4.84307">
        <ele>275</ele>
        <time>2017-06-03T09:17:57Z</time>
      </trkpt>
      <trkpt lat="45.97903" lon="4.84299">
        <ele>275</ele>
        <time>2017-06-03T09:17:58Z</time>
      </trkpt>
      <trkpt lat="45.97908" lon="4.84293">
        <ele>275</ele>
        <time>2017-06-03T09:17:59Z</time>
      </trkpt>
      <trkpt lat="45.97913" lon="4.84286">
        <ele>275</ele>
        <time>2017-06-03T09:18:00Z</time>
      </trkpt>
      <trkpt lat="45.97918" lon="4.84281">
        <ele>275</ele>
        <time>2017-06-03T09:18:01Z</time>
      </trkpt>
      <trkpt lat="45.97922" lon="4.84275">
        <ele>275</ele>
        <time>2017-06-03T09:18:02Z</time>
      </trkpt>
      <trkpt lat="45.97927" lon="4.84269">
        <ele>275</ele>
        <time>2017-06-03T09:18:03Z</time>
      </trkpt>
      <trkpt lat="45.97932" lon="4.84264">
        <ele>275</ele>
        <time>2017-06-03T09:18:04Z</time>
      </trkpt>
      <trkpt lat="45.97937" lon="4.84259">
        <ele>275</ele>
        <time>2017-06-03T09:18:05Z</time>
      </trkpt>
      <trkpt lat="45.97941" lon="4.84254">
        <ele>275</ele>
        <time>2017-06-03T09:18:06Z</time>
      </trkpt>
      <trkpt lat="45.97946" lon="4.84249">
        <ele>275</ele>
        <time>2017-06-03T09:18:07Z</time>
      </trkpt>
      <trkpt lat="45.97951" lon="4.84245">
        <ele>275</ele>
        <time>2017-06-03T09:18:08Z</time>
      </trkpt>
      <trkpt lat="45.97955" lon="4.84241">
        <ele>275</ele>
        <time>2017-06-03T09:18:09Z</time>
      </trkpt>
      <trkpt lat="45.9796" lon="4.84236">
        <ele>274</ele>
        <time>2017-06-03T09:18:10Z</time>
      </trkpt>
      <trkpt lat="45.97964" lon="4.84232">
        <ele>274</ele>
        <time>2017-06-03T09:18:11Z</time>
      </trkpt>
      <trkpt lat="45.97969" lon="4.84227">
        <ele>274</ele>
        <time>2017-06-03T09:18:12Z</time>
      </trkpt>
      <trkpt lat="45.97973" lon="4.84223">
        <ele>274</ele>
        <time>2017-06-03T09:18:13Z</time>
      </trkpt>
      <trkpt lat="45.97978" lon="4.84219">
        <ele>274</ele>
        <time>2017-06-03T09:18:14Z</time>
      </trkpt>
      <trkpt lat="45.97982" lon="4.84214">
        <ele>274</ele>
        <time>2017-06-03T09:18:15Z</time>
      </trkpt>
      <trkpt lat="45.97987" lon="4.8421">
        <ele>274</ele>
        <time>2017-06-03T09:18:16Z</time>
      </trkpt>
      <trkpt lat="45.97992" lon="4.84206">
        <ele>274</ele>
        <time>2017-06-03T09:18:17Z</time>
      </trkpt>
      <trkpt lat="45.97998" lon="4.84201">
        <ele>274</ele>
        <time>2017-06-03T09:18:18Z</time>
      </trkpt>
      <trkpt lat="45.98003" lon="4.84196">
        <ele>274</ele>
        <time>2017-06-03T09:18:19Z</time>
      </trkpt>
      <trkpt lat="45.98009" lon="4.84191">
        <ele>274</ele>
        <time>2017-06-03T09:18:20Z</time>
      </trkpt>
      <trkpt lat="45.98015" lon="4.84185">
        <ele>274</ele>
        <time>2017-06-03T09:18:21Z</time>
      </trkpt>
      <trkpt lat="45.98021" lon="4.8418">
        <ele>274</ele>
        <time>2017-06-03T09:18:22Z</time>
      </trkpt>
      <trkpt lat="45.98027" lon="4.84174">
        <ele>274</ele>
        <time>2017-06-03T09:18:23Z</time>
      </trkpt>
      <trkpt lat="45.98034" lon="4.84168">
        <ele>273</ele>
        <time>2017-06-03T09:18:24Z</time>
      </trkpt>
      <trkpt lat="45.9804" lon="4.84161">
        <ele>273</ele>
        <time>2017-06-03T09:18:25Z</time>
      </trkpt>
      <trkpt lat="45.98047" lon="4.84155">
        <ele>273</ele>
        <time>2017-06-03T09:18:26Z</time>
      </trkpt>
      <trkpt lat="45.98054" lon="4.84149">
        <ele>273</ele>
        <time>2017-06-03T09:18:27Z</time>
      </trkpt>
      <trkpt lat="45.9806" lon="4.84142">
        <ele>273</ele>
        <time>2017-06-03T09:18:28Z</time>
      </trkpt>
      <trkpt lat="45.98066" lon="4.84136">
        <ele>273</ele>
        <time>2017-06-03T09:18:29Z</time>
      </trkpt>
      <trkpt lat="45.98073" lon="4.84131">
        <ele>273</ele>
        <time>2017-06-03T09:18:30Z</time>
      </trkpt>
      <trkpt lat="45.98079" lon="4.84125">
        <ele>273</ele>
        <time>2017-06-03T09:18:31Z</time>
      </trkpt>
      <trkpt lat="45.98085" lon="4.8412">
        <ele>273</ele>
        <time>2017-06-03T09:18:32Z</time>
      </trkpt>
      <trkpt lat="45.98091" lon="4.84114">
        <ele>273</ele>
        <time>2017-06-03T09:18:33Z</time>
      </trkpt>
      <trkpt lat="45.98096" lon="4.84108">
        <ele>273</ele>
        <time>2017-06-03T09:18:34Z</time>
      </trkpt>
      <trkpt lat="45.98102" lon="4.84102">
        <ele>273</ele>
        <time>2017-06-03T09:18:35Z</time>
      </trkpt>
      <trkpt lat="45.98107" lon="4.84097">
        <ele>273</ele>
        <time>2017-06-03T09:18:36Z</time>
      </trkpt>
      <trkpt lat="45.98113" lon="4.84092">
        <ele>273</ele>
        <time>2017-06-03T09:18:37Z</time>
      </trkpt>
      <trkpt lat="45.98119" lon="4.84087">
        <ele>273</ele>
        <time>2017-06-03T09:18:38Z</time>
      </trkpt>
      <trkpt lat="45.98124" lon="4.84082">
        <ele>273</ele>
        <time>2017-06-03T09:18:39Z</time>
      </trkpt>
      <trkpt lat="45.98129" lon="4.84076">
        <ele>273</ele>
        <time>2017-06-03T09:18:40Z</time>
      </trkpt>
      <trkpt lat="45.98134" lon="4.84071">
        <ele>273</ele>
        <time>2017-06-03T09:18:41Z</time>
      </trkpt>
      <trkpt lat="45.98138" lon="4.84065">
        <ele>273</ele>
        <time>2017-06-03T09:18:42Z</time>
      </trkpt>
      <trkpt lat="45.98143" lon="4.84059">
        <ele>273</ele>
        <time>2017-06-03T09:18:43Z</time>
      </trkpt>
      <trkpt lat="45.98147" lon="4.84053">
        <ele>273</ele>
        <time>2017-06-03T09:18:44Z</time>
      </trkpt>
      <trkpt lat="45.98151" lon="4.84046">
        <ele>273</ele>
        <time>2017-06-03T09:18:45Z</time>
      </trkpt>
      <trkpt lat="45.98155" lon="4.8404">
        <ele>273</ele>
        <time>2017-06-03T09:18:46Z</time>
      </trkpt>
      <trkpt lat="45.98159" lon="4.84033">
        <ele>273</ele>
        <time>2017-06-03T09:18:47Z</time>
      </trkpt>
      <trkpt lat="45.98163" lon="4.84027">
        <ele>273</ele>
        <time>2017-06-03T09:18:48Z</time>
      </trkpt>
      <trkpt lat="45.98167" lon="4.8402">
        <ele>273</ele>
        <time>2017-06-03T09:18:49Z</time>
      </trkpt>
      <trkpt lat="45.98171" lon="4.84012">
        <ele>273</ele>
        <time>2017-06-03T09:18:50Z</time>
      </trkpt>
      <trkpt lat="45.98175" lon="4.84004">
        <ele>273</ele>
        <time>2017-06-03T09:18:51Z</time>
      </trkpt>
      <trkpt lat="45.98179" lon="4.83995">
        <ele>273</ele>
        <time>2017-06-03T09:18:52Z</time>
      </trkpt>
      <trkpt lat="45.98183" lon="4.83986">
        <ele>273</ele>
        <time>2017-06-03T09:18:53Z</time>
      </trkpt>
      <trkpt lat="45.98186" lon="4.83977">
        <ele>273</ele>
        <time>2017-06-03T09:18:54Z</time>
      </trkpt>
      <trkpt lat="45.9819" lon="4.83967">
        <ele>273</ele>
        <time>2017-06-03T09:18:55Z</time>
      </trkpt>
      <trkpt lat="45.98194" lon="4.83956">
        <ele>273</ele>
        <time>2017-06-03T09:18:56Z</time>
      </trkpt>
      <trkpt lat="45.98198" lon="4.83946">
        <ele>273</ele>
        <time>2017-06-03T09:18:57Z</time>
      </trkpt>
      <trkpt lat="45.98201" lon="4.83935">
        <ele>273</ele>
        <time>2017-06-03T09:18:58Z</time>
      </trkpt>
      <trkpt lat="45.98204" lon="4.83925">
        <ele>273</ele>
        <time>2017-06-03T09:18:59Z</time>
      </trkpt>
      <trkpt lat="45.98208" lon="4.83915">
        <ele>273</ele>
        <time>2017-06-03T09:19:00Z</time>
      </trkpt>
      <trkpt lat="45.98211" lon="4.83906">
        <ele>273</ele>
        <time>2017-06-03T09:19:01Z</time>
      </trkpt>
      <trkpt lat="45.98214" lon="4.83896">
        <ele>273</ele>
        <time>2017-06-03T09:19:02Z</time>
      </trkpt>
      <trkpt lat="45.98217" lon="4.83887">
        <ele>272</ele>
        <time>2017-06-03T09:19:03Z</time>
      </trkpt>
      <trkpt lat="45.9822" lon="4.83878">
        <ele>272</ele>
        <time>2017-06-03T09:19:04Z</time>
      </trkpt>
      <trkpt lat="45.98223" lon="4.83869">
        <ele>272</ele>
        <time>2017-06-03T09:19:05Z</time>
      </trkpt>
      <trkpt lat="45.98226" lon="4.8386">
        <ele>272</ele>
        <time>2017-06-03T09:19:06Z</time>
      </trkpt>
      <trkpt lat="45.98229" lon="4.83851">
        <ele>272</ele>
        <time>2017-06-03T09:19:07Z</time>
      </trkpt>
      <trkpt lat="45.98232" lon="4.83843">
        <ele>272</ele>
        <time>2017-06-03T09:19:08Z</time>
      </trkpt>
      <trkpt lat="45.98235" lon="4.83835">
        <ele>272</ele>
        <time>2017-06-03T09:19:09Z</time>
      </trkpt>
      <trkpt lat="45.98238" lon="4.83827">
        <ele>272</ele>
        <time>2017-06-03T09:19:10Z</time>
      </trkpt>
      <trkpt lat="45.98241" lon="4.83819">
        <ele>272</ele>
        <time>2017-06-03T09:19:11Z</time>
      </trkpt>
      <trkpt lat="45.98244" lon="4.83811">
        <ele>272</ele>
        <time>2017-06-03T09:19:12Z</time>
      </trkpt>
      <trkpt lat="45.98247" lon="4.83803">
        <ele>272</ele>
        <time>2017-06-03T09:19:13Z</time>
      </trkpt>
      <trkpt lat="45.98249" lon="4.83796">
        <ele>272</ele>
        <time>2017-06-03T09:19:14Z</time>
      </trkpt>
      <trkpt lat="45.98252" lon="4.83788">
        <ele>272</ele>
        <time>2017-06-03T09:19:15Z</time>
      </trkpt>
      <trkpt lat="45.98255" lon="4.8378">
        <ele>272</ele>
        <time>2017-06-03T09:19:16Z</time>
      </trkpt>
      <trkpt lat="45.98257" lon="4.83773">
        <ele>272</ele>
        <time>2017-06-03T09:19:17Z</time>
      </trkpt>
      <trkpt lat="45.9826" lon="4.83765">
        <ele>272</ele>
        <time>2017-06-03T09:19:18Z</time>
      </trkpt>
      <trkpt lat="45.98262" lon="4.83758">
        <ele>272</ele>
        <time>2017-06-03T09:19:19Z</time>
      </trkpt>
      <trkpt lat="45.98265" lon="4.83751">
        <ele>272</ele>
        <time>2017-06-03T09:19:20Z</time>
      </trkpt>
      <trkpt lat="45.98268" lon="4.83743">
        <ele>272</ele>
        <time>2017-06-03T09:19:21Z</time>
      </trkpt>
      <trkpt lat="45.9827" lon="4.83735">
        <ele>272</ele>
        <time>2017-06-03T09:19:22Z</time>
      </trkpt>
      <trkpt lat="45.98273" lon="4.83727">
        <ele>272</ele>
        <time>2017-06-03T09:19:23Z</time>
      </trkpt>
      <trkpt lat="45.98276" lon="4.83718">
        <ele>272</ele>
        <time>2017-06-03T09:19:24Z</time>
      </trkpt>
      <trkpt lat="45.98279" lon="4.8371">
        <ele>272</ele>
        <time>2017-06-03T09:19:25Z</time>
      </trkpt>
      <trkpt lat="45.98282" lon="4.83701">
        <ele>272</ele>
        <time>2017-06-03T09:19:26Z</time>
      </trkpt>
      <trkpt lat="45.98285" lon="4.83693">
        <ele>272</ele>
        <time>2017-06-03T09:19:27Z</time>
      </trkpt>
      <trkpt lat="45.98289" lon="4.83685">
        <ele>272</ele>
        <time>2017-06-03T09:19:28Z</time>
      </trkpt>
      <trkpt lat="45.98292" lon="4.83676">
        <ele>272</ele>
        <time>2017-06-03T09:19:29Z</time>
      </trkpt>
      <trkpt lat="45.98295" lon="4.83668">
        <ele>272</ele>
        <time>2017-06-03T09:19:30Z</time>
      </trkpt>
      <trkpt lat="45.98297" lon="4.8366">
        <ele>271</ele>
        <time>2017-06-03T09:19:31Z</time>
      </trkpt>
      <trkpt lat="45.983" lon="4.83652">
        <ele>271</ele>
        <time>2017-06-03T09:19:32Z</time>
      </trkpt>
      <trkpt lat="45.98303" lon="4.83645">
        <ele>271</ele>
        <time>2017-06-03T09:19:33Z</time>
      </trkpt>
      <trkpt lat="45.98307" lon="4.83638">
        <ele>271</ele>
        <time>2017-06-03T09:19:34Z</time>
      </trkpt>
      <trkpt lat="45.98311" lon="4.83631">
        <ele>271</ele>
        <time>2017-06-03T09:19:35Z</time>
      </trkpt>
      <trkpt lat="45.98314" lon="4.83624">
        <ele>271</ele>
        <time>2017-06-03T09:19:36Z</time>
      </trkpt>
      <trkpt lat="45.98318" lon="4.83618">
        <ele>271</ele>
        <time>2017-06-03T09:19:37Z</time>
      </trkpt>
      <trkpt lat="45.98322" lon="4.83612">
        <ele>271</ele>
        <time>2017-06-03T09:19:38Z</time>
      </trkpt>
      <trkpt lat="45.98326" lon="4.83606">
        <ele>271</ele>
        <time>2017-06-03T09:19:39Z</time>
      </trkpt>
      <trkpt lat="45.9833" lon="4.836">
        <ele>271</ele>
        <time>2017-06-03T09:19:40Z</time>
      </trkpt>
      <trkpt lat="45.98334" lon="4.83594">
        <ele>270</ele>
        <time>2017-06-03T09:19:41Z</time>
      </trkpt>
      <trkpt lat="45.98339" lon="4.83587">
        <ele>270</ele>
        <time>2017-06-03T09:19:42Z</time>
      </trkpt>
      <trkpt lat="45.98344" lon="4.8358">
        <ele>270</ele>
        <time>2017-06-03T09:19:43Z</time>
      </trkpt>
      <trkpt lat="45.9835" lon="4.83572">
        <ele>269</ele>
        <time>2017-06-03T09:19:44Z</time>
      </trkpt>
      <trkpt lat="45.98355" lon="4.83565">
        <ele>269</ele>
        <time>2017-06-03T09:19:45Z</time>
      </trkpt>
      <trkpt lat="45.98361" lon="4.83557">
        <ele>269</ele>
        <time>2017-06-03T09:19:46Z</time>
      </trkpt>
      <trkpt lat="45.98366" lon="4.8355">
        <ele>269</ele>
        <time>2017-06-03T09:19:47Z</time>
      </trkpt>
      <trkpt lat="45.98372" lon="4.83543">
        <ele>269</ele>
        <time>2017-06-03T09:19:48Z</time>
      </trkpt>
      <trkpt lat="45.98377" lon="4.83536">
        <ele>269</ele>
        <time>2017-06-03T09:19:49Z</time>
      </trkpt>
      <trkpt lat="45.98382" lon="4.83529">
        <ele>269</ele>
        <time>2017-06-03T09:19:50Z</time>
      </trkpt>
      <trkpt lat="45.98387" lon="4.83522">
        <ele>269</ele>
        <time>2017-06-03T09:19:51Z</time>
      </trkpt>
      <trkpt lat="45.98393" lon="4.83515">
        <ele>269</ele>
        <time>2017-06-03T09:19:52Z</time>
      </trkpt>
      <trkpt lat="45.98398" lon="4.83508">
        <ele>269</ele>
        <time>2017-06-03T09:19:53Z</time>
      </trkpt>
      <trkpt lat="45.98403" lon="4.83501">
        <ele>268</ele>
        <time>2017-06-03T09:19:54Z</time>
      </trkpt>
      <trkpt lat="45.98408" lon="4.83494">
        <ele>268</ele>
        <time>2017-06-03T09:19:55Z</time>
      </trkpt>
      <trkpt lat="45.98412" lon="4.83487">
        <ele>269</ele>
        <time>2017-06-03T09:19:56Z</time>
      </trkpt>
      <trkpt lat="45.98417" lon="4.83481">
        <ele>268</ele>
        <time>2017-06-03T09:19:57Z</time>
      </trkpt>
      <trkpt lat="45.98422" lon="4.83475">
        <ele>268</ele>
        <time>2017-06-03T09:19:58Z</time>
      </trkpt>
      <trkpt lat="45.98426" lon="4.83468">
        <ele>268</ele>
        <time>2017-06-03T09:19:59Z</time>
      </trkpt>
      <trkpt lat="45.98431" lon="4.83462">
        <ele>268</ele>
        <time>2017-06-03T09:20:00Z</time>
      </trkpt>
      <trkpt lat="45.98436" lon="4.83455">
        <ele>268</ele>
        <time>2017-06-03T09:20:01Z</time>
      </trkpt>
      <trkpt lat="45.98441" lon="4.83449">
        <ele>268</ele>
        <time>2017-06-03T09:20:02Z</time>
      </trkpt>
      <trkpt lat="45.98445" lon="4.83442">
        <ele>268</ele>
        <time>2017-06-03T09:20:03Z</time>
      </trkpt>
      <trkpt lat="45.9845" lon="4.83436">
        <ele>268</ele>
        <time>2017-06-03T09:20:04Z</time>
      </trkpt>
      <trkpt lat="45.98455" lon="4.83429">
        <ele>268</ele>
        <time>2017-06-03T09:20:05Z</time>
      </trkpt>
      <trkpt lat="45.98461" lon="4.83422">
        <ele>269</ele>
        <time>2017-06-03T09:20:06Z</time>
      </trkpt>
      <trkpt lat="45.98466" lon="4.83415">
        <ele>269</ele>
        <time>2017-06-03T09:20:07Z</time>
      </trkpt>
      <trkpt lat="45.98471" lon="4.83408">
        <ele>269</ele>
        <time>2017-06-03T09:20:08Z</time>
      </trkpt>
      <trkpt lat="45.98477" lon="4.834">
        <ele>269</ele>
        <time>2017-06-03T09:20:09Z</time>
      </trkpt>
      <trkpt lat="45.98483" lon="4.83392">
        <ele>269</ele>
        <time>2017-06-03T09:20:10Z</time>
      </trkpt>
      <trkpt lat="45.98489" lon="4.83384">
        <ele>269</ele>
        <time>2017-06-03T09:20:11Z</time>
      </trkpt>
      <trkpt lat="45.98494" lon="4.83376">
        <ele>269</ele>
        <time>2017-06-03T09:20:12Z</time>
      </trkpt>
      <trkpt lat="45.985" lon="4.83369">
        <ele>269</ele>
        <time>2017-06-03T09:20:13Z</time>
      </trkpt>
      <trkpt lat="45.98506" lon="4.83361">
        <ele>269</ele>
        <time>2017-06-03T09:20:14Z</time>
      </trkpt>
      <trkpt lat="45.98511" lon="4.83354">
        <ele>270</ele>
        <time>2017-06-03T09:20:15Z</time>
      </trkpt>
      <trkpt lat="45.98517" lon="4.83347">
        <ele>270</ele>
        <time>2017-06-03T09:20:16Z</time>
      </trkpt>
      <trkpt lat="45.98522" lon="4.8334">
        <ele>270</ele>
        <time>2017-06-03T09:20:17Z</time>
      </trkpt>
      <trkpt lat="45.98526" lon="4.83334">
        <ele>269</ele>
        <time>2017-06-03T09:20:18Z</time>
      </trkpt>
      <trkpt lat="45.98531" lon="4.83327">
        <ele>269</ele>
        <time>2017-06-03T09:20:19Z</time>
      </trkpt>
      <trkpt lat="45.98535" lon="4.83321">
        <ele>269</ele>
        <time>2017-06-03T09:20:20Z</time>
      </trkpt>
      <trkpt lat="45.9854" lon="4.83315">
        <ele>269</ele>
        <time>2017-06-03T09:20:21Z</time>
      </trkpt>
      <trkpt lat="45.98544" lon="4.83309">
        <ele>269</ele>
        <time>2017-06-03T09:20:22Z</time>
      </trkpt>
      <trkpt lat="45.98549" lon="4.83303">
        <ele>269</ele>
        <time>2017-06-03T09:20:23Z</time>
      </trkpt>
      <trkpt lat="45.98553" lon="4.83297">
        <ele>269</ele>
        <time>2017-06-03T09:20:24Z</time>
      </trkpt>
      <trkpt lat="45.98558" lon="4.83291">
        <ele>269</ele>
        <time>2017-06-03T09:20:25Z</time>
      </trkpt>
      <trkpt lat="45.98562" lon="4.83285">
        <ele>269</ele>
        <time>2017-06-03T09:20:26Z</time>
      </trkpt>
      <trkpt lat="45.98566" lon="4.8328">
        <ele>269</ele>
        <time>2017-06-03T09:20:27Z</time>
      </trkpt>
      <trkpt lat="45.98571" lon="4.83274">
        <ele>269</ele>
        <time>2017-06-03T09:20:28Z</time>
      </trkpt>
      <trkpt lat="45.98575" lon="4.83269">
        <ele>269</ele>
        <time>2017-06-03T09:20:29Z</time>
      </trkpt>
      <trkpt lat="45.98579" lon="4.83263">
        <ele>269</ele>
        <time>2017-06-03T09:20:30Z</time>
      </trkpt>
      <trkpt lat="45.98584" lon="4.83258">
        <ele>268</ele>
        <time>2017-06-03T09:20:31Z</time>
      </trkpt>
      <trkpt lat="45.98588" lon="4.83252">
        <ele>268</ele>
        <time>2017-06-03T09:20:32Z</time>
      </trkpt>
      <trkpt lat="45.98592" lon="4.83246">
        <ele>268</ele>
        <time>2017-06-03T09:20:33Z</time>
      </trkpt>
      <trkpt lat="45.98597" lon="4.8324">
        <ele>268</ele>
        <time>2017-06-03T09:20:34Z</time>
      </trkpt>
      <trkpt lat="45.98601" lon="4.83234">
        <ele>268</ele>
        <time>2017-06-03T09:20:35Z</time>
      </trkpt>
      <trkpt lat="45.98605" lon="4.83229">
        <ele>267</ele>
        <time>2017-06-03T09:20:36Z</time>
      </trkpt>
      <trkpt lat="45.9861" lon="4.83223">
        <ele>267</ele>
        <time>2017-06-03T09:20:37Z</time>
      </trkpt>
      <trkpt lat="45.98614" lon="4.83216">
        <ele>267</ele>
        <time>2017-06-03T09:20:38Z</time>
      </trkpt>
      <trkpt lat="45.98619" lon="4.8321">
        <ele>267</ele>
        <time>2017-06-03T09:20:39Z</time>
      </trkpt>
      <trkpt lat="45.98623" lon="4.83204">
        <ele>267</ele>
        <time>2017-06-03T09:20:40Z</time>
      </trkpt>
      <trkpt lat="45.98628" lon="4.83198">
        <ele>267</ele>
        <time>2017-06-03T09:20:41Z</time>
      </trkpt>
      <trkpt lat="45.98633" lon="4.83192">
        <ele>267</ele>
        <time>2017-06-03T09:20:42Z</time>
      </trkpt>
      <trkpt lat="45.98638" lon="4.83186">
        <ele>267</ele>
        <time>2017-06-03T09:20:43Z</time>
      </trkpt>
      <trkpt lat="45.98644" lon="4.8318">
        <ele>267</ele>
        <time>2017-06-03T09:20:44Z</time>
      </trkpt>
      <trkpt lat="45.9865" lon="4.83175">
        <ele>267</ele>
        <time>2017-06-03T09:20:45Z</time>
      </trkpt>
      <trkpt lat="45.98656" lon="4.83169">
        <ele>266</ele>
        <time>2017-06-03T09:20:46Z</time>
      </trkpt>
      <trkpt lat="45.98663" lon="4.83164">
        <ele>266</ele>
        <time>2017-06-03T09:20:47Z</time>
      </trkpt>
      <trkpt lat="45.98669" lon="4.8316">
        <ele>266</ele>
        <time>2017-06-03T09:20:48Z</time>
      </trkpt>
      <trkpt lat="45.98676" lon="4.83155">
        <ele>266</ele>
        <time>2017-06-03T09:20:49Z</time>
      </trkpt>
      <trkpt lat="45.98683" lon="4.8315">
        <ele>266</ele>
        <time>2017-06-03T09:20:50Z</time>
      </trkpt>
      <trkpt lat="45.98691" lon="4.83144">
        <ele>266</ele>
        <time>2017-06-03T09:20:51Z</time>
      </trkpt>
      <trkpt lat="45.98698" lon="4.83139">
        <ele>266</ele>
        <time>2017-06-03T09:20:52Z</time>
      </trkpt>
      <trkpt lat="45.98705" lon="4.83133">
        <ele>266</ele>
        <time>2017-06-03T09:20:53Z</time>
      </trkpt>
      <trkpt lat="45.98713" lon="4.83127">
        <ele>266</ele>
        <time>2017-06-03T09:20:54Z</time>
      </trkpt>
      <trkpt lat="45.9872" lon="4.8312">
        <ele>266</ele>
        <time>2017-06-03T09:20:55Z</time>
      </trkpt>
      <trkpt lat="45.98728" lon="4.83114">
        <ele>267</ele>
        <time>2017-06-03T09:20:56Z</time>
      </trkpt>
      <trkpt lat="45.98735" lon="4.83108">
        <ele>267</ele>
        <time>2017-06-03T09:20:57Z</time>
      </trkpt>
      <trkpt lat="45.98742" lon="4.83102">
        <ele>267</ele>
        <time>2017-06-03T09:20:58Z</time>
      </trkpt>
      <trkpt lat="45.98749" lon="4.83096">
        <ele>267</ele>
        <time>2017-06-03T09:20:59Z</time>
      </trkpt>
      <trkpt lat="45.98756" lon="4.8309">
        <ele>266</ele>
        <time>2017-06-03T09:21:00Z</time>
      </trkpt>
      <trkpt lat="45.98763" lon="4.83083">
        <ele>266</ele>
        <time>2017-06-03T09:21:01Z</time>
      </trkpt>
      <trkpt lat="45.98771" lon="4.83077">
        <ele>266</ele>
        <time>2017-06-03T09:21:02Z</time>
      </trkpt>
      <trkpt lat="45.98778" lon="4.83071">
        <ele>265</ele>
        <time>2017-06-03T09:21:03Z</time>
      </trkpt>
      <trkpt lat="45.98785" lon="4.83064">
        <ele>265</ele>
        <time>2017-06-03T09:21:04Z</time>
      </trkpt>
      <trkpt lat="45.98793" lon="4.83058">
        <ele>265</ele>
        <time>2017-06-03T09:21:05Z</time>
      </trkpt>
      <trkpt lat="45.988" lon="4.83052">
        <ele>264</ele>
        <time>2017-06-03T09:21:06Z</time>
      </trkpt>
      <trkpt lat="45.98808" lon="4.83046">
        <ele>264</ele>
        <time>2017-06-03T09:21:07Z</time>
      </trkpt>
      <trkpt lat="45.98816" lon="4.83039">
        <ele>264</ele>
        <time>2017-06-03T09:21:08Z</time>
      </trkpt>
      <trkpt lat="45.98824" lon="4.83033">
        <ele>264</ele>
        <time>2017-06-03T09:21:09Z</time>
      </trkpt>
      <trkpt lat="45.98832" lon="4.83027">
        <ele>264</ele>
        <time>2017-06-03T09:21:10Z</time>
      </trkpt>
      <trkpt lat="45.9884" lon="4.83021">
        <ele>261</ele>
        <time>2017-06-03T09:21:11Z</time>
      </trkpt>
      <trkpt lat="45.98848" lon="4.83014">
        <ele>261</ele>
        <time>2017-06-03T09:21:12Z</time>
      </trkpt>
      <trkpt lat="45.98857" lon="4.83008">
        <ele>261</ele>
        <time>2017-06-03T09:21:13Z</time>
      </trkpt>
      <trkpt lat="45.98866" lon="4.83002">
        <ele>260</ele>
        <time>2017-06-03T09:21:14Z</time>
      </trkpt>
      <trkpt lat="45.98875" lon="4.82996">
        <ele>260</ele>
        <time>2017-06-03T09:21:15Z</time>
      </trkpt>
      <trkpt lat="45.98884" lon="4.82989">
        <ele>259</ele>
        <time>2017-06-03T09:21:16Z</time>
      </trkpt>
      <trkpt lat="45.98894" lon="4.82983">
        <ele>259</ele>
        <time>2017-06-03T09:21:17Z</time>
      </trkpt>
      <trkpt lat="45.98903" lon="4.82975">
        <ele>259</ele>
        <time>2017-06-03T09:21:18Z</time>
      </trkpt>
      <trkpt lat="45.98911" lon="4.82964">
        <ele>258</ele>
        <time>2017-06-03T09:21:19Z</time>
      </trkpt>
      <trkpt lat="45.98919" lon="4.82952">
        <ele>255</ele>
        <time>2017-06-03T09:21:20Z</time>
      </trkpt>
      <trkpt lat="45.98925" lon="4.82937">
        <ele>255</ele>
        <time>2017-06-03T09:21:21Z</time>
      </trkpt>
      <trkpt lat="45.98931" lon="4.82922">
        <ele>255</ele>
        <time>2017-06-03T09:21:22Z</time>
      </trkpt>
      <trkpt lat="45.98938" lon="4.82907">
        <ele>254</ele>
        <time>2017-06-03T09:21:23Z</time>
      </trkpt>
      <trkpt lat="45.98945" lon="4.82892">
        <ele>253</ele>
        <time>2017-06-03T09:21:24Z</time>
      </trkpt>
      <trkpt lat="45.98952" lon="4.82876">
        <ele>253</ele>
        <time>2017-06-03T09:21:25Z</time>
      </trkpt>
      <trkpt lat="45.98959" lon="4.8286">
        <ele>252</ele>
        <time>2017-06-03T09:21:26Z</time>
      </trkpt>
      <trkpt lat="45.98965" lon="4.82845">
        <ele>252</ele>
        <time>2017-06-03T09:21:27Z</time>
      </trkpt>
      <trkpt lat="45.98972" lon="4.82829">
        <ele>249</ele>
        <time>2017-06-03T09:21:28Z</time>
      </trkpt>
      <trkpt lat="45.98979" lon="4.82813">
        <ele>248</ele>
        <time>2017-06-03T09:21:29Z</time>
      </trkpt>
      <trkpt lat="45.98986" lon="4.82797">
        <ele>248</ele>
        <time>2017-06-03T09:21:30Z</time>
      </trkpt>
      <trkpt lat="45.98993" lon="4.82781">
        <ele>246</ele>
        <time>2017-06-03T09:21:31Z</time>
      </trkpt>
      <trkpt lat="45.99" lon="4.82764">
        <ele>241</ele>
        <time>2017-06-03T09:21:32Z</time>
      </trkpt>
      <trkpt lat="45.99007" lon="4.82748">
        <ele>240</ele>
        <time>2017-06-03T09:21:33Z</time>
      </trkpt>
      <trkpt lat="45.99014" lon="4.82731">
        <ele>239</ele>
        <time>2017-06-03T09:21:34Z</time>
      </trkpt>
      <trkpt lat="45.99021" lon="4.82715">
        <ele>239</ele>
        <time>2017-06-03T09:21:35Z</time>
      </trkpt>
      <trkpt lat="45.99028" lon="4.82699">
        <ele>238</ele>
        <time>2017-06-03T09:21:36Z</time>
      </trkpt>
      <trkpt lat="45.99035" lon="4.82683">
        <ele>238</ele>
        <time>2017-06-03T09:21:37Z</time>
      </trkpt>
      <trkpt lat="45.99042" lon="4.82668">
        <ele>238</ele>
        <time>2017-06-03T09:21:38Z</time>
      </trkpt>
      <trkpt lat="45.99049" lon="4.82654">
        <ele>236</ele>
        <time>2017-06-03T09:21:39Z</time>
      </trkpt>
      <trkpt lat="45.99054" lon="4.82641">
        <ele>236</ele>
        <time>2017-06-03T09:21:40Z</time>
      </trkpt>
      <trkpt lat="45.99059" lon="4.82629">
        <ele>236</ele>
        <time>2017-06-03T09:21:41Z</time>
      </trkpt>
      <trkpt lat="45.99064" lon="4.82618">
        <ele>236</ele>
        <time>2017-06-03T09:21:42Z</time>
      </trkpt>
      <trkpt lat="45.99068" lon="4.82609">
        <ele>236</ele>
        <time>2017-06-03T09:21:43Z</time>
      </trkpt>
      <trkpt lat="45.99071" lon="4.82601">
        <ele>235</ele>
        <time>2017-06-03T09:21:44Z</time>
      </trkpt>
      <trkpt lat="45.99074" lon="4.82594">
        <ele>235</ele>
        <time>2017-06-03T09:21:45Z</time>
      </trkpt>
      <trkpt lat="45.99074" lon="4.82582">
        <ele>235</ele>
        <time>2017-06-03T09:21:47Z</time>
      </trkpt>
      <trkpt lat="45.99071" lon="4.82576">
        <ele>235</ele>
        <time>2017-06-03T09:21:48Z</time>
      </trkpt>
      <trkpt lat="45.99067" lon="4.82571">
        <ele>235</ele>
        <time>2017-06-03T09:21:49Z</time>
      </trkpt>
      <trkpt lat="45.99062" lon="4.82568">
        <ele>235</ele>
        <time>2017-06-03T09:21:50Z</time>
      </trkpt>
      <trkpt lat="45.99057" lon="4.82566">
        <ele>235</ele>
        <time>2017-06-03T09:21:51Z</time>
      </trkpt>
      <trkpt lat="45.99051" lon="4.82564">
        <ele>235</ele>
        <time>2017-06-03T09:21:52Z</time>
      </trkpt>
      <trkpt lat="45.99047" lon="4.82561">
        <ele>235</ele>
        <time>2017-06-03T09:21:53Z</time>
      </trkpt>
      <trkpt lat="45.99042" lon="4.82559">
        <ele>235</ele>
        <time>2017-06-03T09:21:54Z</time>
      </trkpt>
      <trkpt lat="45.99038" lon="4.82556">
        <ele>235</ele>
        <time>2017-06-03T09:21:55Z</time>
      </trkpt>
      <trkpt lat="45.99034" lon="4.82553">
        <ele>235</ele>
        <time>2017-06-03T09:21:56Z</time>
      </trkpt>
      <trkpt lat="45.99027" lon="4.82546">
        <ele>235</ele>
        <time>2017-06-03T09:21:58Z</time>
      </trkpt>
      <trkpt lat="45.99023" lon="4.82543">
        <ele>235</ele>
        <time>2017-06-03T09:21:59Z</time>
      </trkpt>
      <trkpt lat="45.99019" lon="4.82539">
        <ele>235</ele>
        <time>2017-06-03T09:22:00Z</time>
      </trkpt>
      <trkpt lat="45.99016" lon="4.82534">
        <ele>235</ele>
        <time>2017-06-03T09:22:01Z</time>
      </trkpt>
      <trkpt lat="45.99013" lon="4.82528">
        <ele>235</ele>
        <time>2017-06-03T09:22:02Z</time>
      </trkpt>
      <trkpt lat="45.99009" lon="4.82523">
        <ele>235</ele>
        <time>2017-06-03T09:22:03Z</time>
      </trkpt>
      <trkpt lat="45.99006" lon="4.82517">
        <ele>235</ele>
        <time>2017-06-03T09:22:04Z</time>
      </trkpt>
      <trkpt lat="45.99003" lon="4.82512">
        <ele>235</ele>
        <time>2017-06-03T09:22:05Z</time>
      </trkpt>
      <trkpt lat="45.99" lon="4.82506">
        <ele>235</ele>
        <time>2017-06-03T09:22:06Z</time>
      </trkpt>
      <trkpt lat="45.98998" lon="4.82501">
        <ele>235</ele>
        <time>2017-06-03T09:22:07Z</time>
      </trkpt>
      <trkpt lat="45.98996" lon="4.82495">
        <ele>235</ele>
        <time>2017-06-03T09:22:08Z</time>
      </trkpt>
      <trkpt lat="45.98993" lon="4.82489">
        <ele>236</ele>
        <time>2017-06-03T09:22:09Z</time>
      </trkpt>
      <trkpt lat="45.98991" lon="4.82483">
        <ele>236</ele>
        <time>2017-06-03T09:22:10Z</time>
      </trkpt>
      <trkpt lat="45.98989" lon="4.82476">
        <ele>236</ele>
        <time>2017-06-03T09:22:11Z</time>
      </trkpt>
      <trkpt lat="45.98987" lon="4.82469">
        <ele>236</ele>
        <time>2017-06-03T09:22:12Z</time>
      </trkpt>
      <trkpt lat="45.98985" lon="4.82462">
        <ele>236</ele>
        <time>2017-06-03T09:22:13Z</time>
      </trkpt>
      <trkpt lat="45.98982" lon="4.82454">
        <ele>236</ele>
        <time>2017-06-03T09:22:14Z</time>
      </trkpt>
      <trkpt lat="45.9898" lon="4.82446">
        <ele>236</ele>
        <time>2017-06-03T09:22:15Z</time>
      </trkpt>
      <trkpt lat="45.98978" lon="4.82438">
        <ele>236</ele>
        <time>2017-06-03T09:22:16Z</time>
      </trkpt>
      <trkpt lat="45.98976" lon="4.8243">
        <ele>236</ele>
        <time>2017-06-03T09:22:17Z</time>
      </trkpt>
      <trkpt lat="45.98974" lon="4.82422">
        <ele>236</ele>
        <time>2017-06-03T09:22:18Z</time>
      </trkpt>
      <trkpt lat="45.98972" lon="4.82414">
        <ele>235</ele>
        <time>2017-06-03T09:22:19Z</time>
      </trkpt>
      <trkpt lat="45.98971" lon="4.82407">
        <ele>235</ele>
        <time>2017-06-03T09:22:20Z</time>
      </trkpt>
      <trkpt lat="45.9897" lon="4.824">
        <ele>235</ele>
        <time>2017-06-03T09:22:21Z</time>
      </trkpt>
      <trkpt lat="45.98968" lon="4.82393">
        <ele>235</ele>
        <time>2017-06-03T09:22:22Z</time>
      </trkpt>
      <trkpt lat="45.98967" lon="4.82387">
        <ele>235</ele>
        <time>2017-06-03T09:22:23Z</time>
      </trkpt>
      <trkpt lat="45.98965" lon="4.8238">
        <ele>235</ele>
        <time>2017-06-03T09:22:24Z</time>
      </trkpt>
      <trkpt lat="45.98964" lon="4.82374">
        <ele>235</ele>
        <time>2017-06-03T09:22:25Z</time>
      </trkpt>
      <trkpt lat="45.98962" lon="4.82368">
        <ele>235</ele>
        <time>2017-06-03T09:22:26Z</time>
      </trkpt>
      <trkpt lat="45.9896" lon="4.82361">
        <ele>235</ele>
        <time>2017-06-03T09:22:27Z</time>
      </trkpt>
      <trkpt lat="45.98957" lon="4.82355">
        <ele>235</ele>
        <time>2017-06-03T09:22:28Z</time>
      </trkpt>
      <trkpt lat="45.98955" lon="4.82348">
        <ele>235</ele>
        <time>2017-06-03T09:22:29Z</time>
      </trkpt>
      <trkpt lat="45.98952" lon="4.82342">
        <ele>235</ele>
        <time>2017-06-03T09:22:30Z</time>
      </trkpt>
      <trkpt lat="45.98948" lon="4.82335">
        <ele>235</ele>
        <time>2017-06-03T09:22:31Z</time>
      </trkpt>
      <trkpt lat="45.98945" lon="4.8233">
        <ele>234</ele>
        <time>2017-06-03T09:22:32Z</time>
      </trkpt>
      <trkpt lat="45.98941" lon="4.82324">
        <ele>234</ele>
        <time>2017-06-03T09:22:33Z</time>
      </trkpt>
      <trkpt lat="45.98937" lon="4.8232">
        <ele>234</ele>
        <time>2017-06-03T09:22:34Z</time>
      </trkpt>
      <trkpt lat="45.98933" lon="4.82315">
        <ele>235</ele>
        <time>2017-06-03T09:22:35Z</time>
      </trkpt>
      <trkpt lat="45.98929" lon="4.82311">
        <ele>235</ele>
        <time>2017-06-03T09:22:36Z</time>
      </trkpt>
      <trkpt lat="45.98924" lon="4.82306">
        <ele>234</ele>
        <time>2017-06-03T09:22:37Z</time>
      </trkpt>
      <trkpt lat="45.9892" lon="4.82301">
        <ele>234</ele>
        <time>2017-06-03T09:22:38Z</time>
      </trkpt>
      <trkpt lat="45.98915" lon="4.82296">
        <ele>236</ele>
        <time>2017-06-03T09:22:39Z</time>
      </trkpt>
      <trkpt lat="45.9891" lon="4.82291">
        <ele>236</ele>
        <time>2017-06-03T09:22:40Z</time>
      </trkpt>
      <trkpt lat="45.98905" lon="4.82285">
        <ele>236</ele>
        <time>2017-06-03T09:22:41Z</time>
      </trkpt>
      <trkpt lat="45.98901" lon="4.82279">
        <ele>236</ele>
        <time>2017-06-03T09:22:42Z</time>
      </trkpt>
      <trkpt lat="45.98896" lon="4.82272">
        <ele>236</ele>
        <time>2017-06-03T09:22:43Z</time>
      </trkpt>
      <trkpt lat="45.98892" lon="4.82266">
        <ele>236</ele>
        <time>2017-06-03T09:22:44Z</time>
      </trkpt>
      <trkpt lat="45.98888" lon="4.82259">
        <ele>236</ele>
        <time>2017-06-03T09:22:45Z</time>
      </trkpt>
      <trkpt lat="45.98885" lon="4.82253">
        <ele>236</ele>
        <time>2017-06-03T09:22:46Z</time>
      </trkpt>
      <trkpt lat="45.98881" lon="4.82246">
        <ele>236</ele>
        <time>2017-06-03T09:22:47Z</time>
      </trkpt>
      <trkpt lat="45.98879" lon="4.8224">
        <ele>236</ele>
        <time>2017-06-03T09:22:48Z</time>
      </trkpt>
      <trkpt lat="45.98876" lon="4.82233">
        <ele>236</ele>
        <time>2017-06-03T09:22:49Z</time>
      </trkpt>
      <trkpt lat="45.98873" lon="4.82227">
        <ele>236</ele>
        <time>2017-06-03T09:22:50Z</time>
      </trkpt>
      <trkpt lat="45.9887" lon="4.82221">
        <ele>236</ele>
        <time>2017-06-03T09:22:51Z</time>
      </trkpt>
      <trkpt lat="45.98868" lon="4.82214">
        <ele>236</ele>
        <time>2017-06-03T09:22:52Z</time>
      </trkpt>
      <trkpt lat="45.98865" lon="4.82208">
        <ele>236</ele>
        <time>2017-06-03T09:22:53Z</time>
      </trkpt>
      <trkpt lat="45.98863" lon="4.82202">
        <ele>236</ele>
        <time>2017-06-03T09:22:54Z</time>
      </trkpt>
      <trkpt lat="45.9886" lon="4.82196">
        <ele>236</ele>
        <time>2017-06-03T09:22:55Z</time>
      </trkpt>
      <trkpt lat="45.98857" lon="4.8219">
        <ele>236</ele>
        <time>2017-06-03T09:22:56Z</time>
      </trkpt>
      <trkpt lat="45.98855" lon="4.82183">
        <ele>236</ele>
        <time>2017-06-03T09:22:57Z</time>
      </trkpt>
      <trkpt lat="45.98852" lon="4.82176">
        <ele>236</ele>
        <time>2017-06-03T09:22:58Z</time>
      </trkpt>
      <trkpt lat="45.9885" lon="4.82169">
        <ele>236</ele>
        <time>2017-06-03T09:22:59Z</time>
      </trkpt>
      <trkpt lat="45.98847" lon="4.82162">
        <ele>236</ele>
        <time>2017-06-03T09:23:00Z</time>
      </trkpt>
      <trkpt lat="45.98845" lon="4.82154">
        <ele>236</ele>
        <time>2017-06-03T09:23:01Z</time>
      </trkpt>
      <trkpt lat="45.98844" lon="4.82147">
        <ele>236</ele>
        <time>2017-06-03T09:23:02Z</time>
      </trkpt>
      <trkpt lat="45.98842" lon="4.8214">
        <ele>236</ele>
        <time>2017-06-03T09:23:03Z</time>
      </trkpt>
      <trkpt lat="45.9884" lon="4.82133">
        <ele>236</ele>
        <time>2017-06-03T09:23:04Z</time>
      </trkpt>
      <trkpt lat="45.98839" lon="4.82126">
        <ele>236</ele>
        <time>2017-06-03T09:23:05Z</time>
      </trkpt>
      <trkpt lat="45.98838" lon="4.82119">
        <ele>236</ele>
        <time>2017-06-03T09:23:06Z</time>
      </trkpt>
      <trkpt lat="45.98837" lon="4.82113">
        <ele>235</ele>
        <time>2017-06-03T09:23:07Z</time>
      </trkpt>
      <trkpt lat="45.98836" lon="4.82106">
        <ele>236</ele>
        <time>2017-06-03T09:23:08Z</time>
      </trkpt>
      <trkpt lat="45.98835" lon="4.821">
        <ele>236</ele>
        <time>2017-06-03T09:23:09Z</time>
      </trkpt>
      <trkpt lat="45.98833" lon="4.82093">
        <ele>237</ele>
        <time>2017-06-03T09:23:10Z</time>
      </trkpt>
      <trkpt lat="45.98832" lon="4.82085">
        <ele>236</ele>
        <time>2017-06-03T09:23:11Z</time>
      </trkpt>
      <trkpt lat="45.9883" lon="4.82077">
        <ele>237</ele>
        <time>2017-06-03T09:23:12Z</time>
      </trkpt>
      <trkpt lat="45.98829" lon="4.82069">
        <ele>237</ele>
        <time>2017-06-03T09:23:13Z</time>
      </trkpt>
      <trkpt lat="45.98828" lon="4.8206">
        <ele>237</ele>
        <time>2017-06-03T09:23:14Z</time>
      </trkpt>
      <trkpt lat="45.98826" lon="4.82051">
        <ele>237</ele>
        <time>2017-06-03T09:23:15Z</time>
      </trkpt>
      <trkpt lat="45.98825" lon="4.82042">
        <ele>238</ele>
        <time>2017-06-03T09:23:16Z</time>
      </trkpt>
      <trkpt lat="45.98824" lon="4.82033">
        <ele>238</ele>
        <time>2017-06-03T09:23:17Z</time>
      </trkpt>
      <trkpt lat="45.98823" lon="4.82024">
        <ele>238</ele>
        <time>2017-06-03T09:23:18Z</time>
      </trkpt>
      <trkpt lat="45.98822" lon="4.82015">
        <ele>238</ele>
        <time>2017-06-03T09:23:19Z</time>
      </trkpt>
      <trkpt lat="45.9882" lon="4.82007">
        <ele>238</ele>
        <time>2017-06-03T09:23:20Z</time>
      </trkpt>
      <trkpt lat="45.98819" lon="4.81999">
        <ele>238</ele>
        <time>2017-06-03T09:23:21Z</time>
      </trkpt>
      <trkpt lat="45.98817" lon="4.81992">
        <ele>238</ele>
        <time>2017-06-03T09:23:22Z</time>
      </trkpt>
      <trkpt lat="45.98817" lon="4.81985">
        <ele>238</ele>
        <time>2017-06-03T09:23:23Z</time>
      </trkpt>
      <trkpt lat="45.98816" lon="4.81978">
        <ele>239</ele>
        <time>2017-06-03T09:23:24Z</time>
      </trkpt>
      <trkpt lat="45.98815" lon="4.81972">
        <ele>239</ele>
        <time>2017-06-03T09:23:25Z</time>
      </trkpt>
      <trkpt lat="45.98814" lon="4.81965">
        <ele>239</ele>
        <time>2017-06-03T09:23:26Z</time>
      </trkpt>
      <trkpt lat="45.98813" lon="4.81959">
        <ele>239</ele>
        <time>2017-06-03T09:23:27Z</time>
      </trkpt>
      <trkpt lat="45.98812" lon="4.81952">
        <ele>239</ele>
        <time>2017-06-03T09:23:28Z</time>
      </trkpt>
      <trkpt lat="45.98811" lon="4.81946">
        <ele>239</ele>
        <time>2017-06-03T09:23:29Z</time>
      </trkpt>
      <trkpt lat="45.9881" lon="4.81939">
        <ele>239</ele>
        <time>2017-06-03T09:23:30Z</time>
      </trkpt>
      <trkpt lat="45.98809" lon="4.81931">
        <ele>239</ele>
        <time>2017-06-03T09:23:31Z</time>
      </trkpt>
      <trkpt lat="45.98808" lon="4.81924">
        <ele>239</ele>
        <time>2017-06-03T09:23:32Z</time>
      </trkpt>
      <trkpt lat="45.98806" lon="4.81917">
        <ele>239</ele>
        <time>2017-06-03T09:23:33Z</time>
      </trkpt>
      <trkpt lat="45.98805" lon="4.81909">
        <ele>239</ele>
        <time>2017-06-03T09:23:34Z</time>
      </trkpt>
      <trkpt lat="45.98804" lon="4.81902">
        <ele>239</ele>
        <time>2017-06-03T09:23:35Z</time>
      </trkpt>
      <trkpt lat="45.98802" lon="4.81895">
        <ele>239</ele>
        <time>2017-06-03T09:23:36Z</time>
      </trkpt>
      <trkpt lat="45.988" lon="4.81888">
        <ele>239</ele>
        <time>2017-06-03T09:23:37Z</time>
      </trkpt>
      <trkpt lat="45.98799" lon="4.81881">
        <ele>239</ele>
        <time>2017-06-03T09:23:38Z</time>
      </trkpt>
      <trkpt lat="45.98797" lon="4.81875">
        <ele>239</ele>
        <time>2017-06-03T09:23:39Z</time>
      </trkpt>
      <trkpt lat="45.98792" lon="4.81865">
        <ele>239</ele>
        <time>2017-06-03T09:23:41Z</time>
      </trkpt>
      <trkpt lat="45.9879" lon="4.81859">
        <ele>239</ele>
        <time>2017-06-03T09:23:42Z</time>
      </trkpt>
      <trkpt lat="45.98787" lon="4.81853">
        <ele>239</ele>
        <time>2017-06-03T09:23:43Z</time>
      </trkpt>
      <trkpt lat="45.98784" lon="4.81847">
        <ele>239</ele>
        <time>2017-06-03T09:23:44Z</time>
      </trkpt>
      <trkpt lat="45.98782" lon="4.8184">
        <ele>239</ele>
        <time>2017-06-03T09:23:45Z</time>
      </trkpt>
      <trkpt lat="45.98779" lon="4.81834">
        <ele>239</ele>
        <time>2017-06-03T09:23:46Z</time>
      </trkpt>
      <trkpt lat="45.98776" lon="4.81827">
        <ele>240</ele>
        <time>2017-06-03T09:23:47Z</time>
      </trkpt>
      <trkpt lat="45.98773" lon="4.8182">
        <ele>240</ele>
        <time>2017-06-03T09:23:48Z</time>
      </trkpt>
      <trkpt lat="45.98769" lon="4.81812">
        <ele>240</ele>
        <time>2017-06-03T09:23:49Z</time>
      </trkpt>
      <trkpt lat="45.98766" lon="4.81806">
        <ele>240</ele>
        <time>2017-06-03T09:23:50Z</time>
      </trkpt>
      <trkpt lat="45.98763" lon="4.81799">
        <ele>240</ele>
        <time>2017-06-03T09:23:51Z</time>
      </trkpt>
      <trkpt lat="45.98761" lon="4.81793">
        <ele>240</ele>
        <time>2017-06-03T09:23:52Z</time>
      </trkpt>
      <trkpt lat="45.98758" lon="4.81787">
        <ele>241</ele>
        <time>2017-06-03T09:23:53Z</time>
      </trkpt>
      <trkpt lat="45.98755" lon="4.81781">
        <ele>241</ele>
        <time>2017-06-03T09:23:54Z</time>
      </trkpt>
      <trkpt lat="45.9875" lon="4.8177">
        <ele>240</ele>
        <time>2017-06-03T09:23:56Z</time>
      </trkpt>
      <trkpt lat="45.98748" lon="4.81765">
        <ele>240</ele>
        <time>2017-06-03T09:23:57Z</time>
      </trkpt>
      <trkpt lat="45.98743" lon="4.81755">
        <ele>240</ele>
        <time>2017-06-03T09:23:59Z</time>
      </trkpt>
      <trkpt lat="45.9874" lon="4.81751">
        <ele>240</ele>
        <time>2017-06-03T09:24:00Z</time>
      </trkpt>
      <trkpt lat="45.98736" lon="4.81742">
        <ele>240</ele>
        <time>2017-06-03T09:24:02Z</time>
      </trkpt>
      <trkpt lat="45.98733" lon="4.81738">
        <ele>240</ele>
        <time>2017-06-03T09:24:03Z</time>
      </trkpt>
      <trkpt lat="45.98727" lon="4.81731">
        <ele>239</ele>
        <time>2017-06-03T09:24:05Z</time>
      </trkpt>
      <trkpt lat="45.98723" lon="4.81729">
        <ele>239</ele>
        <time>2017-06-03T09:24:06Z</time>
      </trkpt>
      <trkpt lat="45.98715" lon="4.81728">
        <ele>239</ele>
        <time>2017-06-03T09:24:08Z</time>
      </trkpt>
      <trkpt lat="45.98711" lon="4.81728">
        <ele>239</ele>
        <time>2017-06-03T09:24:09Z</time>
      </trkpt>
      <trkpt lat="45.98703" lon="4.8173">
        <ele>239</ele>
        <time>2017-06-03T09:24:11Z</time>
      </trkpt>
      <trkpt lat="45.98699" lon="4.81731">
        <ele>239</ele>
        <time>2017-06-03T09:24:12Z</time>
      </trkpt>
      <trkpt lat="45.98691" lon="4.81733">
        <ele>238</ele>
        <time>2017-06-03T09:24:14Z</time>
      </trkpt>
      <trkpt lat="45.98686" lon="4.81735">
        <ele>238</ele>
        <time>2017-06-03T09:24:15Z</time>
      </trkpt>
      <trkpt lat="45.98678" lon="4.81737">
        <ele>238</ele>
        <time>2017-06-03T09:24:17Z</time>
      </trkpt>
      <trkpt lat="45.98675" lon="4.81738">
        <ele>238</ele>
        <time>2017-06-03T09:24:18Z</time>
      </trkpt>
      <trkpt lat="45.98666" lon="4.81741">
        <ele>238</ele>
        <time>2017-06-03T09:24:20Z</time>
      </trkpt>
      <trkpt lat="45.98662" lon="4.81742">
        <ele>238</ele>
        <time>2017-06-03T09:24:21Z</time>
      </trkpt>
      <trkpt lat="45.98657" lon="4.81744">
        <ele>237</ele>
        <time>2017-06-03T09:24:22Z</time>
      </trkpt>
      <trkpt lat="45.98652" lon="4.81745">
        <ele>237</ele>
        <time>2017-06-03T09:24:23Z</time>
      </trkpt>
      <trkpt lat="45.98648" lon="4.81746">
        <ele>237</ele>
        <time>2017-06-03T09:24:24Z</time>
      </trkpt>
      <trkpt lat="45.98643" lon="4.81747">
        <ele>237</ele>
        <time>2017-06-03T09:24:25Z</time>
      </trkpt>
      <trkpt lat="45.98638" lon="4.81749">
        <ele>237</ele>
        <time>2017-06-03T09:24:26Z</time>
      </trkpt>
      <trkpt lat="45.98632" lon="4.81751">
        <ele>238</ele>
        <time>2017-06-03T09:24:27Z</time>
      </trkpt>
      <trkpt lat="45.98628" lon="4.81753">
        <ele>238</ele>
        <time>2017-06-03T09:24:28Z</time>
      </trkpt>
      <trkpt lat="45.98623" lon="4.81755">
        <ele>238</ele>
        <time>2017-06-03T09:24:29Z</time>
      </trkpt>
      <trkpt lat="45.98618" lon="4.81756">
        <ele>238</ele>
        <time>2017-06-03T09:24:30Z</time>
      </trkpt>
      <trkpt lat="45.98613" lon="4.81758">
        <ele>238</ele>
        <time>2017-06-03T09:24:31Z</time>
      </trkpt>
      <trkpt lat="45.98609" lon="4.81759">
        <ele>238</ele>
        <time>2017-06-03T09:24:32Z</time>
      </trkpt>
      <trkpt lat="45.98604" lon="4.81761">
        <ele>238</ele>
        <time>2017-06-03T09:24:33Z</time>
      </trkpt>
      <trkpt lat="45.98599" lon="4.81763">
        <ele>238</ele>
        <time>2017-06-03T09:24:34Z</time>
      </trkpt>
      <trkpt lat="45.98595" lon="4.81767">
        <ele>238</ele>
        <time>2017-06-03T09:24:35Z</time>
      </trkpt>
      <trkpt lat="45.9859" lon="4.81771">
        <ele>238</ele>
        <time>2017-06-03T09:24:36Z</time>
      </trkpt>
      <trkpt lat="45.98586" lon="4.81775">
        <ele>238</ele>
        <time>2017-06-03T09:24:37Z</time>
      </trkpt>
      <trkpt lat="45.98582" lon="4.81779">
        <ele>238</ele>
        <time>2017-06-03T09:24:38Z</time>
      </trkpt>
      <trkpt lat="45.98578" lon="4.81784">
        <ele>238</ele>
        <time>2017-06-03T09:24:39Z</time>
      </trkpt>
      <trkpt lat="45.98575" lon="4.81789">
        <ele>238</ele>
        <time>2017-06-03T09:24:40Z</time>
      </trkpt>
      <trkpt lat="45.98571" lon="4.81793">
        <ele>238</ele>
        <time>2017-06-03T09:24:41Z</time>
      </trkpt>
      <trkpt lat="45.98567" lon="4.81798">
        <ele>238</ele>
        <time>2017-06-03T09:24:42Z</time>
      </trkpt>
      <trkpt lat="45.98563" lon="4.81802">
        <ele>238</ele>
        <time>2017-06-03T09:24:43Z</time>
      </trkpt>
      <trkpt lat="45.98559" lon="4.81804">
        <ele>238</ele>
        <time>2017-06-03T09:24:44Z</time>
      </trkpt>
      <trkpt lat="45.98553" lon="4.81806">
        <ele>238</ele>
        <time>2017-06-03T09:24:45Z</time>
      </trkpt>
      <trkpt lat="45.98548" lon="4.81805">
        <ele>238</ele>
        <time>2017-06-03T09:24:46Z</time>
      </trkpt>
      <trkpt lat="45.98542" lon="4.81802">
        <ele>238</ele>
        <time>2017-06-03T09:24:47Z</time>
      </trkpt>
      <trkpt lat="45.98538" lon="4.81799">
        <ele>238</ele>
        <time>2017-06-03T09:24:48Z</time>
      </trkpt>
      <trkpt lat="45.98534" lon="4.81795">
        <ele>238</ele>
        <time>2017-06-03T09:24:49Z</time>
      </trkpt>
      <trkpt lat="45.98531" lon="4.8179">
        <ele>238</ele>
        <time>2017-06-03T09:24:50Z</time>
      </trkpt>
      <trkpt lat="45.98526" lon="4.81786">
        <ele>238</ele>
        <time>2017-06-03T09:24:51Z</time>
      </trkpt>
      <trkpt lat="45.98523" lon="4.81781">
        <ele>238</ele>
        <time>2017-06-03T09:24:52Z</time>
      </trkpt>
      <trkpt lat="45.98519" lon="4.81776">
        <ele>238</ele>
        <time>2017-06-03T09:24:53Z</time>
      </trkpt>
      <trkpt lat="45.98516" lon="4.81772">
        <ele>238</ele>
        <time>2017-06-03T09:24:54Z</time>
      </trkpt>
      <trkpt lat="45.98512" lon="4.81768">
        <ele>237</ele>
        <time>2017-06-03T09:24:55Z</time>
      </trkpt>
      <trkpt lat="45.98508" lon="4.81764">
        <ele>237</ele>
        <time>2017-06-03T09:24:56Z</time>
      </trkpt>
      <trkpt lat="45.98504" lon="4.81759">
        <ele>237</ele>
        <time>2017-06-03T09:24:57Z</time>
      </trkpt>
      <trkpt lat="45.985" lon="4.81755">
        <ele>238</ele>
        <time>2017-06-03T09:24:58Z</time>
      </trkpt>
      <trkpt lat="45.98497" lon="4.8175">
        <ele>237</ele>
        <time>2017-06-03T09:24:59Z</time>
      </trkpt>
      <trkpt lat="45.98493" lon="4.81746">
        <ele>238</ele>
        <time>2017-06-03T09:25:00Z</time>
      </trkpt>
      <trkpt lat="45.98489" lon="4.81742">
        <ele>238</ele>
        <time>2017-06-03T09:25:01Z</time>
      </trkpt>
      <trkpt lat="45.98485" lon="4.81738">
        <ele>238</ele>
        <time>2017-06-03T09:25:02Z</time>
      </trkpt>
      <trkpt lat="45.98481" lon="4.81733">
        <ele>238</ele>
        <time>2017-06-03T09:25:03Z</time>
      </trkpt>
      <trkpt lat="45.98477" lon="4.81729">
        <ele>238</ele>
        <time>2017-06-03T09:25:04Z</time>
      </trkpt>
      <trkpt lat="45.98473" lon="4.81725">
        <ele>239</ele>
        <time>2017-06-03T09:25:05Z</time>
      </trkpt>
      <trkpt lat="45.98469" lon="4.8172">
        <ele>239</ele>
        <time>2017-06-03T09:25:06Z</time>
      </trkpt>
      <trkpt lat="45.98465" lon="4.81716">
        <ele>239</ele>
        <time>2017-06-03T09:25:07Z</time>
      </trkpt>
      <trkpt lat="45.98459" lon="4.81707">
        <ele>239</ele>
        <time>2017-06-03T09:25:09Z</time>
      </trkpt>
      <trkpt lat="45.98456" lon="4.81702">
        <ele>239</ele>
        <time>2017-06-03T09:25:10Z</time>
      </trkpt>
      <trkpt lat="45.98451" lon="4.81692">
        <ele>239</ele>
        <time>2017-06-03T09:25:12Z</time>
      </trkpt>
      <trkpt lat="45.98448" lon="4.81687">
        <ele>239</ele>
        <time>2017-06-03T09:25:13Z</time>
      </trkpt>
      <trkpt lat="45.98442" lon="4.81678">
        <ele>239</ele>
        <time>2017-06-03T09:25:15Z</time>
      </trkpt>
      <trkpt lat="45.98439" lon="4.81674">
        <ele>240</ele>
        <time>2017-06-03T09:25:16Z</time>
      </trkpt>
      <trkpt lat="45.98433" lon="4.81668">
        <ele>240</ele>
        <time>2017-06-03T09:25:18Z</time>
      </trkpt>
      <trkpt lat="45.9843" lon="4.81667">
        <ele>239</ele>
        <time>2017-06-03T09:25:19Z</time>
      </trkpt>
      <trkpt lat="45.98423" lon="4.81665">
        <ele>240</ele>
        <time>2017-06-03T09:25:21Z</time>
      </trkpt>
      <trkpt lat="45.98419" lon="4.81665">
        <ele>241</ele>
        <time>2017-06-03T09:25:22Z</time>
      </trkpt>
      <trkpt lat="45.9841" lon="4.81665">
        <ele>241</ele>
        <time>2017-06-03T09:25:24Z</time>
      </trkpt>
      <trkpt lat="45.98405" lon="4.81666">
        <ele>241</ele>
        <time>2017-06-03T09:25:25Z</time>
      </trkpt>
      <trkpt lat="45.98397" lon="4.81668">
        <ele>243</ele>
        <time>2017-06-03T09:25:27Z</time>
      </trkpt>
      <trkpt lat="45.98393" lon="4.81669">
        <ele>243</ele>
        <time>2017-06-03T09:25:28Z</time>
      </trkpt>
      <trkpt lat="45.98385" lon="4.81671">
        <ele>243</ele>
        <time>2017-06-03T09:25:30Z</time>
      </trkpt>
      <trkpt lat="45.98381" lon="4.81672">
        <ele>244</ele>
        <time>2017-06-03T09:25:31Z</time>
      </trkpt>
      <trkpt lat="45.98374" lon="4.81673">
        <ele>244</ele>
        <time>2017-06-03T09:25:33Z</time>
      </trkpt>
      <trkpt lat="45.9837" lon="4.81674">
        <ele>244</ele>
        <time>2017-06-03T09:25:34Z</time>
      </trkpt>
      <trkpt lat="45.98362" lon="4.81675">
        <ele>244</ele>
        <time>2017-06-03T09:25:36Z</time>
      </trkpt>
      <trkpt lat="45.98358" lon="4.81676">
        <ele>245</ele>
        <time>2017-06-03T09:25:37Z</time>
      </trkpt>
      <trkpt lat="45.98349" lon="4.81676">
        <ele>245</ele>
        <time>2017-06-03T09:25:39Z</time>
      </trkpt>
      <trkpt lat="45.98346" lon="4.81675">
        <ele>245</ele>
        <time>2017-06-03T09:25:40Z</time>
      </trkpt>
      <trkpt lat="45.98338" lon="4.81673">
        <ele>245</ele>
        <time>2017-06-03T09:25:42Z</time>
      </trkpt>
      <trkpt lat="45.98335" lon="4.81671">
        <ele>246</ele>
        <time>2017-06-03T09:25:43Z</time>
      </trkpt>
      <trkpt lat="45.98329" lon="4.81668">
        <ele>246</ele>
        <time>2017-06-03T09:25:45Z</time>
      </trkpt>
      <trkpt lat="45.98325" lon="4.81666">
        <ele>246</ele>
        <time>2017-06-03T09:25:46Z</time>
      </trkpt>
      <trkpt lat="45.98319" lon="4.81661">
        <ele>246</ele>
        <time>2017-06-03T09:25:48Z</time>
      </trkpt>
      <trkpt lat="45.98316" lon="4.81658">
        <ele>246</ele>
        <time>2017-06-03T09:25:49Z</time>
      </trkpt>
      <trkpt lat="45.9831" lon="4.81653">
        <ele>246</ele>
        <time>2017-06-03T09:25:51Z</time>
      </trkpt>
      <trkpt lat="45.98307" lon="4.8165">
        <ele>246</ele>
        <time>2017-06-03T09:25:52Z</time>
      </trkpt>
      <trkpt lat="45.983" lon="4.81644">
        <ele>247</ele>
        <time>2017-06-03T09:25:54Z</time>
      </trkpt>
      <trkpt lat="45.98297" lon="4.81641">
        <ele>247</ele>
        <time>2017-06-03T09:25:55Z</time>
      </trkpt>
      <trkpt lat="45.98292" lon="4.81634">
        <ele>247</ele>
        <time>2017-06-03T09:25:57Z</time>
      </trkpt>
      <trkpt lat="45.98289" lon="4.8163">
        <ele>247</ele>
        <time>2017-06-03T09:25:58Z</time>
      </trkpt>
      <trkpt lat="45.98284" lon="4.81622">
        <ele>247</ele>
        <time>2017-06-03T09:26:00Z</time>
      </trkpt>
      <trkpt lat="45.98281" lon="4.81618">
        <ele>247</ele>
        <time>2017-06-03T09:26:01Z</time>
      </trkpt>
      <trkpt lat="45.98276" lon="4.81609">
        <ele>247</ele>
        <time>2017-06-03T09:26:03Z</time>
      </trkpt>
      <trkpt lat="45.98274" lon="4.81603">
        <ele>247</ele>
        <time>2017-06-03T09:26:04Z</time>
      </trkpt>
      <trkpt lat="45.9827" lon="4.81592">
        <ele>247</ele>
        <time>2017-06-03T09:26:06Z</time>
      </trkpt>
      <trkpt lat="45.98268" lon="4.81586">
        <ele>247</ele>
        <time>2017-06-03T09:26:07Z</time>
      </trkpt>
      <trkpt lat="45.98265" lon="4.81575">
        <ele>247</ele>
        <time>2017-06-03T09:26:09Z</time>
      </trkpt>
      <trkpt lat="45.98263" lon="4.8157">
        <ele>247</ele>
        <time>2017-06-03T09:26:10Z</time>
      </trkpt>
      <trkpt lat="45.98259" lon="4.81559">
        <ele>247</ele>
        <time>2017-06-03T09:26:12Z</time>
      </trkpt>
      <trkpt lat="45.98257" lon="4.81554">
        <ele>247</ele>
        <time>2017-06-03T09:26:13Z</time>
      </trkpt>
      <trkpt lat="45.98254" lon="4.81543">
        <ele>247</ele>
        <time>2017-06-03T09:26:15Z</time>
      </trkpt>
      <trkpt lat="45.98252" lon="4.81537">
        <ele>247</ele>
        <time>2017-06-03T09:26:16Z</time>
      </trkpt>
      <trkpt lat="45.9825" lon="4.8153">
        <ele>247</ele>
        <time>2017-06-03T09:26:17Z</time>
      </trkpt>
      <trkpt lat="45.98248" lon="4.81524">
        <ele>249</ele>
        <time>2017-06-03T09:26:18Z</time>
      </trkpt>
      <trkpt lat="45.98246" lon="4.81518">
        <ele>249</ele>
        <time>2017-06-03T09:26:19Z</time>
      </trkpt>
      <trkpt lat="45.98244" lon="4.81511">
        <ele>249</ele>
        <time>2017-06-03T09:26:20Z</time>
      </trkpt>
      <trkpt lat="45.98242" lon="4.81505">
        <ele>249</ele>
        <time>2017-06-03T09:26:21Z</time>
      </trkpt>
      <trkpt lat="45.98239" lon="4.81499">
        <ele>249</ele>
        <time>2017-06-03T09:26:22Z</time>
      </trkpt>
      <trkpt lat="45.98236" lon="4.81487">
        <ele>249</ele>
        <time>2017-06-03T09:26:24Z</time>
      </trkpt>
      <trkpt lat="45.98234" lon="4.81482">
        <ele>249</ele>
        <time>2017-06-03T09:26:25Z</time>
      </trkpt>
      <trkpt lat="45.98231" lon="4.81471">
        <ele>249</ele>
        <time>2017-06-03T09:26:27Z</time>
      </trkpt>
      <trkpt lat="45.98229" lon="4.81465">
        <ele>249</ele>
        <time>2017-06-03T09:26:28Z</time>
      </trkpt>
      <trkpt lat="45.98226" lon="4.81458">
        <ele>249</ele>
        <time>2017-06-03T09:26:29Z</time>
      </trkpt>
      <trkpt lat="45.98224" lon="4.81451">
        <ele>249</ele>
        <time>2017-06-03T09:26:30Z</time>
      </trkpt>
      <trkpt lat="45.98222" lon="4.81444">
        <ele>249</ele>
        <time>2017-06-03T09:26:31Z</time>
      </trkpt>
      <trkpt lat="45.98219" lon="4.81438">
        <ele>249</ele>
        <time>2017-06-03T09:26:32Z</time>
      </trkpt>
      <trkpt lat="45.98217" lon="4.81431">
        <ele>249</ele>
        <time>2017-06-03T09:26:33Z</time>
      </trkpt>
      <trkpt lat="45.98215" lon="4.81424">
        <ele>249</ele>
        <time>2017-06-03T09:26:34Z</time>
      </trkpt>
      <trkpt lat="45.98213" lon="4.81417">
        <ele>249</ele>
        <time>2017-06-03T09:26:35Z</time>
      </trkpt>
      <trkpt lat="45.98211" lon="4.81411">
        <ele>248</ele>
        <time>2017-06-03T09:26:36Z</time>
      </trkpt>
      <trkpt lat="45.98209" lon="4.81404">
        <ele>248</ele>
        <time>2017-06-03T09:26:37Z</time>
      </trkpt>
      <trkpt lat="45.98207" lon="4.81398">
        <ele>248</ele>
        <time>2017-06-03T09:26:38Z</time>
      </trkpt>
      <trkpt lat="45.98205" lon="4.81391">
        <ele>248</ele>
        <time>2017-06-03T09:26:39Z</time>
      </trkpt>
      <trkpt lat="45.98203" lon="4.81384">
        <ele>248</ele>
        <time>2017-06-03T09:26:40Z</time>
      </trkpt>
      <trkpt lat="45.98201" lon="4.81377">
        <ele>248</ele>
        <time>2017-06-03T09:26:41Z</time>
      </trkpt>
      <trkpt lat="45.982" lon="4.8137">
        <ele>248</ele>
        <time>2017-06-03T09:26:42Z</time>
      </trkpt>
      <trkpt lat="45.98198" lon="4.81363">
        <ele>248</ele>
        <time>2017-06-03T09:26:43Z</time>
      </trkpt>
      <trkpt lat="45.98196" lon="4.81355">
        <ele>248</ele>
        <time>2017-06-03T09:26:44Z</time>
      </trkpt>
      <trkpt lat="45.98194" lon="4.81348">
        <ele>248</ele>
        <time>2017-06-03T09:26:45Z</time>
      </trkpt>
      <trkpt lat="45.98192" lon="4.8134">
        <ele>248</ele>
        <time>2017-06-03T09:26:46Z</time>
      </trkpt>
      <trkpt lat="45.98191" lon="4.81333">
        <ele>247</ele>
        <time>2017-06-03T09:26:47Z</time>
      </trkpt>
      <trkpt lat="45.98189" lon="4.81325">
        <ele>247</ele>
        <time>2017-06-03T09:26:48Z</time>
      </trkpt>
      <trkpt lat="45.98188" lon="4.81317">
        <ele>247</ele>
        <time>2017-06-03T09:26:49Z</time>
      </trkpt>
      <trkpt lat="45.98186" lon="4.8131">
        <ele>247</ele>
        <time>2017-06-03T09:26:50Z</time>
      </trkpt>
      <trkpt lat="45.98184" lon="4.81302">
        <ele>247</ele>
        <time>2017-06-03T09:26:51Z</time>
      </trkpt>
      <trkpt lat="45.98183" lon="4.81294">
        <ele>247</ele>
        <time>2017-06-03T09:26:52Z</time>
      </trkpt>
      <trkpt lat="45.98181" lon="4.81286">
        <ele>247</ele>
        <time>2017-06-03T09:26:53Z</time>
      </trkpt>
      <trkpt lat="45.9818" lon="4.81278">
        <ele>247</ele>
        <time>2017-06-03T09:26:54Z</time>
      </trkpt>
      <trkpt lat="45.98178" lon="4.8127">
        <ele>247</ele>
        <time>2017-06-03T09:26:55Z</time>
      </trkpt>
      <trkpt lat="45.98177" lon="4.81262">
        <ele>247</ele>
        <time>2017-06-03T09:26:56Z</time>
      </trkpt>
      <trkpt lat="45.98176" lon="4.81253">
        <ele>247</ele>
        <time>2017-06-03T09:26:57Z</time>
      </trkpt>
      <trkpt lat="45.98175" lon="4.81245">
        <ele>247</ele>
        <time>2017-06-03T09:26:58Z</time>
      </trkpt>
      <trkpt lat="45.98173" lon="4.81237">
        <ele>247</ele>
        <time>2017-06-03T09:26:59Z</time>
      </trkpt>
      <trkpt lat="45.98172" lon="4.81228">
        <ele>246</ele>
        <time>2017-06-03T09:27:00Z</time>
      </trkpt>
      <trkpt lat="45.98172" lon="4.8122">
        <ele>246</ele>
        <time>2017-06-03T09:27:01Z</time>
      </trkpt>
      <trkpt lat="45.98171" lon="4.81211">
        <ele>246</ele>
        <time>2017-06-03T09:27:02Z</time>
      </trkpt>
      <trkpt lat="45.9817" lon="4.81203">
        <ele>245</ele>
        <time>2017-06-03T09:27:03Z</time>
      </trkpt>
      <trkpt lat="45.98169" lon="4.81194">
        <ele>245</ele>
        <time>2017-06-03T09:27:04Z</time>
      </trkpt>
      <trkpt lat="45.98168" lon="4.81186">
        <ele>245</ele>
        <time>2017-06-03T09:27:05Z</time>
      </trkpt>
      <trkpt lat="45.98165" lon="4.81178">
        <ele>246</ele>
        <time>2017-06-03T09:27:06Z</time>
      </trkpt>
      <trkpt lat="45.98163" lon="4.81169">
        <ele>245</ele>
        <time>2017-06-03T09:27:07Z</time>
      </trkpt>
      <trkpt lat="45.9816" lon="4.81161">
        <ele>245</ele>
        <time>2017-06-03T09:27:08Z</time>
      </trkpt>
      <trkpt lat="45.98157" lon="4.81153">
        <ele>245</ele>
        <time>2017-06-03T09:27:09Z</time>
      </trkpt>
      <trkpt lat="45.98154" lon="4.81145">
        <ele>245</ele>
        <time>2017-06-03T09:27:10Z</time>
      </trkpt>
      <trkpt lat="45.9815" lon="4.81137">
        <ele>245</ele>
        <time>2017-06-03T09:27:11Z</time>
      </trkpt>
      <trkpt lat="45.98146" lon="4.81129">
        <ele>245</ele>
        <time>2017-06-03T09:27:12Z</time>
      </trkpt>
      <trkpt lat="45.98143" lon="4.8112">
        <ele>245</ele>
        <time>2017-06-03T09:27:13Z</time>
      </trkpt>
      <trkpt lat="45.9814" lon="4.81112">
        <ele>245</ele>
        <time>2017-06-03T09:27:14Z</time>
      </trkpt>
      <trkpt lat="45.98136" lon="4.81104">
        <ele>245</ele>
        <time>2017-06-03T09:27:15Z</time>
      </trkpt>
      <trkpt lat="45.98133" lon="4.81096">
        <ele>245</ele>
        <time>2017-06-03T09:27:16Z</time>
      </trkpt>
      <trkpt lat="45.9813" lon="4.81088">
        <ele>245</ele>
        <time>2017-06-03T09:27:17Z</time>
      </trkpt>
      <trkpt lat="45.98128" lon="4.8108">
        <ele>243</ele>
        <time>2017-06-03T09:27:18Z</time>
      </trkpt>
      <trkpt lat="45.98125" lon="4.81072">
        <ele>243</ele>
        <time>2017-06-03T09:27:19Z</time>
      </trkpt>
      <trkpt lat="45.98123" lon="4.81064">
        <ele>243</ele>
        <time>2017-06-03T09:27:20Z</time>
      </trkpt>
      <trkpt lat="45.9812" lon="4.81056">
        <ele>243</ele>
        <time>2017-06-03T09:27:21Z</time>
      </trkpt>
      <trkpt lat="45.98118" lon="4.81048">
        <ele>243</ele>
        <time>2017-06-03T09:27:22Z</time>
      </trkpt>
      <trkpt lat="45.98115" lon="4.8104">
        <ele>242</ele>
        <time>2017-06-03T09:27:23Z</time>
      </trkpt>
      <trkpt lat="45.98113" lon="4.81033">
        <ele>242</ele>
        <time>2017-06-03T09:27:24Z</time>
      </trkpt>
      <trkpt lat="45.9811" lon="4.81026">
        <ele>242</ele>
        <time>2017-06-03T09:27:25Z</time>
      </trkpt>
      <trkpt lat="45.98108" lon="4.81019">
        <ele>242</ele>
        <time>2017-06-03T09:27:26Z</time>
      </trkpt>
      <trkpt lat="45.98105" lon="4.81014">
        <ele>242</ele>
        <time>2017-06-03T09:27:27Z</time>
      </trkpt>
      <trkpt lat="45.98102" lon="4.81007">
        <ele>242</ele>
        <time>2017-06-03T09:27:28Z</time>
      </trkpt>
      <trkpt lat="45.98099" lon="4.81">
        <ele>242</ele>
        <time>2017-06-03T09:27:29Z</time>
      </trkpt>
      <trkpt lat="45.98097" lon="4.80993">
        <ele>240</ele>
        <time>2017-06-03T09:27:30Z</time>
      </trkpt>
      <trkpt lat="45.98096" lon="4.80987">
        <ele>240</ele>
        <time>2017-06-03T09:27:31Z</time>
      </trkpt>
      <trkpt lat="45.98094" lon="4.8098">
        <ele>239</ele>
        <time>2017-06-03T09:27:32Z</time>
      </trkpt>
      <trkpt lat="45.98092" lon="4.80973">
        <ele>239</ele>
        <time>2017-06-03T09:27:33Z</time>
      </trkpt>
      <trkpt lat="45.98089" lon="4.80965">
        <ele>239</ele>
        <time>2017-06-03T09:27:34Z</time>
      </trkpt>
      <trkpt lat="45.98086" lon="4.80956">
        <ele>239</ele>
        <time>2017-06-03T09:27:35Z</time>
      </trkpt>
      <trkpt lat="45.98084" lon="4.80946">
        <ele>238</ele>
        <time>2017-06-03T09:27:36Z</time>
      </trkpt>
      <trkpt lat="45.98081" lon="4.80936">
        <ele>240</ele>
        <time>2017-06-03T09:27:37Z</time>
      </trkpt>
      <trkpt lat="45.98078" lon="4.80925">
        <ele>240</ele>
        <time>2017-06-03T09:27:38Z</time>
      </trkpt>
      <trkpt lat="45.98076" lon="4.80914">
        <ele>239</ele>
        <time>2017-06-03T09:27:39Z</time>
      </trkpt>
      <trkpt lat="45.98073" lon="4.80902">
        <ele>238</ele>
        <time>2017-06-03T09:27:40Z</time>
      </trkpt>
      <trkpt lat="45.9807" lon="4.8089">
        <ele>238</ele>
        <time>2017-06-03T09:27:41Z</time>
      </trkpt>
      <trkpt lat="45.98067" lon="4.80877">
        <ele>237</ele>
        <time>2017-06-03T09:27:42Z</time>
      </trkpt>
      <trkpt lat="45.98065" lon="4.80864">
        <ele>237</ele>
        <time>2017-06-03T09:27:43Z</time>
      </trkpt>
      <trkpt lat="45.98062" lon="4.80851">
        <ele>236</ele>
        <time>2017-06-03T09:27:44Z</time>
      </trkpt>
      <trkpt lat="45.98059" lon="4.80838">
        <ele>236</ele>
        <time>2017-06-03T09:27:45Z</time>
      </trkpt>
      <trkpt lat="45.98056" lon="4.80825">
        <ele>234</ele>
        <time>2017-06-03T09:27:46Z</time>
      </trkpt>
      <trkpt lat="45.98052" lon="4.80813">
        <ele>234</ele>
        <time>2017-06-03T09:27:47Z</time>
      </trkpt>
      <trkpt lat="45.98049" lon="4.80801">
        <ele>234</ele>
        <time>2017-06-03T09:27:48Z</time>
      </trkpt>
      <trkpt lat="45.98046" lon="4.80789">
        <ele>233</ele>
        <time>2017-06-03T09:27:49Z</time>
      </trkpt>
      <trkpt lat="45.98044" lon="4.80778">
        <ele>233</ele>
        <time>2017-06-03T09:27:50Z</time>
      </trkpt>
      <trkpt lat="45.98041" lon="4.80768">
        <ele>233</ele>
        <time>2017-06-03T09:27:51Z</time>
      </trkpt>
      <trkpt lat="45.98039" lon="4.80757">
        <ele>233</ele>
        <time>2017-06-03T09:27:52Z</time>
      </trkpt>
      <trkpt lat="45.98036" lon="4.80748">
        <ele>231</ele>
        <time>2017-06-03T09:27:53Z</time>
      </trkpt>
      <trkpt lat="45.98034" lon="4.80739">
        <ele>231</ele>
        <time>2017-06-03T09:27:54Z</time>
      </trkpt>
      <trkpt lat="45.98033" lon="4.80731">
        <ele>231</ele>
        <time>2017-06-03T09:27:55Z</time>
      </trkpt>
      <trkpt lat="45.98031" lon="4.80724">
        <ele>231</ele>
        <time>2017-06-03T09:27:56Z</time>
      </trkpt>
      <trkpt lat="45.98031" lon="4.80717">
        <ele>231</ele>
        <time>2017-06-03T09:27:57Z</time>
      </trkpt>
      <trkpt lat="45.98032" lon="4.80704">
        <ele>231</ele>
        <time>2017-06-03T09:27:59Z</time>
      </trkpt>
      <trkpt lat="45.98035" lon="4.80699">
        <ele>230</ele>
        <time>2017-06-03T09:28:00Z</time>
      </trkpt>
      <trkpt lat="45.98039" lon="4.80697">
        <ele>230</ele>
        <time>2017-06-03T09:28:01Z</time>
      </trkpt>
      <trkpt lat="45.98045" lon="4.80696">
        <ele>230</ele>
        <time>2017-06-03T09:28:02Z</time>
      </trkpt>
      <trkpt lat="45.9805" lon="4.80696">
        <ele>230</ele>
        <time>2017-06-03T09:28:03Z</time>
      </trkpt>
      <trkpt lat="45.98056" lon="4.80695">
        <ele>230</ele>
        <time>2017-06-03T09:28:04Z</time>
      </trkpt>
      <trkpt lat="45.98063" lon="4.80695">
        <ele>230</ele>
        <time>2017-06-03T09:28:05Z</time>
      </trkpt>
      <trkpt lat="45.98069" lon="4.80695">
        <ele>230</ele>
        <time>2017-06-03T09:28:06Z</time>
      </trkpt>
      <trkpt lat="45.98076" lon="4.80694">
        <ele>230</ele>
        <time>2017-06-03T09:28:07Z</time>
      </trkpt>
      <trkpt lat="45.98084" lon="4.80694">
        <ele>228</ele>
        <time>2017-06-03T09:28:08Z</time>
      </trkpt>
      <trkpt lat="45.98091" lon="4.80694">
        <ele>228</ele>
        <time>2017-06-03T09:28:09Z</time>
      </trkpt>
      <trkpt lat="45.98099" lon="4.80694">
        <ele>228</ele>
        <time>2017-06-03T09:28:10Z</time>
      </trkpt>
      <trkpt lat="45.98106" lon="4.80695">
        <ele>228</ele>
        <time>2017-06-03T09:28:11Z</time>
      </trkpt>
      <trkpt lat="45.98114" lon="4.80695">
        <ele>228</ele>
        <time>2017-06-03T09:28:12Z</time>
      </trkpt>
      <trkpt lat="45.98121" lon="4.80695">
        <ele>228</ele>
        <time>2017-06-03T09:28:13Z</time>
      </trkpt>
      <trkpt lat="45.98129" lon="4.80695">
        <ele>228</ele>
        <time>2017-06-03T09:28:14Z</time>
      </trkpt>
      <trkpt lat="45.98136" lon="4.80694">
        <ele>228</ele>
        <time>2017-06-03T09:28:15Z</time>
      </trkpt>
      <trkpt lat="45.98144" lon="4.80694">
        <ele>228</ele>
        <time>2017-06-03T09:28:16Z</time>
      </trkpt>
      <trkpt lat="45.98152" lon="4.80694">
        <ele>228</ele>
        <time>2017-06-03T09:28:17Z</time>
      </trkpt>
      <trkpt lat="45.98159" lon="4.80693">
        <ele>227</ele>
        <time>2017-06-03T09:28:18Z</time>
      </trkpt>
      <trkpt lat="45.98167" lon="4.80692">
        <ele>227</ele>
        <time>2017-06-03T09:28:19Z</time>
      </trkpt>
      <trkpt lat="45.98174" lon="4.80691">
        <ele>225</ele>
        <time>2017-06-03T09:28:20Z</time>
      </trkpt>
      <trkpt lat="45.98182" lon="4.80689">
        <ele>225</ele>
        <time>2017-06-03T09:28:21Z</time>
      </trkpt>
      <trkpt lat="45.98189" lon="4.80687">
        <ele>225</ele>
        <time>2017-06-03T09:28:22Z</time>
      </trkpt>
      <trkpt lat="45.98196" lon="4.80684">
        <ele>225</ele>
        <time>2017-06-03T09:28:23Z</time>
      </trkpt>
      <trkpt lat="45.98204" lon="4.80681">
        <ele>225</ele>
        <time>2017-06-03T09:28:24Z</time>
      </trkpt>
      <trkpt lat="45.9821" lon="4.80677">
        <ele>224</ele>
        <time>2017-06-03T09:28:25Z</time>
      </trkpt>
      <trkpt lat="45.98217" lon="4.80672">
        <ele>224</ele>
        <time>2017-06-03T09:28:26Z</time>
      </trkpt>
      <trkpt lat="45.98223" lon="4.80665">
        <ele>224</ele>
        <time>2017-06-03T09:28:27Z</time>
      </trkpt>
      <trkpt lat="45.98227" lon="4.80655">
        <ele>223</ele>
        <time>2017-06-03T09:28:28Z</time>
      </trkpt>
      <trkpt lat="45.98231" lon="4.80644">
        <ele>223</ele>
        <time>2017-06-03T09:28:29Z</time>
      </trkpt>
      <trkpt lat="45.98234" lon="4.80633">
        <ele>224</ele>
        <time>2017-06-03T09:28:30Z</time>
      </trkpt>
      <trkpt lat="45.98238" lon="4.80622">
        <ele>224</ele>
        <time>2017-06-03T09:28:31Z</time>
      </trkpt>
      <trkpt lat="45.98241" lon="4.80612">
        <ele>224</ele>
        <time>2017-06-03T09:28:32Z</time>
      </trkpt>
      <trkpt lat="45.98244" lon="4.80602">
        <ele>224</ele>
        <time>2017-06-03T09:28:33Z</time>
      </trkpt>
      <trkpt lat="45.98247" lon="4.80592">
        <ele>224</ele>
        <time>2017-06-03T09:28:34Z</time>
      </trkpt>
      <trkpt lat="45.9825" lon="4.80581">
        <ele>224</ele>
        <time>2017-06-03T09:28:35Z</time>
      </trkpt>
      <trkpt lat="45.98253" lon="4.80571">
        <ele>224</ele>
        <time>2017-06-03T09:28:36Z</time>
      </trkpt>
      <trkpt lat="45.98256" lon="4.80561">
        <ele>224</ele>
        <time>2017-06-03T09:28:37Z</time>
      </trkpt>
      <trkpt lat="45.98259" lon="4.80551">
        <ele>224</ele>
        <time>2017-06-03T09:28:38Z</time>
      </trkpt>
      <trkpt lat="45.98262" lon="4.80542">
        <ele>224</ele>
        <time>2017-06-03T09:28:39Z</time>
      </trkpt>
      <trkpt lat="45.98265" lon="4.80533">
        <ele>224</ele>
        <time>2017-06-03T09:28:40Z</time>
      </trkpt>
      <trkpt lat="45.98267" lon="4.80525">
        <ele>224</ele>
        <time>2017-06-03T09:28:41Z</time>
      </trkpt>
      <trkpt lat="45.98269" lon="4.80516">
        <ele>223</ele>
        <time>2017-06-03T09:28:42Z</time>
      </trkpt>
      <trkpt lat="45.98272" lon="4.80508">
        <ele>223</ele>
        <time>2017-06-03T09:28:43Z</time>
      </trkpt>
      <trkpt lat="45.98274" lon="4.805">
        <ele>223</ele>
        <time>2017-06-03T09:28:44Z</time>
      </trkpt>
      <trkpt lat="45.98276" lon="4.80492">
        <ele>223</ele>
        <time>2017-06-03T09:28:45Z</time>
      </trkpt>
      <trkpt lat="45.98278" lon="4.80485">
        <ele>223</ele>
        <time>2017-06-03T09:28:46Z</time>
      </trkpt>
      <trkpt lat="45.98279" lon="4.80478">
        <ele>223</ele>
        <time>2017-06-03T09:28:47Z</time>
      </trkpt>
      <trkpt lat="45.98281" lon="4.80473">
        <ele>223</ele>
        <time>2017-06-03T09:28:48Z</time>
      </trkpt>
      <trkpt lat="45.98283" lon="4.80466">
        <ele>223</ele>
        <time>2017-06-03T09:28:49Z</time>
      </trkpt>
      <trkpt lat="45.98284" lon="4.80459">
        <ele>224</ele>
        <time>2017-06-03T09:28:50Z</time>
      </trkpt>
      <trkpt lat="45.98287" lon="4.80447">
        <ele>224</ele>
        <time>2017-06-03T09:28:52Z</time>
      </trkpt>
      <trkpt lat="45.98288" lon="4.80442">
        <ele>224</ele>
        <time>2017-06-03T09:28:53Z</time>
      </trkpt>
      <trkpt lat="45.9829" lon="4.80435">
        <ele>224</ele>
        <time>2017-06-03T09:28:54Z</time>
      </trkpt>
      <trkpt lat="45.98291" lon="4.80429">
        <ele>224</ele>
        <time>2017-06-03T09:28:55Z</time>
      </trkpt>
      <trkpt lat="45.98292" lon="4.80422">
        <ele>224</ele>
        <time>2017-06-03T09:28:56Z</time>
      </trkpt>
      <trkpt lat="45.98293" lon="4.80416">
        <ele>224</ele>
        <time>2017-06-03T09:28:57Z</time>
      </trkpt>
      <trkpt lat="45.98295" lon="4.80409">
        <ele>224</ele>
        <time>2017-06-03T09:28:58Z</time>
      </trkpt>
      <trkpt lat="45.98296" lon="4.80401">
        <ele>224</ele>
        <time>2017-06-03T09:28:59Z</time>
      </trkpt>
      <trkpt lat="45.98297" lon="4.80394">
        <ele>224</ele>
        <time>2017-06-03T09:29:00Z</time>
      </trkpt>
      <trkpt lat="45.98298" lon="4.80387">
        <ele>225</ele>
        <time>2017-06-03T09:29:01Z</time>
      </trkpt>
      <trkpt lat="45.98299" lon="4.80381">
        <ele>225</ele>
        <time>2017-06-03T09:29:02Z</time>
      </trkpt>
      <trkpt lat="45.983" lon="4.80374">
        <ele>225</ele>
        <time>2017-06-03T09:29:03Z</time>
      </trkpt>
      <trkpt lat="45.98303" lon="4.80362">
        <ele>225</ele>
        <time>2017-06-03T09:29:05Z</time>
      </trkpt>
      <trkpt lat="45.98304" lon="4.80356">
        <ele>225</ele>
        <time>2017-06-03T09:29:06Z</time>
      </trkpt>
      <trkpt lat="45.98305" lon="4.8035">
        <ele>225</ele>
        <time>2017-06-03T09:29:07Z</time>
      </trkpt>
      <trkpt lat="45.98306" lon="4.80343">
        <ele>226</ele>
        <time>2017-06-03T09:29:08Z</time>
      </trkpt>
      <trkpt lat="45.98307" lon="4.80336">
        <ele>226</ele>
        <time>2017-06-03T09:29:09Z</time>
      </trkpt>
      <trkpt lat="45.98309" lon="4.80329">
        <ele>226</ele>
        <time>2017-06-03T09:29:10Z</time>
      </trkpt>
      <trkpt lat="45.9831" lon="4.80323">
        <ele>226</ele>
        <time>2017-06-03T09:29:11Z</time>
      </trkpt>
      <trkpt lat="45.98311" lon="4.80317">
        <ele>226</ele>
        <time>2017-06-03T09:29:12Z</time>
      </trkpt>
      <trkpt lat="45.98313" lon="4.80305">
        <ele>226</ele>
        <time>2017-06-03T09:29:14Z</time>
      </trkpt>
      <trkpt lat="45.98315" lon="4.80299">
        <ele>226</ele>
        <time>2017-06-03T09:29:15Z</time>
      </trkpt>
      <trkpt lat="45.98317" lon="4.80289">
        <ele>226</ele>
        <time>2017-06-03T09:29:17Z</time>
      </trkpt>
      <trkpt lat="45.98319" lon="4.80283">
        <ele>227</ele>
        <time>2017-06-03T09:29:18Z</time>
      </trkpt>
      <trkpt lat="45.98321" lon="4.80271">
        <ele>227</ele>
        <time>2017-06-03T09:29:20Z</time>
      </trkpt>
      <trkpt lat="45.98322" lon="4.80266">
        <ele>227</ele>
        <time>2017-06-03T09:29:21Z</time>
      </trkpt>
      <trkpt lat="45.98323" lon="4.80255">
        <ele>228</ele>
        <time>2017-06-03T09:29:23Z</time>
      </trkpt>
      <trkpt lat="45.98324" lon="4.80249">
        <ele>229</ele>
        <time>2017-06-03T09:29:24Z</time>
      </trkpt>
      <trkpt lat="45.98325" lon="4.80239">
        <ele>228</ele>
        <time>2017-06-03T09:29:26Z</time>
      </trkpt>
      <trkpt lat="45.98326" lon="4.80235">
        <ele>228</ele>
        <time>2017-06-03T09:29:27Z</time>
      </trkpt>
      <trkpt lat="45.98327" lon="4.80226">
        <ele>227</ele>
        <time>2017-06-03T09:29:29Z</time>
      </trkpt>
      <trkpt lat="45.98326" lon="4.8022">
        <ele>227</ele>
        <time>2017-06-03T09:29:30Z</time>
      </trkpt>
      <trkpt lat="45.98324" lon="4.80213">
        <ele>227</ele>
        <time>2017-06-03T09:29:31Z</time>
      </trkpt>
      <trkpt lat="45.98322" lon="4.80207">
        <ele>227</ele>
        <time>2017-06-03T09:29:32Z</time>
      </trkpt>
      <trkpt lat="45.98319" lon="4.80197">
        <ele>227</ele>
        <time>2017-06-03T09:29:34Z</time>
      </trkpt>
      <trkpt lat="45.98317" lon="4.80193">
        <ele>227</ele>
        <time>2017-06-03T09:29:35Z</time>
      </trkpt>
      <trkpt lat="45.98315" lon="4.80182">
        <ele>227</ele>
        <time>2017-06-03T09:29:37Z</time>
      </trkpt>
      <trkpt lat="45.98313" lon="4.80176">
        <ele>227</ele>
        <time>2017-06-03T09:29:38Z</time>
      </trkpt>
      <trkpt lat="45.98311" lon="4.8017">
        <ele>227</ele>
        <time>2017-06-03T09:29:39Z</time>
      </trkpt>
      <trkpt lat="45.9831" lon="4.80164">
        <ele>228</ele>
        <time>2017-06-03T09:29:40Z</time>
      </trkpt>
      <trkpt lat="45.98308" lon="4.80157">
        <ele>228</ele>
        <time>2017-06-03T09:29:41Z</time>
      </trkpt>
      <trkpt lat="45.98305" lon="4.80151">
        <ele>228</ele>
        <time>2017-06-03T09:29:42Z</time>
      </trkpt>
      <trkpt lat="45.98303" lon="4.80145">
        <ele>228</ele>
        <time>2017-06-03T09:29:43Z</time>
      </trkpt>
      <trkpt lat="45.98301" lon="4.80138">
        <ele>228</ele>
        <time>2017-06-03T09:29:44Z</time>
      </trkpt>
      <trkpt lat="45.98299" lon="4.80132">
        <ele>228</ele>
        <time>2017-06-03T09:29:45Z</time>
      </trkpt>
      <trkpt lat="45.98296" lon="4.80125">
        <ele>228</ele>
        <time>2017-06-03T09:29:46Z</time>
      </trkpt>
      <trkpt lat="45.98295" lon="4.80119">
        <ele>228</ele>
        <time>2017-06-03T09:29:47Z</time>
      </trkpt>
      <trkpt lat="45.98293" lon="4.80112">
        <ele>228</ele>
        <time>2017-06-03T09:29:48Z</time>
      </trkpt>
      <trkpt lat="45.98291" lon="4.80105">
        <ele>228</ele>
        <time>2017-06-03T09:29:49Z</time>
      </trkpt>
      <trkpt lat="45.98288" lon="4.80099">
        <ele>228</ele>
        <time>2017-06-03T09:29:50Z</time>
      </trkpt>
      <trkpt lat="45.98286" lon="4.80093">
        <ele>228</ele>
        <time>2017-06-03T09:29:51Z</time>
      </trkpt>
      <trkpt lat="45.98284" lon="4.80087">
        <ele>228</ele>
        <time>2017-06-03T09:29:52Z</time>
      </trkpt>
      <trkpt lat="45.98281" lon="4.80081">
        <ele>229</ele>
        <time>2017-06-03T09:29:53Z</time>
      </trkpt>
      <trkpt lat="45.98279" lon="4.80075">
        <ele>229</ele>
        <time>2017-06-03T09:29:54Z</time>
      </trkpt>
      <trkpt lat="45.98277" lon="4.80069">
        <ele>229</ele>
        <time>2017-06-03T09:29:55Z</time>
      </trkpt>
      <trkpt lat="45.98275" lon="4.80063">
        <ele>229</ele>
        <time>2017-06-03T09:29:56Z</time>
      </trkpt>
      <trkpt lat="45.98272" lon="4.80056">
        <ele>229</ele>
        <time>2017-06-03T09:29:57Z</time>
      </trkpt>
      <trkpt lat="45.9827" lon="4.80049">
        <ele>229</ele>
        <time>2017-06-03T09:29:58Z</time>
      </trkpt>
      <trkpt lat="45.98268" lon="4.80042">
        <ele>229</ele>
        <time>2017-06-03T09:29:59Z</time>
      </trkpt>
      <trkpt lat="45.98265" lon="4.80035">
        <ele>228</ele>
        <time>2017-06-03T09:30:00Z</time>
      </trkpt>
      <trkpt lat="45.98262" lon="4.80027">
        <ele>228</ele>
        <time>2017-06-03T09:30:01Z</time>
      </trkpt>
      <trkpt lat="45.98259" lon="4.80019">
        <ele>228</ele>
        <time>2017-06-03T09:30:02Z</time>
      </trkpt>
      <trkpt lat="45.98257" lon="4.80011">
        <ele>227</ele>
        <time>2017-06-03T09:30:03Z</time>
      </trkpt>
      <trkpt lat="45.98254" lon="4.80004">
        <ele>227</ele>
        <time>2017-06-03T09:30:04Z</time>
      </trkpt>
      <trkpt lat="45.98252" lon="4.79997">
        <ele>227</ele>
        <time>2017-06-03T09:30:05Z</time>
      </trkpt>
      <trkpt lat="45.9825" lon="4.7999">
        <ele>226</ele>
        <time>2017-06-03T09:30:06Z</time>
      </trkpt>
      <trkpt lat="45.98248" lon="4.79983">
        <ele>225</ele>
        <time>2017-06-03T09:30:07Z</time>
      </trkpt>
      <trkpt lat="45.98246" lon="4.79976">
        <ele>225</ele>
        <time>2017-06-03T09:30:08Z</time>
      </trkpt>
      <trkpt lat="45.98244" lon="4.7997">
        <ele>225</ele>
        <time>2017-06-03T09:30:09Z</time>
      </trkpt>
      <trkpt lat="45.98242" lon="4.79964">
        <ele>225</ele>
        <time>2017-06-03T09:30:10Z</time>
      </trkpt>
      <trkpt lat="45.9824" lon="4.79958">
        <ele>225</ele>
        <time>2017-06-03T09:30:11Z</time>
      </trkpt>
      <trkpt lat="45.98238" lon="4.79952">
        <ele>225</ele>
        <time>2017-06-03T09:30:12Z</time>
      </trkpt>
      <trkpt lat="45.98237" lon="4.79946">
        <ele>225</ele>
        <time>2017-06-03T09:30:13Z</time>
      </trkpt>
      <trkpt lat="45.98234" lon="4.7994">
        <ele>225</ele>
        <time>2017-06-03T09:30:14Z</time>
      </trkpt>
      <trkpt lat="45.98232" lon="4.79933">
        <ele>225</ele>
        <time>2017-06-03T09:30:15Z</time>
      </trkpt>
      <trkpt lat="45.9823" lon="4.79926">
        <ele>225</ele>
        <time>2017-06-03T09:30:16Z</time>
      </trkpt>
      <trkpt lat="45.98228" lon="4.79919">
        <ele>225</ele>
        <time>2017-06-03T09:30:17Z</time>
      </trkpt>
      <trkpt lat="45.98226" lon="4.79912">
        <ele>225</ele>
        <time>2017-06-03T09:30:18Z</time>
      </trkpt>
      <trkpt lat="45.98224" lon="4.79905">
        <ele>225</ele>
        <time>2017-06-03T09:30:19Z</time>
      </trkpt>
      <trkpt lat="45.98221" lon="4.79898">
        <ele>225</ele>
        <time>2017-06-03T09:30:20Z</time>
      </trkpt>
      <trkpt lat="45.9822" lon="4.79892">
        <ele>225</ele>
        <time>2017-06-03T09:30:21Z</time>
      </trkpt>
      <trkpt lat="45.98218" lon="4.79886">
        <ele>225</ele>
        <time>2017-06-03T09:30:22Z</time>
      </trkpt>
      <trkpt lat="45.98215" lon="4.79876">
        <ele>225</ele>
        <time>2017-06-03T09:30:24Z</time>
      </trkpt>
      <trkpt lat="45.98214" lon="4.79871">
        <ele>225</ele>
        <time>2017-06-03T09:30:25Z</time>
      </trkpt>
      <trkpt lat="45.98212" lon="4.79865">
        <ele>225</ele>
        <time>2017-06-03T09:30:26Z</time>
      </trkpt>
      <trkpt lat="45.98209" lon="4.7986">
        <ele>225</ele>
        <time>2017-06-03T09:30:27Z</time>
      </trkpt>
      <trkpt lat="45.98206" lon="4.79854">
        <ele>225</ele>
        <time>2017-06-03T09:30:28Z</time>
      </trkpt>
      <trkpt lat="45.98204" lon="4.79847">
        <ele>225</ele>
        <time>2017-06-03T09:30:29Z</time>
      </trkpt>
      <trkpt lat="45.98201" lon="4.79841">
        <ele>225</ele>
        <time>2017-06-03T09:30:30Z</time>
      </trkpt>
      <trkpt lat="45.98199" lon="4.79834">
        <ele>225</ele>
        <time>2017-06-03T09:30:31Z</time>
      </trkpt>
      <trkpt lat="45.98196" lon="4.79827">
        <ele>225</ele>
        <time>2017-06-03T09:30:32Z</time>
      </trkpt>
      <trkpt lat="45.98194" lon="4.79821">
        <ele>225</ele>
        <time>2017-06-03T09:30:33Z</time>
      </trkpt>
      <trkpt lat="45.98191" lon="4.79814">
        <ele>225</ele>
        <time>2017-06-03T09:30:34Z</time>
      </trkpt>
      <trkpt lat="45.98189" lon="4.79807">
        <ele>226</ele>
        <time>2017-06-03T09:30:35Z</time>
      </trkpt>
      <trkpt lat="45.98186" lon="4.79795">
        <ele>226</ele>
        <time>2017-06-03T09:30:37Z</time>
      </trkpt>
      <trkpt lat="45.98185" lon="4.79789">
        <ele>226</ele>
        <time>2017-06-03T09:30:38Z</time>
      </trkpt>
      <trkpt lat="45.98185" lon="4.7978">
        <ele>226</ele>
        <time>2017-06-03T09:30:40Z</time>
      </trkpt>
      <trkpt lat="45.98185" lon="4.79776">
        <ele>226</ele>
        <time>2017-06-03T09:30:41Z</time>
      </trkpt>
      <trkpt lat="45.98186" lon="4.79766">
        <ele>226</ele>
        <time>2017-06-03T09:30:43Z</time>
      </trkpt>
      <trkpt lat="45.98187" lon="4.79761">
        <ele>226</ele>
        <time>2017-06-03T09:30:44Z</time>
      </trkpt>
      <trkpt lat="45.98186" lon="4.7975">
        <ele>227</ele>
        <time>2017-06-03T09:30:46Z</time>
      </trkpt>
      <trkpt lat="45.98184" lon="4.79745">
        <ele>227</ele>
        <time>2017-06-03T09:30:47Z</time>
      </trkpt>
      <trkpt lat="45.98177" lon="4.79738">
        <ele>227</ele>
        <time>2017-06-03T09:30:49Z</time>
      </trkpt>
      <trkpt lat="45.98172" lon="4.79739">
        <ele>227</ele>
        <time>2017-06-03T09:30:50Z</time>
      </trkpt>
      <trkpt lat="45.98167" lon="4.79741">
        <ele>227</ele>
        <time>2017-06-03T09:30:51Z</time>
      </trkpt>
      <trkpt lat="45.98162" lon="4.79745">
        <ele>226</ele>
        <time>2017-06-03T09:30:52Z</time>
      </trkpt>
      <trkpt lat="45.98157" lon="4.79748">
        <ele>226</ele>
        <time>2017-06-03T09:30:53Z</time>
      </trkpt>
      <trkpt lat="45.98151" lon="4.79752">
        <ele>225</ele>
        <time>2017-06-03T09:30:54Z</time>
      </trkpt>
      <trkpt lat="45.98146" lon="4.79754">
        <ele>225</ele>
        <time>2017-06-03T09:30:55Z</time>
      </trkpt>
      <trkpt lat="45.9814" lon="4.79757">
        <ele>224</ele>
        <time>2017-06-03T09:30:56Z</time>
      </trkpt>
      <trkpt lat="45.98133" lon="4.79759">
        <ele>224</ele>
        <time>2017-06-03T09:30:57Z</time>
      </trkpt>
      <trkpt lat="45.98127" lon="4.7976">
        <ele>224</ele>
        <time>2017-06-03T09:30:58Z</time>
      </trkpt>
      <trkpt lat="45.9812" lon="4.7976">
        <ele>224</ele>
        <time>2017-06-03T09:30:59Z</time>
      </trkpt>
      <trkpt lat="45.98113" lon="4.79761">
        <ele>224</ele>
        <time>2017-06-03T09:31:00Z</time>
      </trkpt>
      <trkpt lat="45.98106" lon="4.79762">
        <ele>224</ele>
        <time>2017-06-03T09:31:01Z</time>
      </trkpt>
      <trkpt lat="45.98099" lon="4.79762">
        <ele>223</ele>
        <time>2017-06-03T09:31:02Z</time>
      </trkpt>
      <trkpt lat="45.98092" lon="4.79763">
        <ele>223</ele>
        <time>2017-06-03T09:31:03Z</time>
      </trkpt>
      <trkpt lat="45.98085" lon="4.79765">
        <ele>223</ele>
        <time>2017-06-03T09:31:04Z</time>
      </trkpt>
      <trkpt lat="45.98078" lon="4.79766">
        <ele>223</ele>
        <time>2017-06-03T09:31:05Z</time>
      </trkpt>
      <trkpt lat="45.98071" lon="4.79767">
        <ele>223</ele>
        <time>2017-06-03T09:31:06Z</time>
      </trkpt>
      <trkpt lat="45.98064" lon="4.79768">
        <ele>223</ele>
        <time>2017-06-03T09:31:07Z</time>
      </trkpt>
      <trkpt lat="45.98057" lon="4.79769">
        <ele>223</ele>
        <time>2017-06-03T09:31:08Z</time>
      </trkpt>
      <trkpt lat="45.98051" lon="4.7977">
        <ele>223</ele>
        <time>2017-06-03T09:31:09Z</time>
      </trkpt>
      <trkpt lat="45.98044" lon="4.79771">
        <ele>223</ele>
        <time>2017-06-03T09:31:10Z</time>
      </trkpt>
      <trkpt lat="45.98037" lon="4.79772">
        <ele>223</ele>
        <time>2017-06-03T09:31:11Z</time>
      </trkpt>
      <trkpt lat="45.98031" lon="4.79772">
        <ele>223</ele>
        <time>2017-06-03T09:31:12Z</time>
      </trkpt>
      <trkpt lat="45.98024" lon="4.79773">
        <ele>223</ele>
        <time>2017-06-03T09:31:13Z</time>
      </trkpt>
      <trkpt lat="45.98018" lon="4.79773">
        <ele>223</ele>
        <time>2017-06-03T09:31:14Z</time>
      </trkpt>
      <trkpt lat="45.98012" lon="4.79774">
        <ele>223</ele>
        <time>2017-06-03T09:31:15Z</time>
      </trkpt>
      <trkpt lat="45.98005" lon="4.79775">
        <ele>223</ele>
        <time>2017-06-03T09:31:16Z</time>
      </trkpt>
      <trkpt lat="45.97999" lon="4.79776">
        <ele>224</ele>
        <time>2017-06-03T09:31:17Z</time>
      </trkpt>
      <trkpt lat="45.97993" lon="4.79777">
        <ele>224</ele>
        <time>2017-06-03T09:31:18Z</time>
      </trkpt>
      <trkpt lat="45.97987" lon="4.79778">
        <ele>224</ele>
        <time>2017-06-03T09:31:19Z</time>
      </trkpt>
      <trkpt lat="45.97981" lon="4.79778">
        <ele>224</ele>
        <time>2017-06-03T09:31:20Z</time>
      </trkpt>
      <trkpt lat="45.97975" lon="4.79779">
        <ele>224</ele>
        <time>2017-06-03T09:31:21Z</time>
      </trkpt>
      <trkpt lat="45.97969" lon="4.7978">
        <ele>224</ele>
        <time>2017-06-03T09:31:22Z</time>
      </trkpt>
      <trkpt lat="45.97962" lon="4.79781">
        <ele>224</ele>
        <time>2017-06-03T09:31:23Z</time>
      </trkpt>
      <trkpt lat="45.97956" lon="4.79782">
        <ele>224</ele>
        <time>2017-06-03T09:31:24Z</time>
      </trkpt>
      <trkpt lat="45.9795" lon="4.79783">
        <ele>224</ele>
        <time>2017-06-03T09:31:25Z</time>
      </trkpt>
      <trkpt lat="45.97944" lon="4.79784">
        <ele>224</ele>
        <time>2017-06-03T09:31:26Z</time>
      </trkpt>
      <trkpt lat="45.97938" lon="4.79785">
        <ele>224</ele>
        <time>2017-06-03T09:31:27Z</time>
      </trkpt>
      <trkpt lat="45.97932" lon="4.79786">
        <ele>224</ele>
        <time>2017-06-03T09:31:28Z</time>
      </trkpt>
      <trkpt lat="45.97926" lon="4.79786">
        <ele>225</ele>
        <time>2017-06-03T09:31:29Z</time>
      </trkpt>
      <trkpt lat="45.97921" lon="4.79787">
        <ele>225</ele>
        <time>2017-06-03T09:31:30Z</time>
      </trkpt>
      <trkpt lat="45.97916" lon="4.79788">
        <ele>225</ele>
        <time>2017-06-03T09:31:31Z</time>
      </trkpt>
      <trkpt lat="45.9791" lon="4.7979">
        <ele>225</ele>
        <time>2017-06-03T09:31:32Z</time>
      </trkpt>
      <trkpt lat="45.97905" lon="4.79791">
        <ele>225</ele>
        <time>2017-06-03T09:31:33Z</time>
      </trkpt>
      <trkpt lat="45.97899" lon="4.79792">
        <ele>224</ele>
        <time>2017-06-03T09:31:34Z</time>
      </trkpt>
      <trkpt lat="45.97893" lon="4.79792">
        <ele>224</ele>
        <time>2017-06-03T09:31:35Z</time>
      </trkpt>
      <trkpt lat="45.97886" lon="4.79794">
        <ele>224</ele>
        <time>2017-06-03T09:31:36Z</time>
      </trkpt>
      <trkpt lat="45.9788" lon="4.79795">
        <ele>224</ele>
        <time>2017-06-03T09:31:37Z</time>
      </trkpt>
      <trkpt lat="45.97873" lon="4.79796">
        <ele>224</ele>
        <time>2017-06-03T09:31:38Z</time>
      </trkpt>
      <trkpt lat="45.97867" lon="4.79797">
        <ele>224</ele>
        <time>2017-06-03T09:31:39Z</time>
      </trkpt>
      <trkpt lat="45.97862" lon="4.79798">
        <ele>224</ele>
        <time>2017-06-03T09:31:40Z</time>
      </trkpt>
      <trkpt lat="45.97855" lon="4.79799">
        <ele>224</ele>
        <time>2017-06-03T09:31:41Z</time>
      </trkpt>
      <trkpt lat="45.97849" lon="4.798">
        <ele>224</ele>
        <time>2017-06-03T09:31:42Z</time>
      </trkpt>
      <trkpt lat="45.97843" lon="4.79801">
        <ele>224</ele>
        <time>2017-06-03T09:31:43Z</time>
      </trkpt>
      <trkpt lat="45.97837" lon="4.79801">
        <ele>224</ele>
        <time>2017-06-03T09:31:44Z</time>
      </trkpt>
      <trkpt lat="45.97832" lon="4.79803">
        <ele>223</ele>
        <time>2017-06-03T09:31:45Z</time>
      </trkpt>
      <trkpt lat="45.97826" lon="4.79804">
        <ele>223</ele>
        <time>2017-06-03T09:31:46Z</time>
      </trkpt>
      <trkpt lat="45.9782" lon="4.79805">
        <ele>223</ele>
        <time>2017-06-03T09:31:47Z</time>
      </trkpt>
      <trkpt lat="45.97814" lon="4.79805">
        <ele>223</ele>
        <time>2017-06-03T09:31:48Z</time>
      </trkpt>
      <trkpt lat="45.97808" lon="4.79806">
        <ele>223</ele>
        <time>2017-06-03T09:31:49Z</time>
      </trkpt>
      <trkpt lat="45.97802" lon="4.79808">
        <ele>223</ele>
        <time>2017-06-03T09:31:50Z</time>
      </trkpt>
      <trkpt lat="45.97796" lon="4.79809">
        <ele>223</ele>
        <time>2017-06-03T09:31:51Z</time>
      </trkpt>
      <trkpt lat="45.97789" lon="4.7981">
        <ele>223</ele>
        <time>2017-06-03T09:31:52Z</time>
      </trkpt>
      <trkpt lat="45.97783" lon="4.79811">
        <ele>223</ele>
        <time>2017-06-03T09:31:53Z</time>
      </trkpt>
      <trkpt lat="45.97776" lon="4.79813">
        <ele>223</ele>
        <time>2017-06-03T09:31:54Z</time>
      </trkpt>
      <trkpt lat="45.9777" lon="4.79814">
        <ele>223</ele>
        <time>2017-06-03T09:31:55Z</time>
      </trkpt>
      <trkpt lat="45.97764" lon="4.79815">
        <ele>223</ele>
        <time>2017-06-03T09:31:56Z</time>
      </trkpt>
      <trkpt lat="45.97758" lon="4.79816">
        <ele>223</ele>
        <time>2017-06-03T09:31:57Z</time>
      </trkpt>
      <trkpt lat="45.97752" lon="4.79817">
        <ele>223</ele>
        <time>2017-06-03T09:31:58Z</time>
      </trkpt>
      <trkpt lat="45.97746" lon="4.79818">
        <ele>223</ele>
        <time>2017-06-03T09:31:59Z</time>
      </trkpt>
      <trkpt lat="45.97741" lon="4.79819">
        <ele>223</ele>
        <time>2017-06-03T09:32:00Z</time>
      </trkpt>
      <trkpt lat="45.97735" lon="4.7982">
        <ele>223</ele>
        <time>2017-06-03T09:32:01Z</time>
      </trkpt>
      <trkpt lat="45.97729" lon="4.79821">
        <ele>223</ele>
        <time>2017-06-03T09:32:02Z</time>
      </trkpt>
      <trkpt lat="45.97723" lon="4.79823">
        <ele>223</ele>
        <time>2017-06-03T09:32:03Z</time>
      </trkpt>
      <trkpt lat="45.97717" lon="4.79824">
        <ele>223</ele>
        <time>2017-06-03T09:32:04Z</time>
      </trkpt>
      <trkpt lat="45.97711" lon="4.79825">
        <ele>223</ele>
        <time>2017-06-03T09:32:05Z</time>
      </trkpt>
      <trkpt lat="45.97705" lon="4.79826">
        <ele>223</ele>
        <time>2017-06-03T09:32:06Z</time>
      </trkpt>
      <trkpt lat="45.97698" lon="4.79827">
        <ele>223</ele>
        <time>2017-06-03T09:32:07Z</time>
      </trkpt>
      <trkpt lat="45.97692" lon="4.79829">
        <ele>223</ele>
        <time>2017-06-03T09:32:08Z</time>
      </trkpt>
      <trkpt lat="45.97686" lon="4.7983">
        <ele>223</ele>
        <time>2017-06-03T09:32:09Z</time>
      </trkpt>
      <trkpt lat="45.9768" lon="4.79831">
        <ele>223</ele>
        <time>2017-06-03T09:32:10Z</time>
      </trkpt>
      <trkpt lat="45.97674" lon="4.79833">
        <ele>222</ele>
        <time>2017-06-03T09:32:11Z</time>
      </trkpt>
      <trkpt lat="45.97668" lon="4.79834">
        <ele>222</ele>
        <time>2017-06-03T09:32:12Z</time>
      </trkpt>
      <trkpt lat="45.97663" lon="4.79836">
        <ele>222</ele>
        <time>2017-06-03T09:32:13Z</time>
      </trkpt>
      <trkpt lat="45.97658" lon="4.79838">
        <ele>221</ele>
        <time>2017-06-03T09:32:14Z</time>
      </trkpt>
      <trkpt lat="45.97653" lon="4.7984">
        <ele>221</ele>
        <time>2017-06-03T09:32:15Z</time>
      </trkpt>
      <trkpt lat="45.97648" lon="4.79841">
        <ele>221</ele>
        <time>2017-06-03T09:32:16Z</time>
      </trkpt>
      <trkpt lat="45.97643" lon="4.79843">
        <ele>221</ele>
        <time>2017-06-03T09:32:17Z</time>
      </trkpt>
      <trkpt lat="45.97638" lon="4.79845">
        <ele>221</ele>
        <time>2017-06-03T09:32:18Z</time>
      </trkpt>
      <trkpt lat="45.97633" lon="4.79846">
        <ele>221</ele>
        <time>2017-06-03T09:32:19Z</time>
      </trkpt>
      <trkpt lat="45.97629" lon="4.79849">
        <ele>221</ele>
        <time>2017-06-03T09:32:20Z</time>
      </trkpt>
      <trkpt lat="45.97624" lon="4.79851">
        <ele>221</ele>
        <time>2017-06-03T09:32:21Z</time>
      </trkpt>
      <trkpt lat="45.9762" lon="4.79852">
        <ele>221</ele>
        <time>2017-06-03T09:32:22Z</time>
      </trkpt>
      <trkpt lat="45.97615" lon="4.79854">
        <ele>221</ele>
        <time>2017-06-03T09:32:23Z</time>
      </trkpt>
      <trkpt lat="45.9761" lon="4.79856">
        <ele>221</ele>
        <time>2017-06-03T09:32:24Z</time>
      </trkpt>
      <trkpt lat="45.97606" lon="4.79858">
        <ele>221</ele>
        <time>2017-06-03T09:32:25Z</time>
      </trkpt>
      <trkpt lat="45.976" lon="4.7986">
        <ele>221</ele>
        <time>2017-06-03T09:32:26Z</time>
      </trkpt>
      <trkpt lat="45.97595" lon="4.79862">
        <ele>221</ele>
        <time>2017-06-03T09:32:27Z</time>
      </trkpt>
      <trkpt lat="45.9759" lon="4.79863">
        <ele>221</ele>
        <time>2017-06-03T09:32:28Z</time>
      </trkpt>
      <trkpt lat="45.97585" lon="4.79865">
        <ele>221</ele>
        <time>2017-06-03T09:32:29Z</time>
      </trkpt>
      <trkpt lat="45.97579" lon="4.79867">
        <ele>222</ele>
        <time>2017-06-03T09:32:30Z</time>
      </trkpt>
      <trkpt lat="45.97574" lon="4.79869">
        <ele>222</ele>
        <time>2017-06-03T09:32:31Z</time>
      </trkpt>
      <trkpt lat="45.97568" lon="4.79871">
        <ele>222</ele>
        <time>2017-06-03T09:32:32Z</time>
      </trkpt>
      <trkpt lat="45.97562" lon="4.79872">
        <ele>222</ele>
        <time>2017-06-03T09:32:33Z</time>
      </trkpt>
      <trkpt lat="45.97556" lon="4.79874">
        <ele>222</ele>
        <time>2017-06-03T09:32:34Z</time>
      </trkpt>
      <trkpt lat="45.97551" lon="4.79875">
        <ele>222</ele>
        <time>2017-06-03T09:32:35Z</time>
      </trkpt>
      <trkpt lat="45.97545" lon="4.79877">
        <ele>222</ele>
        <time>2017-06-03T09:32:36Z</time>
      </trkpt>
      <trkpt lat="45.97539" lon="4.79878">
        <ele>222</ele>
        <time>2017-06-03T09:32:37Z</time>
      </trkpt>
      <trkpt lat="45.97532" lon="4.7988">
        <ele>222</ele>
        <time>2017-06-03T09:32:38Z</time>
      </trkpt>
      <trkpt lat="45.97525" lon="4.79881">
        <ele>222</ele>
        <time>2017-06-03T09:32:39Z</time>
      </trkpt>
      <trkpt lat="45.97517" lon="4.79882">
        <ele>222</ele>
        <time>2017-06-03T09:32:40Z</time>
      </trkpt>
      <trkpt lat="45.97509" lon="4.79883">
        <ele>222</ele>
        <time>2017-06-03T09:32:41Z</time>
      </trkpt>
      <trkpt lat="45.97501" lon="4.79884">
        <ele>221</ele>
        <time>2017-06-03T09:32:42Z</time>
      </trkpt>
      <trkpt lat="45.97493" lon="4.79885">
        <ele>221</ele>
        <time>2017-06-03T09:32:43Z</time>
      </trkpt>
      <trkpt lat="45.97484" lon="4.79886">
        <ele>221</ele>
        <time>2017-06-03T09:32:44Z</time>
      </trkpt>
      <trkpt lat="45.97475" lon="4.79886">
        <ele>221</ele>
        <time>2017-06-03T09:32:45Z</time>
      </trkpt>
      <trkpt lat="45.97467" lon="4.79886">
        <ele>221</ele>
        <time>2017-06-03T09:32:46Z</time>
      </trkpt>
      <trkpt lat="45.97458" lon="4.79885">
        <ele>221</ele>
        <time>2017-06-03T09:32:47Z</time>
      </trkpt>
      <trkpt lat="45.97449" lon="4.79885">
        <ele>221</ele>
        <time>2017-06-03T09:32:48Z</time>
      </trkpt>
      <trkpt lat="45.97441" lon="4.79885">
        <ele>220</ele>
        <time>2017-06-03T09:32:49Z</time>
      </trkpt>
      <trkpt lat="45.97432" lon="4.79886">
        <ele>220</ele>
        <time>2017-06-03T09:32:50Z</time>
      </trkpt>
      <trkpt lat="45.97424" lon="4.79887">
        <ele>220</ele>
        <time>2017-06-03T09:32:51Z</time>
      </trkpt>
      <trkpt lat="45.97415" lon="4.79888">
        <ele>218</ele>
        <time>2017-06-03T09:32:52Z</time>
      </trkpt>
      <trkpt lat="45.97407" lon="4.7989">
        <ele>218</ele>
        <time>2017-06-03T09:32:53Z</time>
      </trkpt>
      <trkpt lat="45.97398" lon="4.79891">
        <ele>218</ele>
        <time>2017-06-03T09:32:54Z</time>
      </trkpt>
      <trkpt lat="45.9739" lon="4.79893">
        <ele>217</ele>
        <time>2017-06-03T09:32:55Z</time>
      </trkpt>
      <trkpt lat="45.97381" lon="4.79895">
        <ele>217</ele>
        <time>2017-06-03T09:32:56Z</time>
      </trkpt>
      <trkpt lat="45.97373" lon="4.79897">
        <ele>217</ele>
        <time>2017-06-03T09:32:57Z</time>
      </trkpt>
      <trkpt lat="45.97364" lon="4.79898">
        <ele>217</ele>
        <time>2017-06-03T09:32:58Z</time>
      </trkpt>
      <trkpt lat="45.97355" lon="4.799">
        <ele>216</ele>
        <time>2017-06-03T09:32:59Z</time>
      </trkpt>
      <trkpt lat="45.97346" lon="4.79901">
        <ele>216</ele>
        <time>2017-06-03T09:33:00Z</time>
      </trkpt>
      <trkpt lat="45.97338" lon="4.79902">
        <ele>215</ele>
        <time>2017-06-03T09:33:01Z</time>
      </trkpt>
      <trkpt lat="45.97329" lon="4.79902">
        <ele>213</ele>
        <time>2017-06-03T09:33:02Z</time>
      </trkpt>
      <trkpt lat="45.9732" lon="4.79904">
        <ele>213</ele>
        <time>2017-06-03T09:33:03Z</time>
      </trkpt>
      <trkpt lat="45.97312" lon="4.79905">
        <ele>214</ele>
        <time>2017-06-03T09:33:04Z</time>
      </trkpt>
      <trkpt lat="45.97304" lon="4.79906">
        <ele>213</ele>
        <time>2017-06-03T09:33:05Z</time>
      </trkpt>
      <trkpt lat="45.97296" lon="4.79907">
        <ele>213</ele>
        <time>2017-06-03T09:33:06Z</time>
      </trkpt>
      <trkpt lat="45.97287" lon="4.7991">
        <ele>213</ele>
        <time>2017-06-03T09:33:07Z</time>
      </trkpt>
      <trkpt lat="45.97279" lon="4.79911">
        <ele>213</ele>
        <time>2017-06-03T09:33:08Z</time>
      </trkpt>
      <trkpt lat="45.97272" lon="4.79913">
        <ele>213</ele>
        <time>2017-06-03T09:33:09Z</time>
      </trkpt>
      <trkpt lat="45.97266" lon="4.79914">
        <ele>213</ele>
        <time>2017-06-03T09:33:10Z</time>
      </trkpt>
      <trkpt lat="45.97261" lon="4.79913">
        <ele>213</ele>
        <time>2017-06-03T09:33:11Z</time>
      </trkpt>
      <trkpt lat="45.97257" lon="4.79909">
        <ele>213</ele>
        <time>2017-06-03T09:33:12Z</time>
      </trkpt>
      <trkpt lat="45.97253" lon="4.79904">
        <ele>213</ele>
        <time>2017-06-03T09:33:13Z</time>
      </trkpt>
      <trkpt lat="45.97251" lon="4.79897">
        <ele>213</ele>
        <time>2017-06-03T09:33:14Z</time>
      </trkpt>
      <trkpt lat="45.97249" lon="4.79889">
        <ele>211</ele>
        <time>2017-06-03T09:33:15Z</time>
      </trkpt>
      <trkpt lat="45.97247" lon="4.79881">
        <ele>211</ele>
        <time>2017-06-03T09:33:16Z</time>
      </trkpt>
      <trkpt lat="45.97244" lon="4.79872">
        <ele>211</ele>
        <time>2017-06-03T09:33:17Z</time>
      </trkpt>
      <trkpt lat="45.97241" lon="4.79864">
        <ele>211</ele>
        <time>2017-06-03T09:33:18Z</time>
      </trkpt>
      <trkpt lat="45.97238" lon="4.79856">
        <ele>211</ele>
        <time>2017-06-03T09:33:19Z</time>
      </trkpt>
      <trkpt lat="45.97237" lon="4.79848">
        <ele>211</ele>
        <time>2017-06-03T09:33:20Z</time>
      </trkpt>
      <trkpt lat="45.97237" lon="4.7984">
        <ele>211</ele>
        <time>2017-06-03T09:33:21Z</time>
      </trkpt>
      <trkpt lat="45.97237" lon="4.79831">
        <ele>211</ele>
        <time>2017-06-03T09:33:22Z</time>
      </trkpt>
      <trkpt lat="45.97237" lon="4.79823">
        <ele>211</ele>
        <time>2017-06-03T09:33:23Z</time>
      </trkpt>
      <trkpt lat="45.97237" lon="4.79814">
        <ele>211</ele>
        <time>2017-06-03T09:33:24Z</time>
      </trkpt>
      <trkpt lat="45.97237" lon="4.79806">
        <ele>210</ele>
        <time>2017-06-03T09:33:25Z</time>
      </trkpt>
      <trkpt lat="45.97237" lon="4.79797">
        <ele>210</ele>
        <time>2017-06-03T09:33:26Z</time>
      </trkpt>
      <trkpt lat="45.97237" lon="4.79789">
        <ele>210</ele>
        <time>2017-06-03T09:33:27Z</time>
      </trkpt>
      <trkpt lat="45.97238" lon="4.7978">
        <ele>210</ele>
        <time>2017-06-03T09:33:28Z</time>
      </trkpt>
      <trkpt lat="45.97239" lon="4.79772">
        <ele>210</ele>
        <time>2017-06-03T09:33:29Z</time>
      </trkpt>
      <trkpt lat="45.9724" lon="4.79765">
        <ele>209</ele>
        <time>2017-06-03T09:33:30Z</time>
      </trkpt>
      <trkpt lat="45.9724" lon="4.79757">
        <ele>209</ele>
        <time>2017-06-03T09:33:31Z</time>
      </trkpt>
      <trkpt lat="45.97241" lon="4.79749">
        <ele>209</ele>
        <time>2017-06-03T09:33:32Z</time>
      </trkpt>
      <trkpt lat="45.97242" lon="4.79741">
        <ele>209</ele>
        <time>2017-06-03T09:33:33Z</time>
      </trkpt>
      <trkpt lat="45.97243" lon="4.79734">
        <ele>209</ele>
        <time>2017-06-03T09:33:34Z</time>
      </trkpt>
      <trkpt lat="45.97244" lon="4.79725">
        <ele>209</ele>
        <time>2017-06-03T09:33:35Z</time>
      </trkpt>
      <trkpt lat="45.97244" lon="4.79717">
        <ele>209</ele>
        <time>2017-06-03T09:33:36Z</time>
      </trkpt>
      <trkpt lat="45.97245" lon="4.79708">
        <ele>208</ele>
        <time>2017-06-03T09:33:37Z</time>
      </trkpt>
      <trkpt lat="45.97248" lon="4.79699">
        <ele>208</ele>
        <time>2017-06-03T09:33:38Z</time>
      </trkpt>
      <trkpt lat="45.97249" lon="4.7969">
        <ele>208</ele>
        <time>2017-06-03T09:33:39Z</time>
      </trkpt>
      <trkpt lat="45.9725" lon="4.79682">
        <ele>211</ele>
        <time>2017-06-03T09:33:40Z</time>
      </trkpt>
      <trkpt lat="45.97252" lon="4.79674">
        <ele>210</ele>
        <time>2017-06-03T09:33:41Z</time>
      </trkpt>
      <trkpt lat="45.97253" lon="4.79666">
        <ele>209</ele>
        <time>2017-06-03T09:33:42Z</time>
      </trkpt>
      <trkpt lat="45.97255" lon="4.79658">
        <ele>210</ele>
        <time>2017-06-03T09:33:43Z</time>
      </trkpt>
      <trkpt lat="45.97256" lon="4.7965">
        <ele>211</ele>
        <time>2017-06-03T09:33:44Z</time>
      </trkpt>
      <trkpt lat="45.97257" lon="4.79642">
        <ele>212</ele>
        <time>2017-06-03T09:33:45Z</time>
      </trkpt>
      <trkpt lat="45.97257" lon="4.79635">
        <ele>213</ele>
        <time>2017-06-03T09:33:46Z</time>
      </trkpt>
      <trkpt lat="45.97257" lon="4.79626">
        <ele>213</ele>
        <time>2017-06-03T09:33:47Z</time>
      </trkpt>
      <trkpt lat="45.97257" lon="4.79617">
        <ele>213</ele>
        <time>2017-06-03T09:33:48Z</time>
      </trkpt>
      <trkpt lat="45.97257" lon="4.79609">
        <ele>213</ele>
        <time>2017-06-03T09:33:49Z</time>
      </trkpt>
      <trkpt lat="45.97257" lon="4.796">
        <ele>212</ele>
        <time>2017-06-03T09:33:50Z</time>
      </trkpt>
      <trkpt lat="45.97256" lon="4.79593">
        <ele>212</ele>
        <time>2017-06-03T09:33:51Z</time>
      </trkpt>
      <trkpt lat="45.97256" lon="4.79585">
        <ele>211</ele>
        <time>2017-06-03T09:33:52Z</time>
      </trkpt>
      <trkpt lat="45.97256" lon="4.79578">
        <ele>212</ele>
        <time>2017-06-03T09:33:53Z</time>
      </trkpt>
      <trkpt lat="45.97256" lon="4.79571">
        <ele>212</ele>
        <time>2017-06-03T09:33:54Z</time>
      </trkpt>
      <trkpt lat="45.97255" lon="4.79564">
        <ele>213</ele>
        <time>2017-06-03T09:33:55Z</time>
      </trkpt>
      <trkpt lat="45.97255" lon="4.79557">
        <ele>213</ele>
        <time>2017-06-03T09:33:56Z</time>
      </trkpt>
      <trkpt lat="45.97254" lon="4.7955">
        <ele>214</ele>
        <time>2017-06-03T09:33:57Z</time>
      </trkpt>
      <trkpt lat="45.97253" lon="4.79542">
        <ele>214</ele>
        <time>2017-06-03T09:33:58Z</time>
      </trkpt>
      <trkpt lat="45.97252" lon="4.79535">
        <ele>214</ele>
        <time>2017-06-03T09:33:59Z</time>
      </trkpt>
      <trkpt lat="45.97251" lon="4.79527">
        <ele>214</ele>
        <time>2017-06-03T09:34:00Z</time>
      </trkpt>
      <trkpt lat="45.9725" lon="4.7952">
        <ele>210</ele>
        <time>2017-06-03T09:34:01Z</time>
      </trkpt>
      <trkpt lat="45.97248" lon="4.79514">
        <ele>210</ele>
        <time>2017-06-03T09:34:02Z</time>
      </trkpt>
      <trkpt lat="45.97248" lon="4.79507">
        <ele>210</ele>
        <time>2017-06-03T09:34:03Z</time>
      </trkpt>
      <trkpt lat="45.97246" lon="4.79501">
        <ele>211</ele>
        <time>2017-06-03T09:34:04Z</time>
      </trkpt>
      <trkpt lat="45.97243" lon="4.79493">
        <ele>210</ele>
        <time>2017-06-03T09:34:05Z</time>
      </trkpt>
      <trkpt lat="45.97241" lon="4.79485">
        <ele>210</ele>
        <time>2017-06-03T09:34:06Z</time>
      </trkpt>
      <trkpt lat="45.97239" lon="4.79477">
        <ele>209</ele>
        <time>2017-06-03T09:34:07Z</time>
      </trkpt>
      <trkpt lat="45.97237" lon="4.79468">
        <ele>209</ele>
        <time>2017-06-03T09:34:08Z</time>
      </trkpt>
      <trkpt lat="45.97234" lon="4.7946">
        <ele>209</ele>
        <time>2017-06-03T09:34:09Z</time>
      </trkpt>
      <trkpt lat="45.97231" lon="4.79452">
        <ele>209</ele>
        <time>2017-06-03T09:34:10Z</time>
      </trkpt>
      <trkpt lat="45.97227" lon="4.79443">
        <ele>209</ele>
        <time>2017-06-03T09:34:11Z</time>
      </trkpt>
      <trkpt lat="45.97224" lon="4.79435">
        <ele>209</ele>
        <time>2017-06-03T09:34:12Z</time>
      </trkpt>
      <trkpt lat="45.97221" lon="4.79427">
        <ele>208</ele>
        <time>2017-06-03T09:34:13Z</time>
      </trkpt>
      <trkpt lat="45.97217" lon="4.79419">
        <ele>208</ele>
        <time>2017-06-03T09:34:14Z</time>
      </trkpt>
      <trkpt lat="45.97214" lon="4.79411">
        <ele>208</ele>
        <time>2017-06-03T09:34:15Z</time>
      </trkpt>
      <trkpt lat="45.97211" lon="4.79403">
        <ele>208</ele>
        <time>2017-06-03T09:34:16Z</time>
      </trkpt>
      <trkpt lat="45.97208" lon="4.79396">
        <ele>208</ele>
        <time>2017-06-03T09:34:17Z</time>
      </trkpt>
      <trkpt lat="45.97205" lon="4.79389">
        <ele>208</ele>
        <time>2017-06-03T09:34:18Z</time>
      </trkpt>
      <trkpt lat="45.97203" lon="4.79382">
        <ele>208</ele>
        <time>2017-06-03T09:34:19Z</time>
      </trkpt>
      <trkpt lat="45.972" lon="4.79375">
        <ele>207</ele>
        <time>2017-06-03T09:34:20Z</time>
      </trkpt>
      <trkpt lat="45.97197" lon="4.79368">
        <ele>207</ele>
        <time>2017-06-03T09:34:21Z</time>
      </trkpt>
      <trkpt lat="45.97194" lon="4.79362">
        <ele>207</ele>
        <time>2017-06-03T09:34:22Z</time>
      </trkpt>
      <trkpt lat="45.97191" lon="4.79355">
        <ele>207</ele>
        <time>2017-06-03T09:34:23Z</time>
      </trkpt>
      <trkpt lat="45.97188" lon="4.79349">
        <ele>207</ele>
        <time>2017-06-03T09:34:24Z</time>
      </trkpt>
      <trkpt lat="45.97185" lon="4.79343">
        <ele>207</ele>
        <time>2017-06-03T09:34:25Z</time>
      </trkpt>
      <trkpt lat="45.97183" lon="4.79337">
        <ele>206</ele>
        <time>2017-06-03T09:34:26Z</time>
      </trkpt>
      <trkpt lat="45.9718" lon="4.7933">
        <ele>206</ele>
        <time>2017-06-03T09:34:27Z</time>
      </trkpt>
      <trkpt lat="45.97178" lon="4.79324">
        <ele>206</ele>
        <time>2017-06-03T09:34:28Z</time>
      </trkpt>
      <trkpt lat="45.97175" lon="4.79318">
        <ele>207</ele>
        <time>2017-06-03T09:34:29Z</time>
      </trkpt>
      <trkpt lat="45.97172" lon="4.79311">
        <ele>207</ele>
        <time>2017-06-03T09:34:30Z</time>
      </trkpt>
      <trkpt lat="45.9717" lon="4.79303">
        <ele>207</ele>
        <time>2017-06-03T09:34:31Z</time>
      </trkpt>
      <trkpt lat="45.97167" lon="4.79296">
        <ele>207</ele>
        <time>2017-06-03T09:34:32Z</time>
      </trkpt>
      <trkpt lat="45.97164" lon="4.79288">
        <ele>204</ele>
        <time>2017-06-03T09:34:33Z</time>
      </trkpt>
      <trkpt lat="45.97161" lon="4.7928">
        <ele>204</ele>
        <time>2017-06-03T09:34:34Z</time>
      </trkpt>
      <trkpt lat="45.97158" lon="4.79273">
        <ele>204</ele>
        <time>2017-06-03T09:34:35Z</time>
      </trkpt>
      <trkpt lat="45.97155" lon="4.79265">
        <ele>204</ele>
        <time>2017-06-03T09:34:36Z</time>
      </trkpt>
      <trkpt lat="45.97152" lon="4.79258">
        <ele>205</ele>
        <time>2017-06-03T09:34:37Z</time>
      </trkpt>
      <trkpt lat="45.9715" lon="4.7925">
        <ele>205</ele>
        <time>2017-06-03T09:34:38Z</time>
      </trkpt>
      <trkpt lat="45.97147" lon="4.79243">
        <ele>205</ele>
        <time>2017-06-03T09:34:39Z</time>
      </trkpt>
      <trkpt lat="45.97144" lon="4.79235">
        <ele>205</ele>
        <time>2017-06-03T09:34:40Z</time>
      </trkpt>
      <trkpt lat="45.97141" lon="4.79228">
        <ele>205</ele>
        <time>2017-06-03T09:34:41Z</time>
      </trkpt>
      <trkpt lat="45.97138" lon="4.79221">
        <ele>206</ele>
        <time>2017-06-03T09:34:42Z</time>
      </trkpt>
      <trkpt lat="45.97135" lon="4.79215">
        <ele>206</ele>
        <time>2017-06-03T09:34:43Z</time>
      </trkpt>
      <trkpt lat="45.97132" lon="4.79209">
        <ele>206</ele>
        <time>2017-06-03T09:34:44Z</time>
      </trkpt>
      <trkpt lat="45.97129" lon="4.79202">
        <ele>206</ele>
        <time>2017-06-03T09:34:45Z</time>
      </trkpt>
      <trkpt lat="45.97127" lon="4.79196">
        <ele>206</ele>
        <time>2017-06-03T09:34:46Z</time>
      </trkpt>
      <trkpt lat="45.97124" lon="4.79189">
        <ele>206</ele>
        <time>2017-06-03T09:34:47Z</time>
      </trkpt>
      <trkpt lat="45.97121" lon="4.79182">
        <ele>206</ele>
        <time>2017-06-03T09:34:48Z</time>
      </trkpt>
      <trkpt lat="45.97119" lon="4.79175">
        <ele>206</ele>
        <time>2017-06-03T09:34:49Z</time>
      </trkpt>
      <trkpt lat="45.97115" lon="4.79168">
        <ele>206</ele>
        <time>2017-06-03T09:34:50Z</time>
      </trkpt>
      <trkpt lat="45.97112" lon="4.79161">
        <ele>206</ele>
        <time>2017-06-03T09:34:51Z</time>
      </trkpt>
      <trkpt lat="45.97109" lon="4.79155">
        <ele>206</ele>
        <time>2017-06-03T09:34:52Z</time>
      </trkpt>
      <trkpt lat="45.97105" lon="4.79149">
        <ele>206</ele>
        <time>2017-06-03T09:34:53Z</time>
      </trkpt>
      <trkpt lat="45.97101" lon="4.79143">
        <ele>206</ele>
        <time>2017-06-03T09:34:54Z</time>
      </trkpt>
      <trkpt lat="45.97098" lon="4.79138">
        <ele>206</ele>
        <time>2017-06-03T09:34:55Z</time>
      </trkpt>
      <trkpt lat="45.97095" lon="4.79133">
        <ele>206</ele>
        <time>2017-06-03T09:34:56Z</time>
      </trkpt>
      <trkpt lat="45.97092" lon="4.79127">
        <ele>206</ele>
        <time>2017-06-03T09:34:57Z</time>
      </trkpt>
      <trkpt lat="45.97089" lon="4.79121">
        <ele>206</ele>
        <time>2017-06-03T09:34:58Z</time>
      </trkpt>
      <trkpt lat="45.97087" lon="4.79114">
        <ele>206</ele>
        <time>2017-06-03T09:34:59Z</time>
      </trkpt>
      <trkpt lat="45.97085" lon="4.79108">
        <ele>206</ele>
        <time>2017-06-03T09:35:00Z</time>
      </trkpt>
      <trkpt lat="45.97083" lon="4.79101">
        <ele>204</ele>
        <time>2017-06-03T09:35:01Z</time>
      </trkpt>
      <trkpt lat="45.97081" lon="4.79093">
        <ele>204</ele>
        <time>2017-06-03T09:35:02Z</time>
      </trkpt>
      <trkpt lat="45.97079" lon="4.79086">
        <ele>204</ele>
        <time>2017-06-03T09:35:03Z</time>
      </trkpt>
      <trkpt lat="45.97077" lon="4.79078">
        <ele>204</ele>
        <time>2017-06-03T09:35:04Z</time>
      </trkpt>
      <trkpt lat="45.97075" lon="4.79071">
        <ele>204</ele>
        <time>2017-06-03T09:35:05Z</time>
      </trkpt>
      <trkpt lat="45.97073" lon="4.79063">
        <ele>203</ele>
        <time>2017-06-03T09:35:06Z</time>
      </trkpt>
      <trkpt lat="45.97071" lon="4.79057">
        <ele>203</ele>
        <time>2017-06-03T09:35:07Z</time>
      </trkpt>
      <trkpt lat="45.9707" lon="4.7905">
        <ele>203</ele>
        <time>2017-06-03T09:35:08Z</time>
      </trkpt>
      <trkpt lat="45.97068" lon="4.79043">
        <ele>203</ele>
        <time>2017-06-03T09:35:09Z</time>
      </trkpt>
      <trkpt lat="45.97066" lon="4.79036">
        <ele>203</ele>
        <time>2017-06-03T09:35:10Z</time>
      </trkpt>
      <trkpt lat="45.97065" lon="4.79029">
        <ele>203</ele>
        <time>2017-06-03T09:35:11Z</time>
      </trkpt>
      <trkpt lat="45.97062" lon="4.79022">
        <ele>204</ele>
        <time>2017-06-03T09:35:12Z</time>
      </trkpt>
      <trkpt lat="45.9706" lon="4.79014">
        <ele>204</ele>
        <time>2017-06-03T09:35:13Z</time>
      </trkpt>
      <trkpt lat="45.97058" lon="4.79006">
        <ele>204</ele>
        <time>2017-06-03T09:35:14Z</time>
      </trkpt>
      <trkpt lat="45.97055" lon="4.78999">
        <ele>205</ele>
        <time>2017-06-03T09:35:15Z</time>
      </trkpt>
      <trkpt lat="45.97053" lon="4.78991">
        <ele>205</ele>
        <time>2017-06-03T09:35:16Z</time>
      </trkpt>
      <trkpt lat="45.9705" lon="4.78984">
        <ele>205</ele>
        <time>2017-06-03T09:35:17Z</time>
      </trkpt>
      <trkpt lat="45.97047" lon="4.78976">
        <ele>205</ele>
        <time>2017-06-03T09:35:18Z</time>
      </trkpt>
      <trkpt lat="45.97043" lon="4.78969">
        <ele>205</ele>
        <time>2017-06-03T09:35:19Z</time>
      </trkpt>
      <trkpt lat="45.9704" lon="4.78961">
        <ele>205</ele>
        <time>2017-06-03T09:35:20Z</time>
      </trkpt>
      <trkpt lat="45.97037" lon="4.78953">
        <ele>205</ele>
        <time>2017-06-03T09:35:21Z</time>
      </trkpt>
      <trkpt lat="45.97033" lon="4.78946">
        <ele>205</ele>
        <time>2017-06-03T09:35:22Z</time>
      </trkpt>
      <trkpt lat="45.97029" lon="4.78939">
        <ele>205</ele>
        <time>2017-06-03T09:35:23Z</time>
      </trkpt>
      <trkpt lat="45.97024" lon="4.78933">
        <ele>205</ele>
        <time>2017-06-03T09:35:24Z</time>
      </trkpt>
      <trkpt lat="45.97019" lon="4.78926">
        <ele>205</ele>
        <time>2017-06-03T09:35:25Z</time>
      </trkpt>
      <trkpt lat="45.97014" lon="4.78919">
        <ele>205</ele>
        <time>2017-06-03T09:35:26Z</time>
      </trkpt>
      <trkpt lat="45.97009" lon="4.78913">
        <ele>205</ele>
        <time>2017-06-03T09:35:27Z</time>
      </trkpt>
      <trkpt lat="45.97004" lon="4.78907">
        <ele>205</ele>
        <time>2017-06-03T09:35:28Z</time>
      </trkpt>
      <trkpt lat="45.96999" lon="4.78901">
        <ele>204</ele>
        <time>2017-06-03T09:35:29Z</time>
      </trkpt>
      <trkpt lat="45.96994" lon="4.78895">
        <ele>203</ele>
        <time>2017-06-03T09:35:30Z</time>
      </trkpt>
      <trkpt lat="45.96989" lon="4.78889">
        <ele>203</ele>
        <time>2017-06-03T09:35:31Z</time>
      </trkpt>
      <trkpt lat="45.96984" lon="4.78883">
        <ele>203</ele>
        <time>2017-06-03T09:35:32Z</time>
      </trkpt>
      <trkpt lat="45.96979" lon="4.78878">
        <ele>203</ele>
        <time>2017-06-03T09:35:33Z</time>
      </trkpt>
      <trkpt lat="45.96974" lon="4.78872">
        <ele>203</ele>
        <time>2017-06-03T09:35:34Z</time>
      </trkpt>
      <trkpt lat="45.96969" lon="4.78866">
        <ele>203</ele>
        <time>2017-06-03T09:35:35Z</time>
      </trkpt>
      <trkpt lat="45.96965" lon="4.7886">
        <ele>203</ele>
        <time>2017-06-03T09:35:36Z</time>
      </trkpt>
      <trkpt lat="45.9696" lon="4.78855">
        <ele>203</ele>
        <time>2017-06-03T09:35:37Z</time>
      </trkpt>
      <trkpt lat="45.96955" lon="4.78849">
        <ele>203</ele>
        <time>2017-06-03T09:35:38Z</time>
      </trkpt>
      <trkpt lat="45.9695" lon="4.78844">
        <ele>202</ele>
        <time>2017-06-03T09:35:39Z</time>
      </trkpt>
      <trkpt lat="45.96945" lon="4.78839">
        <ele>202</ele>
        <time>2017-06-03T09:35:40Z</time>
      </trkpt>
      <trkpt lat="45.96941" lon="4.78834">
        <ele>202</ele>
        <time>2017-06-03T09:35:41Z</time>
      </trkpt>
      <trkpt lat="45.96936" lon="4.78828">
        <ele>202</ele>
        <time>2017-06-03T09:35:42Z</time>
      </trkpt>
      <trkpt lat="45.96932" lon="4.78822">
        <ele>202</ele>
        <time>2017-06-03T09:35:43Z</time>
      </trkpt>
      <trkpt lat="45.96927" lon="4.78815">
        <ele>202</ele>
        <time>2017-06-03T09:35:44Z</time>
      </trkpt>
      <trkpt lat="45.96923" lon="4.78808">
        <ele>203</ele>
        <time>2017-06-03T09:35:45Z</time>
      </trkpt>
      <trkpt lat="45.96919" lon="4.78801">
        <ele>203</ele>
        <time>2017-06-03T09:35:46Z</time>
      </trkpt>
      <trkpt lat="45.96915" lon="4.78794">
        <ele>201</ele>
        <time>2017-06-03T09:35:47Z</time>
      </trkpt>
      <trkpt lat="45.96911" lon="4.78787">
        <ele>201</ele>
        <time>2017-06-03T09:35:48Z</time>
      </trkpt>
      <trkpt lat="45.96907" lon="4.7878">
        <ele>201</ele>
        <time>2017-06-03T09:35:49Z</time>
      </trkpt>
      <trkpt lat="45.96904" lon="4.78773">
        <ele>201</ele>
        <time>2017-06-03T09:35:50Z</time>
      </trkpt>
      <trkpt lat="45.96901" lon="4.78766">
        <ele>201</ele>
        <time>2017-06-03T09:35:51Z</time>
      </trkpt>
      <trkpt lat="45.96898" lon="4.78759">
        <ele>201</ele>
        <time>2017-06-03T09:35:52Z</time>
      </trkpt>
      <trkpt lat="45.96894" lon="4.78752">
        <ele>201</ele>
        <time>2017-06-03T09:35:53Z</time>
      </trkpt>
      <trkpt lat="45.96892" lon="4.78745">
        <ele>202</ele>
        <time>2017-06-03T09:35:54Z</time>
      </trkpt>
      <trkpt lat="45.96889" lon="4.78738">
        <ele>202</ele>
        <time>2017-06-03T09:35:55Z</time>
      </trkpt>
      <trkpt lat="45.96887" lon="4.78731">
        <ele>202</ele>
        <time>2017-06-03T09:35:56Z</time>
      </trkpt>
      <trkpt lat="45.96884" lon="4.78725">
        <ele>202</ele>
        <time>2017-06-03T09:35:57Z</time>
      </trkpt>
      <trkpt lat="45.96881" lon="4.78718">
        <ele>202</ele>
        <time>2017-06-03T09:35:58Z</time>
      </trkpt>
      <trkpt lat="45.96878" lon="4.78712">
        <ele>202</ele>
        <time>2017-06-03T09:35:59Z</time>
      </trkpt>
      <trkpt lat="45.96874" lon="4.78705">
        <ele>202</ele>
        <time>2017-06-03T09:36:00Z</time>
      </trkpt>
      <trkpt lat="45.9687" lon="4.78698">
        <ele>202</ele>
        <time>2017-06-03T09:36:01Z</time>
      </trkpt>
      <trkpt lat="45.96867" lon="4.7869">
        <ele>202</ele>
        <time>2017-06-03T09:36:02Z</time>
      </trkpt>
      <trkpt lat="45.96863" lon="4.78682">
        <ele>202</ele>
        <time>2017-06-03T09:36:03Z</time>
      </trkpt>
      <trkpt lat="45.96859" lon="4.78675">
        <ele>202</ele>
        <time>2017-06-03T09:36:04Z</time>
      </trkpt>
      <trkpt lat="45.96856" lon="4.78668">
        <ele>202</ele>
        <time>2017-06-03T09:36:05Z</time>
      </trkpt>
      <trkpt lat="45.96853" lon="4.7866">
        <ele>203</ele>
        <time>2017-06-03T09:36:06Z</time>
      </trkpt>
      <trkpt lat="45.96849" lon="4.78653">
        <ele>203</ele>
        <time>2017-06-03T09:36:07Z</time>
      </trkpt>
      <trkpt lat="45.96846" lon="4.78645">
        <ele>203</ele>
        <time>2017-06-03T09:36:08Z</time>
      </trkpt>
      <trkpt lat="45.96843" lon="4.78638">
        <ele>203</ele>
        <time>2017-06-03T09:36:09Z</time>
      </trkpt>
      <trkpt lat="45.9684" lon="4.7863">
        <ele>203</ele>
        <time>2017-06-03T09:36:10Z</time>
      </trkpt>
      <trkpt lat="45.96837" lon="4.78623">
        <ele>203</ele>
        <time>2017-06-03T09:36:11Z</time>
      </trkpt>
      <trkpt lat="45.96834" lon="4.78615">
        <ele>203</ele>
        <time>2017-06-03T09:36:12Z</time>
      </trkpt>
      <trkpt lat="45.96831" lon="4.78607">
        <ele>202</ele>
        <time>2017-06-03T09:36:13Z</time>
      </trkpt>
      <trkpt lat="45.96828" lon="4.786">
        <ele>202</ele>
        <time>2017-06-03T09:36:14Z</time>
      </trkpt>
      <trkpt lat="45.96825" lon="4.78594">
        <ele>202</ele>
        <time>2017-06-03T09:36:15Z</time>
      </trkpt>
      <trkpt lat="45.96823" lon="4.78587">
        <ele>202</ele>
        <time>2017-06-03T09:36:16Z</time>
      </trkpt>
      <trkpt lat="45.96819" lon="4.78582">
        <ele>203</ele>
        <time>2017-06-03T09:36:17Z</time>
      </trkpt>
      <trkpt lat="45.96816" lon="4.78576">
        <ele>203</ele>
        <time>2017-06-03T09:36:18Z</time>
      </trkpt>
      <trkpt lat="45.96811" lon="4.78569">
        <ele>203</ele>
        <time>2017-06-03T09:36:19Z</time>
      </trkpt>
      <trkpt lat="45.96806" lon="4.78563">
        <ele>203</ele>
        <time>2017-06-03T09:36:20Z</time>
      </trkpt>
      <trkpt lat="45.96802" lon="4.78557">
        <ele>203</ele>
        <time>2017-06-03T09:36:21Z</time>
      </trkpt>
      <trkpt lat="45.96798" lon="4.78549">
        <ele>203</ele>
        <time>2017-06-03T09:36:22Z</time>
      </trkpt>
      <trkpt lat="45.96794" lon="4.78541">
        <ele>203</ele>
        <time>2017-06-03T09:36:23Z</time>
      </trkpt>
      <trkpt lat="45.96789" lon="4.78534">
        <ele>203</ele>
        <time>2017-06-03T09:36:24Z</time>
      </trkpt>
      <trkpt lat="45.96785" lon="4.78527">
        <ele>203</ele>
        <time>2017-06-03T09:36:25Z</time>
      </trkpt>
      <trkpt lat="45.96781" lon="4.78519">
        <ele>203</ele>
        <time>2017-06-03T09:36:26Z</time>
      </trkpt>
      <trkpt lat="45.96776" lon="4.78512">
        <ele>203</ele>
        <time>2017-06-03T09:36:27Z</time>
      </trkpt>
      <trkpt lat="45.96772" lon="4.78505">
        <ele>203</ele>
        <time>2017-06-03T09:36:28Z</time>
      </trkpt>
      <trkpt lat="45.96767" lon="4.78499">
        <ele>205</ele>
        <time>2017-06-03T09:36:29Z</time>
      </trkpt>
      <trkpt lat="45.96762" lon="4.78494">
        <ele>204</ele>
        <time>2017-06-03T09:36:30Z</time>
      </trkpt>
      <trkpt lat="45.96758" lon="4.78488">
        <ele>204</ele>
        <time>2017-06-03T09:36:31Z</time>
      </trkpt>
      <trkpt lat="45.96753" lon="4.78482">
        <ele>205</ele>
        <time>2017-06-03T09:36:32Z</time>
      </trkpt>
      <trkpt lat="45.96749" lon="4.78477">
        <ele>203</ele>
        <time>2017-06-03T09:36:33Z</time>
      </trkpt>
      <trkpt lat="45.96744" lon="4.78472">
        <ele>203</ele>
        <time>2017-06-03T09:36:34Z</time>
      </trkpt>
      <trkpt lat="45.96738" lon="4.78467">
        <ele>203</ele>
        <time>2017-06-03T09:36:35Z</time>
      </trkpt>
      <trkpt lat="45.96733" lon="4.78462">
        <ele>203</ele>
        <time>2017-06-03T09:36:36Z</time>
      </trkpt>
      <trkpt lat="45.96728" lon="4.78457">
        <ele>203</ele>
        <time>2017-06-03T09:36:37Z</time>
      </trkpt>
      <trkpt lat="45.96722" lon="4.78452">
        <ele>203</ele>
        <time>2017-06-03T09:36:38Z</time>
      </trkpt>
      <trkpt lat="45.96716" lon="4.78447">
        <ele>203</ele>
        <time>2017-06-03T09:36:39Z</time>
      </trkpt>
      <trkpt lat="45.96711" lon="4.78442">
        <ele>203</ele>
        <time>2017-06-03T09:36:40Z</time>
      </trkpt>
      <trkpt lat="45.96706" lon="4.78436">
        <ele>203</ele>
        <time>2017-06-03T09:36:41Z</time>
      </trkpt>
      <trkpt lat="45.96701" lon="4.78429">
        <ele>203</ele>
        <time>2017-06-03T09:36:42Z</time>
      </trkpt>
      <trkpt lat="45.96696" lon="4.78423">
        <ele>203</ele>
        <time>2017-06-03T09:36:43Z</time>
      </trkpt>
      <trkpt lat="45.9669" lon="4.78417">
        <ele>202</ele>
        <time>2017-06-03T09:36:44Z</time>
      </trkpt>
      <trkpt lat="45.96685" lon="4.78412">
        <ele>204</ele>
        <time>2017-06-03T09:36:45Z</time>
      </trkpt>
      <trkpt lat="45.9668" lon="4.78407">
        <ele>204</ele>
        <time>2017-06-03T09:36:46Z</time>
      </trkpt>
      <trkpt lat="45.96675" lon="4.78402">
        <ele>204</ele>
        <time>2017-06-03T09:36:47Z</time>
      </trkpt>
      <trkpt lat="45.96669" lon="4.78397">
        <ele>204</ele>
        <time>2017-06-03T09:36:48Z</time>
      </trkpt>
      <trkpt lat="45.96664" lon="4.78392">
        <ele>201</ele>
        <time>2017-06-03T09:36:49Z</time>
      </trkpt>
      <trkpt lat="45.96659" lon="4.78386">
        <ele>201</ele>
        <time>2017-06-03T09:36:50Z</time>
      </trkpt>
      <trkpt lat="45.96654" lon="4.78381">
        <ele>201</ele>
        <time>2017-06-03T09:36:51Z</time>
      </trkpt>
      <trkpt lat="45.96649" lon="4.78376">
        <ele>201</ele>
        <time>2017-06-03T09:36:52Z</time>
      </trkpt>
      <trkpt lat="45.96644" lon="4.78371">
        <ele>201</ele>
        <time>2017-06-03T09:36:53Z</time>
      </trkpt>
      <trkpt lat="45.96638" lon="4.78366">
        <ele>201</ele>
        <time>2017-06-03T09:36:54Z</time>
      </trkpt>
      <trkpt lat="45.96633" lon="4.78361">
        <ele>201</ele>
        <time>2017-06-03T09:36:55Z</time>
      </trkpt>
      <trkpt lat="45.96628" lon="4.78356">
        <ele>201</ele>
        <time>2017-06-03T09:36:56Z</time>
      </trkpt>
      <trkpt lat="45.96623" lon="4.78351">
        <ele>201</ele>
        <time>2017-06-03T09:36:57Z</time>
      </trkpt>
      <trkpt lat="45.96618" lon="4.78346">
        <ele>201</ele>
        <time>2017-06-03T09:36:58Z</time>
      </trkpt>
      <trkpt lat="45.96613" lon="4.78341">
        <ele>200</ele>
        <time>2017-06-03T09:36:59Z</time>
      </trkpt>
      <trkpt lat="45.96608" lon="4.78337">
        <ele>200</ele>
        <time>2017-06-03T09:37:00Z</time>
      </trkpt>
      <trkpt lat="45.96603" lon="4.78332">
        <ele>203</ele>
        <time>2017-06-03T09:37:01Z</time>
      </trkpt>
      <trkpt lat="45.96598" lon="4.78328">
        <ele>202</ele>
        <time>2017-06-03T09:37:02Z</time>
      </trkpt>
      <trkpt lat="45.96593" lon="4.78323">
        <ele>202</ele>
        <time>2017-06-03T09:37:03Z</time>
      </trkpt>
      <trkpt lat="45.96588" lon="4.78319">
        <ele>202</ele>
        <time>2017-06-03T09:37:04Z</time>
      </trkpt>
      <trkpt lat="45.96583" lon="4.78313">
        <ele>199</ele>
        <time>2017-06-03T09:37:05Z</time>
      </trkpt>
      <trkpt lat="45.96577" lon="4.78308">
        <ele>200</ele>
        <time>2017-06-03T09:37:06Z</time>
      </trkpt>
      <trkpt lat="45.96572" lon="4.78302">
        <ele>200</ele>
        <time>2017-06-03T09:37:07Z</time>
      </trkpt>
      <trkpt lat="45.96566" lon="4.78296">
        <ele>200</ele>
        <time>2017-06-03T09:37:08Z</time>
      </trkpt>
      <trkpt lat="45.96561" lon="4.78291">
        <ele>200</ele>
        <time>2017-06-03T09:37:09Z</time>
      </trkpt>
      <trkpt lat="45.96556" lon="4.78285">
        <ele>200</ele>
        <time>2017-06-03T09:37:10Z</time>
      </trkpt>
      <trkpt lat="45.96551" lon="4.78279">
        <ele>200</ele>
        <time>2017-06-03T09:37:11Z</time>
      </trkpt>
      <trkpt lat="45.96547" lon="4.78273">
        <ele>200</ele>
        <time>2017-06-03T09:37:12Z</time>
      </trkpt>
      <trkpt lat="45.96542" lon="4.78267">
        <ele>200</ele>
        <time>2017-06-03T09:37:13Z</time>
      </trkpt>
      <trkpt lat="45.96539" lon="4.78261">
        <ele>200</ele>
        <time>2017-06-03T09:37:14Z</time>
      </trkpt>
      <trkpt lat="45.96535" lon="4.78254">
        <ele>200</ele>
        <time>2017-06-03T09:37:15Z</time>
      </trkpt>
      <trkpt lat="45.96531" lon="4.78248">
        <ele>204</ele>
        <time>2017-06-03T09:37:16Z</time>
      </trkpt>
      <trkpt lat="45.96527" lon="4.78241">
        <ele>204</ele>
        <time>2017-06-03T09:37:17Z</time>
      </trkpt>
      <trkpt lat="45.96524" lon="4.78234">
        <ele>204</ele>
        <time>2017-06-03T09:37:18Z</time>
      </trkpt>
      <trkpt lat="45.9652" lon="4.78227">
        <ele>204</ele>
        <time>2017-06-03T09:37:19Z</time>
      </trkpt>
      <trkpt lat="45.96517" lon="4.7822">
        <ele>205</ele>
        <time>2017-06-03T09:37:20Z</time>
      </trkpt>
      <trkpt lat="45.96513" lon="4.78214">
        <ele>205</ele>
        <time>2017-06-03T09:37:21Z</time>
      </trkpt>
      <trkpt lat="45.96508" lon="4.78209">
        <ele>205</ele>
        <time>2017-06-03T09:37:22Z</time>
      </trkpt>
      <trkpt lat="45.96504" lon="4.78204">
        <ele>205</ele>
        <time>2017-06-03T09:37:23Z</time>
      </trkpt>
      <trkpt lat="45.96499" lon="4.78199">
        <ele>201</ele>
        <time>2017-06-03T09:37:24Z</time>
      </trkpt>
      <trkpt lat="45.96494" lon="4.78196">
        <ele>201</ele>
        <time>2017-06-03T09:37:25Z</time>
      </trkpt>
      <trkpt lat="45.96489" lon="4.78193">
        <ele>201</ele>
        <time>2017-06-03T09:37:26Z</time>
      </trkpt>
      <trkpt lat="45.96484" lon="4.7819">
        <ele>201</ele>
        <time>2017-06-03T09:37:27Z</time>
      </trkpt>
      <trkpt lat="45.96479" lon="4.78188">
        <ele>201</ele>
        <time>2017-06-03T09:37:28Z</time>
      </trkpt>
      <trkpt lat="45.96475" lon="4.78185">
        <ele>201</ele>
        <time>2017-06-03T09:37:29Z</time>
      </trkpt>
      <trkpt lat="45.96469" lon="4.78182">
        <ele>200</ele>
        <time>2017-06-03T09:37:30Z</time>
      </trkpt>
      <trkpt lat="45.96464" lon="4.78178">
        <ele>200</ele>
        <time>2017-06-03T09:37:31Z</time>
      </trkpt>
      <trkpt lat="45.9646" lon="4.78173">
        <ele>200</ele>
        <time>2017-06-03T09:37:32Z</time>
      </trkpt>
      <trkpt lat="45.96455" lon="4.78168">
        <ele>200</ele>
        <time>2017-06-03T09:37:33Z</time>
      </trkpt>
      <trkpt lat="45.96449" lon="4.78163">
        <ele>204</ele>
        <time>2017-06-03T09:37:34Z</time>
      </trkpt>
      <trkpt lat="45.96444" lon="4.78158">
        <ele>203</ele>
        <time>2017-06-03T09:37:35Z</time>
      </trkpt>
      <trkpt lat="45.96438" lon="4.78153">
        <ele>203</ele>
        <time>2017-06-03T09:37:36Z</time>
      </trkpt>
      <trkpt lat="45.96433" lon="4.78148">
        <ele>203</ele>
        <time>2017-06-03T09:37:37Z</time>
      </trkpt>
      <trkpt lat="45.96427" lon="4.78143">
        <ele>203</ele>
        <time>2017-06-03T09:37:38Z</time>
      </trkpt>
      <trkpt lat="45.96421" lon="4.78137">
        <ele>203</ele>
        <time>2017-06-03T09:37:39Z</time>
      </trkpt>
      <trkpt lat="45.96416" lon="4.78132">
        <ele>199</ele>
        <time>2017-06-03T09:37:40Z</time>
      </trkpt>
      <trkpt lat="45.96411" lon="4.78128">
        <ele>200</ele>
        <time>2017-06-03T09:37:41Z</time>
      </trkpt>
      <trkpt lat="45.96406" lon="4.78124">
        <ele>200</ele>
        <time>2017-06-03T09:37:42Z</time>
      </trkpt>
      <trkpt lat="45.96401" lon="4.7812">
        <ele>200</ele>
        <time>2017-06-03T09:37:43Z</time>
      </trkpt>
      <trkpt lat="45.96396" lon="4.78115">
        <ele>200</ele>
        <time>2017-06-03T09:37:44Z</time>
      </trkpt>
      <trkpt lat="45.96391" lon="4.7811">
        <ele>200</ele>
        <time>2017-06-03T09:37:45Z</time>
      </trkpt>
      <trkpt lat="45.96387" lon="4.78106">
        <ele>200</ele>
        <time>2017-06-03T09:37:46Z</time>
      </trkpt>
      <trkpt lat="45.96383" lon="4.78102">
        <ele>200</ele>
        <time>2017-06-03T09:37:47Z</time>
      </trkpt>
      <trkpt lat="45.96378" lon="4.78098">
        <ele>200</ele>
        <time>2017-06-03T09:37:48Z</time>
      </trkpt>
      <trkpt lat="45.96373" lon="4.78093">
        <ele>200</ele>
        <time>2017-06-03T09:37:49Z</time>
      </trkpt>
      <trkpt lat="45.96369" lon="4.78089">
        <ele>199</ele>
        <time>2017-06-03T09:37:50Z</time>
      </trkpt>
      <trkpt lat="45.96365" lon="4.78085">
        <ele>199</ele>
        <time>2017-06-03T09:37:51Z</time>
      </trkpt>
      <trkpt lat="45.96361" lon="4.78081">
        <ele>202</ele>
        <time>2017-06-03T09:37:52Z</time>
      </trkpt>
      <trkpt lat="45.96356" lon="4.78076">
        <ele>202</ele>
        <time>2017-06-03T09:37:53Z</time>
      </trkpt>
      <trkpt lat="45.96352" lon="4.78071">
        <ele>202</ele>
        <time>2017-06-03T09:37:54Z</time>
      </trkpt>
      <trkpt lat="45.96347" lon="4.78066">
        <ele>202</ele>
        <time>2017-06-03T09:37:55Z</time>
      </trkpt>
      <trkpt lat="45.96343" lon="4.7806">
        <ele>202</ele>
        <time>2017-06-03T09:37:56Z</time>
      </trkpt>
      <trkpt lat="45.96339" lon="4.78055">
        <ele>202</ele>
        <time>2017-06-03T09:37:57Z</time>
      </trkpt>
      <trkpt lat="45.96335" lon="4.7805">
        <ele>203</ele>
        <time>2017-06-03T09:37:58Z</time>
      </trkpt>
      <trkpt lat="45.96331" lon="4.78045">
        <ele>199</ele>
        <time>2017-06-03T09:37:59Z</time>
      </trkpt>
      <trkpt lat="45.96327" lon="4.7804">
        <ele>199</ele>
        <time>2017-06-03T09:38:00Z</time>
      </trkpt>
      <trkpt lat="45.96323" lon="4.78035">
        <ele>200</ele>
        <time>2017-06-03T09:38:01Z</time>
      </trkpt>
      <trkpt lat="45.96319" lon="4.7803">
        <ele>200</ele>
        <time>2017-06-03T09:38:02Z</time>
      </trkpt>
      <trkpt lat="45.96315" lon="4.78025">
        <ele>200</ele>
        <time>2017-06-03T09:38:03Z</time>
      </trkpt>
      <trkpt lat="45.96311" lon="4.7802">
        <ele>200</ele>
        <time>2017-06-03T09:38:04Z</time>
      </trkpt>
      <trkpt lat="45.96307" lon="4.78016">
        <ele>200</ele>
        <time>2017-06-03T09:38:05Z</time>
      </trkpt>
      <trkpt lat="45.96303" lon="4.78011">
        <ele>200</ele>
        <time>2017-06-03T09:38:06Z</time>
      </trkpt>
      <trkpt lat="45.96299" lon="4.78007">
        <ele>200</ele>
        <time>2017-06-03T09:38:07Z</time>
      </trkpt>
      <trkpt lat="45.96294" lon="4.78003">
        <ele>199</ele>
        <time>2017-06-03T09:38:08Z</time>
      </trkpt>
      <trkpt lat="45.9629" lon="4.77999">
        <ele>204</ele>
        <time>2017-06-03T09:38:09Z</time>
      </trkpt>
      <trkpt lat="45.96285" lon="4.77995">
        <ele>204</ele>
        <time>2017-06-03T09:38:10Z</time>
      </trkpt>
      <trkpt lat="45.96281" lon="4.7799">
        <ele>203</ele>
        <time>2017-06-03T09:38:11Z</time>
      </trkpt>
      <trkpt lat="45.96276" lon="4.77985">
        <ele>203</ele>
        <time>2017-06-03T09:38:12Z</time>
      </trkpt>
      <trkpt lat="45.96271" lon="4.77981">
        <ele>203</ele>
        <time>2017-06-03T09:38:13Z</time>
      </trkpt>
      <trkpt lat="45.96266" lon="4.77976">
        <ele>203</ele>
        <time>2017-06-03T09:38:14Z</time>
      </trkpt>
      <trkpt lat="45.96261" lon="4.77971">
        <ele>203</ele>
        <time>2017-06-03T09:38:15Z</time>
      </trkpt>
      <trkpt lat="45.96256" lon="4.77967">
        <ele>204</ele>
        <time>2017-06-03T09:38:16Z</time>
      </trkpt>
      <trkpt lat="45.96252" lon="4.77963">
        <ele>204</ele>
        <time>2017-06-03T09:38:17Z</time>
      </trkpt>
      <trkpt lat="45.96247" lon="4.77959">
        <ele>199</ele>
        <time>2017-06-03T09:38:18Z</time>
      </trkpt>
      <trkpt lat="45.96242" lon="4.77956">
        <ele>199</ele>
        <time>2017-06-03T09:38:19Z</time>
      </trkpt>
      <trkpt lat="45.96235" lon="4.77948">
        <ele>200</ele>
        <time>2017-06-03T09:38:21Z</time>
      </trkpt>
      <trkpt lat="45.96232" lon="4.77943">
        <ele>200</ele>
        <time>2017-06-03T09:38:22Z</time>
      </trkpt>
      <trkpt lat="45.96227" lon="4.77937">
        <ele>200</ele>
        <time>2017-06-03T09:38:23Z</time>
      </trkpt>
      <trkpt lat="45.96223" lon="4.77932">
        <ele>200</ele>
        <time>2017-06-03T09:38:24Z</time>
      </trkpt>
      <trkpt lat="45.96218" lon="4.77926">
        <ele>200</ele>
        <time>2017-06-03T09:38:25Z</time>
      </trkpt>
      <trkpt lat="45.96213" lon="4.77919">
        <ele>200</ele>
        <time>2017-06-03T09:38:26Z</time>
      </trkpt>
      <trkpt lat="45.96208" lon="4.77912">
        <ele>202</ele>
        <time>2017-06-03T09:38:27Z</time>
      </trkpt>
      <trkpt lat="45.96204" lon="4.77904">
        <ele>202</ele>
        <time>2017-06-03T09:38:28Z</time>
      </trkpt>
      <trkpt lat="45.96199" lon="4.77897">
        <ele>202</ele>
        <time>2017-06-03T09:38:29Z</time>
      </trkpt>
      <trkpt lat="45.96195" lon="4.77889">
        <ele>201</ele>
        <time>2017-06-03T09:38:30Z</time>
      </trkpt>
      <trkpt lat="45.9619" lon="4.77882">
        <ele>201</ele>
        <time>2017-06-03T09:38:31Z</time>
      </trkpt>
      <trkpt lat="45.96186" lon="4.77875">
        <ele>201</ele>
        <time>2017-06-03T09:38:32Z</time>
      </trkpt>
      <trkpt lat="45.96182" lon="4.77868">
        <ele>201</ele>
        <time>2017-06-03T09:38:33Z</time>
      </trkpt>
      <trkpt lat="45.96178" lon="4.77861">
        <ele>201</ele>
        <time>2017-06-03T09:38:34Z</time>
      </trkpt>
      <trkpt lat="45.96174" lon="4.77855">
        <ele>201</ele>
        <time>2017-06-03T09:38:35Z</time>
      </trkpt>
      <trkpt lat="45.9617" lon="4.77849">
        <ele>201</ele>
        <time>2017-06-03T09:38:36Z</time>
      </trkpt>
      <trkpt lat="45.96167" lon="4.77842">
        <ele>197</ele>
        <time>2017-06-03T09:38:37Z</time>
      </trkpt>
      <trkpt lat="45.96163" lon="4.77836">
        <ele>198</ele>
        <time>2017-06-03T09:38:38Z</time>
      </trkpt>
      <trkpt lat="45.9616" lon="4.7783">
        <ele>199</ele>
        <time>2017-06-03T09:38:39Z</time>
      </trkpt>
      <trkpt lat="45.96157" lon="4.77824">
        <ele>198</ele>
        <time>2017-06-03T09:38:40Z</time>
      </trkpt>
      <trkpt lat="45.96153" lon="4.77818">
        <ele>198</ele>
        <time>2017-06-03T09:38:41Z</time>
      </trkpt>
      <trkpt lat="45.96149" lon="4.77811">
        <ele>198</ele>
        <time>2017-06-03T09:38:42Z</time>
      </trkpt>
      <trkpt lat="45.96146" lon="4.77805">
        <ele>198</ele>
        <time>2017-06-03T09:38:43Z</time>
      </trkpt>
      <trkpt lat="45.96142" lon="4.77798">
        <ele>198</ele>
        <time>2017-06-03T09:38:44Z</time>
      </trkpt>
      <trkpt lat="45.96138" lon="4.77791">
        <ele>198</ele>
        <time>2017-06-03T09:38:45Z</time>
      </trkpt>
      <trkpt lat="45.96133" lon="4.77784">
        <ele>198</ele>
        <time>2017-06-03T09:38:46Z</time>
      </trkpt>
      <trkpt lat="45.96129" lon="4.77777">
        <ele>198</ele>
        <time>2017-06-03T09:38:47Z</time>
      </trkpt>
      <trkpt lat="45.96126" lon="4.7777">
        <ele>198</ele>
        <time>2017-06-03T09:38:48Z</time>
      </trkpt>
      <trkpt lat="45.96122" lon="4.77763">
        <ele>197</ele>
        <time>2017-06-03T09:38:49Z</time>
      </trkpt>
      <trkpt lat="45.96118" lon="4.77756">
        <ele>197</ele>
        <time>2017-06-03T09:38:50Z</time>
      </trkpt>
      <trkpt lat="45.96114" lon="4.7775">
        <ele>199</ele>
        <time>2017-06-03T09:38:51Z</time>
      </trkpt>
      <trkpt lat="45.96109" lon="4.77743">
        <ele>199</ele>
        <time>2017-06-03T09:38:52Z</time>
      </trkpt>
      <trkpt lat="45.96104" lon="4.77736">
        <ele>199</ele>
        <time>2017-06-03T09:38:53Z</time>
      </trkpt>
      <trkpt lat="45.961" lon="4.7773">
        <ele>199</ele>
        <time>2017-06-03T09:38:54Z</time>
      </trkpt>
      <trkpt lat="45.96096" lon="4.77723">
        <ele>199</ele>
        <time>2017-06-03T09:38:55Z</time>
      </trkpt>
      <trkpt lat="45.96092" lon="4.77716">
        <ele>199</ele>
        <time>2017-06-03T09:38:56Z</time>
      </trkpt>
      <trkpt lat="45.96088" lon="4.77709">
        <ele>200</ele>
        <time>2017-06-03T09:38:57Z</time>
      </trkpt>
      <trkpt lat="45.96084" lon="4.77703">
        <ele>200</ele>
        <time>2017-06-03T09:38:58Z</time>
      </trkpt>
      <trkpt lat="45.96079" lon="4.77696">
        <ele>197</ele>
        <time>2017-06-03T09:38:59Z</time>
      </trkpt>
      <trkpt lat="45.96075" lon="4.7769">
        <ele>198</ele>
        <time>2017-06-03T09:39:00Z</time>
      </trkpt>
      <trkpt lat="45.96071" lon="4.77684">
        <ele>198</ele>
        <time>2017-06-03T09:39:01Z</time>
      </trkpt>
      <trkpt lat="45.96067" lon="4.77678">
        <ele>198</ele>
        <time>2017-06-03T09:39:02Z</time>
      </trkpt>
      <trkpt lat="45.96063" lon="4.77673">
        <ele>198</ele>
        <time>2017-06-03T09:39:03Z</time>
      </trkpt>
      <trkpt lat="45.96059" lon="4.77667">
        <ele>198</ele>
        <time>2017-06-03T09:39:04Z</time>
      </trkpt>
      <trkpt lat="45.96055" lon="4.77662">
        <ele>200</ele>
        <time>2017-06-03T09:39:05Z</time>
      </trkpt>
      <trkpt lat="45.96051" lon="4.77656">
        <ele>200</ele>
        <time>2017-06-03T09:39:06Z</time>
      </trkpt>
      <trkpt lat="45.96047" lon="4.77651">
        <ele>200</ele>
        <time>2017-06-03T09:39:07Z</time>
      </trkpt>
      <trkpt lat="45.96043" lon="4.77646">
        <ele>199</ele>
        <time>2017-06-03T09:39:08Z</time>
      </trkpt>
      <trkpt lat="45.96039" lon="4.77642">
        <ele>199</ele>
        <time>2017-06-03T09:39:09Z</time>
      </trkpt>
      <trkpt lat="45.96035" lon="4.77637">
        <ele>199</ele>
        <time>2017-06-03T09:39:10Z</time>
      </trkpt>
      <trkpt lat="45.96031" lon="4.77631">
        <ele>199</ele>
        <time>2017-06-03T09:39:11Z</time>
      </trkpt>
      <trkpt lat="45.96027" lon="4.77626">
        <ele>199</ele>
        <time>2017-06-03T09:39:12Z</time>
      </trkpt>
      <trkpt lat="45.96022" lon="4.77621">
        <ele>199</ele>
        <time>2017-06-03T09:39:13Z</time>
      </trkpt>
      <trkpt lat="45.96018" lon="4.77616">
        <ele>199</ele>
        <time>2017-06-03T09:39:14Z</time>
      </trkpt>
      <trkpt lat="45.96014" lon="4.7761">
        <ele>199</ele>
        <time>2017-06-03T09:39:15Z</time>
      </trkpt>
      <trkpt lat="45.96009" lon="4.77605">
        <ele>199</ele>
        <time>2017-06-03T09:39:16Z</time>
      </trkpt>
      <trkpt lat="45.96005" lon="4.776">
        <ele>198</ele>
        <time>2017-06-03T09:39:17Z</time>
      </trkpt>
      <trkpt lat="45.96001" lon="4.77596">
        <ele>198</ele>
        <time>2017-06-03T09:39:18Z</time>
      </trkpt>
      <trkpt lat="45.95995" lon="4.77586">
        <ele>196</ele>
        <time>2017-06-03T09:39:20Z</time>
      </trkpt>
      <trkpt lat="45.95993" lon="4.7758">
        <ele>196</ele>
        <time>2017-06-03T09:39:21Z</time>
      </trkpt>
      <trkpt lat="45.95991" lon="4.77574">
        <ele>196</ele>
        <time>2017-06-03T09:39:22Z</time>
      </trkpt>
      <trkpt lat="45.95989" lon="4.77568">
        <ele>196</ele>
        <time>2017-06-03T09:39:23Z</time>
      </trkpt>
      <trkpt lat="45.95987" lon="4.77561">
        <ele>196</ele>
        <time>2017-06-03T09:39:24Z</time>
      </trkpt>
      <trkpt lat="45.95984" lon="4.77554">
        <ele>196</ele>
        <time>2017-06-03T09:39:25Z</time>
      </trkpt>
      <trkpt lat="45.95982" lon="4.77548">
        <ele>196</ele>
        <time>2017-06-03T09:39:26Z</time>
      </trkpt>
      <trkpt lat="45.95979" lon="4.77542">
        <ele>196</ele>
        <time>2017-06-03T09:39:27Z</time>
      </trkpt>
      <trkpt lat="45.95975" lon="4.77536">
        <ele>196</ele>
        <time>2017-06-03T09:39:28Z</time>
      </trkpt>
      <trkpt lat="45.95972" lon="4.77529">
        <ele>196</ele>
        <time>2017-06-03T09:39:29Z</time>
      </trkpt>
      <trkpt lat="45.95969" lon="4.77522">
        <ele>196</ele>
        <time>2017-06-03T09:39:30Z</time>
      </trkpt>
      <trkpt lat="45.95965" lon="4.77514">
        <ele>195</ele>
        <time>2017-06-03T09:39:31Z</time>
      </trkpt>
      <trkpt lat="45.95962" lon="4.77507">
        <ele>195</ele>
        <time>2017-06-03T09:39:32Z</time>
      </trkpt>
      <trkpt lat="45.95959" lon="4.77499">
        <ele>196</ele>
        <time>2017-06-03T09:39:33Z</time>
      </trkpt>
      <trkpt lat="45.95955" lon="4.77491">
        <ele>196</ele>
        <time>2017-06-03T09:39:34Z</time>
      </trkpt>
      <trkpt lat="45.95952" lon="4.77483">
        <ele>196</ele>
        <time>2017-06-03T09:39:35Z</time>
      </trkpt>
      <trkpt lat="45.95949" lon="4.77475">
        <ele>196</ele>
        <time>2017-06-03T09:39:36Z</time>
      </trkpt>
      <trkpt lat="45.95946" lon="4.77467">
        <ele>196</ele>
        <time>2017-06-03T09:39:37Z</time>
      </trkpt>
      <trkpt lat="45.95943" lon="4.77459">
        <ele>196</ele>
        <time>2017-06-03T09:39:38Z</time>
      </trkpt>
      <trkpt lat="45.9594" lon="4.7745">
        <ele>196</ele>
        <time>2017-06-03T09:39:39Z</time>
      </trkpt>
      <trkpt lat="45.95937" lon="4.77441">
        <ele>195</ele>
        <time>2017-06-03T09:39:40Z</time>
      </trkpt>
      <trkpt lat="45.95934" lon="4.77433">
        <ele>195</ele>
        <time>2017-06-03T09:39:41Z</time>
      </trkpt>
      <trkpt lat="45.95931" lon="4.77425">
        <ele>195</ele>
        <time>2017-06-03T09:39:42Z</time>
      </trkpt>
      <trkpt lat="45.95928" lon="4.77416">
        <ele>195</ele>
        <time>2017-06-03T09:39:43Z</time>
      </trkpt>
      <trkpt lat="45.95925" lon="4.77408">
        <ele>195</ele>
        <time>2017-06-03T09:39:44Z</time>
      </trkpt>
      <trkpt lat="45.95921" lon="4.77401">
        <ele>196</ele>
        <time>2017-06-03T09:39:45Z</time>
      </trkpt>
      <trkpt lat="45.95919" lon="4.77393">
        <ele>196</ele>
        <time>2017-06-03T09:39:46Z</time>
      </trkpt>
      <trkpt lat="45.95916" lon="4.77385">
        <ele>193</ele>
        <time>2017-06-03T09:39:47Z</time>
      </trkpt>
      <trkpt lat="45.95914" lon="4.77376">
        <ele>193</ele>
        <time>2017-06-03T09:39:48Z</time>
      </trkpt>
      <trkpt lat="45.95911" lon="4.77368">
        <ele>193</ele>
        <time>2017-06-03T09:39:49Z</time>
      </trkpt>
      <trkpt lat="45.95907" lon="4.7736">
        <ele>193</ele>
        <time>2017-06-03T09:39:50Z</time>
      </trkpt>
      <trkpt lat="45.95904" lon="4.77352">
        <ele>193</ele>
        <time>2017-06-03T09:39:51Z</time>
      </trkpt>
      <trkpt lat="45.95902" lon="4.77344">
        <ele>193</ele>
        <time>2017-06-03T09:39:52Z</time>
      </trkpt>
      <trkpt lat="45.95899" lon="4.77336">
        <ele>193</ele>
        <time>2017-06-03T09:39:53Z</time>
      </trkpt>
      <trkpt lat="45.95897" lon="4.77327">
        <ele>193</ele>
        <time>2017-06-03T09:39:54Z</time>
      </trkpt>
      <trkpt lat="45.95894" lon="4.77319">
        <ele>193</ele>
        <time>2017-06-03T09:39:55Z</time>
      </trkpt>
      <trkpt lat="45.95892" lon="4.7731">
        <ele>193</ele>
        <time>2017-06-03T09:39:56Z</time>
      </trkpt>
      <trkpt lat="45.9589" lon="4.77301">
        <ele>193</ele>
        <time>2017-06-03T09:39:57Z</time>
      </trkpt>
      <trkpt lat="45.95887" lon="4.77291">
        <ele>193</ele>
        <time>2017-06-03T09:39:58Z</time>
      </trkpt>
      <trkpt lat="45.95885" lon="4.77281">
        <ele>193</ele>
        <time>2017-06-03T09:39:59Z</time>
      </trkpt>
      <trkpt lat="45.95882" lon="4.77271">
        <ele>193</ele>
        <time>2017-06-03T09:40:00Z</time>
      </trkpt>
      <trkpt lat="45.9588" lon="4.7726">
        <ele>193</ele>
        <time>2017-06-03T09:40:01Z</time>
      </trkpt>
      <trkpt lat="45.95878" lon="4.7725">
        <ele>193</ele>
        <time>2017-06-03T09:40:02Z</time>
      </trkpt>
      <trkpt lat="45.95875" lon="4.7724">
        <ele>193</ele>
        <time>2017-06-03T09:40:03Z</time>
      </trkpt>
      <trkpt lat="45.95873" lon="4.7723">
        <ele>193</ele>
        <time>2017-06-03T09:40:04Z</time>
      </trkpt>
      <trkpt lat="45.95871" lon="4.77219">
        <ele>193</ele>
        <time>2017-06-03T09:40:05Z</time>
      </trkpt>
      <trkpt lat="45.95869" lon="4.77209">
        <ele>193</ele>
        <time>2017-06-03T09:40:06Z</time>
      </trkpt>
      <trkpt lat="45.95867" lon="4.772">
        <ele>193</ele>
        <time>2017-06-03T09:40:07Z</time>
      </trkpt>
      <trkpt lat="45.95864" lon="4.77191">
        <ele>193</ele>
        <time>2017-06-03T09:40:08Z</time>
      </trkpt>
      <trkpt lat="45.95862" lon="4.77181">
        <ele>192</ele>
        <time>2017-06-03T09:40:09Z</time>
      </trkpt>
      <trkpt lat="45.9586" lon="4.77172">
        <ele>192</ele>
        <time>2017-06-03T09:40:10Z</time>
      </trkpt>
      <trkpt lat="45.95857" lon="4.77163">
        <ele>192</ele>
        <time>2017-06-03T09:40:11Z</time>
      </trkpt>
      <trkpt lat="45.95855" lon="4.77154">
        <ele>192</ele>
        <time>2017-06-03T09:40:12Z</time>
      </trkpt>
      <trkpt lat="45.95852" lon="4.77145">
        <ele>193</ele>
        <time>2017-06-03T09:40:13Z</time>
      </trkpt>
      <trkpt lat="45.9585" lon="4.77136">
        <ele>193</ele>
        <time>2017-06-03T09:40:14Z</time>
      </trkpt>
      <trkpt lat="45.95847" lon="4.77128">
        <ele>193</ele>
        <time>2017-06-03T09:40:15Z</time>
      </trkpt>
      <trkpt lat="45.95844" lon="4.77119">
        <ele>193</ele>
        <time>2017-06-03T09:40:16Z</time>
      </trkpt>
      <trkpt lat="45.95841" lon="4.7711">
        <ele>193</ele>
        <time>2017-06-03T09:40:17Z</time>
      </trkpt>
      <trkpt lat="45.95839" lon="4.77101">
        <ele>193</ele>
        <time>2017-06-03T09:40:18Z</time>
      </trkpt>
      <trkpt lat="45.95836" lon="4.77092">
        <ele>193</ele>
        <time>2017-06-03T09:40:19Z</time>
      </trkpt>
      <trkpt lat="45.95833" lon="4.77084">
        <ele>192</ele>
        <time>2017-06-03T09:40:20Z</time>
      </trkpt>
      <trkpt lat="45.95831" lon="4.77075">
        <ele>191</ele>
        <time>2017-06-03T09:40:21Z</time>
      </trkpt>
      <trkpt lat="45.95827" lon="4.77067">
        <ele>191</ele>
        <time>2017-06-03T09:40:22Z</time>
      </trkpt>
      <trkpt lat="45.95824" lon="4.77059">
        <ele>190</ele>
        <time>2017-06-03T09:40:23Z</time>
      </trkpt>
      <trkpt lat="45.95821" lon="4.77052">
        <ele>190</ele>
        <time>2017-06-03T09:40:24Z</time>
      </trkpt>
      <trkpt lat="45.95818" lon="4.77045">
        <ele>190</ele>
        <time>2017-06-03T09:40:25Z</time>
      </trkpt>
      <trkpt lat="45.95815" lon="4.77037">
        <ele>190</ele>
        <time>2017-06-03T09:40:26Z</time>
      </trkpt>
      <trkpt lat="45.95812" lon="4.77031">
        <ele>190</ele>
        <time>2017-06-03T09:40:27Z</time>
      </trkpt>
      <trkpt lat="45.95809" lon="4.77024">
        <ele>190</ele>
        <time>2017-06-03T09:40:28Z</time>
      </trkpt>
      <trkpt lat="45.95806" lon="4.77016">
        <ele>190</ele>
        <time>2017-06-03T09:40:29Z</time>
      </trkpt>
      <trkpt lat="45.95804" lon="4.77009">
        <ele>190</ele>
        <time>2017-06-03T09:40:30Z</time>
      </trkpt>
      <trkpt lat="45.95803" lon="4.77002">
        <ele>190</ele>
        <time>2017-06-03T09:40:31Z</time>
      </trkpt>
      <trkpt lat="45.95802" lon="4.76994">
        <ele>189</ele>
        <time>2017-06-03T09:40:32Z</time>
      </trkpt>
      <trkpt lat="45.95802" lon="4.76986">
        <ele>189</ele>
        <time>2017-06-03T09:40:33Z</time>
      </trkpt>
      <trkpt lat="45.95802" lon="4.76978">
        <ele>189</ele>
        <time>2017-06-03T09:40:34Z</time>
      </trkpt>
      <trkpt lat="45.95803" lon="4.7697">
        <ele>189</ele>
        <time>2017-06-03T09:40:35Z</time>
      </trkpt>
      <trkpt lat="45.95804" lon="4.76961">
        <ele>189</ele>
        <time>2017-06-03T09:40:36Z</time>
      </trkpt>
      <trkpt lat="45.95806" lon="4.76952">
        <ele>189</ele>
        <time>2017-06-03T09:40:37Z</time>
      </trkpt>
      <trkpt lat="45.95807" lon="4.76943">
        <ele>189</ele>
        <time>2017-06-03T09:40:38Z</time>
      </trkpt>
      <trkpt lat="45.95809" lon="4.76933">
        <ele>189</ele>
        <time>2017-06-03T09:40:39Z</time>
      </trkpt>
      <trkpt lat="45.95811" lon="4.76923">
        <ele>189</ele>
        <time>2017-06-03T09:40:40Z</time>
      </trkpt>
      <trkpt lat="45.95813" lon="4.76913">
        <ele>189</ele>
        <time>2017-06-03T09:40:41Z</time>
      </trkpt>
      <trkpt lat="45.95815" lon="4.76904">
        <ele>189</ele>
        <time>2017-06-03T09:40:42Z</time>
      </trkpt>
      <trkpt lat="45.95818" lon="4.76895">
        <ele>189</ele>
        <time>2017-06-03T09:40:43Z</time>
      </trkpt>
      <trkpt lat="45.9582" lon="4.76886">
        <ele>189</ele>
        <time>2017-06-03T09:40:44Z</time>
      </trkpt>
      <trkpt lat="45.95821" lon="4.76877">
        <ele>189</ele>
        <time>2017-06-03T09:40:45Z</time>
      </trkpt>
      <trkpt lat="45.95823" lon="4.76868">
        <ele>189</ele>
        <time>2017-06-03T09:40:46Z</time>
      </trkpt>
      <trkpt lat="45.95825" lon="4.7686">
        <ele>189</ele>
        <time>2017-06-03T09:40:47Z</time>
      </trkpt>
      <trkpt lat="45.95826" lon="4.76852">
        <ele>190</ele>
        <time>2017-06-03T09:40:48Z</time>
      </trkpt>
      <trkpt lat="45.95827" lon="4.76844">
        <ele>190</ele>
        <time>2017-06-03T09:40:49Z</time>
      </trkpt>
      <trkpt lat="45.95829" lon="4.76836">
        <ele>190</ele>
        <time>2017-06-03T09:40:50Z</time>
      </trkpt>
      <trkpt lat="45.9583" lon="4.76829">
        <ele>190</ele>
        <time>2017-06-03T09:40:51Z</time>
      </trkpt>
      <trkpt lat="45.95831" lon="4.76822">
        <ele>190</ele>
        <time>2017-06-03T09:40:52Z</time>
      </trkpt>
      <trkpt lat="45.95833" lon="4.76814">
        <ele>190</ele>
        <time>2017-06-03T09:40:53Z</time>
      </trkpt>
      <trkpt lat="45.95834" lon="4.76806">
        <ele>191</ele>
        <time>2017-06-03T09:40:54Z</time>
      </trkpt>
      <trkpt lat="45.95834" lon="4.76797">
        <ele>191</ele>
        <time>2017-06-03T09:40:55Z</time>
      </trkpt>
      <trkpt lat="45.95833" lon="4.76787">
        <ele>190</ele>
        <time>2017-06-03T09:40:56Z</time>
      </trkpt>
      <trkpt lat="45.95832" lon="4.76778">
        <ele>190</ele>
        <time>2017-06-03T09:40:57Z</time>
      </trkpt>
      <trkpt lat="45.95831" lon="4.76769">
        <ele>190</ele>
        <time>2017-06-03T09:40:58Z</time>
      </trkpt>
      <trkpt lat="45.95829" lon="4.76759">
        <ele>191</ele>
        <time>2017-06-03T09:40:59Z</time>
      </trkpt>
      <trkpt lat="45.95827" lon="4.76749">
        <ele>191</ele>
        <time>2017-06-03T09:41:00Z</time>
      </trkpt>
      <trkpt lat="45.95825" lon="4.76739">
        <ele>190</ele>
        <time>2017-06-03T09:41:01Z</time>
      </trkpt>
      <trkpt lat="45.95824" lon="4.76729">
        <ele>190</ele>
        <time>2017-06-03T09:41:02Z</time>
      </trkpt>
      <trkpt lat="45.95823" lon="4.7672">
        <ele>189</ele>
        <time>2017-06-03T09:41:03Z</time>
      </trkpt>
      <trkpt lat="45.95821" lon="4.7671">
        <ele>189</ele>
        <time>2017-06-03T09:41:04Z</time>
      </trkpt>
      <trkpt lat="45.9582" lon="4.76701">
        <ele>189</ele>
        <time>2017-06-03T09:41:05Z</time>
      </trkpt>
      <trkpt lat="45.95819" lon="4.76692">
        <ele>189</ele>
        <time>2017-06-03T09:41:06Z</time>
      </trkpt>
      <trkpt lat="45.95817" lon="4.76683">
        <ele>189</ele>
        <time>2017-06-03T09:41:07Z</time>
      </trkpt>
      <trkpt lat="45.95816" lon="4.76675">
        <ele>189</ele>
        <time>2017-06-03T09:41:08Z</time>
      </trkpt>
      <trkpt lat="45.95815" lon="4.76666">
        <ele>188</ele>
        <time>2017-06-03T09:41:09Z</time>
      </trkpt>
      <trkpt lat="45.95813" lon="4.76657">
        <ele>188</ele>
        <time>2017-06-03T09:41:10Z</time>
      </trkpt>
      <trkpt lat="45.95812" lon="4.76649">
        <ele>188</ele>
        <time>2017-06-03T09:41:11Z</time>
      </trkpt>
      <trkpt lat="45.9581" lon="4.7664">
        <ele>188</ele>
        <time>2017-06-03T09:41:12Z</time>
      </trkpt>
      <trkpt lat="45.95809" lon="4.76631">
        <ele>188</ele>
        <time>2017-06-03T09:41:13Z</time>
      </trkpt>
      <trkpt lat="45.95808" lon="4.76622">
        <ele>188</ele>
        <time>2017-06-03T09:41:14Z</time>
      </trkpt>
      <trkpt lat="45.95807" lon="4.76613">
        <ele>188</ele>
        <time>2017-06-03T09:41:15Z</time>
      </trkpt>
      <trkpt lat="45.95805" lon="4.76605">
        <ele>188</ele>
        <time>2017-06-03T09:41:16Z</time>
      </trkpt>
      <trkpt lat="45.95804" lon="4.76597">
        <ele>188</ele>
        <time>2017-06-03T09:41:17Z</time>
      </trkpt>
      <trkpt lat="45.95803" lon="4.76588">
        <ele>187</ele>
        <time>2017-06-03T09:41:18Z</time>
      </trkpt>
      <trkpt lat="45.95802" lon="4.7658">
        <ele>187</ele>
        <time>2017-06-03T09:41:19Z</time>
      </trkpt>
      <trkpt lat="45.95801" lon="4.76572">
        <ele>187</ele>
        <time>2017-06-03T09:41:20Z</time>
      </trkpt>
      <trkpt lat="45.958" lon="4.76563">
        <ele>187</ele>
        <time>2017-06-03T09:41:21Z</time>
      </trkpt>
      <trkpt lat="45.95799" lon="4.76555">
        <ele>187</ele>
        <time>2017-06-03T09:41:22Z</time>
      </trkpt>
      <trkpt lat="45.95797" lon="4.76546">
        <ele>187</ele>
        <time>2017-06-03T09:41:23Z</time>
      </trkpt>
      <trkpt lat="45.95796" lon="4.76537">
        <ele>187</ele>
        <time>2017-06-03T09:41:24Z</time>
      </trkpt>
      <trkpt lat="45.95794" lon="4.76528">
        <ele>187</ele>
        <time>2017-06-03T09:41:25Z</time>
      </trkpt>
      <trkpt lat="45.95793" lon="4.7652">
        <ele>187</ele>
        <time>2017-06-03T09:41:26Z</time>
      </trkpt>
      <trkpt lat="45.95792" lon="4.76511">
        <ele>187</ele>
        <time>2017-06-03T09:41:27Z</time>
      </trkpt>
      <trkpt lat="45.9579" lon="4.76503">
        <ele>187</ele>
        <time>2017-06-03T09:41:28Z</time>
      </trkpt>
      <trkpt lat="45.95789" lon="4.76495">
        <ele>186</ele>
        <time>2017-06-03T09:41:29Z</time>
      </trkpt>
      <trkpt lat="45.95788" lon="4.76487">
        <ele>186</ele>
        <time>2017-06-03T09:41:30Z</time>
      </trkpt>
      <trkpt lat="45.95787" lon="4.76479">
        <ele>186</ele>
        <time>2017-06-03T09:41:31Z</time>
      </trkpt>
      <trkpt lat="45.95786" lon="4.76471">
        <ele>186</ele>
        <time>2017-06-03T09:41:32Z</time>
      </trkpt>
      <trkpt lat="45.95785" lon="4.76464">
        <ele>186</ele>
        <time>2017-06-03T09:41:33Z</time>
      </trkpt>
      <trkpt lat="45.95784" lon="4.76456">
        <ele>186</ele>
        <time>2017-06-03T09:41:34Z</time>
      </trkpt>
      <trkpt lat="45.95783" lon="4.76448">
        <ele>186</ele>
        <time>2017-06-03T09:41:35Z</time>
      </trkpt>
      <trkpt lat="45.95782" lon="4.7644">
        <ele>186</ele>
        <time>2017-06-03T09:41:36Z</time>
      </trkpt>
      <trkpt lat="45.95781" lon="4.76432">
        <ele>186</ele>
        <time>2017-06-03T09:41:37Z</time>
      </trkpt>
      <trkpt lat="45.9578" lon="4.76424">
        <ele>186</ele>
        <time>2017-06-03T09:41:38Z</time>
      </trkpt>
      <trkpt lat="45.95779" lon="4.76416">
        <ele>186</ele>
        <time>2017-06-03T09:41:39Z</time>
      </trkpt>
      <trkpt lat="45.95778" lon="4.76409">
        <ele>186</ele>
        <time>2017-06-03T09:41:40Z</time>
      </trkpt>
      <trkpt lat="45.95778" lon="4.76401">
        <ele>186</ele>
        <time>2017-06-03T09:41:41Z</time>
      </trkpt>
      <trkpt lat="45.95777" lon="4.76394">
        <ele>186</ele>
        <time>2017-06-03T09:41:42Z</time>
      </trkpt>
      <trkpt lat="45.95776" lon="4.76386">
        <ele>186</ele>
        <time>2017-06-03T09:41:43Z</time>
      </trkpt>
      <trkpt lat="45.95776" lon="4.76378">
        <ele>186</ele>
        <time>2017-06-03T09:41:44Z</time>
      </trkpt>
      <trkpt lat="45.95775" lon="4.7637">
        <ele>186</ele>
        <time>2017-06-03T09:41:45Z</time>
      </trkpt>
      <trkpt lat="45.95775" lon="4.76361">
        <ele>186</ele>
        <time>2017-06-03T09:41:46Z</time>
      </trkpt>
      <trkpt lat="45.95774" lon="4.76353">
        <ele>186</ele>
        <time>2017-06-03T09:41:47Z</time>
      </trkpt>
      <trkpt lat="45.95774" lon="4.76344">
        <ele>186</ele>
        <time>2017-06-03T09:41:48Z</time>
      </trkpt>
      <trkpt lat="45.95773" lon="4.76336">
        <ele>186</ele>
        <time>2017-06-03T09:41:49Z</time>
      </trkpt>
      <trkpt lat="45.95773" lon="4.76328">
        <ele>185</ele>
        <time>2017-06-03T09:41:50Z</time>
      </trkpt>
      <trkpt lat="45.95772" lon="4.76319">
        <ele>185</ele>
        <time>2017-06-03T09:41:51Z</time>
      </trkpt>
      <trkpt lat="45.95772" lon="4.76311">
        <ele>186</ele>
        <time>2017-06-03T09:41:52Z</time>
      </trkpt>
      <trkpt lat="45.95772" lon="4.76304">
        <ele>186</ele>
        <time>2017-06-03T09:41:53Z</time>
      </trkpt>
      <trkpt lat="45.95771" lon="4.76296">
        <ele>186</ele>
        <time>2017-06-03T09:41:54Z</time>
      </trkpt>
      <trkpt lat="45.95771" lon="4.76289">
        <ele>186</ele>
        <time>2017-06-03T09:41:55Z</time>
      </trkpt>
      <trkpt lat="45.9577" lon="4.76282">
        <ele>186</ele>
        <time>2017-06-03T09:41:56Z</time>
      </trkpt>
      <trkpt lat="45.9577" lon="4.76274">
        <ele>186</ele>
        <time>2017-06-03T09:41:57Z</time>
      </trkpt>
      <trkpt lat="45.95769" lon="4.76267">
        <ele>186</ele>
        <time>2017-06-03T09:41:58Z</time>
      </trkpt>
      <trkpt lat="45.95769" lon="4.76259">
        <ele>185</ele>
        <time>2017-06-03T09:41:59Z</time>
      </trkpt>
      <trkpt lat="45.95769" lon="4.76251">
        <ele>185</ele>
        <time>2017-06-03T09:42:00Z</time>
      </trkpt>
      <trkpt lat="45.95769" lon="4.76242">
        <ele>186</ele>
        <time>2017-06-03T09:42:01Z</time>
      </trkpt>
      <trkpt lat="45.95768" lon="4.76233">
        <ele>186</ele>
        <time>2017-06-03T09:42:02Z</time>
      </trkpt>
      <trkpt lat="45.95767" lon="4.76224">
        <ele>186</ele>
        <time>2017-06-03T09:42:03Z</time>
      </trkpt>
      <trkpt lat="45.95767" lon="4.76214">
        <ele>186</ele>
        <time>2017-06-03T09:42:04Z</time>
      </trkpt>
      <trkpt lat="45.95766" lon="4.76204">
        <ele>186</ele>
        <time>2017-06-03T09:42:05Z</time>
      </trkpt>
      <trkpt lat="45.95766" lon="4.76194">
        <ele>186</ele>
        <time>2017-06-03T09:42:06Z</time>
      </trkpt>
      <trkpt lat="45.95765" lon="4.76185">
        <ele>186</ele>
        <time>2017-06-03T09:42:07Z</time>
      </trkpt>
      <trkpt lat="45.95764" lon="4.76176">
        <ele>185</ele>
        <time>2017-06-03T09:42:08Z</time>
      </trkpt>
      <trkpt lat="45.95764" lon="4.76167">
        <ele>186</ele>
        <time>2017-06-03T09:42:09Z</time>
      </trkpt>
      <trkpt lat="45.95763" lon="4.76158">
        <ele>186</ele>
        <time>2017-06-03T09:42:10Z</time>
      </trkpt>
      <trkpt lat="45.95763" lon="4.76149">
        <ele>186</ele>
        <time>2017-06-03T09:42:11Z</time>
      </trkpt>
      <trkpt lat="45.95762" lon="4.76141">
        <ele>186</ele>
        <time>2017-06-03T09:42:12Z</time>
      </trkpt>
      <trkpt lat="45.95761" lon="4.76133">
        <ele>186</ele>
        <time>2017-06-03T09:42:13Z</time>
      </trkpt>
      <trkpt lat="45.9576" lon="4.76125">
        <ele>186</ele>
        <time>2017-06-03T09:42:14Z</time>
      </trkpt>
      <trkpt lat="45.9576" lon="4.76117">
        <ele>186</ele>
        <time>2017-06-03T09:42:15Z</time>
      </trkpt>
      <trkpt lat="45.95759" lon="4.76109">
        <ele>186</ele>
        <time>2017-06-03T09:42:16Z</time>
      </trkpt>
      <trkpt lat="45.95757" lon="4.76101">
        <ele>186</ele>
        <time>2017-06-03T09:42:17Z</time>
      </trkpt>
      <trkpt lat="45.95755" lon="4.76093">
        <ele>186</ele>
        <time>2017-06-03T09:42:18Z</time>
      </trkpt>
      <trkpt lat="45.95753" lon="4.76086">
        <ele>185</ele>
        <time>2017-06-03T09:42:19Z</time>
      </trkpt>
      <trkpt lat="45.9575" lon="4.76078">
        <ele>185</ele>
        <time>2017-06-03T09:42:20Z</time>
      </trkpt>
      <trkpt lat="45.95747" lon="4.76071">
        <ele>185</ele>
        <time>2017-06-03T09:42:21Z</time>
      </trkpt>
      <trkpt lat="45.95744" lon="4.76063">
        <ele>185</ele>
        <time>2017-06-03T09:42:22Z</time>
      </trkpt>
      <trkpt lat="45.95741" lon="4.76056">
        <ele>184</ele>
        <time>2017-06-03T09:42:23Z</time>
      </trkpt>
      <trkpt lat="45.95738" lon="4.76049">
        <ele>184</ele>
        <time>2017-06-03T09:42:24Z</time>
      </trkpt>
      <trkpt lat="45.95735" lon="4.76043">
        <ele>184</ele>
        <time>2017-06-03T09:42:25Z</time>
      </trkpt>
      <trkpt lat="45.95731" lon="4.76037">
        <ele>184</ele>
        <time>2017-06-03T09:42:26Z</time>
      </trkpt>
      <trkpt lat="45.95728" lon="4.7603">
        <ele>184</ele>
        <time>2017-06-03T09:42:27Z</time>
      </trkpt>
      <trkpt lat="45.95725" lon="4.76024">
        <ele>184</ele>
        <time>2017-06-03T09:42:28Z</time>
      </trkpt>
      <trkpt lat="45.95722" lon="4.76018">
        <ele>184</ele>
        <time>2017-06-03T09:42:29Z</time>
      </trkpt>
      <trkpt lat="45.95719" lon="4.76012">
        <ele>184</ele>
        <time>2017-06-03T09:42:30Z</time>
      </trkpt>
      <trkpt lat="45.95716" lon="4.76006">
        <ele>184</ele>
        <time>2017-06-03T09:42:31Z</time>
      </trkpt>
      <trkpt lat="45.95713" lon="4.76">
        <ele>185</ele>
        <time>2017-06-03T09:42:32Z</time>
      </trkpt>
      <trkpt lat="45.9571" lon="4.75993">
        <ele>185</ele>
        <time>2017-06-03T09:42:33Z</time>
      </trkpt>
      <trkpt lat="45.95707" lon="4.75986">
        <ele>185</ele>
        <time>2017-06-03T09:42:34Z</time>
      </trkpt>
      <trkpt lat="45.95704" lon="4.75979">
        <ele>185</ele>
        <time>2017-06-03T09:42:35Z</time>
      </trkpt>
      <trkpt lat="45.95701" lon="4.75972">
        <ele>185</ele>
        <time>2017-06-03T09:42:36Z</time>
      </trkpt>
      <trkpt lat="45.95697" lon="4.75964">
        <ele>185</ele>
        <time>2017-06-03T09:42:37Z</time>
      </trkpt>
      <trkpt lat="45.95693" lon="4.75956">
        <ele>185</ele>
        <time>2017-06-03T09:42:38Z</time>
      </trkpt>
      <trkpt lat="45.9569" lon="4.75949">
        <ele>185</ele>
        <time>2017-06-03T09:42:39Z</time>
      </trkpt>
      <trkpt lat="45.95686" lon="4.75941">
        <ele>185</ele>
        <time>2017-06-03T09:42:40Z</time>
      </trkpt>
      <trkpt lat="45.95683" lon="4.75933">
        <ele>185</ele>
        <time>2017-06-03T09:42:41Z</time>
      </trkpt>
      <trkpt lat="45.9568" lon="4.75925">
        <ele>185</ele>
        <time>2017-06-03T09:42:42Z</time>
      </trkpt>
      <trkpt lat="45.95677" lon="4.75917">
        <ele>185</ele>
        <time>2017-06-03T09:42:43Z</time>
      </trkpt>
      <trkpt lat="45.95673" lon="4.75908">
        <ele>185</ele>
        <time>2017-06-03T09:42:44Z</time>
      </trkpt>
      <trkpt lat="45.9567" lon="4.759">
        <ele>185</ele>
        <time>2017-06-03T09:42:45Z</time>
      </trkpt>
      <trkpt lat="45.95667" lon="4.75891">
        <ele>186</ele>
        <time>2017-06-03T09:42:46Z</time>
      </trkpt>
      <trkpt lat="45.95664" lon="4.75883">
        <ele>184</ele>
        <time>2017-06-03T09:42:47Z</time>
      </trkpt>
      <trkpt lat="45.95662" lon="4.75874">
        <ele>184</ele>
        <time>2017-06-03T09:42:48Z</time>
      </trkpt>
      <trkpt lat="45.95659" lon="4.75866">
        <ele>184</ele>
        <time>2017-06-03T09:42:49Z</time>
      </trkpt>
      <trkpt lat="45.95656" lon="4.75857">
        <ele>184</ele>
        <time>2017-06-03T09:42:50Z</time>
      </trkpt>
      <trkpt lat="45.95654" lon="4.75849">
        <ele>185</ele>
        <time>2017-06-03T09:42:51Z</time>
      </trkpt>
      <trkpt lat="45.95652" lon="4.7584">
        <ele>185</ele>
        <time>2017-06-03T09:42:52Z</time>
      </trkpt>
      <trkpt lat="45.9565" lon="4.75832">
        <ele>185</ele>
        <time>2017-06-03T09:42:53Z</time>
      </trkpt>
      <trkpt lat="45.95649" lon="4.75824">
        <ele>185</ele>
        <time>2017-06-03T09:42:54Z</time>
      </trkpt>
      <trkpt lat="45.95647" lon="4.75817">
        <ele>185</ele>
        <time>2017-06-03T09:42:55Z</time>
      </trkpt>
      <trkpt lat="45.95646" lon="4.7581">
        <ele>185</ele>
        <time>2017-06-03T09:42:56Z</time>
      </trkpt>
      <trkpt lat="45.95644" lon="4.75802">
        <ele>185</ele>
        <time>2017-06-03T09:42:57Z</time>
      </trkpt>
      <trkpt lat="45.95643" lon="4.75795">
        <ele>185</ele>
        <time>2017-06-03T09:42:58Z</time>
      </trkpt>
      <trkpt lat="45.95642" lon="4.75787">
        <ele>185</ele>
        <time>2017-06-03T09:42:59Z</time>
      </trkpt>
      <trkpt lat="45.95641" lon="4.7578">
        <ele>186</ele>
        <time>2017-06-03T09:43:00Z</time>
      </trkpt>
      <trkpt lat="45.9564" lon="4.75772">
        <ele>186</ele>
        <time>2017-06-03T09:43:01Z</time>
      </trkpt>
      <trkpt lat="45.95639" lon="4.75764">
        <ele>186</ele>
        <time>2017-06-03T09:43:02Z</time>
      </trkpt>
      <trkpt lat="45.95638" lon="4.75756">
        <ele>186</ele>
        <time>2017-06-03T09:43:03Z</time>
      </trkpt>
      <trkpt lat="45.95637" lon="4.75748">
        <ele>187</ele>
        <time>2017-06-03T09:43:04Z</time>
      </trkpt>
      <trkpt lat="45.95636" lon="4.7574">
        <ele>187</ele>
        <time>2017-06-03T09:43:05Z</time>
      </trkpt>
      <trkpt lat="45.95635" lon="4.75733">
        <ele>187</ele>
        <time>2017-06-03T09:43:06Z</time>
      </trkpt>
      <trkpt lat="45.95634" lon="4.75726">
        <ele>187</ele>
        <time>2017-06-03T09:43:07Z</time>
      </trkpt>
      <trkpt lat="45.95633" lon="4.75718">
        <ele>187</ele>
        <time>2017-06-03T09:43:08Z</time>
      </trkpt>
      <trkpt lat="45.95632" lon="4.75711">
        <ele>187</ele>
        <time>2017-06-03T09:43:09Z</time>
      </trkpt>
      <trkpt lat="45.95631" lon="4.75704">
        <ele>187</ele>
        <time>2017-06-03T09:43:10Z</time>
      </trkpt>
      <trkpt lat="45.95629" lon="4.75696">
        <ele>187</ele>
        <time>2017-06-03T09:43:11Z</time>
      </trkpt>
      <trkpt lat="45.95628" lon="4.75689">
        <ele>187</ele>
        <time>2017-06-03T09:43:12Z</time>
      </trkpt>
      <trkpt lat="45.95627" lon="4.75681">
        <ele>187</ele>
        <time>2017-06-03T09:43:13Z</time>
      </trkpt>
      <trkpt lat="45.95626" lon="4.75672">
        <ele>187</ele>
        <time>2017-06-03T09:43:14Z</time>
      </trkpt>
      <trkpt lat="45.95624" lon="4.75664">
        <ele>188</ele>
        <time>2017-06-03T09:43:15Z</time>
      </trkpt>
      <trkpt lat="45.95623" lon="4.75656">
        <ele>188</ele>
        <time>2017-06-03T09:43:16Z</time>
      </trkpt>
      <trkpt lat="45.95621" lon="4.75647">
        <ele>188</ele>
        <time>2017-06-03T09:43:17Z</time>
      </trkpt>
      <trkpt lat="45.95619" lon="4.75639">
        <ele>188</ele>
        <time>2017-06-03T09:43:18Z</time>
      </trkpt>
      <trkpt lat="45.95617" lon="4.75632">
        <ele>188</ele>
        <time>2017-06-03T09:43:19Z</time>
      </trkpt>
      <trkpt lat="45.95614" lon="4.75624">
        <ele>188</ele>
        <time>2017-06-03T09:43:20Z</time>
      </trkpt>
      <trkpt lat="45.95612" lon="4.75617">
        <ele>188</ele>
        <time>2017-06-03T09:43:21Z</time>
      </trkpt>
      <trkpt lat="45.9561" lon="4.75609">
        <ele>188</ele>
        <time>2017-06-03T09:43:22Z</time>
      </trkpt>
      <trkpt lat="45.95607" lon="4.75602">
        <ele>187</ele>
        <time>2017-06-03T09:43:23Z</time>
      </trkpt>
      <trkpt lat="45.95605" lon="4.75595">
        <ele>187</ele>
        <time>2017-06-03T09:43:24Z</time>
      </trkpt>
      <trkpt lat="45.95602" lon="4.75588">
        <ele>187</ele>
        <time>2017-06-03T09:43:25Z</time>
      </trkpt>
      <trkpt lat="45.95599" lon="4.75582">
        <ele>188</ele>
        <time>2017-06-03T09:43:26Z</time>
      </trkpt>
      <trkpt lat="45.95596" lon="4.75575">
        <ele>188</ele>
        <time>2017-06-03T09:43:27Z</time>
      </trkpt>
      <trkpt lat="45.95592" lon="4.75569">
        <ele>188</ele>
        <time>2017-06-03T09:43:28Z</time>
      </trkpt>
      <trkpt lat="45.95589" lon="4.75563">
        <ele>188</ele>
        <time>2017-06-03T09:43:29Z</time>
      </trkpt>
      <trkpt lat="45.95585" lon="4.75556">
        <ele>188</ele>
        <time>2017-06-03T09:43:30Z</time>
      </trkpt>
      <trkpt lat="45.95581" lon="4.75551">
        <ele>186</ele>
        <time>2017-06-03T09:43:31Z</time>
      </trkpt>
      <trkpt lat="45.95576" lon="4.75545">
        <ele>186</ele>
        <time>2017-06-03T09:43:32Z</time>
      </trkpt>
      <trkpt lat="45.95572" lon="4.7554">
        <ele>186</ele>
        <time>2017-06-03T09:43:33Z</time>
      </trkpt>
      <trkpt lat="45.95567" lon="4.75535">
        <ele>186</ele>
        <time>2017-06-03T09:43:34Z</time>
      </trkpt>
      <trkpt lat="45.95562" lon="4.7553">
        <ele>186</ele>
        <time>2017-06-03T09:43:35Z</time>
      </trkpt>
      <trkpt lat="45.95557" lon="4.75525">
        <ele>186</ele>
        <time>2017-06-03T09:43:36Z</time>
      </trkpt>
      <trkpt lat="45.95553" lon="4.75519">
        <ele>186</ele>
        <time>2017-06-03T09:43:37Z</time>
      </trkpt>
      <trkpt lat="45.95548" lon="4.75514">
        <ele>186</ele>
        <time>2017-06-03T09:43:38Z</time>
      </trkpt>
      <trkpt lat="45.95544" lon="4.75509">
        <ele>186</ele>
        <time>2017-06-03T09:43:39Z</time>
      </trkpt>
      <trkpt lat="45.95539" lon="4.75499">
        <ele>187</ele>
        <time>2017-06-03T09:43:41Z</time>
      </trkpt>
      <trkpt lat="45.95538" lon="4.75494">
        <ele>187</ele>
        <time>2017-06-03T09:43:42Z</time>
      </trkpt>
      <trkpt lat="45.95538" lon="4.75485">
        <ele>187</ele>
        <time>2017-06-03T09:43:44Z</time>
      </trkpt>
      <trkpt lat="45.95539" lon="4.7548">
        <ele>187</ele>
        <time>2017-06-03T09:43:45Z</time>
      </trkpt>
      <trkpt lat="45.95539" lon="4.75468">
        <ele>187</ele>
        <time>2017-06-03T09:43:47Z</time>
      </trkpt>
      <trkpt lat="45.95537" lon="4.75462">
        <ele>187</ele>
        <time>2017-06-03T09:43:48Z</time>
      </trkpt>
      <trkpt lat="45.95535" lon="4.75455">
        <ele>187</ele>
        <time>2017-06-03T09:43:49Z</time>
      </trkpt>
      <trkpt lat="45.95531" lon="4.7545">
        <ele>187</ele>
        <time>2017-06-03T09:43:50Z</time>
      </trkpt>
      <trkpt lat="45.95526" lon="4.75445">
        <ele>187</ele>
        <time>2017-06-03T09:43:51Z</time>
      </trkpt>
      <trkpt lat="45.95521" lon="4.7544">
        <ele>187</ele>
        <time>2017-06-03T09:43:52Z</time>
      </trkpt>
      <trkpt lat="45.95517" lon="4.75434">
        <ele>187</ele>
        <time>2017-06-03T09:43:53Z</time>
      </trkpt>
      <trkpt lat="45.95514" lon="4.75428">
        <ele>186</ele>
        <time>2017-06-03T09:43:54Z</time>
      </trkpt>
      <trkpt lat="45.95512" lon="4.75421">
        <ele>186</ele>
        <time>2017-06-03T09:43:55Z</time>
      </trkpt>
      <trkpt lat="45.9551" lon="4.75414">
        <ele>187</ele>
        <time>2017-06-03T09:43:56Z</time>
      </trkpt>
      <trkpt lat="45.95507" lon="4.75407">
        <ele>187</ele>
        <time>2017-06-03T09:43:57Z</time>
      </trkpt>
      <trkpt lat="45.95505" lon="4.754">
        <ele>187</ele>
        <time>2017-06-03T09:43:58Z</time>
      </trkpt>
      <trkpt lat="45.95502" lon="4.75393">
        <ele>188</ele>
        <time>2017-06-03T09:43:59Z</time>
      </trkpt>
      <trkpt lat="45.95499" lon="4.75386">
        <ele>185</ele>
        <time>2017-06-03T09:44:00Z</time>
      </trkpt>
      <trkpt lat="45.95497" lon="4.75378">
        <ele>185</ele>
        <time>2017-06-03T09:44:01Z</time>
      </trkpt>
      <trkpt lat="45.95494" lon="4.75371">
        <ele>186</ele>
        <time>2017-06-03T09:44:02Z</time>
      </trkpt>
      <trkpt lat="45.9549" lon="4.75364">
        <ele>186</ele>
        <time>2017-06-03T09:44:03Z</time>
      </trkpt>
      <trkpt lat="45.95487" lon="4.75357">
        <ele>186</ele>
        <time>2017-06-03T09:44:04Z</time>
      </trkpt>
      <trkpt lat="45.95483" lon="4.7535">
        <ele>186</ele>
        <time>2017-06-03T09:44:05Z</time>
      </trkpt>
      <trkpt lat="45.95479" lon="4.75342">
        <ele>186</ele>
        <time>2017-06-03T09:44:06Z</time>
      </trkpt>
      <trkpt lat="45.95475" lon="4.75335">
        <ele>186</ele>
        <time>2017-06-03T09:44:07Z</time>
      </trkpt>
      <trkpt lat="45.95471" lon="4.75327">
        <ele>188</ele>
        <time>2017-06-03T09:44:08Z</time>
      </trkpt>
      <trkpt lat="45.95467" lon="4.75319">
        <ele>188</ele>
        <time>2017-06-03T09:44:09Z</time>
      </trkpt>
      <trkpt lat="45.95463" lon="4.75311">
        <ele>188</ele>
        <time>2017-06-03T09:44:10Z</time>
      </trkpt>
      <trkpt lat="45.95459" lon="4.75304">
        <ele>188</ele>
        <time>2017-06-03T09:44:11Z</time>
      </trkpt>
      <trkpt lat="45.95455" lon="4.75297">
        <ele>188</ele>
        <time>2017-06-03T09:44:12Z</time>
      </trkpt>
      <trkpt lat="45.95451" lon="4.7529">
        <ele>188</ele>
        <time>2017-06-03T09:44:13Z</time>
      </trkpt>
      <trkpt lat="45.95448" lon="4.75284">
        <ele>188</ele>
        <time>2017-06-03T09:44:14Z</time>
      </trkpt>
      <trkpt lat="45.95445" lon="4.75278">
        <ele>189</ele>
        <time>2017-06-03T09:44:15Z</time>
      </trkpt>
      <trkpt lat="45.95442" lon="4.75272">
        <ele>189</ele>
        <time>2017-06-03T09:44:16Z</time>
      </trkpt>
      <trkpt lat="45.95437" lon="4.75262">
        <ele>189</ele>
        <time>2017-06-03T09:44:18Z</time>
      </trkpt>
      <trkpt lat="45.95434" lon="4.75257">
        <ele>189</ele>
        <time>2017-06-03T09:44:19Z</time>
      </trkpt>
      <trkpt lat="45.95428" lon="4.75248">
        <ele>190</ele>
        <time>2017-06-03T09:44:21Z</time>
      </trkpt>
      <trkpt lat="45.95425" lon="4.75242">
        <ele>190</ele>
        <time>2017-06-03T09:44:22Z</time>
      </trkpt>
      <trkpt lat="45.95422" lon="4.75236">
        <ele>190</ele>
        <time>2017-06-03T09:44:23Z</time>
      </trkpt>
      <trkpt lat="45.95419" lon="4.75231">
        <ele>190</ele>
        <time>2017-06-03T09:44:24Z</time>
      </trkpt>
      <trkpt lat="45.95416" lon="4.75225">
        <ele>189</ele>
        <time>2017-06-03T09:44:25Z</time>
      </trkpt>
      <trkpt lat="45.95412" lon="4.75219">
        <ele>189</ele>
        <time>2017-06-03T09:44:26Z</time>
      </trkpt>
      <trkpt lat="45.95409" lon="4.75213">
        <ele>189</ele>
        <time>2017-06-03T09:44:27Z</time>
      </trkpt>
      <trkpt lat="45.95406" lon="4.75207">
        <ele>189</ele>
        <time>2017-06-03T09:44:28Z</time>
      </trkpt>
      <trkpt lat="45.95402" lon="4.752">
        <ele>189</ele>
        <time>2017-06-03T09:44:29Z</time>
      </trkpt>
      <trkpt lat="45.95399" lon="4.75194">
        <ele>189</ele>
        <time>2017-06-03T09:44:30Z</time>
      </trkpt>
      <trkpt lat="45.95396" lon="4.75188">
        <ele>189</ele>
        <time>2017-06-03T09:44:31Z</time>
      </trkpt>
      <trkpt lat="45.95393" lon="4.75182">
        <ele>189</ele>
        <time>2017-06-03T09:44:32Z</time>
      </trkpt>
      <trkpt lat="45.9539" lon="4.75177">
        <ele>189</ele>
        <time>2017-06-03T09:44:33Z</time>
      </trkpt>
      <trkpt lat="45.95387" lon="4.75172">
        <ele>189</ele>
        <time>2017-06-03T09:44:34Z</time>
      </trkpt>
      <trkpt lat="45.95384" lon="4.75167">
        <ele>191</ele>
        <time>2017-06-03T09:44:35Z</time>
      </trkpt>
      <trkpt lat="45.95381" lon="4.75162">
        <ele>191</ele>
        <time>2017-06-03T09:44:36Z</time>
      </trkpt>
      <trkpt lat="45.95378" lon="4.75157">
        <ele>191</ele>
        <time>2017-06-03T09:44:37Z</time>
      </trkpt>
      <trkpt lat="45.95375" lon="4.75152">
        <ele>191</ele>
        <time>2017-06-03T09:44:38Z</time>
      </trkpt>
      <trkpt lat="45.95371" lon="4.75147">
        <ele>191</ele>
        <time>2017-06-03T09:44:39Z</time>
      </trkpt>
      <trkpt lat="45.95368" lon="4.75141">
        <ele>191</ele>
        <time>2017-06-03T09:44:40Z</time>
      </trkpt>
      <trkpt lat="45.95364" lon="4.75135">
        <ele>191</ele>
        <time>2017-06-03T09:44:41Z</time>
      </trkpt>
      <trkpt lat="45.95361" lon="4.75129">
        <ele>191</ele>
        <time>2017-06-03T09:44:42Z</time>
      </trkpt>
      <trkpt lat="45.95357" lon="4.75123">
        <ele>191</ele>
        <time>2017-06-03T09:44:43Z</time>
      </trkpt>
      <trkpt lat="45.95353" lon="4.75117">
        <ele>192</ele>
        <time>2017-06-03T09:44:44Z</time>
      </trkpt>
      <trkpt lat="45.95349" lon="4.75111">
        <ele>192</ele>
        <time>2017-06-03T09:44:45Z</time>
      </trkpt>
      <trkpt lat="45.95345" lon="4.75105">
        <ele>192</ele>
        <time>2017-06-03T09:44:46Z</time>
      </trkpt>
      <trkpt lat="45.95341" lon="4.75098">
        <ele>192</ele>
        <time>2017-06-03T09:44:47Z</time>
      </trkpt>
      <trkpt lat="45.95337" lon="4.75092">
        <ele>193</ele>
        <time>2017-06-03T09:44:48Z</time>
      </trkpt>
      <trkpt lat="45.95333" lon="4.75085">
        <ele>193</ele>
        <time>2017-06-03T09:44:49Z</time>
      </trkpt>
      <trkpt lat="45.95329" lon="4.75079">
        <ele>193</ele>
        <time>2017-06-03T09:44:50Z</time>
      </trkpt>
      <trkpt lat="45.95325" lon="4.75073">
        <ele>192</ele>
        <time>2017-06-03T09:44:51Z</time>
      </trkpt>
      <trkpt lat="45.95321" lon="4.75067">
        <ele>192</ele>
        <time>2017-06-03T09:44:52Z</time>
      </trkpt>
      <trkpt lat="45.95317" lon="4.75061">
        <ele>192</ele>
        <time>2017-06-03T09:44:53Z</time>
      </trkpt>
      <trkpt lat="45.95314" lon="4.75056">
        <ele>192</ele>
        <time>2017-06-03T09:44:54Z</time>
      </trkpt>
      <trkpt lat="45.9531" lon="4.75051">
        <ele>192</ele>
        <time>2017-06-03T09:44:55Z</time>
      </trkpt>
      <trkpt lat="45.95307" lon="4.75046">
        <ele>192</ele>
        <time>2017-06-03T09:44:56Z</time>
      </trkpt>
      <trkpt lat="45.95304" lon="4.75041">
        <ele>192</ele>
        <time>2017-06-03T09:44:57Z</time>
      </trkpt>
      <trkpt lat="45.95301" lon="4.75036">
        <ele>191</ele>
        <time>2017-06-03T09:44:58Z</time>
      </trkpt>
      <trkpt lat="45.95298" lon="4.75031">
        <ele>191</ele>
        <time>2017-06-03T09:44:59Z</time>
      </trkpt>
      <trkpt lat="45.95295" lon="4.75026">
        <ele>191</ele>
        <time>2017-06-03T09:45:00Z</time>
      </trkpt>
      <trkpt lat="45.95289" lon="4.75018">
        <ele>191</ele>
        <time>2017-06-03T09:45:02Z</time>
      </trkpt>
      <trkpt lat="45.95287" lon="4.75013">
        <ele>191</ele>
        <time>2017-06-03T09:45:03Z</time>
      </trkpt>
      <trkpt lat="45.95281" lon="4.75005">
        <ele>191</ele>
        <time>2017-06-03T09:45:05Z</time>
      </trkpt>
      <trkpt lat="45.95278" lon="4.75">
        <ele>192</ele>
        <time>2017-06-03T09:45:06Z</time>
      </trkpt>
      <trkpt lat="45.95275" lon="4.74995">
        <ele>192</ele>
        <time>2017-06-03T09:45:07Z</time>
      </trkpt>
      <trkpt lat="45.95271" lon="4.7499">
        <ele>192</ele>
        <time>2017-06-03T09:45:08Z</time>
      </trkpt>
      <trkpt lat="45.95267" lon="4.74984">
        <ele>192</ele>
        <time>2017-06-03T09:45:09Z</time>
      </trkpt>
      <trkpt lat="45.95263" lon="4.74978">
        <ele>192</ele>
        <time>2017-06-03T09:45:10Z</time>
      </trkpt>
      <trkpt lat="45.95259" lon="4.74971">
        <ele>192</ele>
        <time>2017-06-03T09:45:11Z</time>
      </trkpt>
      <trkpt lat="45.95255" lon="4.74965">
        <ele>192</ele>
        <time>2017-06-03T09:45:12Z</time>
      </trkpt>
      <trkpt lat="45.95251" lon="4.74958">
        <ele>192</ele>
        <time>2017-06-03T09:45:13Z</time>
      </trkpt>
      <trkpt lat="45.95247" lon="4.74951">
        <ele>192</ele>
        <time>2017-06-03T09:45:14Z</time>
      </trkpt>
      <trkpt lat="45.95242" lon="4.74944">
        <ele>192</ele>
        <time>2017-06-03T09:45:15Z</time>
      </trkpt>
      <trkpt lat="45.95238" lon="4.74937">
        <ele>192</ele>
        <time>2017-06-03T09:45:16Z</time>
      </trkpt>
      <trkpt lat="45.95234" lon="4.74931">
        <ele>192</ele>
        <time>2017-06-03T09:45:17Z</time>
      </trkpt>
      <trkpt lat="45.9523" lon="4.74925">
        <ele>192</ele>
        <time>2017-06-03T09:45:18Z</time>
      </trkpt>
      <trkpt lat="45.95226" lon="4.74919">
        <ele>192</ele>
        <time>2017-06-03T09:45:19Z</time>
      </trkpt>
      <trkpt lat="45.95222" lon="4.74913">
        <ele>193</ele>
        <time>2017-06-03T09:45:20Z</time>
      </trkpt>
      <trkpt lat="45.95219" lon="4.74908">
        <ele>193</ele>
        <time>2017-06-03T09:45:21Z</time>
      </trkpt>
      <trkpt lat="45.95216" lon="4.74902">
        <ele>193</ele>
        <time>2017-06-03T09:45:22Z</time>
      </trkpt>
      <trkpt lat="45.95213" lon="4.74897">
        <ele>193</ele>
        <time>2017-06-03T09:45:23Z</time>
      </trkpt>
      <trkpt lat="45.9521" lon="4.74891">
        <ele>193</ele>
        <time>2017-06-03T09:45:24Z</time>
      </trkpt>
      <trkpt lat="45.95207" lon="4.74886">
        <ele>194</ele>
        <time>2017-06-03T09:45:25Z</time>
      </trkpt>
      <trkpt lat="45.95204" lon="4.74881">
        <ele>194</ele>
        <time>2017-06-03T09:45:26Z</time>
      </trkpt>
      <trkpt lat="45.95201" lon="4.74876">
        <ele>194</ele>
        <time>2017-06-03T09:45:27Z</time>
      </trkpt>
      <trkpt lat="45.95198" lon="4.74871">
        <ele>194</ele>
        <time>2017-06-03T09:45:28Z</time>
      </trkpt>
      <trkpt lat="45.95195" lon="4.74866">
        <ele>194</ele>
        <time>2017-06-03T09:45:29Z</time>
      </trkpt>
      <trkpt lat="45.95192" lon="4.74861">
        <ele>194</ele>
        <time>2017-06-03T09:45:30Z</time>
      </trkpt>
      <trkpt lat="45.95188" lon="4.74855">
        <ele>194</ele>
        <time>2017-06-03T09:45:31Z</time>
      </trkpt>
      <trkpt lat="45.95185" lon="4.74849">
        <ele>194</ele>
        <time>2017-06-03T09:45:32Z</time>
      </trkpt>
      <trkpt lat="45.95181" lon="4.74843">
        <ele>194</ele>
        <time>2017-06-03T09:45:33Z</time>
      </trkpt>
      <trkpt lat="45.95178" lon="4.74838">
        <ele>194</ele>
        <time>2017-06-03T09:45:34Z</time>
      </trkpt>
      <trkpt lat="45.95174" lon="4.74832">
        <ele>194</ele>
        <time>2017-06-03T09:45:35Z</time>
      </trkpt>
      <trkpt lat="45.95171" lon="4.74827">
        <ele>194</ele>
        <time>2017-06-03T09:45:36Z</time>
      </trkpt>
      <trkpt lat="45.95167" lon="4.74821">
        <ele>194</ele>
        <time>2017-06-03T09:45:37Z</time>
      </trkpt>
      <trkpt lat="45.95163" lon="4.74816">
        <ele>194</ele>
        <time>2017-06-03T09:45:38Z</time>
      </trkpt>
      <trkpt lat="45.9516" lon="4.7481">
        <ele>194</ele>
        <time>2017-06-03T09:45:39Z</time>
      </trkpt>
      <trkpt lat="45.95157" lon="4.74805">
        <ele>194</ele>
        <time>2017-06-03T09:45:40Z</time>
      </trkpt>
      <trkpt lat="45.95153" lon="4.74799">
        <ele>194</ele>
        <time>2017-06-03T09:45:41Z</time>
      </trkpt>
      <trkpt lat="45.95149" lon="4.74793">
        <ele>194</ele>
        <time>2017-06-03T09:45:42Z</time>
      </trkpt>
      <trkpt lat="45.95146" lon="4.74787">
        <ele>194</ele>
        <time>2017-06-03T09:45:43Z</time>
      </trkpt>
      <trkpt lat="45.95142" lon="4.74781">
        <ele>194</ele>
        <time>2017-06-03T09:45:44Z</time>
      </trkpt>
      <trkpt lat="45.95138" lon="4.74775">
        <ele>194</ele>
        <time>2017-06-03T09:45:45Z</time>
      </trkpt>
      <trkpt lat="45.95134" lon="4.7477">
        <ele>194</ele>
        <time>2017-06-03T09:45:46Z</time>
      </trkpt>
      <trkpt lat="45.95131" lon="4.74764">
        <ele>194</ele>
        <time>2017-06-03T09:45:47Z</time>
      </trkpt>
      <trkpt lat="45.95128" lon="4.74758">
        <ele>194</ele>
        <time>2017-06-03T09:45:48Z</time>
      </trkpt>
      <trkpt lat="45.95124" lon="4.74752">
        <ele>194</ele>
        <time>2017-06-03T09:45:49Z</time>
      </trkpt>
      <trkpt lat="45.95121" lon="4.74746">
        <ele>194</ele>
        <time>2017-06-03T09:45:50Z</time>
      </trkpt>
      <trkpt lat="45.95118" lon="4.7474">
        <ele>194</ele>
        <time>2017-06-03T09:45:51Z</time>
      </trkpt>
      <trkpt lat="45.95114" lon="4.74734">
        <ele>194</ele>
        <time>2017-06-03T09:45:52Z</time>
      </trkpt>
      <trkpt lat="45.9511" lon="4.74727">
        <ele>194</ele>
        <time>2017-06-03T09:45:53Z</time>
      </trkpt>
      <trkpt lat="45.95107" lon="4.7472">
        <ele>194</ele>
        <time>2017-06-03T09:45:54Z</time>
      </trkpt>
      <trkpt lat="45.95103" lon="4.74712">
        <ele>194</ele>
        <time>2017-06-03T09:45:55Z</time>
      </trkpt>
      <trkpt lat="45.95098" lon="4.74705">
        <ele>194</ele>
        <time>2017-06-03T09:45:56Z</time>
      </trkpt>
      <trkpt lat="45.95093" lon="4.74698">
        <ele>194</ele>
        <time>2017-06-03T09:45:57Z</time>
      </trkpt>
      <trkpt lat="45.95088" lon="4.74691">
        <ele>195</ele>
        <time>2017-06-03T09:45:58Z</time>
      </trkpt>
      <trkpt lat="45.95083" lon="4.74684">
        <ele>194</ele>
        <time>2017-06-03T09:45:59Z</time>
      </trkpt>
      <trkpt lat="45.95079" lon="4.74676">
        <ele>194</ele>
        <time>2017-06-03T09:46:00Z</time>
      </trkpt>
      <trkpt lat="45.95075" lon="4.74669">
        <ele>195</ele>
        <time>2017-06-03T09:46:01Z</time>
      </trkpt>
      <trkpt lat="45.95071" lon="4.74662">
        <ele>195</ele>
        <time>2017-06-03T09:46:02Z</time>
      </trkpt>
      <trkpt lat="45.95067" lon="4.74655">
        <ele>195</ele>
        <time>2017-06-03T09:46:03Z</time>
      </trkpt>
      <trkpt lat="45.95063" lon="4.74648">
        <ele>195</ele>
        <time>2017-06-03T09:46:04Z</time>
      </trkpt>
      <trkpt lat="45.95059" lon="4.74642">
        <ele>194</ele>
        <time>2017-06-03T09:46:05Z</time>
      </trkpt>
      <trkpt lat="45.95056" lon="4.74635">
        <ele>194</ele>
        <time>2017-06-03T09:46:06Z</time>
      </trkpt>
      <trkpt lat="45.95053" lon="4.74629">
        <ele>194</ele>
        <time>2017-06-03T09:46:07Z</time>
      </trkpt>
      <trkpt lat="45.95049" lon="4.74623">
        <ele>194</ele>
        <time>2017-06-03T09:46:08Z</time>
      </trkpt>
      <trkpt lat="45.95046" lon="4.74617">
        <ele>194</ele>
        <time>2017-06-03T09:46:09Z</time>
      </trkpt>
      <trkpt lat="45.95043" lon="4.74611">
        <ele>194</ele>
        <time>2017-06-03T09:46:10Z</time>
      </trkpt>
      <trkpt lat="45.95041" lon="4.74605">
        <ele>194</ele>
        <time>2017-06-03T09:46:11Z</time>
      </trkpt>
      <trkpt lat="45.95038" lon="4.746">
        <ele>194</ele>
        <time>2017-06-03T09:46:12Z</time>
      </trkpt>
      <trkpt lat="45.95035" lon="4.74595">
        <ele>194</ele>
        <time>2017-06-03T09:46:13Z</time>
      </trkpt>
      <trkpt lat="45.95032" lon="4.74589">
        <ele>194</ele>
        <time>2017-06-03T09:46:14Z</time>
      </trkpt>
      <trkpt lat="45.9503" lon="4.74583">
        <ele>194</ele>
        <time>2017-06-03T09:46:15Z</time>
      </trkpt>
      <trkpt lat="45.95027" lon="4.74578">
        <ele>194</ele>
        <time>2017-06-03T09:46:16Z</time>
      </trkpt>
      <trkpt lat="45.95024" lon="4.74572">
        <ele>194</ele>
        <time>2017-06-03T09:46:17Z</time>
      </trkpt>
      <trkpt lat="45.95021" lon="4.74567">
        <ele>194</ele>
        <time>2017-06-03T09:46:18Z</time>
      </trkpt>
      <trkpt lat="45.95018" lon="4.74561">
        <ele>194</ele>
        <time>2017-06-03T09:46:19Z</time>
      </trkpt>
      <trkpt lat="45.95014" lon="4.74555">
        <ele>194</ele>
        <time>2017-06-03T09:46:20Z</time>
      </trkpt>
      <trkpt lat="45.9501" lon="4.74548">
        <ele>194</ele>
        <time>2017-06-03T09:46:21Z</time>
      </trkpt>
      <trkpt lat="45.95007" lon="4.74542">
        <ele>194</ele>
        <time>2017-06-03T09:46:22Z</time>
      </trkpt>
      <trkpt lat="45.95003" lon="4.74535">
        <ele>194</ele>
        <time>2017-06-03T09:46:23Z</time>
      </trkpt>
      <trkpt lat="45.94999" lon="4.74527">
        <ele>193</ele>
        <time>2017-06-03T09:46:24Z</time>
      </trkpt>
      <trkpt lat="45.94995" lon="4.7452">
        <ele>193</ele>
        <time>2017-06-03T09:46:25Z</time>
      </trkpt>
      <trkpt lat="45.94991" lon="4.74513">
        <ele>193</ele>
        <time>2017-06-03T09:46:26Z</time>
      </trkpt>
      <trkpt lat="45.94987" lon="4.74506">
        <ele>193</ele>
        <time>2017-06-03T09:46:27Z</time>
      </trkpt>
      <trkpt lat="45.94984" lon="4.74499">
        <ele>193</ele>
        <time>2017-06-03T09:46:28Z</time>
      </trkpt>
      <trkpt lat="45.9498" lon="4.74492">
        <ele>193</ele>
        <time>2017-06-03T09:46:29Z</time>
      </trkpt>
      <trkpt lat="45.94976" lon="4.74485">
        <ele>193</ele>
        <time>2017-06-03T09:46:30Z</time>
      </trkpt>
      <trkpt lat="45.94973" lon="4.74478">
        <ele>193</ele>
        <time>2017-06-03T09:46:31Z</time>
      </trkpt>
      <trkpt lat="45.94969" lon="4.74471">
        <ele>193</ele>
        <time>2017-06-03T09:46:32Z</time>
      </trkpt>
      <trkpt lat="45.94965" lon="4.74464">
        <ele>193</ele>
        <time>2017-06-03T09:46:33Z</time>
      </trkpt>
      <trkpt lat="45.94961" lon="4.74456">
        <ele>192</ele>
        <time>2017-06-03T09:46:34Z</time>
      </trkpt>
      <trkpt lat="45.94957" lon="4.74449">
        <ele>192</ele>
        <time>2017-06-03T09:46:35Z</time>
      </trkpt>
      <trkpt lat="45.94953" lon="4.7444">
        <ele>192</ele>
        <time>2017-06-03T09:46:36Z</time>
      </trkpt>
      <trkpt lat="45.94949" lon="4.74433">
        <ele>192</ele>
        <time>2017-06-03T09:46:37Z</time>
      </trkpt>
      <trkpt lat="45.94945" lon="4.74425">
        <ele>192</ele>
        <time>2017-06-03T09:46:38Z</time>
      </trkpt>
      <trkpt lat="45.94941" lon="4.74417">
        <ele>192</ele>
        <time>2017-06-03T09:46:39Z</time>
      </trkpt>
      <trkpt lat="45.94938" lon="4.7441">
        <ele>192</ele>
        <time>2017-06-03T09:46:40Z</time>
      </trkpt>
      <trkpt lat="45.94934" lon="4.74402">
        <ele>192</ele>
        <time>2017-06-03T09:46:41Z</time>
      </trkpt>
      <trkpt lat="45.9493" lon="4.74396">
        <ele>192</ele>
        <time>2017-06-03T09:46:42Z</time>
      </trkpt>
      <trkpt lat="45.94926" lon="4.74389">
        <ele>192</ele>
        <time>2017-06-03T09:46:43Z</time>
      </trkpt>
      <trkpt lat="45.94923" lon="4.74382">
        <ele>192</ele>
        <time>2017-06-03T09:46:44Z</time>
      </trkpt>
      <trkpt lat="45.94919" lon="4.74375">
        <ele>192</ele>
        <time>2017-06-03T09:46:45Z</time>
      </trkpt>
      <trkpt lat="45.94916" lon="4.74369">
        <ele>191</ele>
        <time>2017-06-03T09:46:46Z</time>
      </trkpt>
      <trkpt lat="45.94913" lon="4.74362">
        <ele>191</ele>
        <time>2017-06-03T09:46:47Z</time>
      </trkpt>
      <trkpt lat="45.94909" lon="4.74355">
        <ele>191</ele>
        <time>2017-06-03T09:46:48Z</time>
      </trkpt>
      <trkpt lat="45.94905" lon="4.74349">
        <ele>191</ele>
        <time>2017-06-03T09:46:49Z</time>
      </trkpt>
      <trkpt lat="45.94901" lon="4.74342">
        <ele>191</ele>
        <time>2017-06-03T09:46:50Z</time>
      </trkpt>
      <trkpt lat="45.94897" lon="4.74334">
        <ele>191</ele>
        <time>2017-06-03T09:46:51Z</time>
      </trkpt>
      <trkpt lat="45.94893" lon="4.74327">
        <ele>191</ele>
        <time>2017-06-03T09:46:52Z</time>
      </trkpt>
      <trkpt lat="45.9489" lon="4.7432">
        <ele>191</ele>
        <time>2017-06-03T09:46:53Z</time>
      </trkpt>
      <trkpt lat="45.94886" lon="4.74313">
        <ele>191</ele>
        <time>2017-06-03T09:46:54Z</time>
      </trkpt>
      <trkpt lat="45.94882" lon="4.74306">
        <ele>191</ele>
        <time>2017-06-03T09:46:55Z</time>
      </trkpt>
      <trkpt lat="45.94878" lon="4.74299">
        <ele>191</ele>
        <time>2017-06-03T09:46:56Z</time>
      </trkpt>
      <trkpt lat="45.94875" lon="4.74292">
        <ele>191</ele>
        <time>2017-06-03T09:46:57Z</time>
      </trkpt>
      <trkpt lat="45.94871" lon="4.74285">
        <ele>191</ele>
        <time>2017-06-03T09:46:58Z</time>
      </trkpt>
      <trkpt lat="45.94867" lon="4.74278">
        <ele>191</ele>
        <time>2017-06-03T09:46:59Z</time>
      </trkpt>
      <trkpt lat="45.94864" lon="4.74271">
        <ele>190</ele>
        <time>2017-06-03T09:47:00Z</time>
      </trkpt>
      <trkpt lat="45.9486" lon="4.74264">
        <ele>190</ele>
        <time>2017-06-03T09:47:01Z</time>
      </trkpt>
      <trkpt lat="45.94856" lon="4.74257">
        <ele>190</ele>
        <time>2017-06-03T09:47:02Z</time>
      </trkpt>
      <trkpt lat="45.94853" lon="4.7425">
        <ele>190</ele>
        <time>2017-06-03T09:47:03Z</time>
      </trkpt>
      <trkpt lat="45.9485" lon="4.74241">
        <ele>190</ele>
        <time>2017-06-03T09:47:04Z</time>
      </trkpt>
      <trkpt lat="45.94846" lon="4.74233">
        <ele>190</ele>
        <time>2017-06-03T09:47:05Z</time>
      </trkpt>
      <trkpt lat="45.94841" lon="4.74224">
        <ele>190</ele>
        <time>2017-06-03T09:47:06Z</time>
      </trkpt>
      <trkpt lat="45.94837" lon="4.74216">
        <ele>190</ele>
        <time>2017-06-03T09:47:07Z</time>
      </trkpt>
      <trkpt lat="45.94832" lon="4.74208">
        <ele>189</ele>
        <time>2017-06-03T09:47:08Z</time>
      </trkpt>
      <trkpt lat="45.94828" lon="4.74201">
        <ele>189</ele>
        <time>2017-06-03T09:47:09Z</time>
      </trkpt>
      <trkpt lat="45.94823" lon="4.74194">
        <ele>189</ele>
        <time>2017-06-03T09:47:10Z</time>
      </trkpt>
      <trkpt lat="45.94819" lon="4.74186">
        <ele>189</ele>
        <time>2017-06-03T09:47:11Z</time>
      </trkpt>
      <trkpt lat="45.94815" lon="4.74179">
        <ele>189</ele>
        <time>2017-06-03T09:47:12Z</time>
      </trkpt>
      <trkpt lat="45.94811" lon="4.74172">
        <ele>189</ele>
        <time>2017-06-03T09:47:13Z</time>
      </trkpt>
      <trkpt lat="45.94807" lon="4.74165">
        <ele>189</ele>
        <time>2017-06-03T09:47:14Z</time>
      </trkpt>
      <trkpt lat="45.94803" lon="4.74158">
        <ele>189</ele>
        <time>2017-06-03T09:47:15Z</time>
      </trkpt>
      <trkpt lat="45.94799" lon="4.74151">
        <ele>189</ele>
        <time>2017-06-03T09:47:16Z</time>
      </trkpt>
      <trkpt lat="45.94795" lon="4.74145">
        <ele>189</ele>
        <time>2017-06-03T09:47:17Z</time>
      </trkpt>
      <trkpt lat="45.94791" lon="4.74138">
        <ele>189</ele>
        <time>2017-06-03T09:47:18Z</time>
      </trkpt>
      <trkpt lat="45.94788" lon="4.74132">
        <ele>189</ele>
        <time>2017-06-03T09:47:19Z</time>
      </trkpt>
      <trkpt lat="45.94784" lon="4.74126">
        <ele>189</ele>
        <time>2017-06-03T09:47:20Z</time>
      </trkpt>
      <trkpt lat="45.94781" lon="4.7412">
        <ele>189</ele>
        <time>2017-06-03T09:47:21Z</time>
      </trkpt>
      <trkpt lat="45.94777" lon="4.74115">
        <ele>189</ele>
        <time>2017-06-03T09:47:22Z</time>
      </trkpt>
      <trkpt lat="45.94773" lon="4.74109">
        <ele>189</ele>
        <time>2017-06-03T09:47:23Z</time>
      </trkpt>
      <trkpt lat="45.94769" lon="4.74103">
        <ele>189</ele>
        <time>2017-06-03T09:47:24Z</time>
      </trkpt>
      <trkpt lat="45.94764" lon="4.74097">
        <ele>189</ele>
        <time>2017-06-03T09:47:25Z</time>
      </trkpt>
      <trkpt lat="45.9476" lon="4.7409">
        <ele>189</ele>
        <time>2017-06-03T09:47:26Z</time>
      </trkpt>
      <trkpt lat="45.94754" lon="4.74084">
        <ele>189</ele>
        <time>2017-06-03T09:47:27Z</time>
      </trkpt>
      <trkpt lat="45.94749" lon="4.74077">
        <ele>189</ele>
        <time>2017-06-03T09:47:28Z</time>
      </trkpt>
      <trkpt lat="45.94744" lon="4.7407">
        <ele>188</ele>
        <time>2017-06-03T09:47:29Z</time>
      </trkpt>
      <trkpt lat="45.94738" lon="4.74063">
        <ele>188</ele>
        <time>2017-06-03T09:47:30Z</time>
      </trkpt>
      <trkpt lat="45.94733" lon="4.74056">
        <ele>188</ele>
        <time>2017-06-03T09:47:31Z</time>
      </trkpt>
      <trkpt lat="45.94728" lon="4.74049">
        <ele>188</ele>
        <time>2017-06-03T09:47:32Z</time>
      </trkpt>
      <trkpt lat="45.94723" lon="4.74043">
        <ele>187</ele>
        <time>2017-06-03T09:47:33Z</time>
      </trkpt>
      <trkpt lat="45.94718" lon="4.74036">
        <ele>187</ele>
        <time>2017-06-03T09:47:34Z</time>
      </trkpt>
      <trkpt lat="45.94713" lon="4.7403">
        <ele>187</ele>
        <time>2017-06-03T09:47:35Z</time>
      </trkpt>
      <trkpt lat="45.94709" lon="4.74024">
        <ele>187</ele>
        <time>2017-06-03T09:47:36Z</time>
      </trkpt>
      <trkpt lat="45.94705" lon="4.74018">
        <ele>187</ele>
        <time>2017-06-03T09:47:37Z</time>
      </trkpt>
      <trkpt lat="45.947" lon="4.74012">
        <ele>187</ele>
        <time>2017-06-03T09:47:38Z</time>
      </trkpt>
      <trkpt lat="45.94696" lon="4.74006">
        <ele>187</ele>
        <time>2017-06-03T09:47:39Z</time>
      </trkpt>
      <trkpt lat="45.94692" lon="4.74001">
        <ele>187</ele>
        <time>2017-06-03T09:47:40Z</time>
      </trkpt>
      <trkpt lat="45.94688" lon="4.73995">
        <ele>187</ele>
        <time>2017-06-03T09:47:41Z</time>
      </trkpt>
      <trkpt lat="45.94684" lon="4.73989">
        <ele>187</ele>
        <time>2017-06-03T09:47:42Z</time>
      </trkpt>
      <trkpt lat="45.94679" lon="4.73984">
        <ele>187</ele>
        <time>2017-06-03T09:47:43Z</time>
      </trkpt>
      <trkpt lat="45.94675" lon="4.73978">
        <ele>187</ele>
        <time>2017-06-03T09:47:44Z</time>
      </trkpt>
      <trkpt lat="45.94671" lon="4.73972">
        <ele>187</ele>
        <time>2017-06-03T09:47:45Z</time>
      </trkpt>
      <trkpt lat="45.94666" lon="4.73967">
        <ele>187</ele>
        <time>2017-06-03T09:47:46Z</time>
      </trkpt>
      <trkpt lat="45.94662" lon="4.73961">
        <ele>187</ele>
        <time>2017-06-03T09:47:47Z</time>
      </trkpt>
      <trkpt lat="45.94658" lon="4.73955">
        <ele>187</ele>
        <time>2017-06-03T09:47:48Z</time>
      </trkpt>
      <trkpt lat="45.94654" lon="4.7395">
        <ele>187</ele>
        <time>2017-06-03T09:47:49Z</time>
      </trkpt>
      <trkpt lat="45.9465" lon="4.73944">
        <ele>187</ele>
        <time>2017-06-03T09:47:50Z</time>
      </trkpt>
      <trkpt lat="45.94646" lon="4.73939">
        <ele>187</ele>
        <time>2017-06-03T09:47:51Z</time>
      </trkpt>
      <trkpt lat="45.94642" lon="4.73933">
        <ele>187</ele>
        <time>2017-06-03T09:47:52Z</time>
      </trkpt>
      <trkpt lat="45.94638" lon="4.73928">
        <ele>187</ele>
        <time>2017-06-03T09:47:53Z</time>
      </trkpt>
      <trkpt lat="45.94633" lon="4.73923">
        <ele>187</ele>
        <time>2017-06-03T09:47:54Z</time>
      </trkpt>
      <trkpt lat="45.94629" lon="4.73917">
        <ele>187</ele>
        <time>2017-06-03T09:47:55Z</time>
      </trkpt>
      <trkpt lat="45.94625" lon="4.73912">
        <ele>187</ele>
        <time>2017-06-03T09:47:56Z</time>
      </trkpt>
      <trkpt lat="45.9462" lon="4.73907">
        <ele>187</ele>
        <time>2017-06-03T09:47:57Z</time>
      </trkpt>
      <trkpt lat="45.94616" lon="4.73901">
        <ele>187</ele>
        <time>2017-06-03T09:47:58Z</time>
      </trkpt>
      <trkpt lat="45.94612" lon="4.73896">
        <ele>187</ele>
        <time>2017-06-03T09:47:59Z</time>
      </trkpt>
      <trkpt lat="45.94608" lon="4.7389">
        <ele>187</ele>
        <time>2017-06-03T09:48:00Z</time>
      </trkpt>
      <trkpt lat="45.94603" lon="4.73885">
        <ele>187</ele>
        <time>2017-06-03T09:48:01Z</time>
      </trkpt>
      <trkpt lat="45.94599" lon="4.7388">
        <ele>187</ele>
        <time>2017-06-03T09:48:02Z</time>
      </trkpt>
      <trkpt lat="45.94594" lon="4.73875">
        <ele>187</ele>
        <time>2017-06-03T09:48:03Z</time>
      </trkpt>
      <trkpt lat="45.9459" lon="4.7387">
        <ele>187</ele>
        <time>2017-06-03T09:48:04Z</time>
      </trkpt>
      <trkpt lat="45.94585" lon="4.73865">
        <ele>187</ele>
        <time>2017-06-03T09:48:05Z</time>
      </trkpt>
      <trkpt lat="45.94581" lon="4.73859">
        <ele>186</ele>
        <time>2017-06-03T09:48:06Z</time>
      </trkpt>
      <trkpt lat="45.94576" lon="4.73854">
        <ele>186</ele>
        <time>2017-06-03T09:48:07Z</time>
      </trkpt>
      <trkpt lat="45.94572" lon="4.73849">
        <ele>186</ele>
        <time>2017-06-03T09:48:08Z</time>
      </trkpt>
      <trkpt lat="45.94567" lon="4.73845">
        <ele>186</ele>
        <time>2017-06-03T09:48:09Z</time>
      </trkpt>
      <trkpt lat="45.94562" lon="4.7384">
        <ele>186</ele>
        <time>2017-06-03T09:48:10Z</time>
      </trkpt>
      <trkpt lat="45.94558" lon="4.73835">
        <ele>186</ele>
        <time>2017-06-03T09:48:11Z</time>
      </trkpt>
      <trkpt lat="45.94553" lon="4.7383">
        <ele>186</ele>
        <time>2017-06-03T09:48:12Z</time>
      </trkpt>
      <trkpt lat="45.94548" lon="4.73826">
        <ele>186</ele>
        <time>2017-06-03T09:48:13Z</time>
      </trkpt>
      <trkpt lat="45.94543" lon="4.73822">
        <ele>186</ele>
        <time>2017-06-03T09:48:14Z</time>
      </trkpt>
      <trkpt lat="45.94539" lon="4.73818">
        <ele>186</ele>
        <time>2017-06-03T09:48:15Z</time>
      </trkpt>
      <trkpt lat="45.94534" lon="4.73814">
        <ele>186</ele>
        <time>2017-06-03T09:48:16Z</time>
      </trkpt>
      <trkpt lat="45.9453" lon="4.73809">
        <ele>186</ele>
        <time>2017-06-03T09:48:17Z</time>
      </trkpt>
      <trkpt lat="45.94526" lon="4.73805">
        <ele>186</ele>
        <time>2017-06-03T09:48:18Z</time>
      </trkpt>
      <trkpt lat="45.94521" lon="4.738">
        <ele>186</ele>
        <time>2017-06-03T09:48:19Z</time>
      </trkpt>
      <trkpt lat="45.94517" lon="4.73796">
        <ele>186</ele>
        <time>2017-06-03T09:48:20Z</time>
      </trkpt>
      <trkpt lat="45.94513" lon="4.73791">
        <ele>186</ele>
        <time>2017-06-03T09:48:21Z</time>
      </trkpt>
      <trkpt lat="45.94509" lon="4.73787">
        <ele>186</ele>
        <time>2017-06-03T09:48:22Z</time>
      </trkpt>
      <trkpt lat="45.94505" lon="4.73782">
        <ele>186</ele>
        <time>2017-06-03T09:48:23Z</time>
      </trkpt>
      <trkpt lat="45.94501" lon="4.73777">
        <ele>186</ele>
        <time>2017-06-03T09:48:24Z</time>
      </trkpt>
      <trkpt lat="45.94497" lon="4.73772">
        <ele>186</ele>
        <time>2017-06-03T09:48:25Z</time>
      </trkpt>
      <trkpt lat="45.94494" lon="4.73768">
        <ele>186</ele>
        <time>2017-06-03T09:48:26Z</time>
      </trkpt>
      <trkpt lat="45.9449" lon="4.73763">
        <ele>186</ele>
        <time>2017-06-03T09:48:27Z</time>
      </trkpt>
      <trkpt lat="45.94488" lon="4.73758">
        <ele>186</ele>
        <time>2017-06-03T09:48:28Z</time>
      </trkpt>
      <trkpt lat="45.94485" lon="4.73745">
        <ele>186</ele>
        <time>2017-06-03T09:48:30Z</time>
      </trkpt>
      <trkpt lat="45.94485" lon="4.73739">
        <ele>186</ele>
        <time>2017-06-03T09:48:31Z</time>
      </trkpt>
      <trkpt lat="45.94486" lon="4.73732">
        <ele>186</ele>
        <time>2017-06-03T09:48:32Z</time>
      </trkpt>
      <trkpt lat="45.94486" lon="4.73725">
        <ele>186</ele>
        <time>2017-06-03T09:48:33Z</time>
      </trkpt>
      <trkpt lat="45.94487" lon="4.73719">
        <ele>186</ele>
        <time>2017-06-03T09:48:34Z</time>
      </trkpt>
      <trkpt lat="45.94488" lon="4.73712">
        <ele>186</ele>
        <time>2017-06-03T09:48:35Z</time>
      </trkpt>
      <trkpt lat="45.94489" lon="4.73705">
        <ele>186</ele>
        <time>2017-06-03T09:48:36Z</time>
      </trkpt>
      <trkpt lat="45.94491" lon="4.73697">
        <ele>186</ele>
        <time>2017-06-03T09:48:37Z</time>
      </trkpt>
      <trkpt lat="45.94492" lon="4.73689">
        <ele>186</ele>
        <time>2017-06-03T09:48:38Z</time>
      </trkpt>
      <trkpt lat="45.94493" lon="4.73681">
        <ele>185</ele>
        <time>2017-06-03T09:48:39Z</time>
      </trkpt>
      <trkpt lat="45.94494" lon="4.73672">
        <ele>185</ele>
        <time>2017-06-03T09:48:40Z</time>
      </trkpt>
      <trkpt lat="45.94496" lon="4.73664">
        <ele>185</ele>
        <time>2017-06-03T09:48:41Z</time>
      </trkpt>
      <trkpt lat="45.94497" lon="4.73656">
        <ele>185</ele>
        <time>2017-06-03T09:48:42Z</time>
      </trkpt>
      <trkpt lat="45.94498" lon="4.73648">
        <ele>185</ele>
        <time>2017-06-03T09:48:43Z</time>
      </trkpt>
      <trkpt lat="45.94499" lon="4.7364">
        <ele>186</ele>
        <time>2017-06-03T09:48:44Z</time>
      </trkpt>
      <trkpt lat="45.945" lon="4.73632">
        <ele>186</ele>
        <time>2017-06-03T09:48:45Z</time>
      </trkpt>
      <trkpt lat="45.94501" lon="4.73623">
        <ele>184</ele>
        <time>2017-06-03T09:48:46Z</time>
      </trkpt>
      <trkpt lat="45.94502" lon="4.73615">
        <ele>184</ele>
        <time>2017-06-03T09:48:47Z</time>
      </trkpt>
      <trkpt lat="45.94502" lon="4.73606">
        <ele>184</ele>
        <time>2017-06-03T09:48:48Z</time>
      </trkpt>
      <trkpt lat="45.94503" lon="4.73597">
        <ele>184</ele>
        <time>2017-06-03T09:48:49Z</time>
      </trkpt>
      <trkpt lat="45.94503" lon="4.73588">
        <ele>185</ele>
        <time>2017-06-03T09:48:50Z</time>
      </trkpt>
      <trkpt lat="45.94504" lon="4.7358">
        <ele>185</ele>
        <time>2017-06-03T09:48:51Z</time>
      </trkpt>
      <trkpt lat="45.94504" lon="4.73571">
        <ele>184</ele>
        <time>2017-06-03T09:48:52Z</time>
      </trkpt>
      <trkpt lat="45.94504" lon="4.73562">
        <ele>184</ele>
        <time>2017-06-03T09:48:53Z</time>
      </trkpt>
      <trkpt lat="45.94505" lon="4.73553">
        <ele>183</ele>
        <time>2017-06-03T09:48:54Z</time>
      </trkpt>
      <trkpt lat="45.94505" lon="4.73544">
        <ele>183</ele>
        <time>2017-06-03T09:48:55Z</time>
      </trkpt>
      <trkpt lat="45.94506" lon="4.73534">
        <ele>183</ele>
        <time>2017-06-03T09:48:56Z</time>
      </trkpt>
      <trkpt lat="45.94506" lon="4.73525">
        <ele>183</ele>
        <time>2017-06-03T09:48:57Z</time>
      </trkpt>
      <trkpt lat="45.94506" lon="4.73515">
        <ele>183</ele>
        <time>2017-06-03T09:48:58Z</time>
      </trkpt>
      <trkpt lat="45.94505" lon="4.73505">
        <ele>183</ele>
        <time>2017-06-03T09:48:59Z</time>
      </trkpt>
      <trkpt lat="45.94505" lon="4.73495">
        <ele>182</ele>
        <time>2017-06-03T09:49:00Z</time>
      </trkpt>
      <trkpt lat="45.94505" lon="4.73485">
        <ele>182</ele>
        <time>2017-06-03T09:49:01Z</time>
      </trkpt>
      <trkpt lat="45.94505" lon="4.73475">
        <ele>182</ele>
        <time>2017-06-03T09:49:02Z</time>
      </trkpt>
      <trkpt lat="45.94506" lon="4.73464">
        <ele>181</ele>
        <time>2017-06-03T09:49:03Z</time>
      </trkpt>
      <trkpt lat="45.94506" lon="4.73454">
        <ele>181</ele>
        <time>2017-06-03T09:49:04Z</time>
      </trkpt>
      <trkpt lat="45.94506" lon="4.73443">
        <ele>181</ele>
        <time>2017-06-03T09:49:05Z</time>
      </trkpt>
      <trkpt lat="45.94505" lon="4.73432">
        <ele>181</ele>
        <time>2017-06-03T09:49:06Z</time>
      </trkpt>
      <trkpt lat="45.94504" lon="4.73422">
        <ele>180</ele>
        <time>2017-06-03T09:49:07Z</time>
      </trkpt>
      <trkpt lat="45.94504" lon="4.73411">
        <ele>180</ele>
        <time>2017-06-03T09:49:08Z</time>
      </trkpt>
      <trkpt lat="45.94503" lon="4.73399">
        <ele>179</ele>
        <time>2017-06-03T09:49:09Z</time>
      </trkpt>
      <trkpt lat="45.94502" lon="4.73388">
        <ele>179</ele>
        <time>2017-06-03T09:49:10Z</time>
      </trkpt>
      <trkpt lat="45.94501" lon="4.73377">
        <ele>178</ele>
        <time>2017-06-03T09:49:11Z</time>
      </trkpt>
      <trkpt lat="45.945" lon="4.73365">
        <ele>178</ele>
        <time>2017-06-03T09:49:12Z</time>
      </trkpt>
      <trkpt lat="45.94499" lon="4.73353">
        <ele>178</ele>
        <time>2017-06-03T09:49:13Z</time>
      </trkpt>
      <trkpt lat="45.94498" lon="4.73341">
        <ele>178</ele>
        <time>2017-06-03T09:49:14Z</time>
      </trkpt>
      <trkpt lat="45.94496" lon="4.7333">
        <ele>177</ele>
        <time>2017-06-03T09:49:15Z</time>
      </trkpt>
      <trkpt lat="45.94495" lon="4.73318">
        <ele>177</ele>
        <time>2017-06-03T09:49:16Z</time>
      </trkpt>
      <trkpt lat="45.94493" lon="4.73306">
        <ele>177</ele>
        <time>2017-06-03T09:49:17Z</time>
      </trkpt>
      <trkpt lat="45.94492" lon="4.73294">
        <ele>177</ele>
        <time>2017-06-03T09:49:18Z</time>
      </trkpt>
      <trkpt lat="45.94491" lon="4.73282">
        <ele>177</ele>
        <time>2017-06-03T09:49:19Z</time>
      </trkpt>
      <trkpt lat="45.9449" lon="4.7327">
        <ele>177</ele>
        <time>2017-06-03T09:49:20Z</time>
      </trkpt>
      <trkpt lat="45.94488" lon="4.73258">
        <ele>176</ele>
        <time>2017-06-03T09:49:21Z</time>
      </trkpt>
      <trkpt lat="45.94487" lon="4.73247">
        <ele>175</ele>
        <time>2017-06-03T09:49:22Z</time>
      </trkpt>
      <trkpt lat="45.94485" lon="4.73235">
        <ele>175</ele>
        <time>2017-06-03T09:49:23Z</time>
      </trkpt>
      <trkpt lat="45.94483" lon="4.73223">
        <ele>175</ele>
        <time>2017-06-03T09:49:24Z</time>
      </trkpt>
      <trkpt lat="45.94482" lon="4.73211">
        <ele>175</ele>
        <time>2017-06-03T09:49:25Z</time>
      </trkpt>
      <trkpt lat="45.9448" lon="4.732">
        <ele>174</ele>
        <time>2017-06-03T09:49:26Z</time>
      </trkpt>
      <trkpt lat="45.94478" lon="4.73188">
        <ele>174</ele>
        <time>2017-06-03T09:49:27Z</time>
      </trkpt>
      <trkpt lat="45.94476" lon="4.73177">
        <ele>174</ele>
        <time>2017-06-03T09:49:28Z</time>
      </trkpt>
      <trkpt lat="45.94475" lon="4.73165">
        <ele>173</ele>
        <time>2017-06-03T09:49:29Z</time>
      </trkpt>
      <trkpt lat="45.94473" lon="4.73153">
        <ele>172</ele>
        <time>2017-06-03T09:49:30Z</time>
      </trkpt>
      <trkpt lat="45.94472" lon="4.73142">
        <ele>172</ele>
        <time>2017-06-03T09:49:31Z</time>
      </trkpt>
      <trkpt lat="45.9447" lon="4.73132">
        <ele>172</ele>
        <time>2017-06-03T09:49:32Z</time>
      </trkpt>
      <trkpt lat="45.94469" lon="4.73121">
        <ele>172</ele>
        <time>2017-06-03T09:49:33Z</time>
      </trkpt>
      <trkpt lat="45.94468" lon="4.73111">
        <ele>172</ele>
        <time>2017-06-03T09:49:34Z</time>
      </trkpt>
      <trkpt lat="45.94466" lon="4.731">
        <ele>172</ele>
        <time>2017-06-03T09:49:35Z</time>
      </trkpt>
      <trkpt lat="45.94465" lon="4.73091">
        <ele>171</ele>
        <time>2017-06-03T09:49:36Z</time>
      </trkpt>
      <trkpt lat="45.94463" lon="4.73081">
        <ele>170</ele>
        <time>2017-06-03T09:49:37Z</time>
      </trkpt>
      <trkpt lat="45.94462" lon="4.73072">
        <ele>170</ele>
        <time>2017-06-03T09:49:38Z</time>
      </trkpt>
      <trkpt lat="45.94461" lon="4.73063">
        <ele>170</ele>
        <time>2017-06-03T09:49:39Z</time>
      </trkpt>
      <trkpt lat="45.9446" lon="4.73055">
        <ele>170</ele>
        <time>2017-06-03T09:49:40Z</time>
      </trkpt>
      <trkpt lat="45.94459" lon="4.73047">
        <ele>170</ele>
        <time>2017-06-03T09:49:41Z</time>
      </trkpt>
      <trkpt lat="45.94458" lon="4.7304">
        <ele>169</ele>
        <time>2017-06-03T09:49:42Z</time>
      </trkpt>
      <trkpt lat="45.94457" lon="4.73032">
        <ele>169</ele>
        <time>2017-06-03T09:49:43Z</time>
      </trkpt>
      <trkpt lat="45.94456" lon="4.73024">
        <ele>169</ele>
        <time>2017-06-03T09:49:44Z</time>
      </trkpt>
      <trkpt lat="45.94455" lon="4.73017">
        <ele>169</ele>
        <time>2017-06-03T09:49:45Z</time>
      </trkpt>
      <trkpt lat="45.94454" lon="4.73009">
        <ele>169</ele>
        <time>2017-06-03T09:49:46Z</time>
      </trkpt>
      <trkpt lat="45.94453" lon="4.73001">
        <ele>169</ele>
        <time>2017-06-03T09:49:47Z</time>
      </trkpt>
      <trkpt lat="45.94452" lon="4.72993">
        <ele>167</ele>
        <time>2017-06-03T09:49:48Z</time>
      </trkpt>
      <trkpt lat="45.94451" lon="4.72986">
        <ele>167</ele>
        <time>2017-06-03T09:49:49Z</time>
      </trkpt>
      <trkpt lat="45.9445" lon="4.72978">
        <ele>167</ele>
        <time>2017-06-03T09:49:50Z</time>
      </trkpt>
      <trkpt lat="45.94449" lon="4.7297">
        <ele>167</ele>
        <time>2017-06-03T09:49:51Z</time>
      </trkpt>
      <trkpt lat="45.94448" lon="4.72963">
        <ele>167</ele>
        <time>2017-06-03T09:49:52Z</time>
      </trkpt>
      <trkpt lat="45.94447" lon="4.72955">
        <ele>167</ele>
        <time>2017-06-03T09:49:53Z</time>
      </trkpt>
      <trkpt lat="45.94446" lon="4.72947">
        <ele>167</ele>
        <time>2017-06-03T09:49:54Z</time>
      </trkpt>
      <trkpt lat="45.94445" lon="4.72939">
        <ele>167</ele>
        <time>2017-06-03T09:49:55Z</time>
      </trkpt>
      <trkpt lat="45.94444" lon="4.72932">
        <ele>167</ele>
        <time>2017-06-03T09:49:56Z</time>
      </trkpt>
      <trkpt lat="45.94443" lon="4.72924">
        <ele>167</ele>
        <time>2017-06-03T09:49:57Z</time>
      </trkpt>
      <trkpt lat="45.94442" lon="4.72916">
        <ele>166</ele>
        <time>2017-06-03T09:49:58Z</time>
      </trkpt>
      <trkpt lat="45.94441" lon="4.72909">
        <ele>166</ele>
        <time>2017-06-03T09:49:59Z</time>
      </trkpt>
      <trkpt lat="45.9444" lon="4.72901">
        <ele>166</ele>
        <time>2017-06-03T09:50:00Z</time>
      </trkpt>
      <trkpt lat="45.94439" lon="4.72894">
        <ele>166</ele>
        <time>2017-06-03T09:50:01Z</time>
      </trkpt>
      <trkpt lat="45.94438" lon="4.72888">
        <ele>166</ele>
        <time>2017-06-03T09:50:02Z</time>
      </trkpt>
      <trkpt lat="45.94437" lon="4.72881">
        <ele>166</ele>
        <time>2017-06-03T09:50:03Z</time>
      </trkpt>
      <trkpt lat="45.94436" lon="4.72874">
        <ele>166</ele>
        <time>2017-06-03T09:50:04Z</time>
      </trkpt>
      <trkpt lat="45.94435" lon="4.72867">
        <ele>166</ele>
        <time>2017-06-03T09:50:05Z</time>
      </trkpt>
      <trkpt lat="45.94434" lon="4.72859">
        <ele>166</ele>
        <time>2017-06-03T09:50:06Z</time>
      </trkpt>
      <trkpt lat="45.94433" lon="4.72852">
        <ele>166</ele>
        <time>2017-06-03T09:50:07Z</time>
      </trkpt>
      <trkpt lat="45.94432" lon="4.72844">
        <ele>166</ele>
        <time>2017-06-03T09:50:08Z</time>
      </trkpt>
      <trkpt lat="45.9443" lon="4.72835">
        <ele>166</ele>
        <time>2017-06-03T09:50:09Z</time>
      </trkpt>
      <trkpt lat="45.94429" lon="4.72827">
        <ele>167</ele>
        <time>2017-06-03T09:50:10Z</time>
      </trkpt>
      <trkpt lat="45.94428" lon="4.72818">
        <ele>167</ele>
        <time>2017-06-03T09:50:11Z</time>
      </trkpt>
      <trkpt lat="45.94427" lon="4.72809">
        <ele>167</ele>
        <time>2017-06-03T09:50:12Z</time>
      </trkpt>
      <trkpt lat="45.94426" lon="4.72799">
        <ele>167</ele>
        <time>2017-06-03T09:50:13Z</time>
      </trkpt>
      <trkpt lat="45.94425" lon="4.72789">
        <ele>168</ele>
        <time>2017-06-03T09:50:14Z</time>
      </trkpt>
      <trkpt lat="45.94423" lon="4.7278">
        <ele>168</ele>
        <time>2017-06-03T09:50:15Z</time>
      </trkpt>
      <trkpt lat="45.94422" lon="4.72769">
        <ele>169</ele>
        <time>2017-06-03T09:50:16Z</time>
      </trkpt>
      <trkpt lat="45.94421" lon="4.72759">
        <ele>170</ele>
        <time>2017-06-03T09:50:17Z</time>
      </trkpt>
      <trkpt lat="45.94419" lon="4.72748">
        <ele>171</ele>
        <time>2017-06-03T09:50:18Z</time>
      </trkpt>
      <trkpt lat="45.94418" lon="4.72738">
        <ele>171</ele>
        <time>2017-06-03T09:50:19Z</time>
      </trkpt>
      <trkpt lat="45.94417" lon="4.72728">
        <ele>171</ele>
        <time>2017-06-03T09:50:20Z</time>
      </trkpt>
      <trkpt lat="45.94416" lon="4.72717">
        <ele>172</ele>
        <time>2017-06-03T09:50:21Z</time>
      </trkpt>
      <trkpt lat="45.94414" lon="4.72707">
        <ele>172</ele>
        <time>2017-06-03T09:50:22Z</time>
      </trkpt>
      <trkpt lat="45.94413" lon="4.72697">
        <ele>173</ele>
        <time>2017-06-03T09:50:23Z</time>
      </trkpt>
      <trkpt lat="45.94412" lon="4.72687">
        <ele>173</ele>
        <time>2017-06-03T09:50:24Z</time>
      </trkpt>
      <trkpt lat="45.94411" lon="4.72676">
        <ele>173</ele>
        <time>2017-06-03T09:50:25Z</time>
      </trkpt>
      <trkpt lat="45.94409" lon="4.72666">
        <ele>174</ele>
        <time>2017-06-03T09:50:26Z</time>
      </trkpt>
      <trkpt lat="45.94408" lon="4.72656">
        <ele>174</ele>
        <time>2017-06-03T09:50:27Z</time>
      </trkpt>
      <trkpt lat="45.94407" lon="4.72646">
        <ele>174</ele>
        <time>2017-06-03T09:50:28Z</time>
      </trkpt>
      <trkpt lat="45.94405" lon="4.72636">
        <ele>174</ele>
        <time>2017-06-03T09:50:29Z</time>
      </trkpt>
      <trkpt lat="45.94404" lon="4.72626">
        <ele>174</ele>
        <time>2017-06-03T09:50:30Z</time>
      </trkpt>
      <trkpt lat="45.94403" lon="4.72616">
        <ele>173</ele>
        <time>2017-06-03T09:50:31Z</time>
      </trkpt>
      <trkpt lat="45.94402" lon="4.72607">
        <ele>173</ele>
        <time>2017-06-03T09:50:32Z</time>
      </trkpt>
      <trkpt lat="45.94401" lon="4.72598">
        <ele>173</ele>
        <time>2017-06-03T09:50:33Z</time>
      </trkpt>
      <trkpt lat="45.94399" lon="4.72589">
        <ele>173</ele>
        <time>2017-06-03T09:50:34Z</time>
      </trkpt>
      <trkpt lat="45.94398" lon="4.7258">
        <ele>173</ele>
        <time>2017-06-03T09:50:35Z</time>
      </trkpt>
      <trkpt lat="45.94397" lon="4.72571">
        <ele>173</ele>
        <time>2017-06-03T09:50:36Z</time>
      </trkpt>
      <trkpt lat="45.94395" lon="4.72563">
        <ele>173</ele>
        <time>2017-06-03T09:50:37Z</time>
      </trkpt>
      <trkpt lat="45.94394" lon="4.72555">
        <ele>173</ele>
        <time>2017-06-03T09:50:38Z</time>
      </trkpt>
      <trkpt lat="45.94392" lon="4.72547">
        <ele>173</ele>
        <time>2017-06-03T09:50:39Z</time>
      </trkpt>
      <trkpt lat="45.94391" lon="4.72539">
        <ele>174</ele>
        <time>2017-06-03T09:50:40Z</time>
      </trkpt>
      <trkpt lat="45.94389" lon="4.72531">
        <ele>174</ele>
        <time>2017-06-03T09:50:41Z</time>
      </trkpt>
      <trkpt lat="45.94388" lon="4.72523">
        <ele>174</ele>
        <time>2017-06-03T09:50:42Z</time>
      </trkpt>
      <trkpt lat="45.94387" lon="4.72515">
        <ele>174</ele>
        <time>2017-06-03T09:50:43Z</time>
      </trkpt>
      <trkpt lat="45.94384" lon="4.72507">
        <ele>174</ele>
        <time>2017-06-03T09:50:44Z</time>
      </trkpt>
      <trkpt lat="45.94382" lon="4.725">
        <ele>173</ele>
        <time>2017-06-03T09:50:45Z</time>
      </trkpt>
      <trkpt lat="45.9438" lon="4.72492">
        <ele>173</ele>
        <time>2017-06-03T09:50:46Z</time>
      </trkpt>
      <trkpt lat="45.94377" lon="4.72485">
        <ele>173</ele>
        <time>2017-06-03T09:50:47Z</time>
      </trkpt>
      <trkpt lat="45.94374" lon="4.72477">
        <ele>173</ele>
        <time>2017-06-03T09:50:48Z</time>
      </trkpt>
      <trkpt lat="45.94372" lon="4.7247">
        <ele>173</ele>
        <time>2017-06-03T09:50:49Z</time>
      </trkpt>
      <trkpt lat="45.94369" lon="4.72463">
        <ele>173</ele>
        <time>2017-06-03T09:50:50Z</time>
      </trkpt>
      <trkpt lat="45.94366" lon="4.72457">
        <ele>173</ele>
        <time>2017-06-03T09:50:51Z</time>
      </trkpt>
      <trkpt lat="45.94363" lon="4.7245">
        <ele>173</ele>
        <time>2017-06-03T09:50:52Z</time>
      </trkpt>
      <trkpt lat="45.94361" lon="4.72444">
        <ele>173</ele>
        <time>2017-06-03T09:50:53Z</time>
      </trkpt>
      <trkpt lat="45.94358" lon="4.72437">
        <ele>173</ele>
        <time>2017-06-03T09:50:54Z</time>
      </trkpt>
      <trkpt lat="45.94355" lon="4.72431">
        <ele>173</ele>
        <time>2017-06-03T09:50:55Z</time>
      </trkpt>
      <trkpt lat="45.94353" lon="4.72425">
        <ele>173</ele>
        <time>2017-06-03T09:50:56Z</time>
      </trkpt>
      <trkpt lat="45.9435" lon="4.7242">
        <ele>173</ele>
        <time>2017-06-03T09:50:57Z</time>
      </trkpt>
      <trkpt lat="45.94348" lon="4.72414">
        <ele>173</ele>
        <time>2017-06-03T09:50:58Z</time>
      </trkpt>
      <trkpt lat="45.94345" lon="4.72408">
        <ele>173</ele>
        <time>2017-06-03T09:50:59Z</time>
      </trkpt>
      <trkpt lat="45.94342" lon="4.72402">
        <ele>173</ele>
        <time>2017-06-03T09:51:00Z</time>
      </trkpt>
      <trkpt lat="45.94339" lon="4.72395">
        <ele>172</ele>
        <time>2017-06-03T09:51:01Z</time>
      </trkpt>
      <trkpt lat="45.94336" lon="4.72388">
        <ele>172</ele>
        <time>2017-06-03T09:51:02Z</time>
      </trkpt>
      <trkpt lat="45.94333" lon="4.72381">
        <ele>172</ele>
        <time>2017-06-03T09:51:03Z</time>
      </trkpt>
      <trkpt lat="45.9433" lon="4.72374">
        <ele>172</ele>
        <time>2017-06-03T09:51:04Z</time>
      </trkpt>
      <trkpt lat="45.94326" lon="4.72366">
        <ele>172</ele>
        <time>2017-06-03T09:51:05Z</time>
      </trkpt>
      <trkpt lat="45.94323" lon="4.72359">
        <ele>172</ele>
        <time>2017-06-03T09:51:06Z</time>
      </trkpt>
      <trkpt lat="45.9432" lon="4.72352">
        <ele>172</ele>
        <time>2017-06-03T09:51:07Z</time>
      </trkpt>
      <trkpt lat="45.94317" lon="4.72345">
        <ele>172</ele>
        <time>2017-06-03T09:51:08Z</time>
      </trkpt>
      <trkpt lat="45.94314" lon="4.72339">
        <ele>172</ele>
        <time>2017-06-03T09:51:09Z</time>
      </trkpt>
      <trkpt lat="45.94311" lon="4.72332">
        <ele>172</ele>
        <time>2017-06-03T09:51:10Z</time>
      </trkpt>
      <trkpt lat="45.94308" lon="4.72325">
        <ele>171</ele>
        <time>2017-06-03T09:51:11Z</time>
      </trkpt>
      <trkpt lat="45.94305" lon="4.72317">
        <ele>171</ele>
        <time>2017-06-03T09:51:12Z</time>
      </trkpt>
      <trkpt lat="45.94301" lon="4.7231">
        <ele>171</ele>
        <time>2017-06-03T09:51:13Z</time>
      </trkpt>
      <trkpt lat="45.94297" lon="4.72303">
        <ele>171</ele>
        <time>2017-06-03T09:51:14Z</time>
      </trkpt>
      <trkpt lat="45.94294" lon="4.72296">
        <ele>171</ele>
        <time>2017-06-03T09:51:15Z</time>
      </trkpt>
      <trkpt lat="45.9429" lon="4.72289">
        <ele>171</ele>
        <time>2017-06-03T09:51:16Z</time>
      </trkpt>
      <trkpt lat="45.94287" lon="4.72284">
        <ele>171</ele>
        <time>2017-06-03T09:51:17Z</time>
      </trkpt>
      <trkpt lat="45.94283" lon="4.72275">
        <ele>171</ele>
        <time>2017-06-03T09:51:19Z</time>
      </trkpt>
      <trkpt lat="45.94282" lon="4.72271">
        <ele>171</ele>
        <time>2017-06-03T09:51:20Z</time>
      </trkpt>
      <trkpt lat="45.94276" lon="4.72264">
        <ele>171</ele>
        <time>2017-06-03T09:51:23Z</time>
      </trkpt>
      <trkpt lat="45.94273" lon="4.72265">
        <ele>171</ele>
        <time>2017-06-03T09:51:24Z</time>
      </trkpt>
      <trkpt lat="45.94266" lon="4.72271">
        <ele>171</ele>
        <time>2017-06-03T09:51:26Z</time>
      </trkpt>
      <trkpt lat="45.94262" lon="4.72274">
        <ele>171</ele>
        <time>2017-06-03T09:51:27Z</time>
      </trkpt>
      <trkpt lat="45.94258" lon="4.72277">
        <ele>171</ele>
        <time>2017-06-03T09:51:28Z</time>
      </trkpt>
      <trkpt lat="45.94254" lon="4.72279">
        <ele>171</ele>
        <time>2017-06-03T09:51:29Z</time>
      </trkpt>
      <trkpt lat="45.94249" lon="4.72281">
        <ele>171</ele>
        <time>2017-06-03T09:51:30Z</time>
      </trkpt>
      <trkpt lat="45.94243" lon="4.72282">
        <ele>171</ele>
        <time>2017-06-03T09:51:31Z</time>
      </trkpt>
      <trkpt lat="45.94237" lon="4.72284">
        <ele>171</ele>
        <time>2017-06-03T09:51:32Z</time>
      </trkpt>
      <trkpt lat="45.94231" lon="4.72286">
        <ele>171</ele>
        <time>2017-06-03T09:51:33Z</time>
      </trkpt>
      <trkpt lat="45.94224" lon="4.72287">
        <ele>171</ele>
        <time>2017-06-03T09:51:34Z</time>
      </trkpt>
      <trkpt lat="45.94217" lon="4.72288">
        <ele>171</ele>
        <time>2017-06-03T09:51:35Z</time>
      </trkpt>
      <trkpt lat="45.9421" lon="4.72289">
        <ele>171</ele>
        <time>2017-06-03T09:51:36Z</time>
      </trkpt>
      <trkpt lat="45.94204" lon="4.72289">
        <ele>171</ele>
        <time>2017-06-03T09:51:37Z</time>
      </trkpt>
      <trkpt lat="45.94197" lon="4.72289">
        <ele>171</ele>
        <time>2017-06-03T09:51:38Z</time>
      </trkpt>
      <trkpt lat="45.94191" lon="4.72289">
        <ele>171</ele>
        <time>2017-06-03T09:51:39Z</time>
      </trkpt>
      <trkpt lat="45.94185" lon="4.72289">
        <ele>171</ele>
        <time>2017-06-03T09:51:40Z</time>
      </trkpt>
      <trkpt lat="45.94179" lon="4.72288">
        <ele>171</ele>
        <time>2017-06-03T09:51:41Z</time>
      </trkpt>
      <trkpt lat="45.94173" lon="4.72288">
        <ele>171</ele>
        <time>2017-06-03T09:51:42Z</time>
      </trkpt>
      <trkpt lat="45.94168" lon="4.72286">
        <ele>171</ele>
        <time>2017-06-03T09:51:43Z</time>
      </trkpt>
      <trkpt lat="45.94163" lon="4.72285">
        <ele>171</ele>
        <time>2017-06-03T09:51:44Z</time>
      </trkpt>
      <trkpt lat="45.94158" lon="4.72284">
        <ele>171</ele>
        <time>2017-06-03T09:51:45Z</time>
      </trkpt>
      <trkpt lat="45.94153" lon="4.72282">
        <ele>171</ele>
        <time>2017-06-03T09:51:46Z</time>
      </trkpt>
      <trkpt lat="45.94148" lon="4.7228">
        <ele>171</ele>
        <time>2017-06-03T09:51:47Z</time>
      </trkpt>
      <trkpt lat="45.94143" lon="4.72277">
        <ele>171</ele>
        <time>2017-06-03T09:51:48Z</time>
      </trkpt>
      <trkpt lat="45.94139" lon="4.72274">
        <ele>171</ele>
        <time>2017-06-03T09:51:49Z</time>
      </trkpt>
      <trkpt lat="45.94134" lon="4.72271">
        <ele>171</ele>
        <time>2017-06-03T09:51:50Z</time>
      </trkpt>
      <trkpt lat="45.94129" lon="4.72268">
        <ele>171</ele>
        <time>2017-06-03T09:51:51Z</time>
      </trkpt>
      <trkpt lat="45.94124" lon="4.72266">
        <ele>171</ele>
        <time>2017-06-03T09:51:52Z</time>
      </trkpt>
      <trkpt lat="45.94119" lon="4.72264">
        <ele>171</ele>
        <time>2017-06-03T09:51:53Z</time>
      </trkpt>
      <trkpt lat="45.94114" lon="4.72263">
        <ele>171</ele>
        <time>2017-06-03T09:51:54Z</time>
      </trkpt>
      <trkpt lat="45.94108" lon="4.72263">
        <ele>171</ele>
        <time>2017-06-03T09:51:55Z</time>
      </trkpt>
      <trkpt lat="45.94102" lon="4.72263">
        <ele>171</ele>
        <time>2017-06-03T09:51:56Z</time>
      </trkpt>
      <trkpt lat="45.94096" lon="4.72263">
        <ele>171</ele>
        <time>2017-06-03T09:51:57Z</time>
      </trkpt>
      <trkpt lat="45.9409" lon="4.72264">
        <ele>171</ele>
        <time>2017-06-03T09:51:58Z</time>
      </trkpt>
      <trkpt lat="45.94084" lon="4.72267">
        <ele>171</ele>
        <time>2017-06-03T09:51:59Z</time>
      </trkpt>
      <trkpt lat="45.94079" lon="4.7227">
        <ele>171</ele>
        <time>2017-06-03T09:52:00Z</time>
      </trkpt>
      <trkpt lat="45.94074" lon="4.72273">
        <ele>171</ele>
        <time>2017-06-03T09:52:01Z</time>
      </trkpt>
      <trkpt lat="45.94069" lon="4.72278">
        <ele>171</ele>
        <time>2017-06-03T09:52:02Z</time>
      </trkpt>
      <trkpt lat="45.94065" lon="4.72282">
        <ele>171</ele>
        <time>2017-06-03T09:52:03Z</time>
      </trkpt>
      <trkpt lat="45.9406" lon="4.72287">
        <ele>171</ele>
        <time>2017-06-03T09:52:04Z</time>
      </trkpt>
      <trkpt lat="45.94056" lon="4.72293">
        <ele>171</ele>
        <time>2017-06-03T09:52:05Z</time>
      </trkpt>
      <trkpt lat="45.94052" lon="4.72298">
        <ele>171</ele>
        <time>2017-06-03T09:52:06Z</time>
      </trkpt>
      <trkpt lat="45.94048" lon="4.72303">
        <ele>171</ele>
        <time>2017-06-03T09:52:07Z</time>
      </trkpt>
      <trkpt lat="45.94044" lon="4.72308">
        <ele>171</ele>
        <time>2017-06-03T09:52:08Z</time>
      </trkpt>
      <trkpt lat="45.9404" lon="4.72313">
        <ele>171</ele>
        <time>2017-06-03T09:52:09Z</time>
      </trkpt>
      <trkpt lat="45.94036" lon="4.72319">
        <ele>171</ele>
        <time>2017-06-03T09:52:10Z</time>
      </trkpt>
      <trkpt lat="45.94032" lon="4.72324">
        <ele>171</ele>
        <time>2017-06-03T09:52:11Z</time>
      </trkpt>
      <trkpt lat="45.94028" lon="4.72329">
        <ele>171</ele>
        <time>2017-06-03T09:52:12Z</time>
      </trkpt>
      <trkpt lat="45.94023" lon="4.72334">
        <ele>171</ele>
        <time>2017-06-03T09:52:13Z</time>
      </trkpt>
      <trkpt lat="45.94019" lon="4.72341">
        <ele>171</ele>
        <time>2017-06-03T09:52:14Z</time>
      </trkpt>
      <trkpt lat="45.94015" lon="4.72347">
        <ele>171</ele>
        <time>2017-06-03T09:52:15Z</time>
      </trkpt>
      <trkpt lat="45.9401" lon="4.72354">
        <ele>171</ele>
        <time>2017-06-03T09:52:16Z</time>
      </trkpt>
      <trkpt lat="45.94005" lon="4.7236">
        <ele>171</ele>
        <time>2017-06-03T09:52:17Z</time>
      </trkpt>
      <trkpt lat="45.94" lon="4.72365">
        <ele>171</ele>
        <time>2017-06-03T09:52:18Z</time>
      </trkpt>
      <trkpt lat="45.93996" lon="4.72371">
        <ele>171</ele>
        <time>2017-06-03T09:52:19Z</time>
      </trkpt>
      <trkpt lat="45.93992" lon="4.72377">
        <ele>171</ele>
        <time>2017-06-03T09:52:20Z</time>
      </trkpt>
      <trkpt lat="45.93988" lon="4.72382">
        <ele>171</ele>
        <time>2017-06-03T09:52:21Z</time>
      </trkpt>
      <trkpt lat="45.93983" lon="4.72387">
        <ele>171</ele>
        <time>2017-06-03T09:52:22Z</time>
      </trkpt>
      <trkpt lat="45.93979" lon="4.72392">
        <ele>171</ele>
        <time>2017-06-03T09:52:23Z</time>
      </trkpt>
      <trkpt lat="45.93975" lon="4.72397">
        <ele>171</ele>
        <time>2017-06-03T09:52:24Z</time>
      </trkpt>
      <trkpt lat="45.93971" lon="4.72401">
        <ele>171</ele>
        <time>2017-06-03T09:52:25Z</time>
      </trkpt>
      <trkpt lat="45.93967" lon="4.72407">
        <ele>171</ele>
        <time>2017-06-03T09:52:26Z</time>
      </trkpt>
      <trkpt lat="45.93962" lon="4.72412">
        <ele>171</ele>
        <time>2017-06-03T09:52:27Z</time>
      </trkpt>
      <trkpt lat="45.93958" lon="4.72417">
        <ele>171</ele>
        <time>2017-06-03T09:52:28Z</time>
      </trkpt>
      <trkpt lat="45.93953" lon="4.72423">
        <ele>171</ele>
        <time>2017-06-03T09:52:29Z</time>
      </trkpt>
      <trkpt lat="45.93949" lon="4.72429">
        <ele>171</ele>
        <time>2017-06-03T09:52:30Z</time>
      </trkpt>
      <trkpt lat="45.93944" lon="4.72435">
        <ele>171</ele>
        <time>2017-06-03T09:52:31Z</time>
      </trkpt>
      <trkpt lat="45.93939" lon="4.7244">
        <ele>171</ele>
        <time>2017-06-03T09:52:32Z</time>
      </trkpt>
      <trkpt lat="45.93934" lon="4.72446">
        <ele>171</ele>
        <time>2017-06-03T09:52:33Z</time>
      </trkpt>
      <trkpt lat="45.93929" lon="4.72452">
        <ele>171</ele>
        <time>2017-06-03T09:52:34Z</time>
      </trkpt>
      <trkpt lat="45.93925" lon="4.72458">
        <ele>171</ele>
        <time>2017-06-03T09:52:35Z</time>
      </trkpt>
      <trkpt lat="45.9392" lon="4.72464">
        <ele>171</ele>
        <time>2017-06-03T09:52:36Z</time>
      </trkpt>
      <trkpt lat="45.93916" lon="4.72469">
        <ele>172</ele>
        <time>2017-06-03T09:52:37Z</time>
      </trkpt>
      <trkpt lat="45.93911" lon="4.72475">
        <ele>172</ele>
        <time>2017-06-03T09:52:38Z</time>
      </trkpt>
      <trkpt lat="45.93907" lon="4.72479">
        <ele>172</ele>
        <time>2017-06-03T09:52:39Z</time>
      </trkpt>
      <trkpt lat="45.93903" lon="4.72484">
        <ele>172</ele>
        <time>2017-06-03T09:52:40Z</time>
      </trkpt>
      <trkpt lat="45.939" lon="4.72488">
        <ele>172</ele>
        <time>2017-06-03T09:52:41Z</time>
      </trkpt>
      <trkpt lat="45.93893" lon="4.72496">
        <ele>172</ele>
        <time>2017-06-03T09:52:43Z</time>
      </trkpt>
      <trkpt lat="45.9389" lon="4.725">
        <ele>172</ele>
        <time>2017-06-03T09:52:44Z</time>
      </trkpt>
      <trkpt lat="45.93886" lon="4.72505">
        <ele>173</ele>
        <time>2017-06-03T09:52:45Z</time>
      </trkpt>
      <trkpt lat="45.93882" lon="4.72509">
        <ele>173</ele>
        <time>2017-06-03T09:52:46Z</time>
      </trkpt>
      <trkpt lat="45.93875" lon="4.72516">
        <ele>173</ele>
        <time>2017-06-03T09:52:48Z</time>
      </trkpt>
      <trkpt lat="45.93871" lon="4.72518">
        <ele>173</ele>
        <time>2017-06-03T09:52:49Z</time>
      </trkpt>
      <trkpt lat="45.93862" lon="4.72516">
        <ele>173</ele>
        <time>2017-06-03T09:52:51Z</time>
      </trkpt>
      <trkpt lat="45.93859" lon="4.72513">
        <ele>173</ele>
        <time>2017-06-03T09:52:52Z</time>
      </trkpt>
      <trkpt lat="45.93852" lon="4.72506">
        <ele>173</ele>
        <time>2017-06-03T09:52:54Z</time>
      </trkpt>
      <trkpt lat="45.93848" lon="4.72502">
        <ele>174</ele>
        <time>2017-06-03T09:52:55Z</time>
      </trkpt>
      <trkpt lat="45.93845" lon="4.72498">
        <ele>173</ele>
        <time>2017-06-03T09:52:56Z</time>
      </trkpt>
      <trkpt lat="45.93841" lon="4.72493">
        <ele>173</ele>
        <time>2017-06-03T09:52:57Z</time>
      </trkpt>
      <trkpt lat="45.93838" lon="4.72489">
        <ele>173</ele>
        <time>2017-06-03T09:52:58Z</time>
      </trkpt>
      <trkpt lat="45.93833" lon="4.72487">
        <ele>173</ele>
        <time>2017-06-03T09:52:59Z</time>
      </trkpt>
      <trkpt lat="45.93829" lon="4.72481">
        <ele>173</ele>
        <time>2017-06-03T09:53:00Z</time>
      </trkpt>
      <trkpt lat="45.93824" lon="4.72477">
        <ele>173</ele>
        <time>2017-06-03T09:53:01Z</time>
      </trkpt>
      <trkpt lat="45.93818" lon="4.72474">
        <ele>172</ele>
        <time>2017-06-03T09:53:02Z</time>
      </trkpt>
      <trkpt lat="45.93814" lon="4.72471">
        <ele>172</ele>
        <time>2017-06-03T09:53:03Z</time>
      </trkpt>
      <trkpt lat="45.9381" lon="4.72467">
        <ele>172</ele>
        <time>2017-06-03T09:53:04Z</time>
      </trkpt>
      <trkpt lat="45.93806" lon="4.72462">
        <ele>172</ele>
        <time>2017-06-03T09:53:05Z</time>
      </trkpt>
      <trkpt lat="45.93803" lon="4.72457">
        <ele>172</ele>
        <time>2017-06-03T09:53:06Z</time>
      </trkpt>
      <trkpt lat="45.938" lon="4.72453">
        <ele>172</ele>
        <time>2017-06-03T09:53:07Z</time>
      </trkpt>
      <trkpt lat="45.93796" lon="4.72448">
        <ele>172</ele>
        <time>2017-06-03T09:53:08Z</time>
      </trkpt>
      <trkpt lat="45.93792" lon="4.72445">
        <ele>172</ele>
        <time>2017-06-03T09:53:09Z</time>
      </trkpt>
      <trkpt lat="45.93788" lon="4.7244">
        <ele>172</ele>
        <time>2017-06-03T09:53:10Z</time>
      </trkpt>
      <trkpt lat="45.93783" lon="4.72437">
        <ele>172</ele>
        <time>2017-06-03T09:53:11Z</time>
      </trkpt>
      <trkpt lat="45.93778" lon="4.72433">
        <ele>172</ele>
        <time>2017-06-03T09:53:12Z</time>
      </trkpt>
      <trkpt lat="45.93774" lon="4.72429">
        <ele>171</ele>
        <time>2017-06-03T09:53:13Z</time>
      </trkpt>
      <trkpt lat="45.93769" lon="4.72424">
        <ele>171</ele>
        <time>2017-06-03T09:53:14Z</time>
      </trkpt>
      <trkpt lat="45.93765" lon="4.72419">
        <ele>171</ele>
        <time>2017-06-03T09:53:15Z</time>
      </trkpt>
      <trkpt lat="45.9376" lon="4.72414">
        <ele>171</ele>
        <time>2017-06-03T09:53:16Z</time>
      </trkpt>
      <trkpt lat="45.93757" lon="4.72409">
        <ele>171</ele>
        <time>2017-06-03T09:53:17Z</time>
      </trkpt>
      <trkpt lat="45.93753" lon="4.72405">
        <ele>171</ele>
        <time>2017-06-03T09:53:18Z</time>
      </trkpt>
      <trkpt lat="45.93749" lon="4.724">
        <ele>171</ele>
        <time>2017-06-03T09:53:19Z</time>
      </trkpt>
      <trkpt lat="45.93742" lon="4.72394">
        <ele>171</ele>
        <time>2017-06-03T09:53:21Z</time>
      </trkpt>
      <trkpt lat="45.93738" lon="4.72391">
        <ele>171</ele>
        <time>2017-06-03T09:53:22Z</time>
      </trkpt>
      <trkpt lat="45.93731" lon="4.72384">
        <ele>171</ele>
        <time>2017-06-03T09:53:24Z</time>
      </trkpt>
      <trkpt lat="45.93727" lon="4.7238">
        <ele>171</ele>
        <time>2017-06-03T09:53:25Z</time>
      </trkpt>
      <trkpt lat="45.93724" lon="4.72376">
        <ele>171</ele>
        <time>2017-06-03T09:53:26Z</time>
      </trkpt>
      <trkpt lat="45.9372" lon="4.72372">
        <ele>172</ele>
        <time>2017-06-03T09:53:27Z</time>
      </trkpt>
      <trkpt lat="45.93715" lon="4.72368">
        <ele>172</ele>
        <time>2017-06-03T09:53:28Z</time>
      </trkpt>
      <trkpt lat="45.93711" lon="4.72364">
        <ele>172</ele>
        <time>2017-06-03T09:53:29Z</time>
      </trkpt>
      <trkpt lat="45.93706" lon="4.7236">
        <ele>171</ele>
        <time>2017-06-03T09:53:30Z</time>
      </trkpt>
      <trkpt lat="45.93701" lon="4.72356">
        <ele>171</ele>
        <time>2017-06-03T09:53:31Z</time>
      </trkpt>
      <trkpt lat="45.93697" lon="4.72352">
        <ele>171</ele>
        <time>2017-06-03T09:53:32Z</time>
      </trkpt>
      <trkpt lat="45.93693" lon="4.72348">
        <ele>171</ele>
        <time>2017-06-03T09:53:33Z</time>
      </trkpt>
      <trkpt lat="45.93689" lon="4.72343">
        <ele>171</ele>
        <time>2017-06-03T09:53:34Z</time>
      </trkpt>
      <trkpt lat="45.93685" lon="4.72339">
        <ele>171</ele>
        <time>2017-06-03T09:53:35Z</time>
      </trkpt>
      <trkpt lat="45.93682" lon="4.72335">
        <ele>171</ele>
        <time>2017-06-03T09:53:36Z</time>
      </trkpt>
      <trkpt lat="45.93678" lon="4.72331">
        <ele>171</ele>
        <time>2017-06-03T09:53:37Z</time>
      </trkpt>
      <trkpt lat="45.93671" lon="4.72323">
        <ele>171</ele>
        <time>2017-06-03T09:53:39Z</time>
      </trkpt>
      <trkpt lat="45.93668" lon="4.72319">
        <ele>171</ele>
        <time>2017-06-03T09:53:40Z</time>
      </trkpt>
      <trkpt lat="45.93665" lon="4.72315">
        <ele>172</ele>
        <time>2017-06-03T09:53:41Z</time>
      </trkpt>
      <trkpt lat="45.93661" lon="4.7231">
        <ele>172</ele>
        <time>2017-06-03T09:53:42Z</time>
      </trkpt>
      <trkpt lat="45.93656" lon="4.72306">
        <ele>172</ele>
        <time>2017-06-03T09:53:43Z</time>
      </trkpt>
      <trkpt lat="45.93652" lon="4.72301">
        <ele>172</ele>
        <time>2017-06-03T09:53:44Z</time>
      </trkpt>
      <trkpt lat="45.93647" lon="4.72297">
        <ele>172</ele>
        <time>2017-06-03T09:53:45Z</time>
      </trkpt>
      <trkpt lat="45.93642" lon="4.72293">
        <ele>172</ele>
        <time>2017-06-03T09:53:46Z</time>
      </trkpt>
      <trkpt lat="45.93638" lon="4.72288">
        <ele>172</ele>
        <time>2017-06-03T09:53:47Z</time>
      </trkpt>
      <trkpt lat="45.93633" lon="4.72285">
        <ele>172</ele>
        <time>2017-06-03T09:53:48Z</time>
      </trkpt>
      <trkpt lat="45.93629" lon="4.72281">
        <ele>172</ele>
        <time>2017-06-03T09:53:49Z</time>
      </trkpt>
      <trkpt lat="45.93625" lon="4.72277">
        <ele>172</ele>
        <time>2017-06-03T09:53:50Z</time>
      </trkpt>
      <trkpt lat="45.9362" lon="4.72273">
        <ele>172</ele>
        <time>2017-06-03T09:53:51Z</time>
      </trkpt>
      <trkpt lat="45.93615" lon="4.7227">
        <ele>172</ele>
        <time>2017-06-03T09:53:52Z</time>
      </trkpt>
      <trkpt lat="45.93612" lon="4.72267">
        <ele>172</ele>
        <time>2017-06-03T09:53:53Z</time>
      </trkpt>
      <trkpt lat="45.93608" lon="4.72263">
        <ele>173</ele>
        <time>2017-06-03T09:53:54Z</time>
      </trkpt>
      <trkpt lat="45.936" lon="4.72257">
        <ele>173</ele>
        <time>2017-06-03T09:53:56Z</time>
      </trkpt>
      <trkpt lat="45.93596" lon="4.72254">
        <ele>173</ele>
        <time>2017-06-03T09:53:57Z</time>
      </trkpt>
      <trkpt lat="45.93592" lon="4.7225">
        <ele>173</ele>
        <time>2017-06-03T09:53:58Z</time>
      </trkpt>
      <trkpt lat="45.93589" lon="4.72245">
        <ele>173</ele>
        <time>2017-06-03T09:53:59Z</time>
      </trkpt>
      <trkpt lat="45.93583" lon="4.72238">
        <ele>173</ele>
        <time>2017-06-03T09:54:01Z</time>
      </trkpt>
      <trkpt lat="45.93579" lon="4.72234">
        <ele>173</ele>
        <time>2017-06-03T09:54:02Z</time>
      </trkpt>
      <trkpt lat="45.93572" lon="4.72229">
        <ele>173</ele>
        <time>2017-06-03T09:54:04Z</time>
      </trkpt>
      <trkpt lat="45.93569" lon="4.72227">
        <ele>173</ele>
        <time>2017-06-03T09:54:05Z</time>
      </trkpt>
      <trkpt lat="45.93562" lon="4.7222">
        <ele>173</ele>
        <time>2017-06-03T09:54:08Z</time>
      </trkpt>
      <trkpt lat="45.93559" lon="4.72219">
        <ele>173</ele>
        <time>2017-06-03T09:54:09Z</time>
      </trkpt>
      <trkpt lat="45.93551" lon="4.72224">
        <ele>173</ele>
        <time>2017-06-03T09:54:12Z</time>
      </trkpt>
      <trkpt lat="45.9355" lon="4.72227">
        <ele>172</ele>
        <time>2017-06-03T09:54:13Z</time>
      </trkpt>
      <trkpt lat="45.93546" lon="4.72234">
        <ele>172</ele>
        <time>2017-06-03T09:54:15Z</time>
      </trkpt>
      <trkpt lat="45.93544" lon="4.72238">
        <ele>172</ele>
        <time>2017-06-03T09:54:16Z</time>
      </trkpt>
      <trkpt lat="45.93539" lon="4.72248">
        <ele>172</ele>
        <time>2017-06-03T09:54:18Z</time>
      </trkpt>
      <trkpt lat="45.93537" lon="4.72253">
        <ele>172</ele>
        <time>2017-06-03T09:54:19Z</time>
      </trkpt>
      <trkpt lat="45.93535" lon="4.72258">
        <ele>172</ele>
        <time>2017-06-03T09:54:20Z</time>
      </trkpt>
      <trkpt lat="45.93532" lon="4.72264">
        <ele>172</ele>
        <time>2017-06-03T09:54:21Z</time>
      </trkpt>
      <trkpt lat="45.93529" lon="4.72271">
        <ele>172</ele>
        <time>2017-06-03T09:54:22Z</time>
      </trkpt>
      <trkpt lat="45.93526" lon="4.72277">
        <ele>172</ele>
        <time>2017-06-03T09:54:23Z</time>
      </trkpt>
      <trkpt lat="45.93524" lon="4.72284">
        <ele>172</ele>
        <time>2017-06-03T09:54:24Z</time>
      </trkpt>
      <trkpt lat="45.93521" lon="4.72291">
        <ele>172</ele>
        <time>2017-06-03T09:54:25Z</time>
      </trkpt>
      <trkpt lat="45.93517" lon="4.72298">
        <ele>172</ele>
        <time>2017-06-03T09:54:26Z</time>
      </trkpt>
      <trkpt lat="45.93514" lon="4.72305">
        <ele>173</ele>
        <time>2017-06-03T09:54:27Z</time>
      </trkpt>
      <trkpt lat="45.9351" lon="4.72311">
        <ele>173</ele>
        <time>2017-06-03T09:54:28Z</time>
      </trkpt>
      <trkpt lat="45.93505" lon="4.72317">
        <ele>173</ele>
        <time>2017-06-03T09:54:29Z</time>
      </trkpt>
      <trkpt lat="45.93501" lon="4.72324">
        <ele>173</ele>
        <time>2017-06-03T09:54:30Z</time>
      </trkpt>
      <trkpt lat="45.93497" lon="4.7233">
        <ele>173</ele>
        <time>2017-06-03T09:54:31Z</time>
      </trkpt>
      <trkpt lat="45.93492" lon="4.72336">
        <ele>173</ele>
        <time>2017-06-03T09:54:32Z</time>
      </trkpt>
      <trkpt lat="45.93488" lon="4.72342">
        <ele>173</ele>
        <time>2017-06-03T09:54:33Z</time>
      </trkpt>
      <trkpt lat="45.93483" lon="4.72349">
        <ele>173</ele>
        <time>2017-06-03T09:54:34Z</time>
      </trkpt>
      <trkpt lat="45.93479" lon="4.72355">
        <ele>173</ele>
        <time>2017-06-03T09:54:35Z</time>
      </trkpt>
      <trkpt lat="45.93474" lon="4.72361">
        <ele>173</ele>
        <time>2017-06-03T09:54:36Z</time>
      </trkpt>
      <trkpt lat="45.9347" lon="4.72367">
        <ele>173</ele>
        <time>2017-06-03T09:54:37Z</time>
      </trkpt>
      <trkpt lat="45.93466" lon="4.72372">
        <ele>173</ele>
        <time>2017-06-03T09:54:38Z</time>
      </trkpt>
      <trkpt lat="45.93462" lon="4.72378">
        <ele>173</ele>
        <time>2017-06-03T09:54:39Z</time>
      </trkpt>
      <trkpt lat="45.93458" lon="4.72383">
        <ele>173</ele>
        <time>2017-06-03T09:54:40Z</time>
      </trkpt>
      <trkpt lat="45.93454" lon="4.72387">
        <ele>173</ele>
        <time>2017-06-03T09:54:41Z</time>
      </trkpt>
      <trkpt lat="45.93449" lon="4.72391">
        <ele>173</ele>
        <time>2017-06-03T09:54:42Z</time>
      </trkpt>
      <trkpt lat="45.93444" lon="4.72394">
        <ele>173</ele>
        <time>2017-06-03T09:54:43Z</time>
      </trkpt>
      <trkpt lat="45.9344" lon="4.72397">
        <ele>173</ele>
        <time>2017-06-03T09:54:44Z</time>
      </trkpt>
      <trkpt lat="45.93435" lon="4.724">
        <ele>173</ele>
        <time>2017-06-03T09:54:45Z</time>
      </trkpt>
      <trkpt lat="45.93427" lon="4.72404">
        <ele>174</ele>
        <time>2017-06-03T09:54:47Z</time>
      </trkpt>
      <trkpt lat="45.93422" lon="4.72406">
        <ele>174</ele>
        <time>2017-06-03T09:54:48Z</time>
      </trkpt>
      <trkpt lat="45.93418" lon="4.72407">
        <ele>174</ele>
        <time>2017-06-03T09:54:49Z</time>
      </trkpt>
      <trkpt lat="45.93413" lon="4.72408">
        <ele>174</ele>
        <time>2017-06-03T09:54:50Z</time>
      </trkpt>
      <trkpt lat="45.93407" lon="4.72408">
        <ele>174</ele>
        <time>2017-06-03T09:54:51Z</time>
      </trkpt>
      <trkpt lat="45.93402" lon="4.72408">
        <ele>174</ele>
        <time>2017-06-03T09:54:52Z</time>
      </trkpt>
      <trkpt lat="45.93396" lon="4.72408">
        <ele>174</ele>
        <time>2017-06-03T09:54:53Z</time>
      </trkpt>
      <trkpt lat="45.93391" lon="4.7241">
        <ele>174</ele>
        <time>2017-06-03T09:54:54Z</time>
      </trkpt>
      <trkpt lat="45.93387" lon="4.72414">
        <ele>174</ele>
        <time>2017-06-03T09:54:55Z</time>
      </trkpt>
      <trkpt lat="45.93385" lon="4.72421">
        <ele>173</ele>
        <time>2017-06-03T09:54:56Z</time>
      </trkpt>
      <trkpt lat="45.93385" lon="4.72428">
        <ele>173</ele>
        <time>2017-06-03T09:54:57Z</time>
      </trkpt>
      <trkpt lat="45.93386" lon="4.72435">
        <ele>173</ele>
        <time>2017-06-03T09:54:58Z</time>
      </trkpt>
      <trkpt lat="45.93388" lon="4.72442">
        <ele>173</ele>
        <time>2017-06-03T09:54:59Z</time>
      </trkpt>
      <trkpt lat="45.9339" lon="4.72449">
        <ele>173</ele>
        <time>2017-06-03T09:55:00Z</time>
      </trkpt>
      <trkpt lat="45.93391" lon="4.72456">
        <ele>173</ele>
        <time>2017-06-03T09:55:01Z</time>
      </trkpt>
      <trkpt lat="45.93389" lon="4.72463">
        <ele>173</ele>
        <time>2017-06-03T09:55:02Z</time>
      </trkpt>
      <trkpt lat="45.93387" lon="4.72469">
        <ele>173</ele>
        <time>2017-06-03T09:55:03Z</time>
      </trkpt>
      <trkpt lat="45.93383" lon="4.72474">
        <ele>173</ele>
        <time>2017-06-03T09:55:04Z</time>
      </trkpt>
      <trkpt lat="45.9338" lon="4.72479">
        <ele>173</ele>
        <time>2017-06-03T09:55:05Z</time>
      </trkpt>
      <trkpt lat="45.93376" lon="4.72484">
        <ele>173</ele>
        <time>2017-06-03T09:55:06Z</time>
      </trkpt>
      <trkpt lat="45.93372" lon="4.72489">
        <ele>173</ele>
        <time>2017-06-03T09:55:07Z</time>
      </trkpt>
      <trkpt lat="45.93368" lon="4.72494">
        <ele>173</ele>
        <time>2017-06-03T09:55:08Z</time>
      </trkpt>
      <trkpt lat="45.93364" lon="4.72499">
        <ele>173</ele>
        <time>2017-06-03T09:55:09Z</time>
      </trkpt>
      <trkpt lat="45.93359" lon="4.72504">
        <ele>172</ele>
        <time>2017-06-03T09:55:10Z</time>
      </trkpt>
      <trkpt lat="45.93355" lon="4.72509">
        <ele>172</ele>
        <time>2017-06-03T09:55:11Z</time>
      </trkpt>
      <trkpt lat="45.9335" lon="4.72514">
        <ele>172</ele>
        <time>2017-06-03T09:55:12Z</time>
      </trkpt>
      <trkpt lat="45.93346" lon="4.72519">
        <ele>172</ele>
        <time>2017-06-03T09:55:13Z</time>
      </trkpt>
      <trkpt lat="45.93342" lon="4.72523">
        <ele>172</ele>
        <time>2017-06-03T09:55:14Z</time>
      </trkpt>
      <trkpt lat="45.93338" lon="4.72528">
        <ele>172</ele>
        <time>2017-06-03T09:55:15Z</time>
      </trkpt>
      <trkpt lat="45.93334" lon="4.72532">
        <ele>172</ele>
        <time>2017-06-03T09:55:16Z</time>
      </trkpt>
      <trkpt lat="45.9333" lon="4.72537">
        <ele>172</ele>
        <time>2017-06-03T09:55:17Z</time>
      </trkpt>
      <trkpt lat="45.93326" lon="4.72541">
        <ele>172</ele>
        <time>2017-06-03T09:55:18Z</time>
      </trkpt>
      <trkpt lat="45.93319" lon="4.72549">
        <ele>172</ele>
        <time>2017-06-03T09:55:20Z</time>
      </trkpt>
      <trkpt lat="45.93316" lon="4.72553">
        <ele>172</ele>
        <time>2017-06-03T09:55:21Z</time>
      </trkpt>
      <trkpt lat="45.93312" lon="4.72557">
        <ele>172</ele>
        <time>2017-06-03T09:55:22Z</time>
      </trkpt>
      <trkpt lat="45.93309" lon="4.72562">
        <ele>171</ele>
        <time>2017-06-03T09:55:23Z</time>
      </trkpt>
      <trkpt lat="45.93305" lon="4.72567">
        <ele>171</ele>
        <time>2017-06-03T09:55:24Z</time>
      </trkpt>
      <trkpt lat="45.93301" lon="4.72573">
        <ele>171</ele>
        <time>2017-06-03T09:55:25Z</time>
      </trkpt>
      <trkpt lat="45.93296" lon="4.72578">
        <ele>171</ele>
        <time>2017-06-03T09:55:26Z</time>
      </trkpt>
      <trkpt lat="45.93292" lon="4.72582">
        <ele>171</ele>
        <time>2017-06-03T09:55:27Z</time>
      </trkpt>
      <trkpt lat="45.93288" lon="4.72587">
        <ele>170</ele>
        <time>2017-06-03T09:55:28Z</time>
      </trkpt>
      <trkpt lat="45.93284" lon="4.72592">
        <ele>170</ele>
        <time>2017-06-03T09:55:29Z</time>
      </trkpt>
      <trkpt lat="45.93281" lon="4.72596">
        <ele>170</ele>
        <time>2017-06-03T09:55:30Z</time>
      </trkpt>
      <trkpt lat="45.93277" lon="4.726">
        <ele>170</ele>
        <time>2017-06-03T09:55:31Z</time>
      </trkpt>
      <trkpt lat="45.93273" lon="4.72605">
        <ele>170</ele>
        <time>2017-06-03T09:55:32Z</time>
      </trkpt>
      <trkpt lat="45.9327" lon="4.72609">
        <ele>170</ele>
        <time>2017-06-03T09:55:33Z</time>
      </trkpt>
      <trkpt lat="45.93266" lon="4.72613">
        <ele>170</ele>
        <time>2017-06-03T09:55:34Z</time>
      </trkpt>
      <trkpt lat="45.93263" lon="4.72617">
        <ele>170</ele>
        <time>2017-06-03T09:55:35Z</time>
      </trkpt>
      <trkpt lat="45.93259" lon="4.72622">
        <ele>170</ele>
        <time>2017-06-03T09:55:36Z</time>
      </trkpt>
      <trkpt lat="45.93256" lon="4.72626">
        <ele>170</ele>
        <time>2017-06-03T09:55:37Z</time>
      </trkpt>
      <trkpt lat="45.93252" lon="4.72631">
        <ele>170</ele>
        <time>2017-06-03T09:55:38Z</time>
      </trkpt>
      <trkpt lat="45.93247" lon="4.72635">
        <ele>170</ele>
        <time>2017-06-03T09:55:39Z</time>
      </trkpt>
      <trkpt lat="45.93243" lon="4.72639">
        <ele>170</ele>
        <time>2017-06-03T09:55:40Z</time>
      </trkpt>
      <trkpt lat="45.9324" lon="4.72643">
        <ele>170</ele>
        <time>2017-06-03T09:55:41Z</time>
      </trkpt>
      <trkpt lat="45.93236" lon="4.72648">
        <ele>170</ele>
        <time>2017-06-03T09:55:42Z</time>
      </trkpt>
      <trkpt lat="45.93232" lon="4.72652">
        <ele>170</ele>
        <time>2017-06-03T09:55:43Z</time>
      </trkpt>
      <trkpt lat="45.93228" lon="4.72657">
        <ele>170</ele>
        <time>2017-06-03T09:55:44Z</time>
      </trkpt>
      <trkpt lat="45.93225" lon="4.72662">
        <ele>170</ele>
        <time>2017-06-03T09:55:45Z</time>
      </trkpt>
      <trkpt lat="45.93221" lon="4.72667">
        <ele>170</ele>
        <time>2017-06-03T09:55:46Z</time>
      </trkpt>
      <trkpt lat="45.93216" lon="4.72671">
        <ele>169</ele>
        <time>2017-06-03T09:55:47Z</time>
      </trkpt>
      <trkpt lat="45.93212" lon="4.72676">
        <ele>169</ele>
        <time>2017-06-03T09:55:48Z</time>
      </trkpt>
      <trkpt lat="45.93208" lon="4.72681">
        <ele>169</ele>
        <time>2017-06-03T09:55:49Z</time>
      </trkpt>
      <trkpt lat="45.93204" lon="4.72685">
        <ele>169</ele>
        <time>2017-06-03T09:55:50Z</time>
      </trkpt>
      <trkpt lat="45.932" lon="4.7269">
        <ele>169</ele>
        <time>2017-06-03T09:55:51Z</time>
      </trkpt>
      <trkpt lat="45.93196" lon="4.72695">
        <ele>169</ele>
        <time>2017-06-03T09:55:52Z</time>
      </trkpt>
      <trkpt lat="45.93192" lon="4.72699">
        <ele>169</ele>
        <time>2017-06-03T09:55:53Z</time>
      </trkpt>
      <trkpt lat="45.93188" lon="4.72704">
        <ele>169</ele>
        <time>2017-06-03T09:55:54Z</time>
      </trkpt>
      <trkpt lat="45.93184" lon="4.72708">
        <ele>169</ele>
        <time>2017-06-03T09:55:55Z</time>
      </trkpt>
      <trkpt lat="45.9318" lon="4.72713">
        <ele>169</ele>
        <time>2017-06-03T09:55:56Z</time>
      </trkpt>
      <trkpt lat="45.93176" lon="4.72717">
        <ele>170</ele>
        <time>2017-06-03T09:55:57Z</time>
      </trkpt>
      <trkpt lat="45.93172" lon="4.72722">
        <ele>170</ele>
        <time>2017-06-03T09:55:58Z</time>
      </trkpt>
      <trkpt lat="45.93168" lon="4.72726">
        <ele>170</ele>
        <time>2017-06-03T09:55:59Z</time>
      </trkpt>
      <trkpt lat="45.93164" lon="4.72731">
        <ele>170</ele>
        <time>2017-06-03T09:56:00Z</time>
      </trkpt>
      <trkpt lat="45.93159" lon="4.72735">
        <ele>170</ele>
        <time>2017-06-03T09:56:01Z</time>
      </trkpt>
      <trkpt lat="45.93155" lon="4.7274">
        <ele>170</ele>
        <time>2017-06-03T09:56:02Z</time>
      </trkpt>
      <trkpt lat="45.9315" lon="4.72745">
        <ele>170</ele>
        <time>2017-06-03T09:56:03Z</time>
      </trkpt>
      <trkpt lat="45.93146" lon="4.72751">
        <ele>170</ele>
        <time>2017-06-03T09:56:04Z</time>
      </trkpt>
      <trkpt lat="45.93142" lon="4.72756">
        <ele>171</ele>
        <time>2017-06-03T09:56:05Z</time>
      </trkpt>
      <trkpt lat="45.93138" lon="4.7276">
        <ele>171</ele>
        <time>2017-06-03T09:56:06Z</time>
      </trkpt>
      <trkpt lat="45.93133" lon="4.72765">
        <ele>171</ele>
        <time>2017-06-03T09:56:07Z</time>
      </trkpt>
      <trkpt lat="45.9313" lon="4.7277">
        <ele>171</ele>
        <time>2017-06-03T09:56:08Z</time>
      </trkpt>
      <trkpt lat="45.93126" lon="4.72774">
        <ele>171</ele>
        <time>2017-06-03T09:56:09Z</time>
      </trkpt>
      <trkpt lat="45.93122" lon="4.72778">
        <ele>171</ele>
        <time>2017-06-03T09:56:10Z</time>
      </trkpt>
      <trkpt lat="45.93118" lon="4.72783">
        <ele>171</ele>
        <time>2017-06-03T09:56:11Z</time>
      </trkpt>
      <trkpt lat="45.93115" lon="4.72787">
        <ele>171</ele>
        <time>2017-06-03T09:56:12Z</time>
      </trkpt>
      <trkpt lat="45.93111" lon="4.72792">
        <ele>171</ele>
        <time>2017-06-03T09:56:13Z</time>
      </trkpt>
      <trkpt lat="45.93107" lon="4.72797">
        <ele>171</ele>
        <time>2017-06-03T09:56:14Z</time>
      </trkpt>
      <trkpt lat="45.93102" lon="4.72803">
        <ele>171</ele>
        <time>2017-06-03T09:56:15Z</time>
      </trkpt>
      <trkpt lat="45.93098" lon="4.72808">
        <ele>172</ele>
        <time>2017-06-03T09:56:16Z</time>
      </trkpt>
      <trkpt lat="45.93093" lon="4.72813">
        <ele>172</ele>
        <time>2017-06-03T09:56:17Z</time>
      </trkpt>
      <trkpt lat="45.93088" lon="4.72818">
        <ele>172</ele>
        <time>2017-06-03T09:56:18Z</time>
      </trkpt>
      <trkpt lat="45.93083" lon="4.72823">
        <ele>173</ele>
        <time>2017-06-03T09:56:19Z</time>
      </trkpt>
      <trkpt lat="45.93078" lon="4.72827">
        <ele>173</ele>
        <time>2017-06-03T09:56:20Z</time>
      </trkpt>
      <trkpt lat="45.93074" lon="4.72832">
        <ele>173</ele>
        <time>2017-06-03T09:56:21Z</time>
      </trkpt>
      <trkpt lat="45.9307" lon="4.72836">
        <ele>173</ele>
        <time>2017-06-03T09:56:22Z</time>
      </trkpt>
      <trkpt lat="45.93065" lon="4.72839">
        <ele>173</ele>
        <time>2017-06-03T09:56:23Z</time>
      </trkpt>
      <trkpt lat="45.93062" lon="4.72846">
        <ele>172</ele>
        <time>2017-06-03T09:56:24Z</time>
      </trkpt>
      <trkpt lat="45.93058" lon="4.72852">
        <ele>172</ele>
        <time>2017-06-03T09:56:25Z</time>
      </trkpt>
      <trkpt lat="45.93056" lon="4.72858">
        <ele>172</ele>
        <time>2017-06-03T09:56:26Z</time>
      </trkpt>
      <trkpt lat="45.93051" lon="4.72862">
        <ele>172</ele>
        <time>2017-06-03T09:56:27Z</time>
      </trkpt>
      <trkpt lat="45.93046" lon="4.72867">
        <ele>172</ele>
        <time>2017-06-03T09:56:28Z</time>
      </trkpt>
      <trkpt lat="45.93041" lon="4.72871">
        <ele>172</ele>
        <time>2017-06-03T09:56:29Z</time>
      </trkpt>
      <trkpt lat="45.93037" lon="4.72876">
        <ele>172</ele>
        <time>2017-06-03T09:56:30Z</time>
      </trkpt>
      <trkpt lat="45.93034" lon="4.7288">
        <ele>172</ele>
        <time>2017-06-03T09:56:31Z</time>
      </trkpt>
      <trkpt lat="45.93028" lon="4.72888">
        <ele>172</ele>
        <time>2017-06-03T09:56:33Z</time>
      </trkpt>
      <trkpt lat="45.93024" lon="4.72893">
        <ele>172</ele>
        <time>2017-06-03T09:56:34Z</time>
      </trkpt>
      <trkpt lat="45.93019" lon="4.72897">
        <ele>172</ele>
        <time>2017-06-03T09:56:35Z</time>
      </trkpt>
      <trkpt lat="45.93015" lon="4.72901">
        <ele>172</ele>
        <time>2017-06-03T09:56:36Z</time>
      </trkpt>
      <trkpt lat="45.93011" lon="4.72906">
        <ele>171</ele>
        <time>2017-06-03T09:56:37Z</time>
      </trkpt>
      <trkpt lat="45.93006" lon="4.72912">
        <ele>171</ele>
        <time>2017-06-03T09:56:38Z</time>
      </trkpt>
      <trkpt lat="45.93001" lon="4.72918">
        <ele>171</ele>
        <time>2017-06-03T09:56:39Z</time>
      </trkpt>
      <trkpt lat="45.92997" lon="4.72923">
        <ele>171</ele>
        <time>2017-06-03T09:56:40Z</time>
      </trkpt>
      <trkpt lat="45.92992" lon="4.72929">
        <ele>171</ele>
        <time>2017-06-03T09:56:41Z</time>
      </trkpt>
      <trkpt lat="45.92988" lon="4.72934">
        <ele>171</ele>
        <time>2017-06-03T09:56:42Z</time>
      </trkpt>
      <trkpt lat="45.92984" lon="4.72939">
        <ele>171</ele>
        <time>2017-06-03T09:56:43Z</time>
      </trkpt>
      <trkpt lat="45.9298" lon="4.72944">
        <ele>171</ele>
        <time>2017-06-03T09:56:44Z</time>
      </trkpt>
      <trkpt lat="45.92976" lon="4.72948">
        <ele>171</ele>
        <time>2017-06-03T09:56:45Z</time>
      </trkpt>
      <trkpt lat="45.92972" lon="4.72952">
        <ele>171</ele>
        <time>2017-06-03T09:56:46Z</time>
      </trkpt>
      <trkpt lat="45.92968" lon="4.72957">
        <ele>171</ele>
        <time>2017-06-03T09:56:47Z</time>
      </trkpt>
      <trkpt lat="45.92965" lon="4.72961">
        <ele>171</ele>
        <time>2017-06-03T09:56:48Z</time>
      </trkpt>
      <trkpt lat="45.92958" lon="4.72969">
        <ele>171</ele>
        <time>2017-06-03T09:56:50Z</time>
      </trkpt>
      <trkpt lat="45.92955" lon="4.72974">
        <ele>171</ele>
        <time>2017-06-03T09:56:51Z</time>
      </trkpt>
      <trkpt lat="45.92951" lon="4.72978">
        <ele>171</ele>
        <time>2017-06-03T09:56:52Z</time>
      </trkpt>
      <trkpt lat="45.92947" lon="4.72983">
        <ele>171</ele>
        <time>2017-06-03T09:56:53Z</time>
      </trkpt>
      <trkpt lat="45.92943" lon="4.72987">
        <ele>171</ele>
        <time>2017-06-03T09:56:54Z</time>
      </trkpt>
      <trkpt lat="45.92939" lon="4.72992">
        <ele>171</ele>
        <time>2017-06-03T09:56:55Z</time>
      </trkpt>
      <trkpt lat="45.92935" lon="4.72996">
        <ele>172</ele>
        <time>2017-06-03T09:56:56Z</time>
      </trkpt>
      <trkpt lat="45.92931" lon="4.73002">
        <ele>172</ele>
        <time>2017-06-03T09:56:57Z</time>
      </trkpt>
      <trkpt lat="45.92927" lon="4.73007">
        <ele>172</ele>
        <time>2017-06-03T09:56:58Z</time>
      </trkpt>
      <trkpt lat="45.92923" lon="4.73011">
        <ele>172</ele>
        <time>2017-06-03T09:56:59Z</time>
      </trkpt>
      <trkpt lat="45.9292" lon="4.73016">
        <ele>172</ele>
        <time>2017-06-03T09:57:00Z</time>
      </trkpt>
      <trkpt lat="45.92917" lon="4.7302">
        <ele>172</ele>
        <time>2017-06-03T09:57:01Z</time>
      </trkpt>
      <trkpt lat="45.9291" lon="4.73028">
        <ele>172</ele>
        <time>2017-06-03T09:57:03Z</time>
      </trkpt>
      <trkpt lat="45.92907" lon="4.73033">
        <ele>172</ele>
        <time>2017-06-03T09:57:04Z</time>
      </trkpt>
      <trkpt lat="45.92903" lon="4.73038">
        <ele>172</ele>
        <time>2017-06-03T09:57:05Z</time>
      </trkpt>
      <trkpt lat="45.929" lon="4.73043">
        <ele>172</ele>
        <time>2017-06-03T09:57:06Z</time>
      </trkpt>
      <trkpt lat="45.92897" lon="4.73048">
        <ele>172</ele>
        <time>2017-06-03T09:57:07Z</time>
      </trkpt>
      <trkpt lat="45.92893" lon="4.73053">
        <ele>172</ele>
        <time>2017-06-03T09:57:08Z</time>
      </trkpt>
      <trkpt lat="45.9289" lon="4.73059">
        <ele>172</ele>
        <time>2017-06-03T09:57:09Z</time>
      </trkpt>
      <trkpt lat="45.92886" lon="4.73064">
        <ele>172</ele>
        <time>2017-06-03T09:57:10Z</time>
      </trkpt>
      <trkpt lat="45.92883" lon="4.73069">
        <ele>172</ele>
        <time>2017-06-03T09:57:11Z</time>
      </trkpt>
      <trkpt lat="45.92879" lon="4.73074">
        <ele>172</ele>
        <time>2017-06-03T09:57:12Z</time>
      </trkpt>
      <trkpt lat="45.92876" lon="4.73079">
        <ele>172</ele>
        <time>2017-06-03T09:57:13Z</time>
      </trkpt>
      <trkpt lat="45.92872" lon="4.73084">
        <ele>172</ele>
        <time>2017-06-03T09:57:14Z</time>
      </trkpt>
      <trkpt lat="45.92869" lon="4.73089">
        <ele>172</ele>
        <time>2017-06-03T09:57:15Z</time>
      </trkpt>
      <trkpt lat="45.92865" lon="4.73094">
        <ele>171</ele>
        <time>2017-06-03T09:57:16Z</time>
      </trkpt>
      <trkpt lat="45.92861" lon="4.73099">
        <ele>171</ele>
        <time>2017-06-03T09:57:17Z</time>
      </trkpt>
      <trkpt lat="45.92857" lon="4.73103">
        <ele>171</ele>
        <time>2017-06-03T09:57:18Z</time>
      </trkpt>
      <trkpt lat="45.9285" lon="4.73103">
        <ele>171</ele>
        <time>2017-06-03T09:57:20Z</time>
      </trkpt>
      <trkpt lat="45.92848" lon="4.731">
        <ele>171</ele>
        <time>2017-06-03T09:57:21Z</time>
      </trkpt>
      <trkpt lat="45.92846" lon="4.7309">
        <ele>171</ele>
        <time>2017-06-03T09:57:23Z</time>
      </trkpt>
      <trkpt lat="45.92845" lon="4.73083">
        <ele>171</ele>
        <time>2017-06-03T09:57:24Z</time>
      </trkpt>
      <trkpt lat="45.92844" lon="4.73076">
        <ele>171</ele>
        <time>2017-06-03T09:57:25Z</time>
      </trkpt>
      <trkpt lat="45.92843" lon="4.73069">
        <ele>171</ele>
        <time>2017-06-03T09:57:26Z</time>
      </trkpt>
      <trkpt lat="45.92842" lon="4.73062">
        <ele>171</ele>
        <time>2017-06-03T09:57:27Z</time>
      </trkpt>
      <trkpt lat="45.92841" lon="4.73054">
        <ele>171</ele>
        <time>2017-06-03T09:57:28Z</time>
      </trkpt>
      <trkpt lat="45.9284" lon="4.73046">
        <ele>171</ele>
        <time>2017-06-03T09:57:29Z</time>
      </trkpt>
      <trkpt lat="45.92838" lon="4.73039">
        <ele>171</ele>
        <time>2017-06-03T09:57:30Z</time>
      </trkpt>
      <trkpt lat="45.92837" lon="4.73032">
        <ele>171</ele>
        <time>2017-06-03T09:57:31Z</time>
      </trkpt>
      <trkpt lat="45.92836" lon="4.73025">
        <ele>171</ele>
        <time>2017-06-03T09:57:32Z</time>
      </trkpt>
      <trkpt lat="45.92835" lon="4.73018">
        <ele>171</ele>
        <time>2017-06-03T09:57:33Z</time>
      </trkpt>
      <trkpt lat="45.92834" lon="4.73011">
        <ele>171</ele>
        <time>2017-06-03T09:57:34Z</time>
      </trkpt>
      <trkpt lat="45.92833" lon="4.73005">
        <ele>170</ele>
        <time>2017-06-03T09:57:35Z</time>
      </trkpt>
      <trkpt lat="45.92832" lon="4.72998">
        <ele>170</ele>
        <time>2017-06-03T09:57:36Z</time>
      </trkpt>
      <trkpt lat="45.92831" lon="4.72985">
        <ele>170</ele>
        <time>2017-06-03T09:57:38Z</time>
      </trkpt>
      <trkpt lat="45.9283" lon="4.72979">
        <ele>170</ele>
        <time>2017-06-03T09:57:39Z</time>
      </trkpt>
      <trkpt lat="45.9283" lon="4.72971">
        <ele>170</ele>
        <time>2017-06-03T09:57:40Z</time>
      </trkpt>
      <trkpt lat="45.92829" lon="4.72964">
        <ele>170</ele>
        <time>2017-06-03T09:57:41Z</time>
      </trkpt>
      <trkpt lat="45.92828" lon="4.72956">
        <ele>170</ele>
        <time>2017-06-03T09:57:42Z</time>
      </trkpt>
      <trkpt lat="45.92827" lon="4.72948">
        <ele>170</ele>
        <time>2017-06-03T09:57:43Z</time>
      </trkpt>
      <trkpt lat="45.92826" lon="4.7294">
        <ele>170</ele>
        <time>2017-06-03T09:57:44Z</time>
      </trkpt>
      <trkpt lat="45.92826" lon="4.72932">
        <ele>170</ele>
        <time>2017-06-03T09:57:45Z</time>
      </trkpt>
      <trkpt lat="45.92825" lon="4.72924">
        <ele>170</ele>
        <time>2017-06-03T09:57:46Z</time>
      </trkpt>
      <trkpt lat="45.92824" lon="4.72917">
        <ele>170</ele>
        <time>2017-06-03T09:57:47Z</time>
      </trkpt>
      <trkpt lat="45.92823" lon="4.7291">
        <ele>170</ele>
        <time>2017-06-03T09:57:48Z</time>
      </trkpt>
      <trkpt lat="45.92822" lon="4.72903">
        <ele>170</ele>
        <time>2017-06-03T09:57:49Z</time>
      </trkpt>
      <trkpt lat="45.92822" lon="4.72896">
        <ele>170</ele>
        <time>2017-06-03T09:57:50Z</time>
      </trkpt>
      <trkpt lat="45.92821" lon="4.72889">
        <ele>170</ele>
        <time>2017-06-03T09:57:51Z</time>
      </trkpt>
      <trkpt lat="45.92819" lon="4.72882">
        <ele>170</ele>
        <time>2017-06-03T09:57:52Z</time>
      </trkpt>
      <trkpt lat="45.92818" lon="4.72876">
        <ele>170</ele>
        <time>2017-06-03T09:57:53Z</time>
      </trkpt>
      <trkpt lat="45.92817" lon="4.72869">
        <ele>170</ele>
        <time>2017-06-03T09:57:54Z</time>
      </trkpt>
      <trkpt lat="45.92816" lon="4.72863">
        <ele>170</ele>
        <time>2017-06-03T09:57:55Z</time>
      </trkpt>
      <trkpt lat="45.92814" lon="4.72855">
        <ele>170</ele>
        <time>2017-06-03T09:57:56Z</time>
      </trkpt>
      <trkpt lat="45.92813" lon="4.72848">
        <ele>170</ele>
        <time>2017-06-03T09:57:57Z</time>
      </trkpt>
      <trkpt lat="45.92812" lon="4.72841">
        <ele>170</ele>
        <time>2017-06-03T09:57:58Z</time>
      </trkpt>
      <trkpt lat="45.92811" lon="4.72834">
        <ele>170</ele>
        <time>2017-06-03T09:57:59Z</time>
      </trkpt>
      <trkpt lat="45.9281" lon="4.72827">
        <ele>171</ele>
        <time>2017-06-03T09:58:00Z</time>
      </trkpt>
      <trkpt lat="45.92808" lon="4.72821">
        <ele>171</ele>
        <time>2017-06-03T09:58:01Z</time>
      </trkpt>
      <trkpt lat="45.92807" lon="4.72814">
        <ele>171</ele>
        <time>2017-06-03T09:58:02Z</time>
      </trkpt>
      <trkpt lat="45.92807" lon="4.72808">
        <ele>171</ele>
        <time>2017-06-03T09:58:03Z</time>
      </trkpt>
      <trkpt lat="45.92805" lon="4.72796">
        <ele>171</ele>
        <time>2017-06-03T09:58:05Z</time>
      </trkpt>
      <trkpt lat="45.92803" lon="4.7279">
        <ele>171</ele>
        <time>2017-06-03T09:58:06Z</time>
      </trkpt>
      <trkpt lat="45.92795" lon="4.72787">
        <ele>171</ele>
        <time>2017-06-03T09:58:09Z</time>
      </trkpt>
      <trkpt lat="45.9279" lon="4.7279">
        <ele>171</ele>
        <time>2017-06-03T09:58:10Z</time>
      </trkpt>
      <trkpt lat="45.92786" lon="4.72793">
        <ele>170</ele>
        <time>2017-06-03T09:58:11Z</time>
      </trkpt>
      <trkpt lat="45.92781" lon="4.72797">
        <ele>170</ele>
        <time>2017-06-03T09:58:12Z</time>
      </trkpt>
      <trkpt lat="45.92777" lon="4.72801">
        <ele>170</ele>
        <time>2017-06-03T09:58:13Z</time>
      </trkpt>
      <trkpt lat="45.92773" lon="4.72805">
        <ele>170</ele>
        <time>2017-06-03T09:58:14Z</time>
      </trkpt>
      <trkpt lat="45.92768" lon="4.72808">
        <ele>170</ele>
        <time>2017-06-03T09:58:15Z</time>
      </trkpt>
      <trkpt lat="45.92764" lon="4.72811">
        <ele>170</ele>
        <time>2017-06-03T09:58:16Z</time>
      </trkpt>
      <trkpt lat="45.9276" lon="4.72814">
        <ele>170</ele>
        <time>2017-06-03T09:58:17Z</time>
      </trkpt>
      <trkpt lat="45.92756" lon="4.72818">
        <ele>170</ele>
        <time>2017-06-03T09:58:18Z</time>
      </trkpt>
      <trkpt lat="45.92748" lon="4.72824">
        <ele>169</ele>
        <time>2017-06-03T09:58:20Z</time>
      </trkpt>
      <trkpt lat="45.92745" lon="4.72827">
        <ele>169</ele>
        <time>2017-06-03T09:58:21Z</time>
      </trkpt>
      <trkpt lat="45.92741" lon="4.7283">
        <ele>169</ele>
        <time>2017-06-03T09:58:22Z</time>
      </trkpt>
      <trkpt lat="45.92737" lon="4.72834">
        <ele>169</ele>
        <time>2017-06-03T09:58:23Z</time>
      </trkpt>
      <trkpt lat="45.92733" lon="4.72837">
        <ele>169</ele>
        <time>2017-06-03T09:58:24Z</time>
      </trkpt>
      <trkpt lat="45.92728" lon="4.7284">
        <ele>169</ele>
        <time>2017-06-03T09:58:25Z</time>
      </trkpt>
      <trkpt lat="45.92724" lon="4.72843">
        <ele>169</ele>
        <time>2017-06-03T09:58:26Z</time>
      </trkpt>
      <trkpt lat="45.92719" lon="4.72846">
        <ele>169</ele>
        <time>2017-06-03T09:58:27Z</time>
      </trkpt>
      <trkpt lat="45.92715" lon="4.72849">
        <ele>169</ele>
        <time>2017-06-03T09:58:28Z</time>
      </trkpt>
      <trkpt lat="45.9271" lon="4.72853">
        <ele>169</ele>
        <time>2017-06-03T09:58:29Z</time>
      </trkpt>
      <trkpt lat="45.92705" lon="4.72857">
        <ele>169</ele>
        <time>2017-06-03T09:58:30Z</time>
      </trkpt>
      <trkpt lat="45.927" lon="4.72861">
        <ele>169</ele>
        <time>2017-06-03T09:58:31Z</time>
      </trkpt>
      <trkpt lat="45.92695" lon="4.72865">
        <ele>169</ele>
        <time>2017-06-03T09:58:32Z</time>
      </trkpt>
      <trkpt lat="45.9269" lon="4.72869">
        <ele>169</ele>
        <time>2017-06-03T09:58:33Z</time>
      </trkpt>
      <trkpt lat="45.92685" lon="4.72874">
        <ele>169</ele>
        <time>2017-06-03T09:58:34Z</time>
      </trkpt>
      <trkpt lat="45.9268" lon="4.72879">
        <ele>170</ele>
        <time>2017-06-03T09:58:35Z</time>
      </trkpt>
      <trkpt lat="45.92674" lon="4.72884">
        <ele>170</ele>
        <time>2017-06-03T09:58:36Z</time>
      </trkpt>
      <trkpt lat="45.92668" lon="4.72888">
        <ele>170</ele>
        <time>2017-06-03T09:58:37Z</time>
      </trkpt>
      <trkpt lat="45.92662" lon="4.72893">
        <ele>170</ele>
        <time>2017-06-03T09:58:38Z</time>
      </trkpt>
      <trkpt lat="45.92656" lon="4.72898">
        <ele>170</ele>
        <time>2017-06-03T09:58:39Z</time>
      </trkpt>
      <trkpt lat="45.9265" lon="4.72903">
        <ele>170</ele>
        <time>2017-06-03T09:58:40Z</time>
      </trkpt>
      <trkpt lat="45.92644" lon="4.72907">
        <ele>170</ele>
        <time>2017-06-03T09:58:41Z</time>
      </trkpt>
      <trkpt lat="45.92638" lon="4.72912">
        <ele>169</ele>
        <time>2017-06-03T09:58:42Z</time>
      </trkpt>
      <trkpt lat="45.92633" lon="4.72915">
        <ele>169</ele>
        <time>2017-06-03T09:58:43Z</time>
      </trkpt>
      <trkpt lat="45.92627" lon="4.72919">
        <ele>170</ele>
        <time>2017-06-03T09:58:44Z</time>
      </trkpt>
      <trkpt lat="45.92622" lon="4.72923">
        <ele>169</ele>
        <time>2017-06-03T09:58:45Z</time>
      </trkpt>
      <trkpt lat="45.92617" lon="4.72928">
        <ele>169</ele>
        <time>2017-06-03T09:58:46Z</time>
      </trkpt>
      <trkpt lat="45.92613" lon="4.72932">
        <ele>169</ele>
        <time>2017-06-03T09:58:47Z</time>
      </trkpt>
      <trkpt lat="45.92608" lon="4.72937">
        <ele>169</ele>
        <time>2017-06-03T09:58:48Z</time>
      </trkpt>
      <trkpt lat="45.92604" lon="4.72942">
        <ele>169</ele>
        <time>2017-06-03T09:58:49Z</time>
      </trkpt>
      <trkpt lat="45.926" lon="4.72947">
        <ele>169</ele>
        <time>2017-06-03T09:58:50Z</time>
      </trkpt>
      <trkpt lat="45.92595" lon="4.72951">
        <ele>169</ele>
        <time>2017-06-03T09:58:51Z</time>
      </trkpt>
      <trkpt lat="45.92591" lon="4.72956">
        <ele>169</ele>
        <time>2017-06-03T09:58:52Z</time>
      </trkpt>
      <trkpt lat="45.92587" lon="4.7296">
        <ele>169</ele>
        <time>2017-06-03T09:58:53Z</time>
      </trkpt>
      <trkpt lat="45.92583" lon="4.72965">
        <ele>169</ele>
        <time>2017-06-03T09:58:54Z</time>
      </trkpt>
      <trkpt lat="45.92579" lon="4.7297">
        <ele>169</ele>
        <time>2017-06-03T09:58:55Z</time>
      </trkpt>
      <trkpt lat="45.92575" lon="4.72976">
        <ele>169</ele>
        <time>2017-06-03T09:58:56Z</time>
      </trkpt>
      <trkpt lat="45.9257" lon="4.72981">
        <ele>169</ele>
        <time>2017-06-03T09:58:57Z</time>
      </trkpt>
      <trkpt lat="45.92565" lon="4.72986">
        <ele>169</ele>
        <time>2017-06-03T09:58:58Z</time>
      </trkpt>
      <trkpt lat="45.92559" lon="4.72991">
        <ele>169</ele>
        <time>2017-06-03T09:58:59Z</time>
      </trkpt>
      <trkpt lat="45.92554" lon="4.72996">
        <ele>169</ele>
        <time>2017-06-03T09:59:00Z</time>
      </trkpt>
      <trkpt lat="45.92548" lon="4.73002">
        <ele>169</ele>
        <time>2017-06-03T09:59:01Z</time>
      </trkpt>
      <trkpt lat="45.92542" lon="4.73007">
        <ele>169</ele>
        <time>2017-06-03T09:59:02Z</time>
      </trkpt>
      <trkpt lat="45.92537" lon="4.73012">
        <ele>169</ele>
        <time>2017-06-03T09:59:03Z</time>
      </trkpt>
      <trkpt lat="45.92532" lon="4.73016">
        <ele>169</ele>
        <time>2017-06-03T09:59:04Z</time>
      </trkpt>
      <trkpt lat="45.92527" lon="4.73021">
        <ele>169</ele>
        <time>2017-06-03T09:59:05Z</time>
      </trkpt>
      <trkpt lat="45.92522" lon="4.73025">
        <ele>169</ele>
        <time>2017-06-03T09:59:06Z</time>
      </trkpt>
      <trkpt lat="45.92517" lon="4.7303">
        <ele>169</ele>
        <time>2017-06-03T09:59:07Z</time>
      </trkpt>
      <trkpt lat="45.92513" lon="4.73034">
        <ele>169</ele>
        <time>2017-06-03T09:59:08Z</time>
      </trkpt>
      <trkpt lat="45.92508" lon="4.73038">
        <ele>169</ele>
        <time>2017-06-03T09:59:09Z</time>
      </trkpt>
      <trkpt lat="45.92504" lon="4.73042">
        <ele>170</ele>
        <time>2017-06-03T09:59:10Z</time>
      </trkpt>
      <trkpt lat="45.92499" lon="4.73046">
        <ele>170</ele>
        <time>2017-06-03T09:59:11Z</time>
      </trkpt>
      <trkpt lat="45.92495" lon="4.7305">
        <ele>170</ele>
        <time>2017-06-03T09:59:12Z</time>
      </trkpt>
      <trkpt lat="45.92491" lon="4.73053">
        <ele>170</ele>
        <time>2017-06-03T09:59:13Z</time>
      </trkpt>
      <trkpt lat="45.92486" lon="4.73056">
        <ele>170</ele>
        <time>2017-06-03T09:59:14Z</time>
      </trkpt>
      <trkpt lat="45.92482" lon="4.7306">
        <ele>170</ele>
        <time>2017-06-03T09:59:15Z</time>
      </trkpt>
      <trkpt lat="45.92478" lon="4.73064">
        <ele>170</ele>
        <time>2017-06-03T09:59:16Z</time>
      </trkpt>
      <trkpt lat="45.92474" lon="4.73067">
        <ele>170</ele>
        <time>2017-06-03T09:59:17Z</time>
      </trkpt>
      <trkpt lat="45.9247" lon="4.73071">
        <ele>170</ele>
        <time>2017-06-03T09:59:18Z</time>
      </trkpt>
      <trkpt lat="45.92466" lon="4.73074">
        <ele>170</ele>
        <time>2017-06-03T09:59:19Z</time>
      </trkpt>
      <trkpt lat="45.92458" lon="4.73081">
        <ele>170</ele>
        <time>2017-06-03T09:59:21Z</time>
      </trkpt>
      <trkpt lat="45.92454" lon="4.73084">
        <ele>170</ele>
        <time>2017-06-03T09:59:22Z</time>
      </trkpt>
      <trkpt lat="45.92447" lon="4.73091">
        <ele>170</ele>
        <time>2017-06-03T09:59:24Z</time>
      </trkpt>
      <trkpt lat="45.92443" lon="4.73095">
        <ele>170</ele>
        <time>2017-06-03T09:59:25Z</time>
      </trkpt>
      <trkpt lat="45.92438" lon="4.73099">
        <ele>170</ele>
        <time>2017-06-03T09:59:26Z</time>
      </trkpt>
      <trkpt lat="45.92433" lon="4.73102">
        <ele>170</ele>
        <time>2017-06-03T09:59:27Z</time>
      </trkpt>
      <trkpt lat="45.92428" lon="4.73106">
        <ele>170</ele>
        <time>2017-06-03T09:59:28Z</time>
      </trkpt>
      <trkpt lat="45.92423" lon="4.7311">
        <ele>170</ele>
        <time>2017-06-03T09:59:29Z</time>
      </trkpt>
      <trkpt lat="45.92419" lon="4.73115">
        <ele>170</ele>
        <time>2017-06-03T09:59:30Z</time>
      </trkpt>
      <trkpt lat="45.92414" lon="4.73119">
        <ele>171</ele>
        <time>2017-06-03T09:59:31Z</time>
      </trkpt>
      <trkpt lat="45.92411" lon="4.73125">
        <ele>171</ele>
        <time>2017-06-03T09:59:32Z</time>
      </trkpt>
      <trkpt lat="45.92409" lon="4.73131">
        <ele>171</ele>
        <time>2017-06-03T09:59:33Z</time>
      </trkpt>
      <trkpt lat="45.92408" lon="4.73138">
        <ele>171</ele>
        <time>2017-06-03T09:59:34Z</time>
      </trkpt>
      <trkpt lat="45.92408" lon="4.73146">
        <ele>171</ele>
        <time>2017-06-03T09:59:35Z</time>
      </trkpt>
      <trkpt lat="45.92407" lon="4.73153">
        <ele>171</ele>
        <time>2017-06-03T09:59:36Z</time>
      </trkpt>
      <trkpt lat="45.92407" lon="4.73159">
        <ele>170</ele>
        <time>2017-06-03T09:59:37Z</time>
      </trkpt>
      <trkpt lat="45.92407" lon="4.73166">
        <ele>170</ele>
        <time>2017-06-03T09:59:38Z</time>
      </trkpt>
      <trkpt lat="45.92407" lon="4.73172">
        <ele>170</ele>
        <time>2017-06-03T09:59:39Z</time>
      </trkpt>
      <trkpt lat="45.92407" lon="4.73185">
        <ele>171</ele>
        <time>2017-06-03T09:59:41Z</time>
      </trkpt>
      <trkpt lat="45.92407" lon="4.73191">
        <ele>171</ele>
        <time>2017-06-03T09:59:42Z</time>
      </trkpt>
      <trkpt lat="45.92408" lon="4.73203">
        <ele>171</ele>
        <time>2017-06-03T09:59:44Z</time>
      </trkpt>
      <trkpt lat="45.92408" lon="4.73209">
        <ele>171</ele>
        <time>2017-06-03T09:59:45Z</time>
      </trkpt>
      <trkpt lat="45.92408" lon="4.73216">
        <ele>171</ele>
        <time>2017-06-03T09:59:46Z</time>
      </trkpt>
      <trkpt lat="45.92408" lon="4.73224">
        <ele>171</ele>
        <time>2017-06-03T09:59:47Z</time>
      </trkpt>
      <trkpt lat="45.92409" lon="4.73232">
        <ele>171</ele>
        <time>2017-06-03T09:59:48Z</time>
      </trkpt>
      <trkpt lat="45.92409" lon="4.7324">
        <ele>171</ele>
        <time>2017-06-03T09:59:49Z</time>
      </trkpt>
      <trkpt lat="45.9241" lon="4.73248">
        <ele>171</ele>
        <time>2017-06-03T09:59:50Z</time>
      </trkpt>
      <trkpt lat="45.9241" lon="4.73256">
        <ele>171</ele>
        <time>2017-06-03T09:59:51Z</time>
      </trkpt>
      <trkpt lat="45.92411" lon="4.73265">
        <ele>171</ele>
        <time>2017-06-03T09:59:52Z</time>
      </trkpt>
      <trkpt lat="45.92411" lon="4.73273">
        <ele>171</ele>
        <time>2017-06-03T09:59:53Z</time>
      </trkpt>
      <trkpt lat="45.92412" lon="4.73282">
        <ele>171</ele>
        <time>2017-06-03T09:59:54Z</time>
      </trkpt>
      <trkpt lat="45.92412" lon="4.7329">
        <ele>171</ele>
        <time>2017-06-03T09:59:55Z</time>
      </trkpt>
      <trkpt lat="45.92413" lon="4.73298">
        <ele>171</ele>
        <time>2017-06-03T09:59:56Z</time>
      </trkpt>
      <trkpt lat="45.92413" lon="4.73305">
        <ele>171</ele>
        <time>2017-06-03T09:59:57Z</time>
      </trkpt>
      <trkpt lat="45.92414" lon="4.73313">
        <ele>171</ele>
        <time>2017-06-03T09:59:58Z</time>
      </trkpt>
      <trkpt lat="45.92414" lon="4.7332">
        <ele>171</ele>
        <time>2017-06-03T09:59:59Z</time>
      </trkpt>
      <trkpt lat="45.92415" lon="4.73327">
        <ele>171</ele>
        <time>2017-06-03T10:00:00Z</time>
      </trkpt>
      <trkpt lat="45.92415" lon="4.73334">
        <ele>171</ele>
        <time>2017-06-03T10:00:01Z</time>
      </trkpt>
      <trkpt lat="45.92417" lon="4.73346">
        <ele>171</ele>
        <time>2017-06-03T10:00:03Z</time>
      </trkpt>
      <trkpt lat="45.92418" lon="4.73352">
        <ele>171</ele>
        <time>2017-06-03T10:00:04Z</time>
      </trkpt>
      <trkpt lat="45.92419" lon="4.73364">
        <ele>172</ele>
        <time>2017-06-03T10:00:06Z</time>
      </trkpt>
      <trkpt lat="45.9242" lon="4.73369">
        <ele>172</ele>
        <time>2017-06-03T10:00:07Z</time>
      </trkpt>
      <trkpt lat="45.92421" lon="4.73381">
        <ele>172</ele>
        <time>2017-06-03T10:00:09Z</time>
      </trkpt>
      <trkpt lat="45.92422" lon="4.73386">
        <ele>172</ele>
        <time>2017-06-03T10:00:10Z</time>
      </trkpt>
      <trkpt lat="45.92425" lon="4.73398">
        <ele>172</ele>
        <time>2017-06-03T10:00:12Z</time>
      </trkpt>
      <trkpt lat="45.92427" lon="4.73405">
        <ele>172</ele>
        <time>2017-06-03T10:00:13Z</time>
      </trkpt>
      <trkpt lat="45.9243" lon="4.73411">
        <ele>172</ele>
        <time>2017-06-03T10:00:14Z</time>
      </trkpt>
      <trkpt lat="45.92433" lon="4.73416">
        <ele>172</ele>
        <time>2017-06-03T10:00:15Z</time>
      </trkpt>
      <trkpt lat="45.92438" lon="4.73421">
        <ele>173</ele>
        <time>2017-06-03T10:00:16Z</time>
      </trkpt>
      <trkpt lat="45.92443" lon="4.73424">
        <ele>173</ele>
        <time>2017-06-03T10:00:17Z</time>
      </trkpt>
      <trkpt lat="45.92448" lon="4.73427">
        <ele>173</ele>
        <time>2017-06-03T10:00:18Z</time>
      </trkpt>
      <trkpt lat="45.92452" lon="4.7343">
        <ele>173</ele>
        <time>2017-06-03T10:00:19Z</time>
      </trkpt>
      <trkpt lat="45.92456" lon="4.73435">
        <ele>173</ele>
        <time>2017-06-03T10:00:20Z</time>
      </trkpt>
      <trkpt lat="45.92459" lon="4.7344">
        <ele>173</ele>
        <time>2017-06-03T10:00:21Z</time>
      </trkpt>
      <trkpt lat="45.92462" lon="4.73445">
        <ele>173</ele>
        <time>2017-06-03T10:00:22Z</time>
      </trkpt>
      <trkpt lat="45.92464" lon="4.73452">
        <ele>173</ele>
        <time>2017-06-03T10:00:23Z</time>
      </trkpt>
      <trkpt lat="45.92465" lon="4.73458">
        <ele>173</ele>
        <time>2017-06-03T10:00:24Z</time>
      </trkpt>
      <trkpt lat="45.92466" lon="4.73464">
        <ele>173</ele>
        <time>2017-06-03T10:00:25Z</time>
      </trkpt>
      <trkpt lat="45.92466" lon="4.73477">
        <ele>173</ele>
        <time>2017-06-03T10:00:27Z</time>
      </trkpt>
      <trkpt lat="45.92466" lon="4.73483">
        <ele>173</ele>
        <time>2017-06-03T10:00:28Z</time>
      </trkpt>
      <trkpt lat="45.92465" lon="4.73495">
        <ele>173</ele>
        <time>2017-06-03T10:00:30Z</time>
      </trkpt>
      <trkpt lat="45.92466" lon="4.735">
        <ele>174</ele>
        <time>2017-06-03T10:00:31Z</time>
      </trkpt>
      <trkpt lat="45.92466" lon="4.7351">
        <ele>174</ele>
        <time>2017-06-03T10:00:33Z</time>
      </trkpt>
      <trkpt lat="45.92465" lon="4.73516">
        <ele>174</ele>
        <time>2017-06-03T10:00:34Z</time>
      </trkpt>
      <trkpt lat="45.92465" lon="4.73528">
        <ele>174</ele>
        <time>2017-06-03T10:00:36Z</time>
      </trkpt>
      <trkpt lat="45.92466" lon="4.73534">
        <ele>174</ele>
        <time>2017-06-03T10:00:37Z</time>
      </trkpt>
      <trkpt lat="45.92466" lon="4.73547">
        <ele>173</ele>
        <time>2017-06-03T10:00:39Z</time>
      </trkpt>
      <trkpt lat="45.92465" lon="4.73553">
        <ele>173</ele>
        <time>2017-06-03T10:00:40Z</time>
      </trkpt>
      <trkpt lat="45.92465" lon="4.7356">
        <ele>173</ele>
        <time>2017-06-03T10:00:41Z</time>
      </trkpt>
      <trkpt lat="45.92465" lon="4.73567">
        <ele>173</ele>
        <time>2017-06-03T10:00:42Z</time>
      </trkpt>
      <trkpt lat="45.92466" lon="4.73575">
        <ele>173</ele>
        <time>2017-06-03T10:00:43Z</time>
      </trkpt>
      <trkpt lat="45.92467" lon="4.73582">
        <ele>173</ele>
        <time>2017-06-03T10:00:44Z</time>
      </trkpt>
      <trkpt lat="45.92467" lon="4.7359">
        <ele>174</ele>
        <time>2017-06-03T10:00:45Z</time>
      </trkpt>
      <trkpt lat="45.92468" lon="4.73599">
        <ele>174</ele>
        <time>2017-06-03T10:00:46Z</time>
      </trkpt>
      <trkpt lat="45.92468" lon="4.73607">
        <ele>174</ele>
        <time>2017-06-03T10:00:47Z</time>
      </trkpt>
      <trkpt lat="45.92469" lon="4.73615">
        <ele>174</ele>
        <time>2017-06-03T10:00:48Z</time>
      </trkpt>
      <trkpt lat="45.9247" lon="4.73622">
        <ele>174</ele>
        <time>2017-06-03T10:00:49Z</time>
      </trkpt>
      <trkpt lat="45.9247" lon="4.7363">
        <ele>174</ele>
        <time>2017-06-03T10:00:50Z</time>
      </trkpt>
      <trkpt lat="45.9247" lon="4.73638">
        <ele>174</ele>
        <time>2017-06-03T10:00:51Z</time>
      </trkpt>
      <trkpt lat="45.9247" lon="4.73645">
        <ele>174</ele>
        <time>2017-06-03T10:00:52Z</time>
      </trkpt>
      <trkpt lat="45.9247" lon="4.73653">
        <ele>174</ele>
        <time>2017-06-03T10:00:53Z</time>
      </trkpt>
      <trkpt lat="45.9247" lon="4.73659">
        <ele>174</ele>
        <time>2017-06-03T10:00:54Z</time>
      </trkpt>
      <trkpt lat="45.9247" lon="4.73666">
        <ele>174</ele>
        <time>2017-06-03T10:00:55Z</time>
      </trkpt>
      <trkpt lat="45.92469" lon="4.73673">
        <ele>174</ele>
        <time>2017-06-03T10:00:56Z</time>
      </trkpt>
      <trkpt lat="45.92468" lon="4.73685">
        <ele>174</ele>
        <time>2017-06-03T10:00:58Z</time>
      </trkpt>
      <trkpt lat="45.92467" lon="4.73692">
        <ele>174</ele>
        <time>2017-06-03T10:00:59Z</time>
      </trkpt>
      <trkpt lat="45.92467" lon="4.73703">
        <ele>174</ele>
        <time>2017-06-03T10:01:01Z</time>
      </trkpt>
      <trkpt lat="45.92466" lon="4.73708">
        <ele>174</ele>
        <time>2017-06-03T10:01:02Z</time>
      </trkpt>
      <trkpt lat="45.92466" lon="4.73711">
        <ele>174</ele>
        <time>2017-06-03T10:01:11Z</time>
      </trkpt>
      <trkpt lat="45.92466" lon="4.73712">
        <ele>174</ele>
        <time>2017-06-03T10:01:12Z</time>
      </trkpt>
      <trkpt lat="45.92465" lon="4.73712">
        <ele>174</ele>
        <time>2017-06-03T10:01:41.454Z</time>
      </trkpt>
    </trkseg>
  </trk>
</gpx>